<?xml version="1.0" encoding="UTF-8" standalone="no" ?>
<gpx xmlns="http://www.topografix.com/GPX/1/1" xmlns:xsi="http://www.w3.org/2001/XMLSchema-instance" xsi:schemaLocation="http://www.topografix.com/GPX/1/1 http://www.topografix.com/GPX/1/1/gpx.xsd" version="1.1" creator="VisuGPX - https://www.visugpx.com">
  <metadata>
    <name>Road trip fait P/E</name>
  </metadata>
  <trk>
    <name><![CDATA[Road trip fait P/E_12]]></name>
    <extensions>
      <line xmlns="http://www.topografix.com/GPX/gpx_style/0/2">
        <color>00FF00</color>
        <width>4</width>
      </line>
    </extensions>
    <trkseg>
      <trkpt lat="36.84167" lon="-2.46627">
        <ele>27.59946</ele>
        <time>2021-07-19T08:50:00Z</time>
      </trkpt>
      <trkpt lat="36.84167" lon="-2.46627">
        <ele>27.59946</ele>
        <time>2021-07-19T08:50:00Z</time>
      </trkpt>
      <trkpt lat="36.84165" lon="-2.46631">
        <ele>28.02345</ele>
        <time>2021-07-19T08:50:23Z</time>
      </trkpt>
      <trkpt lat="36.84164" lon="-2.46631">
        <ele>28.06648</ele>
        <time>2021-07-19T08:51:23Z</time>
      </trkpt>
      <trkpt lat="36.84164" lon="-2.46631">
        <ele>28.06648</ele>
        <time>2021-07-19T08:52:23Z</time>
      </trkpt>
      <trkpt lat="36.8416" lon="-2.4663">
        <ele>28.25891</ele>
        <time>2021-07-19T08:52:44Z</time>
      </trkpt>
      <trkpt lat="36.84161" lon="-2.46625">
        <ele>28.01224</ele>
        <time>2021-07-19T08:53:23Z</time>
      </trkpt>
      <trkpt lat="36.84164" lon="-2.46629">
        <ele>27.76394</ele>
        <time>2021-07-19T08:53:36Z</time>
      </trkpt>
      <trkpt lat="36.84162" lon="-2.46625">
        <ele>28.05966</ele>
        <time>2021-07-19T08:54:27Z</time>
      </trkpt>
      <trkpt lat="36.84159" lon="-2.4663">
        <ele>28.28702</ele>
        <time>2021-07-19T08:54:38Z</time>
      </trkpt>
      <trkpt lat="36.84154" lon="-2.46632">
        <ele>28.16255</ele>
        <time>2021-07-19T08:54:52Z</time>
      </trkpt>
      <trkpt lat="36.84157" lon="-2.46629">
        <ele>28.50854</ele>
        <time>2021-07-19T08:55:11Z</time>
      </trkpt>
      <trkpt lat="36.8416" lon="-2.46632">
        <ele>29.42611</ele>
        <time>2021-07-19T08:55:30Z</time>
      </trkpt>
      <trkpt lat="36.84165" lon="-2.4663">
        <ele>28.60957</ele>
        <time>2021-07-19T08:55:41Z</time>
      </trkpt>
      <trkpt lat="36.84164" lon="-2.46625">
        <ele>28.75764</ele>
        <time>2021-07-19T08:56:30Z</time>
      </trkpt>
      <trkpt lat="36.84161" lon="-2.46627">
        <ele>27.79805</ele>
        <time>2021-07-19T08:56:50Z</time>
      </trkpt>
      <trkpt lat="36.84154" lon="-2.46629">
        <ele>27.45137</ele>
        <time>2021-07-19T08:57:27Z</time>
      </trkpt>
      <trkpt lat="36.84103" lon="-2.46674">
        <ele>28.88496</ele>
        <time>2021-07-19T08:57:38Z</time>
      </trkpt>
      <trkpt lat="36.84071" lon="-2.46665">
        <ele>25.77095</ele>
        <time>2021-07-19T08:57:49Z</time>
      </trkpt>
      <trkpt lat="36.84049" lon="-2.4665">
        <ele>23.06899</ele>
        <time>2021-07-19T08:58:00Z</time>
      </trkpt>
      <trkpt lat="36.84028" lon="-2.46611">
        <ele>21.0816</ele>
        <time>2021-07-19T08:58:11Z</time>
      </trkpt>
      <trkpt lat="36.84011" lon="-2.46591">
        <ele>22.29746</ele>
        <time>2021-07-19T08:58:22Z</time>
      </trkpt>
      <trkpt lat="36.83978" lon="-2.46573">
        <ele>19.00397</ele>
        <time>2021-07-19T08:58:33Z</time>
      </trkpt>
      <trkpt lat="36.83981" lon="-2.46534">
        <ele>19.52763</ele>
        <time>2021-07-19T08:58:44Z</time>
      </trkpt>
      <trkpt lat="36.83977" lon="-2.46507">
        <ele>20.34484</ele>
        <time>2021-07-19T08:58:55Z</time>
      </trkpt>
      <trkpt lat="36.8396" lon="-2.46456">
        <ele>18.40689</ele>
        <time>2021-07-19T08:59:06Z</time>
      </trkpt>
      <trkpt lat="36.83957" lon="-2.46421">
        <ele>19.95216</ele>
        <time>2021-07-19T08:59:17Z</time>
      </trkpt>
      <trkpt lat="36.83955" lon="-2.46418">
        <ele>20.18687</ele>
        <time>2021-07-19T08:59:30Z</time>
      </trkpt>
      <trkpt lat="36.83954" lon="-2.46398">
        <ele>18.32732</ele>
        <time>2021-07-19T08:59:41Z</time>
      </trkpt>
      <trkpt lat="36.83944" lon="-2.46363">
        <ele>19.0552</ele>
        <time>2021-07-19T08:59:52Z</time>
      </trkpt>
      <trkpt lat="36.8393" lon="-2.46352">
        <ele>17.96548</ele>
        <time>2021-07-19T09:00:03Z</time>
      </trkpt>
      <trkpt lat="36.83911" lon="-2.46346">
        <ele>16.5428</ele>
        <time>2021-07-19T09:00:14Z</time>
      </trkpt>
      <trkpt lat="36.839" lon="-2.46346">
        <ele>17.17015</ele>
        <time>2021-07-19T09:00:25Z</time>
      </trkpt>
      <trkpt lat="36.83864" lon="-2.4634">
        <ele>17.24006</ele>
        <time>2021-07-19T09:00:36Z</time>
      </trkpt>
      <trkpt lat="36.83834" lon="-2.46335">
        <ele>17.21669</ele>
        <time>2021-07-19T09:00:47Z</time>
      </trkpt>
      <trkpt lat="36.8379" lon="-2.46328">
        <ele>14.96459</ele>
        <time>2021-07-19T09:00:58Z</time>
      </trkpt>
      <trkpt lat="36.83726" lon="-2.46321">
        <ele>13.32274</ele>
        <time>2021-07-19T09:01:09Z</time>
      </trkpt>
      <trkpt lat="36.83659" lon="-2.46307">
        <ele>10.30671</ele>
        <time>2021-07-19T09:01:20Z</time>
      </trkpt>
      <trkpt lat="36.8359" lon="-2.46298">
        <ele>10.38416</ele>
        <time>2021-07-19T09:01:31Z</time>
      </trkpt>
      <trkpt lat="36.83563" lon="-2.46294">
        <ele>11</ele>
        <time>2021-07-19T09:01:42Z</time>
      </trkpt>
      <trkpt lat="36.83559" lon="-2.46292">
        <ele>11.73761</ele>
        <time>2021-07-19T09:01:53Z</time>
      </trkpt>
      <trkpt lat="36.83551" lon="-2.46289">
        <ele>11.90251</ele>
        <time>2021-07-19T09:02:27Z</time>
      </trkpt>
      <trkpt lat="36.83507" lon="-2.46239">
        <ele>8.004627</ele>
        <time>2021-07-19T09:02:38Z</time>
      </trkpt>
      <trkpt lat="36.83519" lon="-2.46222">
        <ele>8.871191</ele>
        <time>2021-07-19T09:02:53Z</time>
      </trkpt>
      <trkpt lat="36.83618" lon="-2.46153">
        <ele>11.80844</ele>
        <time>2021-07-19T09:03:04Z</time>
      </trkpt>
      <trkpt lat="36.83623" lon="-2.46151">
        <ele>11.43762</ele>
        <time>2021-07-19T09:03:15Z</time>
      </trkpt>
      <trkpt lat="36.83628" lon="-2.46148">
        <ele>11.27098</ele>
        <time>2021-07-19T09:03:26Z</time>
      </trkpt>
      <trkpt lat="36.83711" lon="-2.46091">
        <ele>11.96955</ele>
        <time>2021-07-19T09:03:37Z</time>
      </trkpt>
      <trkpt lat="36.83785" lon="-2.46042">
        <ele>14.39376</ele>
        <time>2021-07-19T09:03:48Z</time>
      </trkpt>
      <trkpt lat="36.83813" lon="-2.4602">
        <ele>15.73608</ele>
        <time>2021-07-19T09:03:59Z</time>
      </trkpt>
      <trkpt lat="36.83796" lon="-2.45976">
        <ele>17.0232</ele>
        <time>2021-07-19T09:04:10Z</time>
      </trkpt>
      <trkpt lat="36.83793" lon="-2.45967">
        <ele>17.695</ele>
        <time>2021-07-19T09:04:21Z</time>
      </trkpt>
      <trkpt lat="36.83789" lon="-2.45963">
        <ele>17.07931</ele>
        <time>2021-07-19T09:04:32Z</time>
      </trkpt>
      <trkpt lat="36.83789" lon="-2.45958">
        <ele>17.78148</ele>
        <time>2021-07-19T09:04:44Z</time>
      </trkpt>
      <trkpt lat="36.83769" lon="-2.45912">
        <ele>16.28564</ele>
        <time>2021-07-19T09:04:55Z</time>
      </trkpt>
      <trkpt lat="36.83723" lon="-2.45807">
        <ele>15.43269</ele>
        <time>2021-07-19T09:05:06Z</time>
      </trkpt>
      <trkpt lat="36.8368" lon="-2.45705">
        <ele>13.21332</ele>
        <time>2021-07-19T09:05:17Z</time>
      </trkpt>
      <trkpt lat="36.83665" lon="-2.45672">
        <ele>10.26218</ele>
        <time>2021-07-19T09:05:28Z</time>
      </trkpt>
      <trkpt lat="36.83651" lon="-2.45627">
        <ele>13.95304</ele>
        <time>2021-07-19T09:05:39Z</time>
      </trkpt>
      <trkpt lat="36.83739" lon="-2.45575">
        <ele>13.90569</ele>
        <time>2021-07-19T09:05:50Z</time>
      </trkpt>
      <trkpt lat="36.83852" lon="-2.4551">
        <ele>16.09802</ele>
        <time>2021-07-19T09:06:01Z</time>
      </trkpt>
      <trkpt lat="36.83971" lon="-2.45445">
        <ele>18.81158</ele>
        <time>2021-07-19T09:06:12Z</time>
      </trkpt>
      <trkpt lat="36.84089" lon="-2.45372">
        <ele>22.97841</ele>
        <time>2021-07-19T09:06:23Z</time>
      </trkpt>
      <trkpt lat="36.84199" lon="-2.45311">
        <ele>26.12307</ele>
        <time>2021-07-19T09:06:34Z</time>
      </trkpt>
      <trkpt lat="36.84326" lon="-2.45261">
        <ele>25.69861</ele>
        <time>2021-07-19T09:06:45Z</time>
      </trkpt>
      <trkpt lat="36.8444" lon="-2.45234">
        <ele>30.49497</ele>
        <time>2021-07-19T09:06:56Z</time>
      </trkpt>
      <trkpt lat="36.84533" lon="-2.45172">
        <ele>34.49458</ele>
        <time>2021-07-19T09:07:07Z</time>
      </trkpt>
      <trkpt lat="36.84555" lon="-2.45073">
        <ele>33.64564</ele>
        <time>2021-07-19T09:07:18Z</time>
      </trkpt>
      <trkpt lat="36.84558" lon="-2.45067">
        <ele>33.25928</ele>
        <time>2021-07-19T09:08:05Z</time>
      </trkpt>
      <trkpt lat="36.84574" lon="-2.44951">
        <ele>31.58058</ele>
        <time>2021-07-19T09:08:16Z</time>
      </trkpt>
      <trkpt lat="36.84578" lon="-2.44807">
        <ele>28.58691</ele>
        <time>2021-07-19T09:08:27Z</time>
      </trkpt>
      <trkpt lat="36.84575" lon="-2.44785">
        <ele>29.98196</ele>
        <time>2021-07-19T09:08:38Z</time>
      </trkpt>
      <trkpt lat="36.84574" lon="-2.44778">
        <ele>31.21702</ele>
        <time>2021-07-19T09:08:56Z</time>
      </trkpt>
      <trkpt lat="36.84555" lon="-2.44712">
        <ele>31.34984</ele>
        <time>2021-07-19T09:09:07Z</time>
      </trkpt>
      <trkpt lat="36.84607" lon="-2.44712">
        <ele>32.97657</ele>
        <time>2021-07-19T09:09:18Z</time>
      </trkpt>
      <trkpt lat="36.84636" lon="-2.4471">
        <ele>35.0286</ele>
        <time>2021-07-19T09:09:29Z</time>
      </trkpt>
      <trkpt lat="36.84638" lon="-2.44716">
        <ele>33.25845</ele>
        <time>2021-07-19T09:09:56Z</time>
      </trkpt>
      <trkpt lat="36.84644" lon="-2.44714">
        <ele>33.39326</ele>
        <time>2021-07-19T09:10:14Z</time>
      </trkpt>
      <trkpt lat="36.84722" lon="-2.44689">
        <ele>41.3922</ele>
        <time>2021-07-19T09:10:25Z</time>
      </trkpt>
      <trkpt lat="36.84808" lon="-2.44674">
        <ele>46.00574</ele>
        <time>2021-07-19T09:10:36Z</time>
      </trkpt>
      <trkpt lat="36.84856" lon="-2.44665">
        <ele>49.503</ele>
        <time>2021-07-19T09:10:47Z</time>
      </trkpt>
      <trkpt lat="36.84863" lon="-2.44667">
        <ele>50.38265</ele>
        <time>2021-07-19T09:10:58Z</time>
      </trkpt>
      <trkpt lat="36.84873" lon="-2.44658">
        <ele>51.19137</ele>
        <time>2021-07-19T09:11:09Z</time>
      </trkpt>
      <trkpt lat="36.84889" lon="-2.44682">
        <ele>52.25424</ele>
        <time>2021-07-19T09:11:20Z</time>
      </trkpt>
      <trkpt lat="36.84884" lon="-2.4473">
        <ele>52.1026</ele>
        <time>2021-07-19T09:11:31Z</time>
      </trkpt>
      <trkpt lat="36.84886" lon="-2.4475">
        <ele>52.59262</ele>
        <time>2021-07-19T09:11:42Z</time>
      </trkpt>
      <trkpt lat="36.84886" lon="-2.44748">
        <ele>52.8177</ele>
        <time>2021-07-19T09:12:40Z</time>
      </trkpt>
      <trkpt lat="36.84887" lon="-2.44752">
        <ele>52.52558</ele>
        <time>2021-07-19T09:13:18Z</time>
      </trkpt>
      <trkpt lat="36.84887" lon="-2.44757">
        <ele>54.28961</ele>
        <time>2021-07-19T09:13:36Z</time>
      </trkpt>
      <trkpt lat="36.84899" lon="-2.44761">
        <ele>53.46556</ele>
        <time>2021-07-19T09:13:47Z</time>
      </trkpt>
      <trkpt lat="36.84902" lon="-2.44764">
        <ele>54.1368</ele>
        <time>2021-07-19T09:13:58Z</time>
      </trkpt>
      <trkpt lat="36.84907" lon="-2.44762">
        <ele>54.38128</ele>
        <time>2021-07-19T09:14:14Z</time>
      </trkpt>
      <trkpt lat="36.84911" lon="-2.44761">
        <ele>54.40463</ele>
        <time>2021-07-19T09:14:27Z</time>
      </trkpt>
      <trkpt lat="36.84917" lon="-2.44761">
        <ele>54.66445</ele>
        <time>2021-07-19T09:14:38Z</time>
      </trkpt>
      <trkpt lat="36.84927" lon="-2.44752">
        <ele>55.24844</ele>
        <time>2021-07-19T09:14:49Z</time>
      </trkpt>
      <trkpt lat="36.84927" lon="-2.44744">
        <ele>54.99154</ele>
        <time>2021-07-19T09:15:00Z</time>
      </trkpt>
      <trkpt lat="36.84922" lon="-2.44744">
        <ele>54.56037</ele>
        <time>2021-07-19T09:15:15Z</time>
      </trkpt>
      <trkpt lat="36.84917" lon="-2.4474">
        <ele>54.61597</ele>
        <time>2021-07-19T09:16:02Z</time>
      </trkpt>
      <trkpt lat="36.84919" lon="-2.44745">
        <ele>53.6048</ele>
        <time>2021-07-19T09:16:30Z</time>
      </trkpt>
      <trkpt lat="36.84916" lon="-2.4475">
        <ele>54.89476</ele>
        <time>2021-07-19T09:16:41Z</time>
      </trkpt>
      <trkpt lat="36.84901" lon="-2.44754">
        <ele>53.99738</ele>
        <time>2021-07-19T09:16:52Z</time>
      </trkpt>
      <trkpt lat="36.84891" lon="-2.44744">
        <ele>51.95666</ele>
        <time>2021-07-19T09:17:03Z</time>
      </trkpt>
      <trkpt lat="36.84887" lon="-2.44746">
        <ele>53.02736</ele>
        <time>2021-07-19T09:17:14Z</time>
      </trkpt>
      <trkpt lat="36.84889" lon="-2.44754">
        <ele>52.72474</ele>
        <time>2021-07-19T09:17:25Z</time>
      </trkpt>
      <trkpt lat="36.84885" lon="-2.44755">
        <ele>51.89245</ele>
        <time>2021-07-19T09:17:50Z</time>
      </trkpt>
      <trkpt lat="36.84889" lon="-2.44756">
        <ele>52.58119</ele>
        <time>2021-07-19T09:18:05Z</time>
      </trkpt>
      <trkpt lat="36.8489" lon="-2.44761">
        <ele>52.52262</ele>
        <time>2021-07-19T09:18:50Z</time>
      </trkpt>
      <trkpt lat="36.84888" lon="-2.44767">
        <ele>53.06848</ele>
        <time>2021-07-19T09:19:01Z</time>
      </trkpt>
      <trkpt lat="36.84887" lon="-2.44781">
        <ele>54.02683</ele>
        <time>2021-07-19T09:19:12Z</time>
      </trkpt>
      <trkpt lat="36.84896" lon="-2.44896">
        <ele>50.14461</ele>
        <time>2021-07-19T09:19:23Z</time>
      </trkpt>
      <trkpt lat="36.84899" lon="-2.45008">
        <ele>44.17632</ele>
        <time>2021-07-19T09:19:34Z</time>
      </trkpt>
      <trkpt lat="36.849" lon="-2.45047">
        <ele>43.33503</ele>
        <time>2021-07-19T09:19:45Z</time>
      </trkpt>
      <trkpt lat="36.84901" lon="-2.45056">
        <ele>43.05633</ele>
        <time>2021-07-19T09:19:56Z</time>
      </trkpt>
      <trkpt lat="36.8494" lon="-2.45093">
        <ele>43.53944</ele>
        <time>2021-07-19T09:20:07Z</time>
      </trkpt>
      <trkpt lat="36.84999" lon="-2.45101">
        <ele>47.09228</ele>
        <time>2021-07-19T09:20:18Z</time>
      </trkpt>
      <trkpt lat="36.85014" lon="-2.45098">
        <ele>47.68462</ele>
        <time>2021-07-19T09:20:29Z</time>
      </trkpt>
      <trkpt lat="36.85028" lon="-2.45099">
        <ele>48.27475</ele>
        <time>2021-07-19T09:20:40Z</time>
      </trkpt>
      <trkpt lat="36.85088" lon="-2.45091">
        <ele>51.48535</ele>
        <time>2021-07-19T09:20:51Z</time>
      </trkpt>
      <trkpt lat="36.85113" lon="-2.45104">
        <ele>52.9717</ele>
        <time>2021-07-19T09:21:02Z</time>
      </trkpt>
      <trkpt lat="36.85119" lon="-2.45195">
        <ele>52.64944</ele>
        <time>2021-07-19T09:21:13Z</time>
      </trkpt>
      <trkpt lat="36.85122" lon="-2.45201">
        <ele>52.27518</ele>
        <time>2021-07-19T09:21:24Z</time>
      </trkpt>
      <trkpt lat="36.85159" lon="-2.45206">
        <ele>53.03647</ele>
        <time>2021-07-19T09:21:35Z</time>
      </trkpt>
      <trkpt lat="36.85287" lon="-2.45153">
        <ele>54.55433</ele>
        <time>2021-07-19T09:21:46Z</time>
      </trkpt>
      <trkpt lat="36.85391" lon="-2.45065">
        <ele>60.06755</ele>
        <time>2021-07-19T09:21:57Z</time>
      </trkpt>
      <trkpt lat="36.85487" lon="-2.44985">
        <ele>64.37059</ele>
        <time>2021-07-19T09:22:08Z</time>
      </trkpt>
      <trkpt lat="36.85554" lon="-2.44936">
        <ele>65.86974</ele>
        <time>2021-07-19T09:22:19Z</time>
      </trkpt>
      <trkpt lat="36.85586" lon="-2.44911">
        <ele>66.81305</ele>
        <time>2021-07-19T09:22:30Z</time>
      </trkpt>
      <trkpt lat="36.85667" lon="-2.44883">
        <ele>72.0428</ele>
        <time>2021-07-19T09:22:41Z</time>
      </trkpt>
      <trkpt lat="36.85778" lon="-2.44777">
        <ele>77.02172</ele>
        <time>2021-07-19T09:22:52Z</time>
      </trkpt>
      <trkpt lat="36.85883" lon="-2.4468">
        <ele>84.80257</ele>
        <time>2021-07-19T09:23:03Z</time>
      </trkpt>
      <trkpt lat="36.85944" lon="-2.44661">
        <ele>89.40391</ele>
        <time>2021-07-19T09:23:15Z</time>
      </trkpt>
      <trkpt lat="36.8603" lon="-2.44744">
        <ele>87.27066</ele>
        <time>2021-07-19T09:23:26Z</time>
      </trkpt>
      <trkpt lat="36.8612" lon="-2.44838">
        <ele>92.70597</ele>
        <time>2021-07-19T09:23:37Z</time>
      </trkpt>
      <trkpt lat="36.8617" lon="-2.44862">
        <ele>94.38722</ele>
        <time>2021-07-19T09:23:48Z</time>
      </trkpt>
      <trkpt lat="36.862" lon="-2.44876">
        <ele>95.28193</ele>
        <time>2021-07-19T09:23:59Z</time>
      </trkpt>
      <trkpt lat="36.86292" lon="-2.44874">
        <ele>100.977</ele>
        <time>2021-07-19T09:24:10Z</time>
      </trkpt>
      <trkpt lat="36.86372" lon="-2.44863">
        <ele>104.6202</ele>
        <time>2021-07-19T09:24:21Z</time>
      </trkpt>
      <trkpt lat="36.86382" lon="-2.44864">
        <ele>104.7742</ele>
        <time>2021-07-19T09:24:32Z</time>
      </trkpt>
      <trkpt lat="36.86395" lon="-2.44861">
        <ele>104.8901</ele>
        <time>2021-07-19T09:24:43Z</time>
      </trkpt>
      <trkpt lat="36.864" lon="-2.4486">
        <ele>104.7309</ele>
        <time>2021-07-19T09:24:54Z</time>
      </trkpt>
      <trkpt lat="36.86425" lon="-2.44848">
        <ele>105.4755</ele>
        <time>2021-07-19T09:25:05Z</time>
      </trkpt>
      <trkpt lat="36.86451" lon="-2.44815">
        <ele>105.024</ele>
        <time>2021-07-19T09:25:16Z</time>
      </trkpt>
      <trkpt lat="36.86532" lon="-2.44822">
        <ele>105.0415</ele>
        <time>2021-07-19T09:25:27Z</time>
      </trkpt>
      <trkpt lat="36.86662" lon="-2.447">
        <ele>105.7827</ele>
        <time>2021-07-19T09:25:38Z</time>
      </trkpt>
      <trkpt lat="36.86789" lon="-2.44594">
        <ele>90.90251</ele>
        <time>2021-07-19T09:25:49Z</time>
      </trkpt>
      <trkpt lat="36.86876" lon="-2.44579">
        <ele>82.37194</ele>
        <time>2021-07-19T09:26:00Z</time>
      </trkpt>
      <trkpt lat="36.87013" lon="-2.44524">
        <ele>76.47871</ele>
        <time>2021-07-19T09:26:11Z</time>
      </trkpt>
      <trkpt lat="36.87091" lon="-2.44484">
        <ele>75.19457</ele>
        <time>2021-07-19T09:26:22Z</time>
      </trkpt>
      <trkpt lat="36.87124" lon="-2.44469">
        <ele>76.95314</ele>
        <time>2021-07-19T09:26:33Z</time>
      </trkpt>
      <trkpt lat="36.87147" lon="-2.44453">
        <ele>77.97803</ele>
        <time>2021-07-19T09:26:44Z</time>
      </trkpt>
      <trkpt lat="36.87203" lon="-2.444">
        <ele>78.19072</ele>
        <time>2021-07-19T09:26:55Z</time>
      </trkpt>
      <trkpt lat="36.87245" lon="-2.4428">
        <ele>73.79596</ele>
        <time>2021-07-19T09:27:06Z</time>
      </trkpt>
      <trkpt lat="36.8725" lon="-2.44247">
        <ele>74.2925</ele>
        <time>2021-07-19T09:27:17Z</time>
      </trkpt>
      <trkpt lat="36.87255" lon="-2.44221">
        <ele>74.34168</ele>
        <time>2021-07-19T09:27:28Z</time>
      </trkpt>
      <trkpt lat="36.8726" lon="-2.44191">
        <ele>72.88757</ele>
        <time>2021-07-19T09:27:39Z</time>
      </trkpt>
      <trkpt lat="36.87262" lon="-2.44177">
        <ele>71.67784</ele>
        <time>2021-07-19T09:27:50Z</time>
      </trkpt>
      <trkpt lat="36.87263" lon="-2.44161">
        <ele>71.1941</ele>
        <time>2021-07-19T09:28:01Z</time>
      </trkpt>
      <trkpt lat="36.87259" lon="-2.44135">
        <ele>71.82954</ele>
        <time>2021-07-19T09:28:12Z</time>
      </trkpt>
      <trkpt lat="36.87328" lon="-2.44024">
        <ele>69.64095</ele>
        <time>2021-07-19T09:28:23Z</time>
      </trkpt>
      <trkpt lat="36.8746" lon="-2.43921">
        <ele>66.54998</ele>
        <time>2021-07-19T09:28:34Z</time>
      </trkpt>
      <trkpt lat="36.87611" lon="-2.43813">
        <ele>64.48619</ele>
        <time>2021-07-19T09:28:45Z</time>
      </trkpt>
      <trkpt lat="36.87744" lon="-2.43676">
        <ele>66.83627</ele>
        <time>2021-07-19T09:28:56Z</time>
      </trkpt>
      <trkpt lat="36.87841" lon="-2.43527">
        <ele>68.75906</ele>
        <time>2021-07-19T09:29:07Z</time>
      </trkpt>
      <trkpt lat="36.87927" lon="-2.43341">
        <ele>66.0985</ele>
        <time>2021-07-19T09:29:18Z</time>
      </trkpt>
      <trkpt lat="36.87998" lon="-2.43124">
        <ele>65.94329</ele>
        <time>2021-07-19T09:29:29Z</time>
      </trkpt>
      <trkpt lat="36.88051" lon="-2.42938">
        <ele>66.03215</ele>
        <time>2021-07-19T09:29:40Z</time>
      </trkpt>
      <trkpt lat="36.88111" lon="-2.42724">
        <ele>65.85695</ele>
        <time>2021-07-19T09:29:51Z</time>
      </trkpt>
      <trkpt lat="36.88158" lon="-2.42555">
        <ele>60.79815</ele>
        <time>2021-07-19T09:30:02Z</time>
      </trkpt>
      <trkpt lat="36.8818" lon="-2.42464">
        <ele>60.19169</ele>
        <time>2021-07-19T09:30:13Z</time>
      </trkpt>
      <trkpt lat="36.88119" lon="-2.42409">
        <ele>58.81078</ele>
        <time>2021-07-19T09:30:24Z</time>
      </trkpt>
      <trkpt lat="36.88012" lon="-2.42398">
        <ele>58.28243</ele>
        <time>2021-07-19T09:30:35Z</time>
      </trkpt>
      <trkpt lat="36.87997" lon="-2.42328">
        <ele>62.19969</ele>
        <time>2021-07-19T09:30:46Z</time>
      </trkpt>
      <trkpt lat="36.8801" lon="-2.42251">
        <ele>66.89765</ele>
        <time>2021-07-19T09:30:57Z</time>
      </trkpt>
      <trkpt lat="36.87931" lon="-2.42234">
        <ele>66.74072</ele>
        <time>2021-07-19T09:31:08Z</time>
      </trkpt>
      <trkpt lat="36.8789" lon="-2.42255">
        <ele>65.00125</ele>
        <time>2021-07-19T09:31:19Z</time>
      </trkpt>
      <trkpt lat="36.8788" lon="-2.42306">
        <ele>60.67902</ele>
        <time>2021-07-19T09:31:30Z</time>
      </trkpt>
      <trkpt lat="36.87868" lon="-2.42305">
        <ele>63.89992</ele>
        <time>2021-07-19T09:31:41Z</time>
      </trkpt>
      <trkpt lat="36.87865" lon="-2.42302">
        <ele>63.57561</ele>
        <time>2021-07-19T09:32:03Z</time>
      </trkpt>
      <trkpt lat="36.87863" lon="-2.42298">
        <ele>62.73428</ele>
        <time>2021-07-19T09:32:36Z</time>
      </trkpt>
      <trkpt lat="36.87867" lon="-2.42299">
        <ele>64.27236</ele>
        <time>2021-07-19T09:33:06Z</time>
      </trkpt>
      <trkpt lat="36.87865" lon="-2.42309">
        <ele>64.29587</ele>
        <time>2021-07-19T09:33:53Z</time>
      </trkpt>
      <trkpt lat="36.87864" lon="-2.42302">
        <ele>63.97472</ele>
        <time>2021-07-19T09:34:04Z</time>
      </trkpt>
      <trkpt lat="36.87866" lon="-2.42301">
        <ele>63.5885</ele>
        <time>2021-07-19T09:35:03Z</time>
      </trkpt>
      <trkpt lat="36.87863" lon="-2.42297">
        <ele>63.60126</ele>
        <time>2021-07-19T09:35:33Z</time>
      </trkpt>
      <trkpt lat="36.87865" lon="-2.42293">
        <ele>64.62646</ele>
        <time>2021-07-19T09:35:45Z</time>
      </trkpt>
      <trkpt lat="36.87867" lon="-2.42297">
        <ele>64.46343</ele>
        <time>2021-07-19T09:36:06Z</time>
      </trkpt>
      <trkpt lat="36.87867" lon="-2.42302">
        <ele>63.87674</ele>
        <time>2021-07-19T09:36:38Z</time>
      </trkpt>
      <trkpt lat="36.87866" lon="-2.42302">
        <ele>62.87709</ele>
        <time>2021-07-19T09:37:37Z</time>
      </trkpt>
      <trkpt lat="36.87867" lon="-2.423">
        <ele>64.14097</ele>
        <time>2021-07-19T09:38:36Z</time>
      </trkpt>
      <trkpt lat="36.87867" lon="-2.42295">
        <ele>63.28908</ele>
        <time>2021-07-19T09:39:05Z</time>
      </trkpt>
      <trkpt lat="36.87869" lon="-2.423">
        <ele>65.23597</ele>
        <time>2021-07-19T09:39:16Z</time>
      </trkpt>
      <trkpt lat="36.87875" lon="-2.42302">
        <ele>63.09861</ele>
        <time>2021-07-19T09:39:27Z</time>
      </trkpt>
      <trkpt lat="36.87925" lon="-2.42326">
        <ele>59.1597</ele>
        <time>2021-07-19T09:39:38Z</time>
      </trkpt>
      <trkpt lat="36.88001" lon="-2.42352">
        <ele>59.30189</ele>
        <time>2021-07-19T09:39:49Z</time>
      </trkpt>
      <trkpt lat="36.88046" lon="-2.42404">
        <ele>58.90835</ele>
        <time>2021-07-19T09:40:00Z</time>
      </trkpt>
      <trkpt lat="36.88137" lon="-2.42408">
        <ele>59.21453</ele>
        <time>2021-07-19T09:40:11Z</time>
      </trkpt>
      <trkpt lat="36.88209" lon="-2.42429">
        <ele>59.48504</ele>
        <time>2021-07-19T09:40:22Z</time>
      </trkpt>
      <trkpt lat="36.88168" lon="-2.42543">
        <ele>61.44143</ele>
        <time>2021-07-19T09:40:33Z</time>
      </trkpt>
      <trkpt lat="36.88117" lon="-2.42721">
        <ele>63.01506</ele>
        <time>2021-07-19T09:40:44Z</time>
      </trkpt>
      <trkpt lat="36.88069" lon="-2.42895">
        <ele>64.73708</ele>
        <time>2021-07-19T09:40:55Z</time>
      </trkpt>
      <trkpt lat="36.88012" lon="-2.43099">
        <ele>65.04736</ele>
        <time>2021-07-19T09:41:06Z</time>
      </trkpt>
      <trkpt lat="36.87949" lon="-2.43297">
        <ele>64.33963</ele>
        <time>2021-07-19T09:41:17Z</time>
      </trkpt>
      <trkpt lat="36.87866" lon="-2.43493">
        <ele>69.77151</ele>
        <time>2021-07-19T09:41:28Z</time>
      </trkpt>
      <trkpt lat="36.87753" lon="-2.43672">
        <ele>67.25204</ele>
        <time>2021-07-19T09:41:39Z</time>
      </trkpt>
      <trkpt lat="36.87614" lon="-2.43816">
        <ele>62.44377</ele>
        <time>2021-07-19T09:41:50Z</time>
      </trkpt>
      <trkpt lat="36.87469" lon="-2.4392">
        <ele>66.5565</ele>
        <time>2021-07-19T09:42:01Z</time>
      </trkpt>
      <trkpt lat="36.87373" lon="-2.4399">
        <ele>69.49913</ele>
        <time>2021-07-19T09:42:12Z</time>
      </trkpt>
      <trkpt lat="36.87328" lon="-2.44031">
        <ele>70.0119</ele>
        <time>2021-07-19T09:42:23Z</time>
      </trkpt>
      <trkpt lat="36.87312" lon="-2.44054">
        <ele>69.31627</ele>
        <time>2021-07-19T09:42:34Z</time>
      </trkpt>
      <trkpt lat="36.87287" lon="-2.44142">
        <ele>71.42677</ele>
        <time>2021-07-19T09:42:45Z</time>
      </trkpt>
      <trkpt lat="36.87257" lon="-2.44253">
        <ele>75.62666</ele>
        <time>2021-07-19T09:42:56Z</time>
      </trkpt>
      <trkpt lat="36.87241" lon="-2.44355">
        <ele>77.55953</ele>
        <time>2021-07-19T09:43:07Z</time>
      </trkpt>
      <trkpt lat="36.87208" lon="-2.44451">
        <ele>76.71622</ele>
        <time>2021-07-19T09:43:18Z</time>
      </trkpt>
      <trkpt lat="36.87072" lon="-2.44501">
        <ele>75.68949</ele>
        <time>2021-07-19T09:43:29Z</time>
      </trkpt>
      <trkpt lat="36.86888" lon="-2.44583">
        <ele>84.36846</ele>
        <time>2021-07-19T09:43:40Z</time>
      </trkpt>
      <trkpt lat="36.86807" lon="-2.44599">
        <ele>88.30285</ele>
        <time>2021-07-19T09:43:51Z</time>
      </trkpt>
      <trkpt lat="36.86675" lon="-2.44689">
        <ele>96.45371</ele>
        <time>2021-07-19T09:44:02Z</time>
      </trkpt>
      <trkpt lat="36.86572" lon="-2.44807">
        <ele>107.134</ele>
        <time>2021-07-19T09:44:13Z</time>
      </trkpt>
      <trkpt lat="36.8655" lon="-2.44822">
        <ele>109.8817</ele>
        <time>2021-07-19T09:44:25Z</time>
      </trkpt>
      <trkpt lat="36.86536" lon="-2.44831">
        <ele>108.7962</ele>
        <time>2021-07-19T09:44:36Z</time>
      </trkpt>
      <trkpt lat="36.86519" lon="-2.44845">
        <ele>106.7447</ele>
        <time>2021-07-19T09:44:47Z</time>
      </trkpt>
      <trkpt lat="36.86475" lon="-2.44893">
        <ele>104.5771</ele>
        <time>2021-07-19T09:44:58Z</time>
      </trkpt>
      <trkpt lat="36.86396" lon="-2.44868">
        <ele>102.3264</ele>
        <time>2021-07-19T09:45:09Z</time>
      </trkpt>
      <trkpt lat="36.862" lon="-2.4488">
        <ele>96.69173</ele>
        <time>2021-07-19T09:45:20Z</time>
      </trkpt>
      <trkpt lat="36.86093" lon="-2.44835">
        <ele>91.81399</ele>
        <time>2021-07-19T09:45:31Z</time>
      </trkpt>
      <trkpt lat="36.85969" lon="-2.44715">
        <ele>83.77528</ele>
        <time>2021-07-19T09:45:42Z</time>
      </trkpt>
      <trkpt lat="36.85955" lon="-2.44706">
        <ele>83.27475</ele>
        <time>2021-07-19T09:45:53Z</time>
      </trkpt>
      <trkpt lat="36.85951" lon="-2.44707">
        <ele>83.0674</ele>
        <time>2021-07-19T09:46:11Z</time>
      </trkpt>
      <trkpt lat="36.85941" lon="-2.44696">
        <ele>82.84606</ele>
        <time>2021-07-19T09:46:23Z</time>
      </trkpt>
      <trkpt lat="36.85848" lon="-2.44729">
        <ele>80.45572</ele>
        <time>2021-07-19T09:46:34Z</time>
      </trkpt>
      <trkpt lat="36.8574" lon="-2.44841">
        <ele>75.09645</ele>
        <time>2021-07-19T09:46:45Z</time>
      </trkpt>
      <trkpt lat="36.85646" lon="-2.44917">
        <ele>70.06742</ele>
        <time>2021-07-19T09:46:56Z</time>
      </trkpt>
      <trkpt lat="36.85621" lon="-2.44933">
        <ele>68.82686</ele>
        <time>2021-07-19T09:47:07Z</time>
      </trkpt>
      <trkpt lat="36.85571" lon="-2.44953">
        <ele>67.3501</ele>
        <time>2021-07-19T09:47:18Z</time>
      </trkpt>
      <trkpt lat="36.85466" lon="-2.45017">
        <ele>62.78968</ele>
        <time>2021-07-19T09:47:29Z</time>
      </trkpt>
      <trkpt lat="36.85338" lon="-2.45155">
        <ele>57.01374</ele>
        <time>2021-07-19T09:47:40Z</time>
      </trkpt>
      <trkpt lat="36.85241" lon="-2.45241">
        <ele>52.66275</ele>
        <time>2021-07-19T09:47:51Z</time>
      </trkpt>
      <trkpt lat="36.8522" lon="-2.45253">
        <ele>52.94477</ele>
        <time>2021-07-19T09:48:02Z</time>
      </trkpt>
      <trkpt lat="36.85199" lon="-2.45266">
        <ele>52.13392</ele>
        <time>2021-07-19T09:48:13Z</time>
      </trkpt>
      <trkpt lat="36.85165" lon="-2.4531">
        <ele>52.12134</ele>
        <time>2021-07-19T09:48:24Z</time>
      </trkpt>
      <trkpt lat="36.85115" lon="-2.45359">
        <ele>49.39975</ele>
        <time>2021-07-19T09:48:35Z</time>
      </trkpt>
      <trkpt lat="36.8508" lon="-2.45395">
        <ele>50.0227</ele>
        <time>2021-07-19T09:48:46Z</time>
      </trkpt>
      <trkpt lat="36.85056" lon="-2.45422">
        <ele>49.23091</ele>
        <time>2021-07-19T09:48:57Z</time>
      </trkpt>
      <trkpt lat="36.85053" lon="-2.45427">
        <ele>49.34674</ele>
        <time>2021-07-19T09:49:21Z</time>
      </trkpt>
      <trkpt lat="36.85047" lon="-2.45431">
        <ele>48.79633</ele>
        <time>2021-07-19T09:49:32Z</time>
      </trkpt>
      <trkpt lat="36.85044" lon="-2.45435">
        <ele>49.41186</ele>
        <time>2021-07-19T09:49:46Z</time>
      </trkpt>
      <trkpt lat="36.84932" lon="-2.45559">
        <ele>43.51416</ele>
        <time>2021-07-19T09:49:57Z</time>
      </trkpt>
      <trkpt lat="36.84835" lon="-2.45667">
        <ele>42.80193</ele>
        <time>2021-07-19T09:50:08Z</time>
      </trkpt>
      <trkpt lat="36.84778" lon="-2.45728">
        <ele>40.59329</ele>
        <time>2021-07-19T09:50:19Z</time>
      </trkpt>
      <trkpt lat="36.84729" lon="-2.45769">
        <ele>41.51317</ele>
        <time>2021-07-19T09:50:30Z</time>
      </trkpt>
      <trkpt lat="36.84639" lon="-2.45761">
        <ele>37.36239</ele>
        <time>2021-07-19T09:50:41Z</time>
      </trkpt>
      <trkpt lat="36.84582" lon="-2.45757">
        <ele>34.52455</ele>
        <time>2021-07-19T09:50:52Z</time>
      </trkpt>
      <trkpt lat="36.84567" lon="-2.45805">
        <ele>35.15526</ele>
        <time>2021-07-19T09:51:03Z</time>
      </trkpt>
      <trkpt lat="36.84544" lon="-2.45855">
        <ele>33.99668</ele>
        <time>2021-07-19T09:51:14Z</time>
      </trkpt>
      <trkpt lat="36.84525" lon="-2.45852">
        <ele>32.84244</ele>
        <time>2021-07-19T09:51:25Z</time>
      </trkpt>
      <trkpt lat="36.84515" lon="-2.45863">
        <ele>33.11233</ele>
        <time>2021-07-19T09:51:36Z</time>
      </trkpt>
      <trkpt lat="36.84519" lon="-2.45873">
        <ele>33.78368</ele>
        <time>2021-07-19T09:51:47Z</time>
      </trkpt>
      <trkpt lat="36.84518" lon="-2.45885">
        <ele>33.34539</ele>
        <time>2021-07-19T09:51:58Z</time>
      </trkpt>
      <trkpt lat="36.84512" lon="-2.45898">
        <ele>33.0781</ele>
        <time>2021-07-19T09:52:09Z</time>
      </trkpt>
      <trkpt lat="36.84508" lon="-2.45904">
        <ele>33.18237</ele>
        <time>2021-07-19T09:52:20Z</time>
      </trkpt>
      <trkpt lat="36.84509" lon="-2.45909">
        <ele>33.43781</ele>
        <time>2021-07-19T09:53:03Z</time>
      </trkpt>
      <trkpt lat="36.84496" lon="-2.45898">
        <ele>32.45056</ele>
        <time>2021-07-19T09:53:14Z</time>
      </trkpt>
      <trkpt lat="36.84505" lon="-2.45881">
        <ele>33.55382</ele>
        <time>2021-07-19T09:53:25Z</time>
      </trkpt>
      <trkpt lat="36.84508" lon="-2.45884">
        <ele>33.2423</ele>
        <time>2021-07-19T09:53:37Z</time>
      </trkpt>
      <trkpt lat="36.84504" lon="-2.45878">
        <ele>33.61575</ele>
        <time>2021-07-19T09:53:48Z</time>
      </trkpt>
      <trkpt lat="36.84496" lon="-2.45877">
        <ele>33.46246</ele>
        <time>2021-07-19T09:53:59Z</time>
      </trkpt>
      <trkpt lat="36.84499" lon="-2.4588">
        <ele>34.02852</ele>
        <time>2021-07-19T09:54:18Z</time>
      </trkpt>
      <trkpt lat="36.8451" lon="-2.45885">
        <ele>32.39918</ele>
        <time>2021-07-19T09:54:29Z</time>
      </trkpt>
      <trkpt lat="36.84515" lon="-2.45893">
        <ele>33.09297</ele>
        <time>2021-07-19T09:54:40Z</time>
      </trkpt>
      <trkpt lat="36.84489" lon="-2.45883">
        <ele>33.06638</ele>
        <time>2021-07-19T09:54:51Z</time>
      </trkpt>
      <trkpt lat="36.84489" lon="-2.45873">
        <ele>33.41363</ele>
        <time>2021-07-19T09:55:02Z</time>
      </trkpt>
      <trkpt lat="36.84492" lon="-2.45884">
        <ele>33.35378</ele>
        <time>2021-07-19T09:55:13Z</time>
      </trkpt>
      <trkpt lat="36.84496" lon="-2.45893">
        <ele>33.23025</ele>
        <time>2021-07-19T09:55:24Z</time>
      </trkpt>
      <trkpt lat="36.84492" lon="-2.45891">
        <ele>32.91935</ele>
        <time>2021-07-19T09:55:38Z</time>
      </trkpt>
      <trkpt lat="36.84504" lon="-2.45885">
        <ele>32.87807</ele>
        <time>2021-07-19T09:55:49Z</time>
      </trkpt>
      <trkpt lat="36.84499" lon="-2.45896">
        <ele>33.36991</ele>
        <time>2021-07-19T09:56:00Z</time>
      </trkpt>
      <trkpt lat="36.84499" lon="-2.45891">
        <ele>32.90626</ele>
        <time>2021-07-19T09:56:28Z</time>
      </trkpt>
      <trkpt lat="36.84502" lon="-2.45891">
        <ele>33.20329</ele>
        <time>2021-07-19T09:56:41Z</time>
      </trkpt>
      <trkpt lat="36.84499" lon="-2.45896">
        <ele>32.90116</ele>
        <time>2021-07-19T09:56:52Z</time>
      </trkpt>
      <trkpt lat="36.84505" lon="-2.45895">
        <ele>33.72866</ele>
        <time>2021-07-19T09:57:03Z</time>
      </trkpt>
      <trkpt lat="36.8451" lon="-2.45897">
        <ele>33.24982</ele>
        <time>2021-07-19T09:57:23Z</time>
      </trkpt>
      <trkpt lat="36.84501" lon="-2.45896">
        <ele>32.89221</ele>
        <time>2021-07-19T09:57:34Z</time>
      </trkpt>
      <trkpt lat="36.84495" lon="-2.45894">
        <ele>33.39508</ele>
        <time>2021-07-19T09:57:45Z</time>
      </trkpt>
      <trkpt lat="36.845" lon="-2.45884">
        <ele>33.33592</ele>
        <time>2021-07-19T09:57:59Z</time>
      </trkpt>
      <trkpt lat="36.84496" lon="-2.45886">
        <ele>33.04046</ele>
        <time>2021-07-19T09:58:13Z</time>
      </trkpt>
      <trkpt lat="36.84495" lon="-2.4589">
        <ele>34.1492</ele>
        <time>2021-07-19T09:58:25Z</time>
      </trkpt>
      <trkpt lat="36.84503" lon="-2.459">
        <ele>32.69061</ele>
        <time>2021-07-19T09:58:36Z</time>
      </trkpt>
      <trkpt lat="36.8451" lon="-2.45903">
        <ele>33.29181</ele>
        <time>2021-07-19T09:58:47Z</time>
      </trkpt>
      <trkpt lat="36.84504" lon="-2.45906">
        <ele>33.70702</ele>
        <time>2021-07-19T09:59:14Z</time>
      </trkpt>
      <trkpt lat="36.84503" lon="-2.45911">
        <ele>33.36408</ele>
        <time>2021-07-19T09:59:25Z</time>
      </trkpt>
      <trkpt lat="36.84507" lon="-2.45909">
        <ele>33.07676</ele>
        <time>2021-07-19T09:59:36Z</time>
      </trkpt>
      <trkpt lat="36.84509" lon="-2.45905">
        <ele>34.43515</ele>
        <time>2021-07-19T09:59:51Z</time>
      </trkpt>
      <trkpt lat="36.84513" lon="-2.45903">
        <ele>33.28332</ele>
        <time>2021-07-19T10:00:02Z</time>
      </trkpt>
      <trkpt lat="36.84515" lon="-2.45898">
        <ele>33.69275</ele>
        <time>2021-07-19T10:00:29Z</time>
      </trkpt>
      <trkpt lat="36.84512" lon="-2.45903">
        <ele>33.50791</ele>
        <time>2021-07-19T10:00:40Z</time>
      </trkpt>
      <trkpt lat="36.84513" lon="-2.45909">
        <ele>33.91516</ele>
        <time>2021-07-19T10:00:51Z</time>
      </trkpt>
      <trkpt lat="36.84515" lon="-2.45912">
        <ele>33.39964</ele>
        <time>2021-07-19T10:01:06Z</time>
      </trkpt>
      <trkpt lat="36.84516" lon="-2.45911">
        <ele>33.37221</ele>
        <time>2021-07-19T10:01:14Z</time>
      </trkpt>
      <trkpt lat="36.84516" lon="-2.45907">
        <ele>33.15534</ele>
        <time>2021-07-19T10:01:28Z</time>
      </trkpt>
      <trkpt lat="36.8452" lon="-2.45905">
        <ele>33.25437</ele>
        <time>2021-07-19T10:01:42Z</time>
      </trkpt>
      <trkpt lat="36.84524" lon="-2.45906">
        <ele>33.91567</ele>
        <time>2021-07-19T10:02:31Z</time>
      </trkpt>
      <trkpt lat="36.8452" lon="-2.45906">
        <ele>34.05663</ele>
        <time>2021-07-19T10:02:49Z</time>
      </trkpt>
      <trkpt lat="36.84517" lon="-2.45904">
        <ele>34.31931</ele>
        <time>2021-07-19T10:03:15Z</time>
      </trkpt>
      <trkpt lat="36.84517" lon="-2.45909">
        <ele>32.88074</ele>
        <time>2021-07-19T10:03:29Z</time>
      </trkpt>
      <trkpt lat="36.8453" lon="-2.45919">
        <ele>31.22504</ele>
        <time>2021-07-19T10:03:40Z</time>
      </trkpt>
      <trkpt lat="36.8454" lon="-2.45921">
        <ele>34.96747</ele>
        <time>2021-07-19T10:03:51Z</time>
      </trkpt>
      <trkpt lat="36.84565" lon="-2.45931">
        <ele>34.24025</ele>
        <time>2021-07-19T10:04:02Z</time>
      </trkpt>
      <trkpt lat="36.8466" lon="-2.45962">
        <ele>38.89851</ele>
        <time>2021-07-19T10:04:13Z</time>
      </trkpt>
      <trkpt lat="36.84749" lon="-2.45972">
        <ele>41.76903</ele>
        <time>2021-07-19T10:04:24Z</time>
      </trkpt>
      <trkpt lat="36.84772" lon="-2.45988">
        <ele>41.88608</ele>
        <time>2021-07-19T10:04:35Z</time>
      </trkpt>
      <trkpt lat="36.84784" lon="-2.46043">
        <ele>43.09367</ele>
        <time>2021-07-19T10:04:46Z</time>
      </trkpt>
      <trkpt lat="36.84764" lon="-2.46022">
        <ele>41.59179</ele>
        <time>2021-07-19T10:04:57Z</time>
      </trkpt>
      <trkpt lat="36.84765" lon="-2.46018">
        <ele>41.73263</ele>
        <time>2021-07-19T10:05:53Z</time>
      </trkpt>
      <trkpt lat="36.84762" lon="-2.46021">
        <ele>41.78966</ele>
        <time>2021-07-19T10:06:16Z</time>
      </trkpt>
      <trkpt lat="36.84759" lon="-2.46016">
        <ele>41.55148</ele>
        <time>2021-07-19T10:06:32Z</time>
      </trkpt>
      <trkpt lat="36.84749" lon="-2.46003">
        <ele>41.31315</ele>
        <time>2021-07-19T10:06:43Z</time>
      </trkpt>
      <trkpt lat="36.84743" lon="-2.45997">
        <ele>43.10684</ele>
        <time>2021-07-19T10:07:08Z</time>
      </trkpt>
      <trkpt lat="36.84629" lon="-2.45943">
        <ele>38.34267</ele>
        <time>2021-07-19T10:07:19Z</time>
      </trkpt>
      <trkpt lat="36.84572" lon="-2.45919">
        <ele>35.40394</ele>
        <time>2021-07-19T10:07:30Z</time>
      </trkpt>
      <trkpt lat="36.84473" lon="-2.45852">
        <ele>32.36909</ele>
        <time>2021-07-19T10:07:41Z</time>
      </trkpt>
      <trkpt lat="36.8444" lon="-2.45833">
        <ele>31.10112</ele>
        <time>2021-07-19T10:07:52Z</time>
      </trkpt>
      <trkpt lat="36.84437" lon="-2.4583">
        <ele>31.33798</ele>
        <time>2021-07-19T10:08:09Z</time>
      </trkpt>
      <trkpt lat="36.84442" lon="-2.4583">
        <ele>31.0862</ele>
        <time>2021-07-19T10:08:28Z</time>
      </trkpt>
      <trkpt lat="36.84425" lon="-2.45804">
        <ele>30.3385</ele>
        <time>2021-07-19T10:08:39Z</time>
      </trkpt>
      <trkpt lat="36.84484" lon="-2.45824">
        <ele>31.55744</ele>
        <time>2021-07-19T10:08:50Z</time>
      </trkpt>
      <trkpt lat="36.84556" lon="-2.45872">
        <ele>34.84834</ele>
        <time>2021-07-19T10:09:01Z</time>
      </trkpt>
      <trkpt lat="36.84631" lon="-2.45917">
        <ele>37.11459</ele>
        <time>2021-07-19T10:09:12Z</time>
      </trkpt>
      <trkpt lat="36.84686" lon="-2.45891">
        <ele>39.10984</ele>
        <time>2021-07-19T10:09:23Z</time>
      </trkpt>
      <trkpt lat="36.84741" lon="-2.45906">
        <ele>42.66622</ele>
        <time>2021-07-19T10:09:34Z</time>
      </trkpt>
      <trkpt lat="36.84737" lon="-2.45945">
        <ele>41.04296</ele>
        <time>2021-07-19T10:09:45Z</time>
      </trkpt>
      <trkpt lat="36.84733" lon="-2.45967">
        <ele>39.29632</ele>
        <time>2021-07-19T10:09:56Z</time>
      </trkpt>
      <trkpt lat="36.84621" lon="-2.4594">
        <ele>37.26714</ele>
        <time>2021-07-19T10:10:07Z</time>
      </trkpt>
      <trkpt lat="36.84618" lon="-2.45937">
        <ele>36.97215</ele>
        <time>2021-07-19T10:10:35Z</time>
      </trkpt>
      <trkpt lat="36.845" lon="-2.4587">
        <ele>32.70822</ele>
        <time>2021-07-19T10:10:46Z</time>
      </trkpt>
      <trkpt lat="36.84436" lon="-2.4583">
        <ele>30.97927</ele>
        <time>2021-07-19T10:10:57Z</time>
      </trkpt>
      <trkpt lat="36.84431" lon="-2.45827">
        <ele>31.11971</ele>
        <time>2021-07-19T10:11:48Z</time>
      </trkpt>
      <trkpt lat="36.84426" lon="-2.45737">
        <ele>28.93783</ele>
        <time>2021-07-19T10:11:59Z</time>
      </trkpt>
      <trkpt lat="36.84432" lon="-2.45741">
        <ele>30.8837</ele>
        <time>2021-07-19T10:12:10Z</time>
      </trkpt>
      <trkpt lat="36.84436" lon="-2.4574">
        <ele>31.0405</ele>
        <time>2021-07-19T10:12:30Z</time>
      </trkpt>
      <trkpt lat="36.84505" lon="-2.45715">
        <ele>31.5358</ele>
        <time>2021-07-19T10:12:41Z</time>
      </trkpt>
      <trkpt lat="36.84558" lon="-2.45705">
        <ele>33.9193</ele>
        <time>2021-07-19T10:12:52Z</time>
      </trkpt>
      <trkpt lat="36.84625" lon="-2.45684">
        <ele>36.05448</ele>
        <time>2021-07-19T10:13:03Z</time>
      </trkpt>
      <trkpt lat="36.84682" lon="-2.45645">
        <ele>37.70974</ele>
        <time>2021-07-19T10:13:14Z</time>
      </trkpt>
      <trkpt lat="36.84748" lon="-2.45588">
        <ele>39.59577</ele>
        <time>2021-07-19T10:13:25Z</time>
      </trkpt>
      <trkpt lat="36.84778" lon="-2.45566">
        <ele>39.93147</ele>
        <time>2021-07-19T10:13:36Z</time>
      </trkpt>
      <trkpt lat="36.84811" lon="-2.45542">
        <ele>40.97288</ele>
        <time>2021-07-19T10:13:47Z</time>
      </trkpt>
      <trkpt lat="36.84876" lon="-2.45499">
        <ele>43.81444</ele>
        <time>2021-07-19T10:13:58Z</time>
      </trkpt>
      <trkpt lat="36.84936" lon="-2.45467">
        <ele>44.87419</ele>
        <time>2021-07-19T10:14:09Z</time>
      </trkpt>
      <trkpt lat="36.84983" lon="-2.45415">
        <ele>44.88018</ele>
        <time>2021-07-19T10:14:20Z</time>
      </trkpt>
      <trkpt lat="36.85032" lon="-2.45361">
        <ele>47.43026</ele>
        <time>2021-07-19T10:14:31Z</time>
      </trkpt>
      <trkpt lat="36.85056" lon="-2.45335">
        <ele>49.61451</ele>
        <time>2021-07-19T10:14:42Z</time>
      </trkpt>
      <trkpt lat="36.85091" lon="-2.45322">
        <ele>50.5544</ele>
        <time>2021-07-19T10:14:53Z</time>
      </trkpt>
      <trkpt lat="36.85116" lon="-2.45222">
        <ele>52.01191</ele>
        <time>2021-07-19T10:15:04Z</time>
      </trkpt>
      <trkpt lat="36.85281" lon="-2.45158">
        <ele>55.02127</ele>
        <time>2021-07-19T10:15:15Z</time>
      </trkpt>
      <trkpt lat="36.8541" lon="-2.4505">
        <ele>61.34984</ele>
        <time>2021-07-19T10:15:26Z</time>
      </trkpt>
      <trkpt lat="36.85418" lon="-2.45045">
        <ele>62.51368</ele>
        <time>2021-07-19T10:15:37Z</time>
      </trkpt>
      <trkpt lat="36.85422" lon="-2.45045">
        <ele>62.91391</ele>
        <time>2021-07-19T10:16:02Z</time>
      </trkpt>
      <trkpt lat="36.85495" lon="-2.44983">
        <ele>64.35282</ele>
        <time>2021-07-19T10:16:13Z</time>
      </trkpt>
      <trkpt lat="36.85593" lon="-2.44908">
        <ele>69.98345</ele>
        <time>2021-07-19T10:16:24Z</time>
      </trkpt>
      <trkpt lat="36.85656" lon="-2.44892">
        <ele>72.33095</ele>
        <time>2021-07-19T10:16:35Z</time>
      </trkpt>
      <trkpt lat="36.85659" lon="-2.44893">
        <ele>72.66432</ele>
        <time>2021-07-19T10:16:58Z</time>
      </trkpt>
      <trkpt lat="36.85782" lon="-2.44772">
        <ele>77.62061</ele>
        <time>2021-07-19T10:17:09Z</time>
      </trkpt>
      <trkpt lat="36.85898" lon="-2.44669">
        <ele>87.64614</ele>
        <time>2021-07-19T10:17:20Z</time>
      </trkpt>
      <trkpt lat="36.85965" lon="-2.44687">
        <ele>88.78296</ele>
        <time>2021-07-19T10:17:31Z</time>
      </trkpt>
      <trkpt lat="36.86112" lon="-2.44827">
        <ele>91.97981</ele>
        <time>2021-07-19T10:17:42Z</time>
      </trkpt>
      <trkpt lat="36.86242" lon="-2.44878">
        <ele>98.51146</ele>
        <time>2021-07-19T10:17:53Z</time>
      </trkpt>
      <trkpt lat="36.86403" lon="-2.44858">
        <ele>104.6043</ele>
        <time>2021-07-19T10:18:04Z</time>
      </trkpt>
      <trkpt lat="36.86451" lon="-2.44815">
        <ele>105.3917</ele>
        <time>2021-07-19T10:18:15Z</time>
      </trkpt>
      <trkpt lat="36.86541" lon="-2.44817">
        <ele>107.4127</ele>
        <time>2021-07-19T10:18:26Z</time>
      </trkpt>
      <trkpt lat="36.86659" lon="-2.44699">
        <ele>108.6158</ele>
        <time>2021-07-19T10:18:37Z</time>
      </trkpt>
      <trkpt lat="36.8679" lon="-2.44594">
        <ele>89.33427</ele>
        <time>2021-07-19T10:18:48Z</time>
      </trkpt>
      <trkpt lat="36.86871" lon="-2.44578">
        <ele>81.37587</ele>
        <time>2021-07-19T10:18:59Z</time>
      </trkpt>
      <trkpt lat="36.8702" lon="-2.44524">
        <ele>75.46404</ele>
        <time>2021-07-19T10:19:10Z</time>
      </trkpt>
      <trkpt lat="36.87095" lon="-2.44489">
        <ele>76.50246</ele>
        <time>2021-07-19T10:19:21Z</time>
      </trkpt>
      <trkpt lat="36.871" lon="-2.44483">
        <ele>78.79475</ele>
        <time>2021-07-19T10:19:32Z</time>
      </trkpt>
      <trkpt lat="36.87129" lon="-2.44469">
        <ele>81.77549</ele>
        <time>2021-07-19T10:19:43Z</time>
      </trkpt>
      <trkpt lat="36.87151" lon="-2.44454">
        <ele>81.45551</ele>
        <time>2021-07-19T10:19:54Z</time>
      </trkpt>
      <trkpt lat="36.87236" lon="-2.44464">
        <ele>79.74987</ele>
        <time>2021-07-19T10:20:05Z</time>
      </trkpt>
      <trkpt lat="36.87279" lon="-2.44472">
        <ele>83.16193</ele>
        <time>2021-07-19T10:20:16Z</time>
      </trkpt>
      <trkpt lat="36.87345" lon="-2.44489">
        <ele>84.44986</ele>
        <time>2021-07-19T10:20:27Z</time>
      </trkpt>
      <trkpt lat="36.87422" lon="-2.44505">
        <ele>86.61833</ele>
        <time>2021-07-19T10:20:38Z</time>
      </trkpt>
      <trkpt lat="36.87515" lon="-2.44518">
        <ele>87.16761</ele>
        <time>2021-07-19T10:20:49Z</time>
      </trkpt>
      <trkpt lat="36.87631" lon="-2.44522">
        <ele>82.98117</ele>
        <time>2021-07-19T10:21:00Z</time>
      </trkpt>
      <trkpt lat="36.87754" lon="-2.44515">
        <ele>81.9242</ele>
        <time>2021-07-19T10:21:11Z</time>
      </trkpt>
      <trkpt lat="36.87902" lon="-2.44482">
        <ele>85.98856</ele>
        <time>2021-07-19T10:21:22Z</time>
      </trkpt>
      <trkpt lat="36.88059" lon="-2.44412">
        <ele>89.54341</ele>
        <time>2021-07-19T10:21:33Z</time>
      </trkpt>
      <trkpt lat="36.8821" lon="-2.44391">
        <ele>98.11397</ele>
        <time>2021-07-19T10:21:44Z</time>
      </trkpt>
      <trkpt lat="36.88303" lon="-2.44389">
        <ele>97.60454</ele>
        <time>2021-07-19T10:21:55Z</time>
      </trkpt>
      <trkpt lat="36.88373" lon="-2.44422">
        <ele>93.97402</ele>
        <time>2021-07-19T10:22:06Z</time>
      </trkpt>
      <trkpt lat="36.88405" lon="-2.44426">
        <ele>92.8114</ele>
        <time>2021-07-19T10:22:17Z</time>
      </trkpt>
      <trkpt lat="36.8841" lon="-2.44426">
        <ele>93.50431</ele>
        <time>2021-07-19T10:22:28Z</time>
      </trkpt>
      <trkpt lat="36.88499" lon="-2.44453">
        <ele>91.29063</ele>
        <time>2021-07-19T10:22:39Z</time>
      </trkpt>
      <trkpt lat="36.88632" lon="-2.44428">
        <ele>94.60213</ele>
        <time>2021-07-19T10:22:50Z</time>
      </trkpt>
      <trkpt lat="36.88753" lon="-2.44451">
        <ele>99.66311</ele>
        <time>2021-07-19T10:23:01Z</time>
      </trkpt>
      <trkpt lat="36.88831" lon="-2.44462">
        <ele>103.4952</ele>
        <time>2021-07-19T10:23:12Z</time>
      </trkpt>
      <trkpt lat="36.88939" lon="-2.44491">
        <ele>108.1537</ele>
        <time>2021-07-19T10:23:23Z</time>
      </trkpt>
      <trkpt lat="36.89064" lon="-2.44517">
        <ele>111.8719</ele>
        <time>2021-07-19T10:23:34Z</time>
      </trkpt>
      <trkpt lat="36.89125" lon="-2.44511">
        <ele>112.0936</ele>
        <time>2021-07-19T10:23:45Z</time>
      </trkpt>
      <trkpt lat="36.89205" lon="-2.4454">
        <ele>111.5144</ele>
        <time>2021-07-19T10:23:56Z</time>
      </trkpt>
      <trkpt lat="36.89331" lon="-2.44496">
        <ele>106.121</ele>
        <time>2021-07-19T10:24:07Z</time>
      </trkpt>
      <trkpt lat="36.89461" lon="-2.44453">
        <ele>109.7218</ele>
        <time>2021-07-19T10:24:18Z</time>
      </trkpt>
      <trkpt lat="36.89535" lon="-2.44453">
        <ele>110.0873</ele>
        <time>2021-07-19T10:24:29Z</time>
      </trkpt>
      <trkpt lat="36.89673" lon="-2.44482">
        <ele>108.033</ele>
        <time>2021-07-19T10:24:40Z</time>
      </trkpt>
      <trkpt lat="36.89819" lon="-2.44529">
        <ele>106.8815</ele>
        <time>2021-07-19T10:24:51Z</time>
      </trkpt>
      <trkpt lat="36.89954" lon="-2.44566">
        <ele>107.6436</ele>
        <time>2021-07-19T10:25:02Z</time>
      </trkpt>
      <trkpt lat="36.90148" lon="-2.44568">
        <ele>112.5255</ele>
        <time>2021-07-19T10:25:13Z</time>
      </trkpt>
      <trkpt lat="36.90311" lon="-2.44692">
        <ele>116.4506</ele>
        <time>2021-07-19T10:25:24Z</time>
      </trkpt>
      <trkpt lat="36.90444" lon="-2.44797">
        <ele>110.7648</ele>
        <time>2021-07-19T10:25:35Z</time>
      </trkpt>
      <trkpt lat="36.90543" lon="-2.4491">
        <ele>109.9692</ele>
        <time>2021-07-19T10:25:46Z</time>
      </trkpt>
      <trkpt lat="36.90691" lon="-2.4507">
        <ele>109.6957</ele>
        <time>2021-07-19T10:25:57Z</time>
      </trkpt>
      <trkpt lat="36.90858" lon="-2.45177">
        <ele>119.955</ele>
        <time>2021-07-19T10:26:08Z</time>
      </trkpt>
      <trkpt lat="36.90978" lon="-2.45364">
        <ele>131.794</ele>
        <time>2021-07-19T10:26:19Z</time>
      </trkpt>
      <trkpt lat="36.91042" lon="-2.45629">
        <ele>138.6155</ele>
        <time>2021-07-19T10:26:30Z</time>
      </trkpt>
      <trkpt lat="36.91206" lon="-2.45804">
        <ele>130.2515</ele>
        <time>2021-07-19T10:26:41Z</time>
      </trkpt>
      <trkpt lat="36.91422" lon="-2.45789">
        <ele>132.6858</ele>
        <time>2021-07-19T10:26:52Z</time>
      </trkpt>
      <trkpt lat="36.91603" lon="-2.45903">
        <ele>128.1706</ele>
        <time>2021-07-19T10:27:03Z</time>
      </trkpt>
      <trkpt lat="36.91799" lon="-2.4601">
        <ele>127.5595</ele>
        <time>2021-07-19T10:27:14Z</time>
      </trkpt>
      <trkpt lat="36.9201" lon="-2.46026">
        <ele>132.0076</ele>
        <time>2021-07-19T10:27:25Z</time>
      </trkpt>
      <trkpt lat="36.92164" lon="-2.4605">
        <ele>137.7793</ele>
        <time>2021-07-19T10:27:36Z</time>
      </trkpt>
      <trkpt lat="36.92226" lon="-2.46077">
        <ele>137.6888</ele>
        <time>2021-07-19T10:27:47Z</time>
      </trkpt>
      <trkpt lat="36.92289" lon="-2.46107">
        <ele>141.9919</ele>
        <time>2021-07-19T10:27:58Z</time>
      </trkpt>
      <trkpt lat="36.92372" lon="-2.46145">
        <ele>141.4474</ele>
        <time>2021-07-19T10:28:09Z</time>
      </trkpt>
      <trkpt lat="36.92462" lon="-2.46183">
        <ele>143.4815</ele>
        <time>2021-07-19T10:28:20Z</time>
      </trkpt>
      <trkpt lat="36.92565" lon="-2.46182">
        <ele>145.7687</ele>
        <time>2021-07-19T10:28:31Z</time>
      </trkpt>
      <trkpt lat="36.92629" lon="-2.46161">
        <ele>142.9534</ele>
        <time>2021-07-19T10:28:42Z</time>
      </trkpt>
      <trkpt lat="36.92698" lon="-2.46133">
        <ele>140.7382</ele>
        <time>2021-07-19T10:28:53Z</time>
      </trkpt>
      <trkpt lat="36.92829" lon="-2.46089">
        <ele>142.9324</ele>
        <time>2021-07-19T10:29:04Z</time>
      </trkpt>
      <trkpt lat="36.92964" lon="-2.46043">
        <ele>143.7127</ele>
        <time>2021-07-19T10:29:15Z</time>
      </trkpt>
      <trkpt lat="36.93137" lon="-2.46038">
        <ele>146.2899</ele>
        <time>2021-07-19T10:29:26Z</time>
      </trkpt>
      <trkpt lat="36.93258" lon="-2.46257">
        <ele>143.461</ele>
        <time>2021-07-19T10:29:37Z</time>
      </trkpt>
      <trkpt lat="36.9333" lon="-2.46466">
        <ele>139.1336</ele>
        <time>2021-07-19T10:29:48Z</time>
      </trkpt>
      <trkpt lat="36.93456" lon="-2.46423">
        <ele>144.3948</ele>
        <time>2021-07-19T10:29:59Z</time>
      </trkpt>
      <trkpt lat="36.93536" lon="-2.4624">
        <ele>137.9391</ele>
        <time>2021-07-19T10:30:10Z</time>
      </trkpt>
      <trkpt lat="36.93591" lon="-2.46138">
        <ele>137.0418</ele>
        <time>2021-07-19T10:30:21Z</time>
      </trkpt>
      <trkpt lat="36.93627" lon="-2.46103">
        <ele>135.8367</ele>
        <time>2021-07-19T10:30:32Z</time>
      </trkpt>
      <trkpt lat="36.9372" lon="-2.46018">
        <ele>135.0061</ele>
        <time>2021-07-19T10:30:43Z</time>
      </trkpt>
      <trkpt lat="36.93829" lon="-2.45917">
        <ele>134.1357</ele>
        <time>2021-07-19T10:30:54Z</time>
      </trkpt>
      <trkpt lat="36.93955" lon="-2.45923">
        <ele>132.5113</ele>
        <time>2021-07-19T10:31:05Z</time>
      </trkpt>
      <trkpt lat="36.94093" lon="-2.4604">
        <ele>130.6209</ele>
        <time>2021-07-19T10:31:16Z</time>
      </trkpt>
      <trkpt lat="36.94223" lon="-2.46149">
        <ele>129.4401</ele>
        <time>2021-07-19T10:31:27Z</time>
      </trkpt>
      <trkpt lat="36.94308" lon="-2.4622">
        <ele>131.4066</ele>
        <time>2021-07-19T10:31:38Z</time>
      </trkpt>
      <trkpt lat="36.94351" lon="-2.46256">
        <ele>133.9335</ele>
        <time>2021-07-19T10:31:49Z</time>
      </trkpt>
      <trkpt lat="36.94402" lon="-2.46298">
        <ele>137.2179</ele>
        <time>2021-07-19T10:32:00Z</time>
      </trkpt>
      <trkpt lat="36.94484" lon="-2.46302">
        <ele>138.0682</ele>
        <time>2021-07-19T10:32:11Z</time>
      </trkpt>
      <trkpt lat="36.94533" lon="-2.46374">
        <ele>135.336</ele>
        <time>2021-07-19T10:32:22Z</time>
      </trkpt>
      <trkpt lat="36.9458" lon="-2.46479">
        <ele>137.4005</ele>
        <time>2021-07-19T10:32:33Z</time>
      </trkpt>
      <trkpt lat="36.94627" lon="-2.46582">
        <ele>138.91</ele>
        <time>2021-07-19T10:32:44Z</time>
      </trkpt>
      <trkpt lat="36.94667" lon="-2.46677">
        <ele>139.9335</ele>
        <time>2021-07-19T10:32:55Z</time>
      </trkpt>
      <trkpt lat="36.94722" lon="-2.46801">
        <ele>137.3477</ele>
        <time>2021-07-19T10:33:06Z</time>
      </trkpt>
      <trkpt lat="36.94782" lon="-2.46921">
        <ele>138.4988</ele>
        <time>2021-07-19T10:33:17Z</time>
      </trkpt>
      <trkpt lat="36.94904" lon="-2.46986">
        <ele>138.7147</ele>
        <time>2021-07-19T10:33:28Z</time>
      </trkpt>
      <trkpt lat="36.95042" lon="-2.47025">
        <ele>141.5769</ele>
        <time>2021-07-19T10:33:39Z</time>
      </trkpt>
      <trkpt lat="36.95111" lon="-2.47006">
        <ele>143.7655</ele>
        <time>2021-07-19T10:33:50Z</time>
      </trkpt>
      <trkpt lat="36.95272" lon="-2.46959">
        <ele>146.274</ele>
        <time>2021-07-19T10:34:01Z</time>
      </trkpt>
      <trkpt lat="36.95486" lon="-2.46904">
        <ele>150.1279</ele>
        <time>2021-07-19T10:34:12Z</time>
      </trkpt>
      <trkpt lat="36.95722" lon="-2.46832">
        <ele>154.769</ele>
        <time>2021-07-19T10:34:23Z</time>
      </trkpt>
      <trkpt lat="36.9594" lon="-2.46737">
        <ele>157.0229</ele>
        <time>2021-07-19T10:34:34Z</time>
      </trkpt>
      <trkpt lat="36.96103" lon="-2.46706">
        <ele>162.8522</ele>
        <time>2021-07-19T10:34:45Z</time>
      </trkpt>
      <trkpt lat="36.96106" lon="-2.46557">
        <ele>165.6435</ele>
        <time>2021-07-19T10:34:56Z</time>
      </trkpt>
      <trkpt lat="36.96136" lon="-2.46479">
        <ele>166.0905</ele>
        <time>2021-07-19T10:35:07Z</time>
      </trkpt>
      <trkpt lat="36.96312" lon="-2.46582">
        <ele>160.8735</ele>
        <time>2021-07-19T10:35:18Z</time>
      </trkpt>
      <trkpt lat="36.96544" lon="-2.46522">
        <ele>160.4008</ele>
        <time>2021-07-19T10:35:29Z</time>
      </trkpt>
      <trkpt lat="36.96784" lon="-2.46479">
        <ele>162.8105</ele>
        <time>2021-07-19T10:35:40Z</time>
      </trkpt>
      <trkpt lat="36.97022" lon="-2.4647">
        <ele>167.5609</ele>
        <time>2021-07-19T10:35:51Z</time>
      </trkpt>
      <trkpt lat="36.97258" lon="-2.46462">
        <ele>169.9698</ele>
        <time>2021-07-19T10:36:02Z</time>
      </trkpt>
      <trkpt lat="36.97494" lon="-2.46452">
        <ele>178.3449</ele>
        <time>2021-07-19T10:36:13Z</time>
      </trkpt>
      <trkpt lat="36.97734" lon="-2.46443">
        <ele>186.507</ele>
        <time>2021-07-19T10:36:24Z</time>
      </trkpt>
      <trkpt lat="36.97976" lon="-2.46432">
        <ele>188.9796</ele>
        <time>2021-07-19T10:36:35Z</time>
      </trkpt>
      <trkpt lat="36.98193" lon="-2.46391">
        <ele>194.7428</ele>
        <time>2021-07-19T10:36:46Z</time>
      </trkpt>
      <trkpt lat="36.98429" lon="-2.46301">
        <ele>200.4495</ele>
        <time>2021-07-19T10:36:57Z</time>
      </trkpt>
      <trkpt lat="36.98669" lon="-2.463">
        <ele>200.9507</ele>
        <time>2021-07-19T10:37:08Z</time>
      </trkpt>
      <trkpt lat="36.9891" lon="-2.46332">
        <ele>201.3396</ele>
        <time>2021-07-19T10:37:19Z</time>
      </trkpt>
      <trkpt lat="36.99151" lon="-2.46283">
        <ele>200.3578</ele>
        <time>2021-07-19T10:37:30Z</time>
      </trkpt>
      <trkpt lat="36.9935" lon="-2.46384">
        <ele>210.7956</ele>
        <time>2021-07-19T10:37:41Z</time>
      </trkpt>
      <trkpt lat="36.99588" lon="-2.4635">
        <ele>225.0786</ele>
        <time>2021-07-19T10:37:52Z</time>
      </trkpt>
      <trkpt lat="36.99821" lon="-2.46228">
        <ele>236.1206</ele>
        <time>2021-07-19T10:38:03Z</time>
      </trkpt>
      <trkpt lat="37.00059" lon="-2.46127">
        <ele>238.995</ele>
        <time>2021-07-19T10:38:14Z</time>
      </trkpt>
      <trkpt lat="37.00237" lon="-2.45909">
        <ele>234.9659</ele>
        <time>2021-07-19T10:38:25Z</time>
      </trkpt>
      <trkpt lat="37.00429" lon="-2.4575">
        <ele>237.6848</ele>
        <time>2021-07-19T10:38:36Z</time>
      </trkpt>
      <trkpt lat="37.00623" lon="-2.45584">
        <ele>237.2588</ele>
        <time>2021-07-19T10:38:47Z</time>
      </trkpt>
      <trkpt lat="37.00794" lon="-2.45424">
        <ele>234.0167</ele>
        <time>2021-07-19T10:38:58Z</time>
      </trkpt>
      <trkpt lat="37.00967" lon="-2.45221">
        <ele>241.7879</ele>
        <time>2021-07-19T10:39:09Z</time>
      </trkpt>
      <trkpt lat="37.0111" lon="-2.44972">
        <ele>252.6984</ele>
        <time>2021-07-19T10:39:20Z</time>
      </trkpt>
      <trkpt lat="37.01254" lon="-2.44725">
        <ele>262.3873</ele>
        <time>2021-07-19T10:39:31Z</time>
      </trkpt>
      <trkpt lat="37.01458" lon="-2.44547">
        <ele>269.5003</ele>
        <time>2021-07-19T10:39:42Z</time>
      </trkpt>
      <trkpt lat="37.01706" lon="-2.44475">
        <ele>272.7687</ele>
        <time>2021-07-19T10:39:53Z</time>
      </trkpt>
      <trkpt lat="37.01838" lon="-2.44385">
        <ele>264.6383</ele>
        <time>2021-07-19T10:40:04Z</time>
      </trkpt>
      <trkpt lat="37.01856" lon="-2.44259">
        <ele>263.3748</ele>
        <time>2021-07-19T10:40:15Z</time>
      </trkpt>
      <trkpt lat="37.01975" lon="-2.44057">
        <ele>276.5031</ele>
        <time>2021-07-19T10:40:26Z</time>
      </trkpt>
      <trkpt lat="37.02032" lon="-2.4376">
        <ele>289.1098</ele>
        <time>2021-07-19T10:40:37Z</time>
      </trkpt>
      <trkpt lat="37.02119" lon="-2.43471">
        <ele>299.2457</ele>
        <time>2021-07-19T10:40:48Z</time>
      </trkpt>
      <trkpt lat="37.02292" lon="-2.43297">
        <ele>300.0421</ele>
        <time>2021-07-19T10:40:59Z</time>
      </trkpt>
      <trkpt lat="37.02428" lon="-2.43075">
        <ele>312.3171</ele>
        <time>2021-07-19T10:41:10Z</time>
      </trkpt>
      <trkpt lat="37.02531" lon="-2.42816">
        <ele>322.3519</ele>
        <time>2021-07-19T10:41:21Z</time>
      </trkpt>
      <trkpt lat="37.02728" lon="-2.42789">
        <ele>322.3758</ele>
        <time>2021-07-19T10:41:32Z</time>
      </trkpt>
      <trkpt lat="37.02917" lon="-2.42722">
        <ele>309.9589</ele>
        <time>2021-07-19T10:41:43Z</time>
      </trkpt>
      <trkpt lat="37.0304" lon="-2.42519">
        <ele>314.4727</ele>
        <time>2021-07-19T10:41:54Z</time>
      </trkpt>
      <trkpt lat="37.03087" lon="-2.42314">
        <ele>327.5525</ele>
        <time>2021-07-19T10:42:05Z</time>
      </trkpt>
      <trkpt lat="37.03233" lon="-2.42352">
        <ele>334.1719</ele>
        <time>2021-07-19T10:42:16Z</time>
      </trkpt>
      <trkpt lat="37.03394" lon="-2.42219">
        <ele>342.7505</ele>
        <time>2021-07-19T10:42:27Z</time>
      </trkpt>
      <trkpt lat="37.03523" lon="-2.41999">
        <ele>348.8211</ele>
        <time>2021-07-19T10:42:38Z</time>
      </trkpt>
      <trkpt lat="37.03654" lon="-2.41779">
        <ele>349.2475</ele>
        <time>2021-07-19T10:42:49Z</time>
      </trkpt>
      <trkpt lat="37.03787" lon="-2.41563">
        <ele>355.5272</ele>
        <time>2021-07-19T10:43:00Z</time>
      </trkpt>
      <trkpt lat="37.03961" lon="-2.41415">
        <ele>361.5784</ele>
        <time>2021-07-19T10:43:11Z</time>
      </trkpt>
      <trkpt lat="37.04149" lon="-2.41277">
        <ele>367.1241</ele>
        <time>2021-07-19T10:43:22Z</time>
      </trkpt>
      <trkpt lat="37.04245" lon="-2.41023">
        <ele>367.7718</ele>
        <time>2021-07-19T10:43:33Z</time>
      </trkpt>
      <trkpt lat="37.04212" lon="-2.40767">
        <ele>356.3756</ele>
        <time>2021-07-19T10:43:44Z</time>
      </trkpt>
      <trkpt lat="37.04238" lon="-2.40562">
        <ele>349.1283</ele>
        <time>2021-07-19T10:43:55Z</time>
      </trkpt>
      <trkpt lat="37.04455" lon="-2.40402">
        <ele>361.1246</ele>
        <time>2021-07-19T10:44:06Z</time>
      </trkpt>
      <trkpt lat="37.04678" lon="-2.40246">
        <ele>375.9143</ele>
        <time>2021-07-19T10:44:17Z</time>
      </trkpt>
      <trkpt lat="37.04897" lon="-2.40093">
        <ele>377.9707</ele>
        <time>2021-07-19T10:44:28Z</time>
      </trkpt>
      <trkpt lat="37.05108" lon="-2.39928">
        <ele>382.0886</ele>
        <time>2021-07-19T10:44:39Z</time>
      </trkpt>
      <trkpt lat="37.05305" lon="-2.39742">
        <ele>387.4568</ele>
        <time>2021-07-19T10:44:50Z</time>
      </trkpt>
      <trkpt lat="37.05493" lon="-2.39531">
        <ele>395.6336</ele>
        <time>2021-07-19T10:45:01Z</time>
      </trkpt>
      <trkpt lat="37.05675" lon="-2.393">
        <ele>408.0402</ele>
        <time>2021-07-19T10:45:12Z</time>
      </trkpt>
      <trkpt lat="37.0585" lon="-2.39064">
        <ele>424.0898</ele>
        <time>2021-07-19T10:45:23Z</time>
      </trkpt>
      <trkpt lat="37.06006" lon="-2.38857">
        <ele>432.778</ele>
        <time>2021-07-19T10:45:34Z</time>
      </trkpt>
      <trkpt lat="37.06098" lon="-2.38719">
        <ele>436.5278</ele>
        <time>2021-07-19T10:45:45Z</time>
      </trkpt>
      <trkpt lat="37.06174" lon="-2.38688">
        <ele>438.1403</ele>
        <time>2021-07-19T10:45:56Z</time>
      </trkpt>
      <trkpt lat="37.0631" lon="-2.38678">
        <ele>443.6546</ele>
        <time>2021-07-19T10:46:07Z</time>
      </trkpt>
      <trkpt lat="37.06491" lon="-2.38666">
        <ele>447.8246</ele>
        <time>2021-07-19T10:46:18Z</time>
      </trkpt>
      <trkpt lat="37.06701" lon="-2.38644">
        <ele>452.8453</ele>
        <time>2021-07-19T10:46:29Z</time>
      </trkpt>
      <trkpt lat="37.06916" lon="-2.38587">
        <ele>459.7653</ele>
        <time>2021-07-19T10:46:40Z</time>
      </trkpt>
      <trkpt lat="37.0712" lon="-2.38456">
        <ele>463.7129</ele>
        <time>2021-07-19T10:46:51Z</time>
      </trkpt>
      <trkpt lat="37.07326" lon="-2.3832">
        <ele>465.3964</ele>
        <time>2021-07-19T10:47:02Z</time>
      </trkpt>
      <trkpt lat="37.07529" lon="-2.38179">
        <ele>468.3016</ele>
        <time>2021-07-19T10:47:13Z</time>
      </trkpt>
      <trkpt lat="37.07737" lon="-2.38026">
        <ele>468.2342</ele>
        <time>2021-07-19T10:47:24Z</time>
      </trkpt>
      <trkpt lat="37.07923" lon="-2.37875">
        <ele>473.2647</ele>
        <time>2021-07-19T10:47:35Z</time>
      </trkpt>
      <trkpt lat="37.08135" lon="-2.37709">
        <ele>474.8336</ele>
        <time>2021-07-19T10:47:46Z</time>
      </trkpt>
      <trkpt lat="37.08339" lon="-2.3751">
        <ele>473.1795</ele>
        <time>2021-07-19T10:47:57Z</time>
      </trkpt>
      <trkpt lat="37.08551" lon="-2.37293">
        <ele>474.8041</ele>
        <time>2021-07-19T10:48:08Z</time>
      </trkpt>
      <trkpt lat="37.08771" lon="-2.37125">
        <ele>478.1938</ele>
        <time>2021-07-19T10:48:19Z</time>
      </trkpt>
      <trkpt lat="37.09001" lon="-2.3701">
        <ele>482.3141</ele>
        <time>2021-07-19T10:48:30Z</time>
      </trkpt>
      <trkpt lat="37.0924" lon="-2.36906">
        <ele>485.3962</ele>
        <time>2021-07-19T10:48:41Z</time>
      </trkpt>
      <trkpt lat="37.09453" lon="-2.36718">
        <ele>493.2017</ele>
        <time>2021-07-19T10:48:52Z</time>
      </trkpt>
      <trkpt lat="37.09653" lon="-2.3655">
        <ele>498.8756</ele>
        <time>2021-07-19T10:49:03Z</time>
      </trkpt>
      <trkpt lat="37.09863" lon="-2.36382">
        <ele>502.5649</ele>
        <time>2021-07-19T10:49:14Z</time>
      </trkpt>
      <trkpt lat="37.10059" lon="-2.36225">
        <ele>508.083</ele>
        <time>2021-07-19T10:49:25Z</time>
      </trkpt>
      <trkpt lat="37.10291" lon="-2.36059">
        <ele>515.741</ele>
        <time>2021-07-19T10:49:36Z</time>
      </trkpt>
      <trkpt lat="37.10506" lon="-2.35857">
        <ele>520.4082</ele>
        <time>2021-07-19T10:49:47Z</time>
      </trkpt>
      <trkpt lat="37.10705" lon="-2.3565">
        <ele>528.2523</ele>
        <time>2021-07-19T10:49:58Z</time>
      </trkpt>
      <trkpt lat="37.10949" lon="-2.35507">
        <ele>540.7591</ele>
        <time>2021-07-19T10:50:09Z</time>
      </trkpt>
      <trkpt lat="37.11198" lon="-2.3537">
        <ele>550.4196</ele>
        <time>2021-07-19T10:50:20Z</time>
      </trkpt>
      <trkpt lat="37.11448" lon="-2.35229">
        <ele>561.8597</ele>
        <time>2021-07-19T10:50:31Z</time>
      </trkpt>
      <trkpt lat="37.11708" lon="-2.35048">
        <ele>561.1362</ele>
        <time>2021-07-19T10:50:42Z</time>
      </trkpt>
      <trkpt lat="37.11943" lon="-2.34881">
        <ele>559.3233</ele>
        <time>2021-07-19T10:50:53Z</time>
      </trkpt>
      <trkpt lat="37.12182" lon="-2.3472">
        <ele>565.1411</ele>
        <time>2021-07-19T10:51:04Z</time>
      </trkpt>
      <trkpt lat="37.12424" lon="-2.34586">
        <ele>571.0704</ele>
        <time>2021-07-19T10:51:15Z</time>
      </trkpt>
      <trkpt lat="37.12687" lon="-2.34487">
        <ele>577.9107</ele>
        <time>2021-07-19T10:51:27Z</time>
      </trkpt>
      <trkpt lat="37.1295" lon="-2.34385">
        <ele>580.8365</ele>
        <time>2021-07-19T10:51:38Z</time>
      </trkpt>
      <trkpt lat="37.13168" lon="-2.34181">
        <ele>581.6788</ele>
        <time>2021-07-19T10:51:49Z</time>
      </trkpt>
      <trkpt lat="37.13425" lon="-2.34047">
        <ele>584.8911</ele>
        <time>2021-07-19T10:52:00Z</time>
      </trkpt>
      <trkpt lat="37.13691" lon="-2.33922">
        <ele>596.1206</ele>
        <time>2021-07-19T10:52:11Z</time>
      </trkpt>
      <trkpt lat="37.13947" lon="-2.3379">
        <ele>609.9539</ele>
        <time>2021-07-19T10:52:22Z</time>
      </trkpt>
      <trkpt lat="37.14208" lon="-2.33725">
        <ele>603.6671</ele>
        <time>2021-07-19T10:52:33Z</time>
      </trkpt>
      <trkpt lat="37.14453" lon="-2.33571">
        <ele>607.7377</ele>
        <time>2021-07-19T10:52:44Z</time>
      </trkpt>
      <trkpt lat="37.14651" lon="-2.33293">
        <ele>616.25</ele>
        <time>2021-07-19T10:52:55Z</time>
      </trkpt>
      <trkpt lat="37.14738" lon="-2.32962">
        <ele>630.1967</ele>
        <time>2021-07-19T10:53:06Z</time>
      </trkpt>
      <trkpt lat="37.14835" lon="-2.32634">
        <ele>635.0309</ele>
        <time>2021-07-19T10:53:17Z</time>
      </trkpt>
      <trkpt lat="37.15057" lon="-2.32413">
        <ele>644.1446</ele>
        <time>2021-07-19T10:53:28Z</time>
      </trkpt>
      <trkpt lat="37.15223" lon="-2.32173">
        <ele>659.6873</ele>
        <time>2021-07-19T10:53:39Z</time>
      </trkpt>
      <trkpt lat="37.1543" lon="-2.31933">
        <ele>677.129</ele>
        <time>2021-07-19T10:53:50Z</time>
      </trkpt>
      <trkpt lat="37.15647" lon="-2.31662">
        <ele>697.918</ele>
        <time>2021-07-19T10:54:01Z</time>
      </trkpt>
      <trkpt lat="37.15865" lon="-2.31433">
        <ele>713.7371</ele>
        <time>2021-07-19T10:54:12Z</time>
      </trkpt>
      <trkpt lat="37.16027" lon="-2.31162">
        <ele>732.8847</ele>
        <time>2021-07-19T10:54:23Z</time>
      </trkpt>
      <trkpt lat="37.16097" lon="-2.30827">
        <ele>746.3021</ele>
        <time>2021-07-19T10:54:34Z</time>
      </trkpt>
      <trkpt lat="37.16207" lon="-2.30508">
        <ele>757.4727</ele>
        <time>2021-07-19T10:54:45Z</time>
      </trkpt>
      <trkpt lat="37.16275" lon="-2.3017">
        <ele>770.0157</ele>
        <time>2021-07-19T10:54:56Z</time>
      </trkpt>
      <trkpt lat="37.16343" lon="-2.29836">
        <ele>788.1923</ele>
        <time>2021-07-19T10:55:07Z</time>
      </trkpt>
      <trkpt lat="37.16527" lon="-2.29575">
        <ele>805.744</ele>
        <time>2021-07-19T10:55:18Z</time>
      </trkpt>
      <trkpt lat="37.16796" lon="-2.29474">
        <ele>825.179</ele>
        <time>2021-07-19T10:55:29Z</time>
      </trkpt>
      <trkpt lat="37.17007" lon="-2.29384">
        <ele>839.6717</ele>
        <time>2021-07-19T10:55:40Z</time>
      </trkpt>
      <trkpt lat="37.17178" lon="-2.29283">
        <ele>846.2066</ele>
        <time>2021-07-19T10:55:51Z</time>
      </trkpt>
      <trkpt lat="37.17311" lon="-2.29169">
        <ele>850.1536</ele>
        <time>2021-07-19T10:56:02Z</time>
      </trkpt>
      <trkpt lat="37.17383" lon="-2.2902">
        <ele>857.6056</ele>
        <time>2021-07-19T10:56:13Z</time>
      </trkpt>
      <trkpt lat="37.17412" lon="-2.28838">
        <ele>869.4828</ele>
        <time>2021-07-19T10:56:24Z</time>
      </trkpt>
      <trkpt lat="37.17452" lon="-2.28559">
        <ele>885.1215</ele>
        <time>2021-07-19T10:56:35Z</time>
      </trkpt>
      <trkpt lat="37.17615" lon="-2.28273">
        <ele>903.826</ele>
        <time>2021-07-19T10:56:46Z</time>
      </trkpt>
      <trkpt lat="37.17759" lon="-2.27998">
        <ele>925.4114</ele>
        <time>2021-07-19T10:56:57Z</time>
      </trkpt>
      <trkpt lat="37.17919" lon="-2.27846">
        <ele>936.1529</ele>
        <time>2021-07-19T10:57:08Z</time>
      </trkpt>
      <trkpt lat="37.18095" lon="-2.28067">
        <ele>962.1495</ele>
        <time>2021-07-19T10:57:19Z</time>
      </trkpt>
      <trkpt lat="37.1835" lon="-2.28122">
        <ele>981.7546</ele>
        <time>2021-07-19T10:57:30Z</time>
      </trkpt>
      <trkpt lat="37.18619" lon="-2.28072">
        <ele>996.3302</ele>
        <time>2021-07-19T10:57:41Z</time>
      </trkpt>
      <trkpt lat="37.18849" lon="-2.28173">
        <ele>1015.611</ele>
        <time>2021-07-19T10:57:52Z</time>
      </trkpt>
      <trkpt lat="37.19066" lon="-2.2838">
        <ele>1035.619</ele>
        <time>2021-07-19T10:58:03Z</time>
      </trkpt>
      <trkpt lat="37.1921" lon="-2.28649">
        <ele>1056.719</ele>
        <time>2021-07-19T10:58:14Z</time>
      </trkpt>
      <trkpt lat="37.19228" lon="-2.28983">
        <ele>1077.088</ele>
        <time>2021-07-19T10:58:25Z</time>
      </trkpt>
      <trkpt lat="37.19447" lon="-2.29109">
        <ele>1099.67</ele>
        <time>2021-07-19T10:58:36Z</time>
      </trkpt>
      <trkpt lat="37.1972" lon="-2.29111">
        <ele>1122.452</ele>
        <time>2021-07-19T10:58:47Z</time>
      </trkpt>
      <trkpt lat="37.19972" lon="-2.29075">
        <ele>1141.935</ele>
        <time>2021-07-19T10:58:58Z</time>
      </trkpt>
      <trkpt lat="37.20238" lon="-2.29079">
        <ele>1159.297</ele>
        <time>2021-07-19T10:59:09Z</time>
      </trkpt>
      <trkpt lat="37.20428" lon="-2.29277">
        <ele>1177.012</ele>
        <time>2021-07-19T10:59:20Z</time>
      </trkpt>
      <trkpt lat="37.20595" lon="-2.29209">
        <ele>1194.32</ele>
        <time>2021-07-19T10:59:31Z</time>
      </trkpt>
      <trkpt lat="37.20732" lon="-2.2893">
        <ele>1209.65</ele>
        <time>2021-07-19T10:59:42Z</time>
      </trkpt>
      <trkpt lat="37.20904" lon="-2.28713">
        <ele>1226.489</ele>
        <time>2021-07-19T10:59:53Z</time>
      </trkpt>
      <trkpt lat="37.21046" lon="-2.28486">
        <ele>1241.447</ele>
        <time>2021-07-19T11:00:04Z</time>
      </trkpt>
      <trkpt lat="37.21248" lon="-2.28552">
        <ele>1231.258</ele>
        <time>2021-07-19T11:00:15Z</time>
      </trkpt>
      <trkpt lat="37.21249" lon="-2.28867">
        <ele>1221.226</ele>
        <time>2021-07-19T11:00:26Z</time>
      </trkpt>
      <trkpt lat="37.21258" lon="-2.2914">
        <ele>1205.005</ele>
        <time>2021-07-19T11:00:37Z</time>
      </trkpt>
      <trkpt lat="37.21342" lon="-2.29399">
        <ele>1189.907</ele>
        <time>2021-07-19T11:00:48Z</time>
      </trkpt>
      <trkpt lat="37.21505" lon="-2.29507">
        <ele>1175.745</ele>
        <time>2021-07-19T11:00:59Z</time>
      </trkpt>
      <trkpt lat="37.21616" lon="-2.29347">
        <ele>1165.008</ele>
        <time>2021-07-19T11:01:10Z</time>
      </trkpt>
      <trkpt lat="37.21704" lon="-2.29469">
        <ele>1158.29</ele>
        <time>2021-07-19T11:01:21Z</time>
      </trkpt>
      <trkpt lat="37.21648" lon="-2.29697">
        <ele>1156.398</ele>
        <time>2021-07-19T11:01:32Z</time>
      </trkpt>
      <trkpt lat="37.21779" lon="-2.29752">
        <ele>1145.177</ele>
        <time>2021-07-19T11:01:43Z</time>
      </trkpt>
      <trkpt lat="37.2193" lon="-2.29542">
        <ele>1129.796</ele>
        <time>2021-07-19T11:01:54Z</time>
      </trkpt>
      <trkpt lat="37.22074" lon="-2.29318">
        <ele>1122.754</ele>
        <time>2021-07-19T11:02:05Z</time>
      </trkpt>
      <trkpt lat="37.22205" lon="-2.29286">
        <ele>1116.03</ele>
        <time>2021-07-19T11:02:16Z</time>
      </trkpt>
      <trkpt lat="37.22205" lon="-2.29503">
        <ele>1109.502</ele>
        <time>2021-07-19T11:02:27Z</time>
      </trkpt>
      <trkpt lat="37.22283" lon="-2.2971">
        <ele>1103.943</ele>
        <time>2021-07-19T11:02:38Z</time>
      </trkpt>
      <trkpt lat="37.2231" lon="-2.29893">
        <ele>1101.669</ele>
        <time>2021-07-19T11:02:49Z</time>
      </trkpt>
      <trkpt lat="37.22451" lon="-2.29862">
        <ele>1096.938</ele>
        <time>2021-07-19T11:03:00Z</time>
      </trkpt>
      <trkpt lat="37.2253" lon="-2.29657">
        <ele>1083.076</ele>
        <time>2021-07-19T11:03:11Z</time>
      </trkpt>
      <trkpt lat="37.22616" lon="-2.2953">
        <ele>1075.742</ele>
        <time>2021-07-19T11:03:22Z</time>
      </trkpt>
      <trkpt lat="37.22763" lon="-2.29358">
        <ele>1074.165</ele>
        <time>2021-07-19T11:03:33Z</time>
      </trkpt>
      <trkpt lat="37.22921" lon="-2.29585">
        <ele>1059.019</ele>
        <time>2021-07-19T11:03:44Z</time>
      </trkpt>
      <trkpt lat="37.23092" lon="-2.29662">
        <ele>1046.499</ele>
        <time>2021-07-19T11:03:55Z</time>
      </trkpt>
      <trkpt lat="37.23278" lon="-2.29678">
        <ele>1050.131</ele>
        <time>2021-07-19T11:04:06Z</time>
      </trkpt>
      <trkpt lat="37.23346" lon="-2.29444">
        <ele>1064.244</ele>
        <time>2021-07-19T11:04:17Z</time>
      </trkpt>
      <trkpt lat="37.23567" lon="-2.29281">
        <ele>1071.748</ele>
        <time>2021-07-19T11:04:28Z</time>
      </trkpt>
      <trkpt lat="37.23776" lon="-2.29274">
        <ele>1071.445</ele>
        <time>2021-07-19T11:04:39Z</time>
      </trkpt>
      <trkpt lat="37.23978" lon="-2.29198">
        <ele>1079.99</ele>
        <time>2021-07-19T11:04:50Z</time>
      </trkpt>
      <trkpt lat="37.24207" lon="-2.29302">
        <ele>1086.336</ele>
        <time>2021-07-19T11:05:01Z</time>
      </trkpt>
      <trkpt lat="37.2441" lon="-2.29349">
        <ele>1089.47</ele>
        <time>2021-07-19T11:05:12Z</time>
      </trkpt>
      <trkpt lat="37.24393" lon="-2.29599">
        <ele>1098.992</ele>
        <time>2021-07-19T11:05:23Z</time>
      </trkpt>
      <trkpt lat="37.24564" lon="-2.29563">
        <ele>1099.309</ele>
        <time>2021-07-19T11:05:34Z</time>
      </trkpt>
      <trkpt lat="37.24718" lon="-2.29592">
        <ele>1098.919</ele>
        <time>2021-07-19T11:05:45Z</time>
      </trkpt>
      <trkpt lat="37.24866" lon="-2.29632">
        <ele>1102.179</ele>
        <time>2021-07-19T11:05:56Z</time>
      </trkpt>
      <trkpt lat="37.2503" lon="-2.29641">
        <ele>1106.339</ele>
        <time>2021-07-19T11:06:07Z</time>
      </trkpt>
      <trkpt lat="37.25175" lon="-2.29516">
        <ele>1112.463</ele>
        <time>2021-07-19T11:06:18Z</time>
      </trkpt>
      <trkpt lat="37.2535" lon="-2.29442">
        <ele>1115.96</ele>
        <time>2021-07-19T11:06:29Z</time>
      </trkpt>
      <trkpt lat="37.25565" lon="-2.29501">
        <ele>1123.899</ele>
        <time>2021-07-19T11:06:40Z</time>
      </trkpt>
      <trkpt lat="37.25741" lon="-2.29593">
        <ele>1121.965</ele>
        <time>2021-07-19T11:06:51Z</time>
      </trkpt>
      <trkpt lat="37.258" lon="-2.29787">
        <ele>1123.066</ele>
        <time>2021-07-19T11:07:02Z</time>
      </trkpt>
      <trkpt lat="37.26021" lon="-2.29855">
        <ele>1127.161</ele>
        <time>2021-07-19T11:07:13Z</time>
      </trkpt>
      <trkpt lat="37.26207" lon="-2.30033">
        <ele>1135.784</ele>
        <time>2021-07-19T11:07:24Z</time>
      </trkpt>
      <trkpt lat="37.26335" lon="-2.30265">
        <ele>1153.96</ele>
        <time>2021-07-19T11:07:35Z</time>
      </trkpt>
      <trkpt lat="37.26519" lon="-2.30385">
        <ele>1164.93</ele>
        <time>2021-07-19T11:07:46Z</time>
      </trkpt>
      <trkpt lat="37.26733" lon="-2.30372">
        <ele>1152.315</ele>
        <time>2021-07-19T11:07:57Z</time>
      </trkpt>
      <trkpt lat="37.26852" lon="-2.30143">
        <ele>1141.386</ele>
        <time>2021-07-19T11:08:08Z</time>
      </trkpt>
      <trkpt lat="37.27077" lon="-2.30165">
        <ele>1133.107</ele>
        <time>2021-07-19T11:08:19Z</time>
      </trkpt>
      <trkpt lat="37.27321" lon="-2.3031">
        <ele>1121.713</ele>
        <time>2021-07-19T11:08:30Z</time>
      </trkpt>
      <trkpt lat="37.27494" lon="-2.30136">
        <ele>1110.913</ele>
        <time>2021-07-19T11:08:41Z</time>
      </trkpt>
      <trkpt lat="37.27432" lon="-2.29874">
        <ele>1094.709</ele>
        <time>2021-07-19T11:08:52Z</time>
      </trkpt>
      <trkpt lat="37.27492" lon="-2.296">
        <ele>1074.901</ele>
        <time>2021-07-19T11:09:03Z</time>
      </trkpt>
      <trkpt lat="37.2769" lon="-2.29508">
        <ele>1058.971</ele>
        <time>2021-07-19T11:09:14Z</time>
      </trkpt>
      <trkpt lat="37.27915" lon="-2.29446">
        <ele>1041.593</ele>
        <time>2021-07-19T11:09:25Z</time>
      </trkpt>
      <trkpt lat="37.28122" lon="-2.29401">
        <ele>1021.778</ele>
        <time>2021-07-19T11:09:36Z</time>
      </trkpt>
      <trkpt lat="37.28144" lon="-2.29123">
        <ele>1008.762</ele>
        <time>2021-07-19T11:09:47Z</time>
      </trkpt>
      <trkpt lat="37.2832" lon="-2.29087">
        <ele>997.8472</ele>
        <time>2021-07-19T11:09:58Z</time>
      </trkpt>
      <trkpt lat="37.28497" lon="-2.29043">
        <ele>984.503</ele>
        <time>2021-07-19T11:10:09Z</time>
      </trkpt>
      <trkpt lat="37.28427" lon="-2.28732">
        <ele>963.8971</ele>
        <time>2021-07-19T11:10:21Z</time>
      </trkpt>
      <trkpt lat="37.28571" lon="-2.28609">
        <ele>945.7345</ele>
        <time>2021-07-19T11:10:32Z</time>
      </trkpt>
      <trkpt lat="37.28573" lon="-2.28395">
        <ele>933.4075</ele>
        <time>2021-07-19T11:10:43Z</time>
      </trkpt>
      <trkpt lat="37.2865" lon="-2.28143">
        <ele>917.6296</ele>
        <time>2021-07-19T11:10:54Z</time>
      </trkpt>
      <trkpt lat="37.28852" lon="-2.28033">
        <ele>899.2197</ele>
        <time>2021-07-19T11:11:05Z</time>
      </trkpt>
      <trkpt lat="37.29017" lon="-2.27964">
        <ele>886.9808</ele>
        <time>2021-07-19T11:11:16Z</time>
      </trkpt>
      <trkpt lat="37.29225" lon="-2.2798">
        <ele>869.4543</ele>
        <time>2021-07-19T11:11:27Z</time>
      </trkpt>
      <trkpt lat="37.29414" lon="-2.27884">
        <ele>848.4808</ele>
        <time>2021-07-19T11:11:38Z</time>
      </trkpt>
      <trkpt lat="37.29602" lon="-2.27782">
        <ele>833.5868</ele>
        <time>2021-07-19T11:11:49Z</time>
      </trkpt>
      <trkpt lat="37.29797" lon="-2.27673">
        <ele>829.0085</ele>
        <time>2021-07-19T11:12:00Z</time>
      </trkpt>
      <trkpt lat="37.30033" lon="-2.27765">
        <ele>827.8322</ele>
        <time>2021-07-19T11:12:11Z</time>
      </trkpt>
      <trkpt lat="37.30181" lon="-2.28001">
        <ele>827.2587</ele>
        <time>2021-07-19T11:12:22Z</time>
      </trkpt>
      <trkpt lat="37.3028" lon="-2.2824">
        <ele>832.7012</ele>
        <time>2021-07-19T11:12:33Z</time>
      </trkpt>
      <trkpt lat="37.30552" lon="-2.28275">
        <ele>854.0862</ele>
        <time>2021-07-19T11:12:44Z</time>
      </trkpt>
      <trkpt lat="37.30802" lon="-2.28348">
        <ele>868.5878</ele>
        <time>2021-07-19T11:12:55Z</time>
      </trkpt>
      <trkpt lat="37.3102" lon="-2.28233">
        <ele>883.3161</ele>
        <time>2021-07-19T11:13:06Z</time>
      </trkpt>
      <trkpt lat="37.31278" lon="-2.28223">
        <ele>870.2929</ele>
        <time>2021-07-19T11:13:17Z</time>
      </trkpt>
      <trkpt lat="37.3151" lon="-2.2813">
        <ele>848.7867</ele>
        <time>2021-07-19T11:13:28Z</time>
      </trkpt>
      <trkpt lat="37.31679" lon="-2.28167">
        <ele>834.2142</ele>
        <time>2021-07-19T11:13:39Z</time>
      </trkpt>
      <trkpt lat="37.31655" lon="-2.28417">
        <ele>820.2981</ele>
        <time>2021-07-19T11:13:50Z</time>
      </trkpt>
      <trkpt lat="37.31756" lon="-2.28488">
        <ele>819.9501</ele>
        <time>2021-07-19T11:14:01Z</time>
      </trkpt>
      <trkpt lat="37.31908" lon="-2.28471">
        <ele>814.0203</ele>
        <time>2021-07-19T11:14:12Z</time>
      </trkpt>
      <trkpt lat="37.32026" lon="-2.28346">
        <ele>802.7335</ele>
        <time>2021-07-19T11:14:23Z</time>
      </trkpt>
      <trkpt lat="37.32134" lon="-2.28222">
        <ele>789.9664</ele>
        <time>2021-07-19T11:14:34Z</time>
      </trkpt>
      <trkpt lat="37.32227" lon="-2.27969">
        <ele>776.4227</ele>
        <time>2021-07-19T11:14:45Z</time>
      </trkpt>
      <trkpt lat="37.32343" lon="-2.27595">
        <ele>750.4249</ele>
        <time>2021-07-19T11:14:56Z</time>
      </trkpt>
      <trkpt lat="37.32476" lon="-2.27325">
        <ele>725.033</ele>
        <time>2021-07-19T11:15:07Z</time>
      </trkpt>
      <trkpt lat="37.32583" lon="-2.27254">
        <ele>717.5339</ele>
        <time>2021-07-19T11:15:18Z</time>
      </trkpt>
      <trkpt lat="37.32677" lon="-2.27239">
        <ele>711.0328</ele>
        <time>2021-07-19T11:15:29Z</time>
      </trkpt>
      <trkpt lat="37.32768" lon="-2.27259">
        <ele>703.6807</ele>
        <time>2021-07-19T11:15:40Z</time>
      </trkpt>
      <trkpt lat="37.3285" lon="-2.27309">
        <ele>698.1573</ele>
        <time>2021-07-19T11:15:51Z</time>
      </trkpt>
      <trkpt lat="37.32923" lon="-2.27388">
        <ele>689.0881</ele>
        <time>2021-07-19T11:16:02Z</time>
      </trkpt>
      <trkpt lat="37.3298" lon="-2.27481">
        <ele>682.3142</ele>
        <time>2021-07-19T11:16:13Z</time>
      </trkpt>
      <trkpt lat="37.33041" lon="-2.2767">
        <ele>671.1304</ele>
        <time>2021-07-19T11:16:24Z</time>
      </trkpt>
      <trkpt lat="37.33074" lon="-2.28019">
        <ele>649.4919</ele>
        <time>2021-07-19T11:16:35Z</time>
      </trkpt>
      <trkpt lat="37.33062" lon="-2.28337">
        <ele>628.2155</ele>
        <time>2021-07-19T11:16:46Z</time>
      </trkpt>
      <trkpt lat="37.33165" lon="-2.287">
        <ele>604.3119</ele>
        <time>2021-07-19T11:16:57Z</time>
      </trkpt>
      <trkpt lat="37.33406" lon="-2.28857">
        <ele>582.0064</ele>
        <time>2021-07-19T11:17:08Z</time>
      </trkpt>
      <trkpt lat="37.33667" lon="-2.28922">
        <ele>560.3512</ele>
        <time>2021-07-19T11:17:19Z</time>
      </trkpt>
      <trkpt lat="37.33825" lon="-2.29206">
        <ele>544.1394</ele>
        <time>2021-07-19T11:17:30Z</time>
      </trkpt>
      <trkpt lat="37.34012" lon="-2.29427">
        <ele>527.1432</ele>
        <time>2021-07-19T11:17:41Z</time>
      </trkpt>
      <trkpt lat="37.34276" lon="-2.29377">
        <ele>504.4366</ele>
        <time>2021-07-19T11:17:52Z</time>
      </trkpt>
      <trkpt lat="37.34522" lon="-2.29276">
        <ele>492.2228</ele>
        <time>2021-07-19T11:18:03Z</time>
      </trkpt>
      <trkpt lat="37.34734" lon="-2.29158">
        <ele>473.7546</ele>
        <time>2021-07-19T11:18:14Z</time>
      </trkpt>
      <trkpt lat="37.34942" lon="-2.29178">
        <ele>455.9488</ele>
        <time>2021-07-19T11:18:25Z</time>
      </trkpt>
      <trkpt lat="37.35081" lon="-2.29329">
        <ele>454.1937</ele>
        <time>2021-07-19T11:18:36Z</time>
      </trkpt>
      <trkpt lat="37.35264" lon="-2.29238">
        <ele>458.8165</ele>
        <time>2021-07-19T11:18:47Z</time>
      </trkpt>
      <trkpt lat="37.35434" lon="-2.29059">
        <ele>454.4772</ele>
        <time>2021-07-19T11:18:58Z</time>
      </trkpt>
      <trkpt lat="37.35545" lon="-2.29009">
        <ele>452.3967</ele>
        <time>2021-07-19T11:19:09Z</time>
      </trkpt>
      <trkpt lat="37.35573" lon="-2.28995">
        <ele>453.3629</ele>
        <time>2021-07-19T11:19:20Z</time>
      </trkpt>
      <trkpt lat="37.35632" lon="-2.28924">
        <ele>453.8033</ele>
        <time>2021-07-19T11:19:31Z</time>
      </trkpt>
      <trkpt lat="37.35672" lon="-2.28823">
        <ele>458.412</ele>
        <time>2021-07-19T11:19:42Z</time>
      </trkpt>
      <trkpt lat="37.35719" lon="-2.28723">
        <ele>463.2559</ele>
        <time>2021-07-19T11:19:53Z</time>
      </trkpt>
      <trkpt lat="37.35762" lon="-2.28591">
        <ele>462.0952</ele>
        <time>2021-07-19T11:20:04Z</time>
      </trkpt>
      <trkpt lat="37.35775" lon="-2.28422">
        <ele>455.3057</ele>
        <time>2021-07-19T11:20:15Z</time>
      </trkpt>
      <trkpt lat="37.35904" lon="-2.2835">
        <ele>453.2568</ele>
        <time>2021-07-19T11:20:26Z</time>
      </trkpt>
      <trkpt lat="37.35869" lon="-2.28366">
        <ele>455.3269</ele>
        <time>2021-07-19T11:20:37Z</time>
      </trkpt>
      <trkpt lat="37.35846" lon="-2.28518">
        <ele>453.906</ele>
        <time>2021-07-19T11:20:48Z</time>
      </trkpt>
      <trkpt lat="37.35819" lon="-2.28672">
        <ele>456.8623</ele>
        <time>2021-07-19T11:20:59Z</time>
      </trkpt>
      <trkpt lat="37.35788" lon="-2.28853">
        <ele>459.1978</ele>
        <time>2021-07-19T11:21:10Z</time>
      </trkpt>
      <trkpt lat="37.35789" lon="-2.29072">
        <ele>462.6522</ele>
        <time>2021-07-19T11:21:21Z</time>
      </trkpt>
      <trkpt lat="37.35844" lon="-2.29377">
        <ele>469.0004</ele>
        <time>2021-07-19T11:21:32Z</time>
      </trkpt>
      <trkpt lat="37.35946" lon="-2.29604">
        <ele>471.8244</ele>
        <time>2021-07-19T11:21:43Z</time>
      </trkpt>
      <trkpt lat="37.36069" lon="-2.29808">
        <ele>476.2113</ele>
        <time>2021-07-19T11:21:54Z</time>
      </trkpt>
      <trkpt lat="37.36192" lon="-2.30017">
        <ele>480.2269</ele>
        <time>2021-07-19T11:22:05Z</time>
      </trkpt>
      <trkpt lat="37.36303" lon="-2.30242">
        <ele>488.1208</ele>
        <time>2021-07-19T11:22:16Z</time>
      </trkpt>
      <trkpt lat="37.36361" lon="-2.30514">
        <ele>493.3302</ele>
        <time>2021-07-19T11:22:27Z</time>
      </trkpt>
      <trkpt lat="37.36364" lon="-2.30832">
        <ele>496.9741</ele>
        <time>2021-07-19T11:22:38Z</time>
      </trkpt>
      <trkpt lat="37.36365" lon="-2.31153">
        <ele>498.585</ele>
        <time>2021-07-19T11:22:49Z</time>
      </trkpt>
      <trkpt lat="37.36351" lon="-2.31469">
        <ele>496.6196</ele>
        <time>2021-07-19T11:23:00Z</time>
      </trkpt>
      <trkpt lat="37.36205" lon="-2.31748">
        <ele>496.3569</ele>
        <time>2021-07-19T11:23:11Z</time>
      </trkpt>
      <trkpt lat="37.36056" lon="-2.32001">
        <ele>509.7932</ele>
        <time>2021-07-19T11:23:22Z</time>
      </trkpt>
      <trkpt lat="37.35893" lon="-2.3225">
        <ele>510.7147</ele>
        <time>2021-07-19T11:23:33Z</time>
      </trkpt>
      <trkpt lat="37.35943" lon="-2.32596">
        <ele>505.1438</ele>
        <time>2021-07-19T11:23:44Z</time>
      </trkpt>
      <trkpt lat="37.35871" lon="-2.32935">
        <ele>506.8646</ele>
        <time>2021-07-19T11:23:55Z</time>
      </trkpt>
      <trkpt lat="37.35831" lon="-2.3327">
        <ele>509.208</ele>
        <time>2021-07-19T11:24:06Z</time>
      </trkpt>
      <trkpt lat="37.35824" lon="-2.33606">
        <ele>513.5048</ele>
        <time>2021-07-19T11:24:17Z</time>
      </trkpt>
      <trkpt lat="37.35871" lon="-2.33939">
        <ele>516.9892</ele>
        <time>2021-07-19T11:24:28Z</time>
      </trkpt>
      <trkpt lat="37.35964" lon="-2.34248">
        <ele>519.8238</ele>
        <time>2021-07-19T11:24:39Z</time>
      </trkpt>
      <trkpt lat="37.35966" lon="-2.34519">
        <ele>517.0719</ele>
        <time>2021-07-19T11:24:50Z</time>
      </trkpt>
      <trkpt lat="37.35817" lon="-2.34731">
        <ele>513.7263</ele>
        <time>2021-07-19T11:25:01Z</time>
      </trkpt>
      <trkpt lat="37.35632" lon="-2.34886">
        <ele>512.0197</ele>
        <time>2021-07-19T11:25:12Z</time>
      </trkpt>
      <trkpt lat="37.35425" lon="-2.35035">
        <ele>523.5376</ele>
        <time>2021-07-19T11:25:23Z</time>
      </trkpt>
      <trkpt lat="37.35207" lon="-2.35173">
        <ele>525.1743</ele>
        <time>2021-07-19T11:25:34Z</time>
      </trkpt>
      <trkpt lat="37.35043" lon="-2.35392">
        <ele>531.322</ele>
        <time>2021-07-19T11:25:45Z</time>
      </trkpt>
      <trkpt lat="37.35042" lon="-2.35693">
        <ele>535.9545</ele>
        <time>2021-07-19T11:25:56Z</time>
      </trkpt>
      <trkpt lat="37.35179" lon="-2.35965">
        <ele>541.6399</ele>
        <time>2021-07-19T11:26:07Z</time>
      </trkpt>
      <trkpt lat="37.35258" lon="-2.36269">
        <ele>546.8348</ele>
        <time>2021-07-19T11:26:18Z</time>
      </trkpt>
      <trkpt lat="37.35278" lon="-2.36599">
        <ele>546.3438</ele>
        <time>2021-07-19T11:26:29Z</time>
      </trkpt>
      <trkpt lat="37.353" lon="-2.36935">
        <ele>544.8803</ele>
        <time>2021-07-19T11:26:40Z</time>
      </trkpt>
      <trkpt lat="37.35242" lon="-2.37234">
        <ele>556.4496</ele>
        <time>2021-07-19T11:26:51Z</time>
      </trkpt>
      <trkpt lat="37.35155" lon="-2.37499">
        <ele>559.4812</ele>
        <time>2021-07-19T11:27:02Z</time>
      </trkpt>
      <trkpt lat="37.35204" lon="-2.37814">
        <ele>567.1917</ele>
        <time>2021-07-19T11:27:13Z</time>
      </trkpt>
      <trkpt lat="37.35246" lon="-2.38123">
        <ele>575.9539</ele>
        <time>2021-07-19T11:27:24Z</time>
      </trkpt>
      <trkpt lat="37.35027" lon="-2.38264">
        <ele>592.2083</ele>
        <time>2021-07-19T11:27:35Z</time>
      </trkpt>
      <trkpt lat="37.34846" lon="-2.38477">
        <ele>607.2588</ele>
        <time>2021-07-19T11:27:46Z</time>
      </trkpt>
      <trkpt lat="37.34829" lon="-2.388">
        <ele>620.7702</ele>
        <time>2021-07-19T11:27:57Z</time>
      </trkpt>
      <trkpt lat="37.34761" lon="-2.39108">
        <ele>609.9962</ele>
        <time>2021-07-19T11:28:08Z</time>
      </trkpt>
      <trkpt lat="37.34883" lon="-2.3942">
        <ele>590.7264</ele>
        <time>2021-07-19T11:28:19Z</time>
      </trkpt>
      <trkpt lat="37.35016" lon="-2.39701">
        <ele>589.0947</ele>
        <time>2021-07-19T11:28:30Z</time>
      </trkpt>
      <trkpt lat="37.3491" lon="-2.39985">
        <ele>602.0796</ele>
        <time>2021-07-19T11:28:41Z</time>
      </trkpt>
      <trkpt lat="37.349" lon="-2.40317">
        <ele>612.0676</ele>
        <time>2021-07-19T11:28:52Z</time>
      </trkpt>
      <trkpt lat="37.34958" lon="-2.40645">
        <ele>615.6386</ele>
        <time>2021-07-19T11:29:03Z</time>
      </trkpt>
      <trkpt lat="37.34997" lon="-2.40965">
        <ele>609.3228</ele>
        <time>2021-07-19T11:29:14Z</time>
      </trkpt>
      <trkpt lat="37.35122" lon="-2.41237">
        <ele>611.8637</ele>
        <time>2021-07-19T11:29:25Z</time>
      </trkpt>
      <trkpt lat="37.35203" lon="-2.41524">
        <ele>622.2556</ele>
        <time>2021-07-19T11:29:36Z</time>
      </trkpt>
      <trkpt lat="37.35045" lon="-2.41758">
        <ele>622.7131</ele>
        <time>2021-07-19T11:29:47Z</time>
      </trkpt>
      <trkpt lat="37.34883" lon="-2.41993">
        <ele>631.6977</ele>
        <time>2021-07-19T11:29:58Z</time>
      </trkpt>
      <trkpt lat="37.34877" lon="-2.42278">
        <ele>633.8802</ele>
        <time>2021-07-19T11:30:09Z</time>
      </trkpt>
      <trkpt lat="37.34922" lon="-2.42455">
        <ele>642.1284</ele>
        <time>2021-07-19T11:30:20Z</time>
      </trkpt>
      <trkpt lat="37.34957" lon="-2.42737">
        <ele>655.9477</ele>
        <time>2021-07-19T11:30:31Z</time>
      </trkpt>
      <trkpt lat="37.3497" lon="-2.43025">
        <ele>666.5585</ele>
        <time>2021-07-19T11:30:42Z</time>
      </trkpt>
      <trkpt lat="37.34943" lon="-2.43347">
        <ele>666.369</ele>
        <time>2021-07-19T11:30:53Z</time>
      </trkpt>
      <trkpt lat="37.34907" lon="-2.43681">
        <ele>662.7177</ele>
        <time>2021-07-19T11:31:04Z</time>
      </trkpt>
      <trkpt lat="37.34879" lon="-2.44015">
        <ele>666.366</ele>
        <time>2021-07-19T11:31:15Z</time>
      </trkpt>
      <trkpt lat="37.34919" lon="-2.44312">
        <ele>662.3818</ele>
        <time>2021-07-19T11:31:26Z</time>
      </trkpt>
      <trkpt lat="37.35041" lon="-2.44623">
        <ele>663.6494</ele>
        <time>2021-07-19T11:31:37Z</time>
      </trkpt>
      <trkpt lat="37.35138" lon="-2.44924">
        <ele>661.9737</ele>
        <time>2021-07-19T11:31:48Z</time>
      </trkpt>
      <trkpt lat="37.35129" lon="-2.45255">
        <ele>662.9054</ele>
        <time>2021-07-19T11:31:59Z</time>
      </trkpt>
      <trkpt lat="37.35185" lon="-2.45582">
        <ele>669.8782</ele>
        <time>2021-07-19T11:32:10Z</time>
      </trkpt>
      <trkpt lat="37.35092" lon="-2.45882">
        <ele>680.4383</ele>
        <time>2021-07-19T11:32:21Z</time>
      </trkpt>
      <trkpt lat="37.34911" lon="-2.46138">
        <ele>689.8976</ele>
        <time>2021-07-19T11:32:32Z</time>
      </trkpt>
      <trkpt lat="37.34776" lon="-2.46425">
        <ele>691.9405</ele>
        <time>2021-07-19T11:32:43Z</time>
      </trkpt>
      <trkpt lat="37.34713" lon="-2.46752">
        <ele>692.6389</ele>
        <time>2021-07-19T11:32:54Z</time>
      </trkpt>
      <trkpt lat="37.3465" lon="-2.47075">
        <ele>703.3903</ele>
        <time>2021-07-19T11:33:05Z</time>
      </trkpt>
      <trkpt lat="37.34544" lon="-2.47346">
        <ele>715.1359</ele>
        <time>2021-07-19T11:33:16Z</time>
      </trkpt>
      <trkpt lat="37.34397" lon="-2.47544">
        <ele>720.6029</ele>
        <time>2021-07-19T11:33:27Z</time>
      </trkpt>
      <trkpt lat="37.34218" lon="-2.47753">
        <ele>717.6941</ele>
        <time>2021-07-19T11:33:38Z</time>
      </trkpt>
      <trkpt lat="37.3404" lon="-2.47957">
        <ele>721.9058</ele>
        <time>2021-07-19T11:33:49Z</time>
      </trkpt>
      <trkpt lat="37.3395" lon="-2.48278">
        <ele>728.6346</ele>
        <time>2021-07-19T11:34:00Z</time>
      </trkpt>
      <trkpt lat="37.3388" lon="-2.48599">
        <ele>724.7484</ele>
        <time>2021-07-19T11:34:11Z</time>
      </trkpt>
      <trkpt lat="37.33901" lon="-2.4894">
        <ele>728.5124</ele>
        <time>2021-07-19T11:34:22Z</time>
      </trkpt>
      <trkpt lat="37.34052" lon="-2.49198">
        <ele>725.1109</ele>
        <time>2021-07-19T11:34:33Z</time>
      </trkpt>
      <trkpt lat="37.34324" lon="-2.49211">
        <ele>730.5226</ele>
        <time>2021-07-19T11:34:44Z</time>
      </trkpt>
      <trkpt lat="37.3459" lon="-2.49282">
        <ele>739.0219</ele>
        <time>2021-07-19T11:34:55Z</time>
      </trkpt>
      <trkpt lat="37.34792" lon="-2.49519">
        <ele>743.3957</ele>
        <time>2021-07-19T11:35:06Z</time>
      </trkpt>
      <trkpt lat="37.35027" lon="-2.49687">
        <ele>748.2532</ele>
        <time>2021-07-19T11:35:17Z</time>
      </trkpt>
      <trkpt lat="37.3529" lon="-2.49791">
        <ele>754.8484</ele>
        <time>2021-07-19T11:35:28Z</time>
      </trkpt>
      <trkpt lat="37.35473" lon="-2.50002">
        <ele>755.9705</ele>
        <time>2021-07-19T11:35:39Z</time>
      </trkpt>
      <trkpt lat="37.35677" lon="-2.50262">
        <ele>758.3061</ele>
        <time>2021-07-19T11:35:50Z</time>
      </trkpt>
      <trkpt lat="37.35864" lon="-2.50505">
        <ele>766.2349</ele>
        <time>2021-07-19T11:36:01Z</time>
      </trkpt>
      <trkpt lat="37.36047" lon="-2.50742">
        <ele>774.6448</ele>
        <time>2021-07-19T11:36:12Z</time>
      </trkpt>
      <trkpt lat="37.36231" lon="-2.50982">
        <ele>786.0232</ele>
        <time>2021-07-19T11:36:23Z</time>
      </trkpt>
      <trkpt lat="37.36333" lon="-2.51289">
        <ele>798.9861</ele>
        <time>2021-07-19T11:36:34Z</time>
      </trkpt>
      <trkpt lat="37.36334" lon="-2.51621">
        <ele>815.8759</ele>
        <time>2021-07-19T11:36:45Z</time>
      </trkpt>
      <trkpt lat="37.36446" lon="-2.5191">
        <ele>831.7055</ele>
        <time>2021-07-19T11:36:56Z</time>
      </trkpt>
      <trkpt lat="37.36548" lon="-2.52202">
        <ele>833.5479</ele>
        <time>2021-07-19T11:37:07Z</time>
      </trkpt>
      <trkpt lat="37.3646" lon="-2.52499">
        <ele>838.5804</ele>
        <time>2021-07-19T11:37:18Z</time>
      </trkpt>
      <trkpt lat="37.36466" lon="-2.52809">
        <ele>848.2309</ele>
        <time>2021-07-19T11:37:29Z</time>
      </trkpt>
      <trkpt lat="37.36515" lon="-2.53104">
        <ele>857.5611</ele>
        <time>2021-07-19T11:37:40Z</time>
      </trkpt>
      <trkpt lat="37.36626" lon="-2.53405">
        <ele>868.0388</ele>
        <time>2021-07-19T11:37:51Z</time>
      </trkpt>
      <trkpt lat="37.36693" lon="-2.53733">
        <ele>878.8302</ele>
        <time>2021-07-19T11:38:02Z</time>
      </trkpt>
      <trkpt lat="37.36667" lon="-2.54054">
        <ele>887.9364</ele>
        <time>2021-07-19T11:38:13Z</time>
      </trkpt>
      <trkpt lat="37.36644" lon="-2.54391">
        <ele>899.1035</ele>
        <time>2021-07-19T11:38:24Z</time>
      </trkpt>
      <trkpt lat="37.3671" lon="-2.54701">
        <ele>908.8089</ele>
        <time>2021-07-19T11:38:35Z</time>
      </trkpt>
      <trkpt lat="37.3685" lon="-2.54981">
        <ele>918.9569</ele>
        <time>2021-07-19T11:38:46Z</time>
      </trkpt>
      <trkpt lat="37.36996" lon="-2.55259">
        <ele>928.4161</ele>
        <time>2021-07-19T11:38:57Z</time>
      </trkpt>
      <trkpt lat="37.37145" lon="-2.55547">
        <ele>932.661</ele>
        <time>2021-07-19T11:39:08Z</time>
      </trkpt>
      <trkpt lat="37.37291" lon="-2.55819">
        <ele>933.4586</ele>
        <time>2021-07-19T11:39:19Z</time>
      </trkpt>
      <trkpt lat="37.37433" lon="-2.56093">
        <ele>933.9735</ele>
        <time>2021-07-19T11:39:30Z</time>
      </trkpt>
      <trkpt lat="37.3756" lon="-2.5638">
        <ele>941.0155</ele>
        <time>2021-07-19T11:39:41Z</time>
      </trkpt>
      <trkpt lat="37.37652" lon="-2.56639">
        <ele>947.2937</ele>
        <time>2021-07-19T11:39:52Z</time>
      </trkpt>
      <trkpt lat="37.37761" lon="-2.56937">
        <ele>955.8786</ele>
        <time>2021-07-19T11:40:03Z</time>
      </trkpt>
      <trkpt lat="37.37873" lon="-2.5723">
        <ele>950.1161</ele>
        <time>2021-07-19T11:40:14Z</time>
      </trkpt>
      <trkpt lat="37.37992" lon="-2.57533">
        <ele>947.3438</ele>
        <time>2021-07-19T11:40:25Z</time>
      </trkpt>
      <trkpt lat="37.38124" lon="-2.57832">
        <ele>954.6421</ele>
        <time>2021-07-19T11:40:36Z</time>
      </trkpt>
      <trkpt lat="37.38313" lon="-2.58092">
        <ele>957.0394</ele>
        <time>2021-07-19T11:40:47Z</time>
      </trkpt>
      <trkpt lat="37.38481" lon="-2.58362">
        <ele>959.5456</ele>
        <time>2021-07-19T11:40:58Z</time>
      </trkpt>
      <trkpt lat="37.38687" lon="-2.58567">
        <ele>959.6582</ele>
        <time>2021-07-19T11:41:09Z</time>
      </trkpt>
      <trkpt lat="37.389" lon="-2.58775">
        <ele>950.8684</ele>
        <time>2021-07-19T11:41:20Z</time>
      </trkpt>
      <trkpt lat="37.3905" lon="-2.59004">
        <ele>944.4475</ele>
        <time>2021-07-19T11:41:31Z</time>
      </trkpt>
      <trkpt lat="37.39227" lon="-2.59148">
        <ele>953.8794</ele>
        <time>2021-07-19T11:41:42Z</time>
      </trkpt>
      <trkpt lat="37.39325" lon="-2.59226">
        <ele>960.5066</ele>
        <time>2021-07-19T11:41:53Z</time>
      </trkpt>
      <trkpt lat="37.39455" lon="-2.5933">
        <ele>966.3057</ele>
        <time>2021-07-19T11:42:04Z</time>
      </trkpt>
      <trkpt lat="37.39574" lon="-2.59428">
        <ele>969.9491</ele>
        <time>2021-07-19T11:42:15Z</time>
      </trkpt>
      <trkpt lat="37.39686" lon="-2.59513">
        <ele>967.4584</ele>
        <time>2021-07-19T11:42:26Z</time>
      </trkpt>
      <trkpt lat="37.39825" lon="-2.59627">
        <ele>970.1219</ele>
        <time>2021-07-19T11:42:37Z</time>
      </trkpt>
      <trkpt lat="37.3999" lon="-2.59813">
        <ele>972.6021</ele>
        <time>2021-07-19T11:42:48Z</time>
      </trkpt>
      <trkpt lat="37.40009" lon="-2.60129">
        <ele>980.9449</ele>
        <time>2021-07-19T11:42:59Z</time>
      </trkpt>
      <trkpt lat="37.40069" lon="-2.60416">
        <ele>985.0804</ele>
        <time>2021-07-19T11:43:10Z</time>
      </trkpt>
      <trkpt lat="37.40142" lon="-2.60688">
        <ele>981.8404</ele>
        <time>2021-07-19T11:43:21Z</time>
      </trkpt>
      <trkpt lat="37.40205" lon="-2.60945">
        <ele>981.4874</ele>
        <time>2021-07-19T11:43:32Z</time>
      </trkpt>
      <trkpt lat="37.40286" lon="-2.61256">
        <ele>977.5037</ele>
        <time>2021-07-19T11:43:43Z</time>
      </trkpt>
      <trkpt lat="37.40343" lon="-2.61475">
        <ele>972.725</ele>
        <time>2021-07-19T11:43:54Z</time>
      </trkpt>
      <trkpt lat="37.40398" lon="-2.61682">
        <ele>969.2974</ele>
        <time>2021-07-19T11:44:05Z</time>
      </trkpt>
      <trkpt lat="37.40443" lon="-2.61855">
        <ele>968.4689</ele>
        <time>2021-07-19T11:44:16Z</time>
      </trkpt>
      <trkpt lat="37.40483" lon="-2.62013">
        <ele>968.5703</ele>
        <time>2021-07-19T11:44:27Z</time>
      </trkpt>
      <trkpt lat="37.40534" lon="-2.62214">
        <ele>968.7989</ele>
        <time>2021-07-19T11:44:38Z</time>
      </trkpt>
      <trkpt lat="37.40589" lon="-2.62425">
        <ele>971.0809</ele>
        <time>2021-07-19T11:44:49Z</time>
      </trkpt>
      <trkpt lat="37.40652" lon="-2.62666">
        <ele>974.6446</ele>
        <time>2021-07-19T11:45:00Z</time>
      </trkpt>
      <trkpt lat="37.40714" lon="-2.62902">
        <ele>981.348</ele>
        <time>2021-07-19T11:45:11Z</time>
      </trkpt>
      <trkpt lat="37.40782" lon="-2.63166">
        <ele>989.21</ele>
        <time>2021-07-19T11:45:22Z</time>
      </trkpt>
      <trkpt lat="37.40855" lon="-2.63448">
        <ele>993.2284</ele>
        <time>2021-07-19T11:45:33Z</time>
      </trkpt>
      <trkpt lat="37.40935" lon="-2.63753">
        <ele>990.4188</ele>
        <time>2021-07-19T11:45:44Z</time>
      </trkpt>
      <trkpt lat="37.41013" lon="-2.64052">
        <ele>986.7793</ele>
        <time>2021-07-19T11:45:55Z</time>
      </trkpt>
      <trkpt lat="37.41095" lon="-2.64348">
        <ele>987.1904</ele>
        <time>2021-07-19T11:46:06Z</time>
      </trkpt>
      <trkpt lat="37.4116" lon="-2.64628">
        <ele>986.8265</ele>
        <time>2021-07-19T11:46:17Z</time>
      </trkpt>
      <trkpt lat="37.4126" lon="-2.65003">
        <ele>980.1663</ele>
        <time>2021-07-19T11:46:28Z</time>
      </trkpt>
      <trkpt lat="37.41345" lon="-2.65347">
        <ele>979.8673</ele>
        <time>2021-07-19T11:46:39Z</time>
      </trkpt>
      <trkpt lat="37.41442" lon="-2.65705">
        <ele>980.7482</ele>
        <time>2021-07-19T11:46:50Z</time>
      </trkpt>
      <trkpt lat="37.41535" lon="-2.66047">
        <ele>979.9994</ele>
        <time>2021-07-19T11:47:01Z</time>
      </trkpt>
      <trkpt lat="37.41662" lon="-2.66379">
        <ele>963.2345</ele>
        <time>2021-07-19T11:47:12Z</time>
      </trkpt>
      <trkpt lat="37.41815" lon="-2.66701">
        <ele>944.856</ele>
        <time>2021-07-19T11:47:23Z</time>
      </trkpt>
      <trkpt lat="37.41973" lon="-2.67006">
        <ele>939.3772</ele>
        <time>2021-07-19T11:47:34Z</time>
      </trkpt>
      <trkpt lat="37.42118" lon="-2.67312">
        <ele>945.6541</ele>
        <time>2021-07-19T11:47:45Z</time>
      </trkpt>
      <trkpt lat="37.42229" lon="-2.6764">
        <ele>950.9844</ele>
        <time>2021-07-19T11:47:56Z</time>
      </trkpt>
      <trkpt lat="37.42333" lon="-2.6797">
        <ele>956.0947</ele>
        <time>2021-07-19T11:48:07Z</time>
      </trkpt>
      <trkpt lat="37.42439" lon="-2.68314">
        <ele>957.9126</ele>
        <time>2021-07-19T11:48:18Z</time>
      </trkpt>
      <trkpt lat="37.42543" lon="-2.68649">
        <ele>952.2619</ele>
        <time>2021-07-19T11:48:29Z</time>
      </trkpt>
      <trkpt lat="37.4265" lon="-2.68983">
        <ele>944.2626</ele>
        <time>2021-07-19T11:48:40Z</time>
      </trkpt>
      <trkpt lat="37.42811" lon="-2.69267">
        <ele>936.7069</ele>
        <time>2021-07-19T11:48:51Z</time>
      </trkpt>
      <trkpt lat="37.42999" lon="-2.69525">
        <ele>930.4311</ele>
        <time>2021-07-19T11:49:02Z</time>
      </trkpt>
      <trkpt lat="37.43189" lon="-2.69781">
        <ele>924.2335</ele>
        <time>2021-07-19T11:49:13Z</time>
      </trkpt>
      <trkpt lat="37.43352" lon="-2.70066">
        <ele>912.0538</ele>
        <time>2021-07-19T11:49:24Z</time>
      </trkpt>
      <trkpt lat="37.43391" lon="-2.70416">
        <ele>898.36</ele>
        <time>2021-07-19T11:49:35Z</time>
      </trkpt>
      <trkpt lat="37.4352" lon="-2.70732">
        <ele>887.0842</ele>
        <time>2021-07-19T11:49:46Z</time>
      </trkpt>
      <trkpt lat="37.43684" lon="-2.71001">
        <ele>872.599</ele>
        <time>2021-07-19T11:49:57Z</time>
      </trkpt>
      <trkpt lat="37.43838" lon="-2.71244">
        <ele>863.3607</ele>
        <time>2021-07-19T11:50:08Z</time>
      </trkpt>
      <trkpt lat="37.43997" lon="-2.71477">
        <ele>859.5336</ele>
        <time>2021-07-19T11:50:19Z</time>
      </trkpt>
      <trkpt lat="37.44167" lon="-2.71715">
        <ele>855.9822</ele>
        <time>2021-07-19T11:50:30Z</time>
      </trkpt>
      <trkpt lat="37.44344" lon="-2.7196">
        <ele>856.3107</ele>
        <time>2021-07-19T11:50:41Z</time>
      </trkpt>
      <trkpt lat="37.4449" lon="-2.72244">
        <ele>857.0606</ele>
        <time>2021-07-19T11:50:52Z</time>
      </trkpt>
      <trkpt lat="37.4461" lon="-2.72518">
        <ele>855.5464</ele>
        <time>2021-07-19T11:51:03Z</time>
      </trkpt>
      <trkpt lat="37.44745" lon="-2.72788">
        <ele>850.1022</ele>
        <time>2021-07-19T11:51:14Z</time>
      </trkpt>
      <trkpt lat="37.44916" lon="-2.73065">
        <ele>862.6498</ele>
        <time>2021-07-19T11:51:25Z</time>
      </trkpt>
      <trkpt lat="37.45094" lon="-2.73298">
        <ele>867.3358</ele>
        <time>2021-07-19T11:51:36Z</time>
      </trkpt>
      <trkpt lat="37.45253" lon="-2.73515">
        <ele>866.2524</ele>
        <time>2021-07-19T11:51:47Z</time>
      </trkpt>
      <trkpt lat="37.45353" lon="-2.73657">
        <ele>865.4814</ele>
        <time>2021-07-19T11:51:58Z</time>
      </trkpt>
      <trkpt lat="37.45415" lon="-2.73719">
        <ele>868.1875</ele>
        <time>2021-07-19T11:52:09Z</time>
      </trkpt>
      <trkpt lat="37.45489" lon="-2.73847">
        <ele>870.4803</ele>
        <time>2021-07-19T11:52:20Z</time>
      </trkpt>
      <trkpt lat="37.45612" lon="-2.74017">
        <ele>870.0883</ele>
        <time>2021-07-19T11:52:31Z</time>
      </trkpt>
      <trkpt lat="37.45759" lon="-2.74179">
        <ele>863.6696</ele>
        <time>2021-07-19T11:52:42Z</time>
      </trkpt>
      <trkpt lat="37.45908" lon="-2.74338">
        <ele>860.3521</ele>
        <time>2021-07-19T11:52:53Z</time>
      </trkpt>
      <trkpt lat="37.46051" lon="-2.74485">
        <ele>859.593</ele>
        <time>2021-07-19T11:53:04Z</time>
      </trkpt>
      <trkpt lat="37.46199" lon="-2.74645">
        <ele>855.0072</ele>
        <time>2021-07-19T11:53:15Z</time>
      </trkpt>
      <trkpt lat="37.46336" lon="-2.74797">
        <ele>854.8096</ele>
        <time>2021-07-19T11:53:26Z</time>
      </trkpt>
      <trkpt lat="37.46472" lon="-2.74977">
        <ele>856.3198</ele>
        <time>2021-07-19T11:53:37Z</time>
      </trkpt>
      <trkpt lat="37.46603" lon="-2.75156">
        <ele>856.8537</ele>
        <time>2021-07-19T11:53:48Z</time>
      </trkpt>
      <trkpt lat="37.4673" lon="-2.75332">
        <ele>856.6261</ele>
        <time>2021-07-19T11:53:59Z</time>
      </trkpt>
      <trkpt lat="37.46861" lon="-2.75514">
        <ele>857.1327</ele>
        <time>2021-07-19T11:54:10Z</time>
      </trkpt>
      <trkpt lat="37.46993" lon="-2.757">
        <ele>858.0145</ele>
        <time>2021-07-19T11:54:21Z</time>
      </trkpt>
      <trkpt lat="37.47118" lon="-2.75859">
        <ele>858.3025</ele>
        <time>2021-07-19T11:54:32Z</time>
      </trkpt>
      <trkpt lat="37.47235" lon="-2.75999">
        <ele>854.2613</ele>
        <time>2021-07-19T11:54:43Z</time>
      </trkpt>
      <trkpt lat="37.47356" lon="-2.76118">
        <ele>852.0938</ele>
        <time>2021-07-19T11:54:54Z</time>
      </trkpt>
      <trkpt lat="37.47476" lon="-2.76215">
        <ele>847.5467</ele>
        <time>2021-07-19T11:55:05Z</time>
      </trkpt>
      <trkpt lat="37.47592" lon="-2.76305">
        <ele>846.5952</ele>
        <time>2021-07-19T11:55:16Z</time>
      </trkpt>
      <trkpt lat="37.47721" lon="-2.76404">
        <ele>844.6417</ele>
        <time>2021-07-19T11:55:27Z</time>
      </trkpt>
      <trkpt lat="37.47854" lon="-2.76506">
        <ele>839.7363</ele>
        <time>2021-07-19T11:55:38Z</time>
      </trkpt>
      <trkpt lat="37.4798" lon="-2.76549">
        <ele>837.4465</ele>
        <time>2021-07-19T11:55:49Z</time>
      </trkpt>
      <trkpt lat="37.48092" lon="-2.76601">
        <ele>838.4869</ele>
        <time>2021-07-19T11:56:00Z</time>
      </trkpt>
      <trkpt lat="37.48154" lon="-2.76651">
        <ele>839.535</ele>
        <time>2021-07-19T11:56:11Z</time>
      </trkpt>
      <trkpt lat="37.48223" lon="-2.76711">
        <ele>843.9249</ele>
        <time>2021-07-19T11:56:22Z</time>
      </trkpt>
      <trkpt lat="37.48294" lon="-2.76769">
        <ele>843.3296</ele>
        <time>2021-07-19T11:56:33Z</time>
      </trkpt>
      <trkpt lat="37.48342" lon="-2.76804">
        <ele>841.9286</ele>
        <time>2021-07-19T11:56:44Z</time>
      </trkpt>
      <trkpt lat="37.48309" lon="-2.76783">
        <ele>847.1235</ele>
        <time>2021-07-19T11:56:55Z</time>
      </trkpt>
      <trkpt lat="37.48267" lon="-2.76747">
        <ele>849.5195</ele>
        <time>2021-07-19T11:57:06Z</time>
      </trkpt>
      <trkpt lat="37.48248" lon="-2.76731">
        <ele>849.9552</ele>
        <time>2021-07-19T11:57:17Z</time>
      </trkpt>
      <trkpt lat="37.48245" lon="-2.76727">
        <ele>852.7835</ele>
        <time>2021-07-19T11:57:28Z</time>
      </trkpt>
      <trkpt lat="37.48243" lon="-2.76723">
        <ele>854.873</ele>
        <time>2021-07-19T11:57:42Z</time>
      </trkpt>
      <trkpt lat="37.4824" lon="-2.76725">
        <ele>859.6848</ele>
        <time>2021-07-19T11:58:13Z</time>
      </trkpt>
      <trkpt lat="37.48243" lon="-2.76725">
        <ele>860.3354</ele>
        <time>2021-07-19T11:58:40Z</time>
      </trkpt>
      <trkpt lat="37.48247" lon="-2.76726">
        <ele>857.5142</ele>
        <time>2021-07-19T11:59:03Z</time>
      </trkpt>
      <trkpt lat="37.48315" lon="-2.76782">
        <ele>854.1252</ele>
        <time>2021-07-19T11:59:14Z</time>
      </trkpt>
      <trkpt lat="37.48359" lon="-2.76872">
        <ele>856.4352</ele>
        <time>2021-07-19T11:59:25Z</time>
      </trkpt>
      <trkpt lat="37.48359" lon="-2.76987">
        <ele>861.5365</ele>
        <time>2021-07-19T11:59:36Z</time>
      </trkpt>
      <trkpt lat="37.48362" lon="-2.77107">
        <ele>861.8292</ele>
        <time>2021-07-19T11:59:47Z</time>
      </trkpt>
      <trkpt lat="37.48374" lon="-2.77258">
        <ele>871.2623</ele>
        <time>2021-07-19T11:59:58Z</time>
      </trkpt>
      <trkpt lat="37.48393" lon="-2.77363">
        <ele>871.3715</ele>
        <time>2021-07-19T12:00:09Z</time>
      </trkpt>
      <trkpt lat="37.48401" lon="-2.77373">
        <ele>869.4774</ele>
        <time>2021-07-19T12:00:20Z</time>
      </trkpt>
      <trkpt lat="37.48406" lon="-2.77379">
        <ele>868.3383</ele>
        <time>2021-07-19T12:00:31Z</time>
      </trkpt>
      <trkpt lat="37.48409" lon="-2.77383">
        <ele>870.633</ele>
        <time>2021-07-19T12:00:42Z</time>
      </trkpt>
      <trkpt lat="37.48409" lon="-2.77382">
        <ele>868.4678</ele>
        <time>2021-07-19T12:01:40Z</time>
      </trkpt>
      <trkpt lat="37.48413" lon="-2.77387">
        <ele>868.926</ele>
        <time>2021-07-19T12:02:11Z</time>
      </trkpt>
      <trkpt lat="37.48416" lon="-2.77383">
        <ele>872.3901</ele>
        <time>2021-07-19T12:02:28Z</time>
      </trkpt>
      <trkpt lat="37.48461" lon="-2.77455">
        <ele>872.1906</ele>
        <time>2021-07-19T12:02:39Z</time>
      </trkpt>
      <trkpt lat="37.48538" lon="-2.77565">
        <ele>876.8878</ele>
        <time>2021-07-19T12:02:50Z</time>
      </trkpt>
      <trkpt lat="37.48618" lon="-2.77674">
        <ele>878.8034</ele>
        <time>2021-07-19T12:03:01Z</time>
      </trkpt>
      <trkpt lat="37.48668" lon="-2.77729">
        <ele>876.5502</ele>
        <time>2021-07-19T12:03:12Z</time>
      </trkpt>
      <trkpt lat="37.48743" lon="-2.77738">
        <ele>870.9073</ele>
        <time>2021-07-19T12:03:23Z</time>
      </trkpt>
      <trkpt lat="37.4875" lon="-2.77737">
        <ele>872.7499</ele>
        <time>2021-07-19T12:03:50Z</time>
      </trkpt>
      <trkpt lat="37.48846" lon="-2.77777">
        <ele>874.3563</ele>
        <time>2021-07-19T12:04:01Z</time>
      </trkpt>
      <trkpt lat="37.48929" lon="-2.77828">
        <ele>877.165</ele>
        <time>2021-07-19T12:04:12Z</time>
      </trkpt>
      <trkpt lat="37.4901" lon="-2.77872">
        <ele>879.2515</ele>
        <time>2021-07-19T12:04:23Z</time>
      </trkpt>
      <trkpt lat="37.49097" lon="-2.77884">
        <ele>877.2454</ele>
        <time>2021-07-19T12:04:34Z</time>
      </trkpt>
      <trkpt lat="37.49098" lon="-2.77892">
        <ele>877.1035</ele>
        <time>2021-07-19T12:04:45Z</time>
      </trkpt>
      <trkpt lat="37.49097" lon="-2.77897">
        <ele>875.2657</ele>
        <time>2021-07-19T12:04:56Z</time>
      </trkpt>
      <trkpt lat="37.49097" lon="-2.77901">
        <ele>872.7772</ele>
        <time>2021-07-19T12:05:56Z</time>
      </trkpt>
      <trkpt lat="37.49097" lon="-2.77898">
        <ele>876.4649</ele>
        <time>2021-07-19T12:06:55Z</time>
      </trkpt>
      <trkpt lat="37.49093" lon="-2.77899">
        <ele>874.3767</ele>
        <time>2021-07-19T12:07:15Z</time>
      </trkpt>
      <trkpt lat="37.49091" lon="-2.77899">
        <ele>866.3456</ele>
        <time>2021-07-19T12:08:14Z</time>
      </trkpt>
      <trkpt lat="37.49088" lon="-2.77902">
        <ele>869.6296</ele>
        <time>2021-07-19T12:08:57Z</time>
      </trkpt>
      <trkpt lat="37.49092" lon="-2.77901">
        <ele>870.9651</ele>
        <time>2021-07-19T12:09:09Z</time>
      </trkpt>
      <trkpt lat="37.49095" lon="-2.77896">
        <ele>870.2137</ele>
        <time>2021-07-19T12:09:20Z</time>
      </trkpt>
      <trkpt lat="37.49102" lon="-2.77893">
        <ele>875.9094</ele>
        <time>2021-07-19T12:10:18Z</time>
      </trkpt>
      <trkpt lat="37.49177" lon="-2.77898">
        <ele>877.9451</ele>
        <time>2021-07-19T12:10:29Z</time>
      </trkpt>
      <trkpt lat="37.49262" lon="-2.77861">
        <ele>873.8266</ele>
        <time>2021-07-19T12:10:40Z</time>
      </trkpt>
      <trkpt lat="37.49394" lon="-2.77807">
        <ele>856.7214</ele>
        <time>2021-07-19T12:10:51Z</time>
      </trkpt>
      <trkpt lat="37.49503" lon="-2.77888">
        <ele>852.6766</ele>
        <time>2021-07-19T12:11:02Z</time>
      </trkpt>
      <trkpt lat="37.49551" lon="-2.77883">
        <ele>850.7231</ele>
        <time>2021-07-19T12:11:13Z</time>
      </trkpt>
      <trkpt lat="37.49612" lon="-2.77941">
        <ele>852.8404</ele>
        <time>2021-07-19T12:11:24Z</time>
      </trkpt>
      <trkpt lat="37.49695" lon="-2.78082">
        <ele>861.4131</ele>
        <time>2021-07-19T12:11:35Z</time>
      </trkpt>
      <trkpt lat="37.49769" lon="-2.78278">
        <ele>866.8959</ele>
        <time>2021-07-19T12:11:46Z</time>
      </trkpt>
      <trkpt lat="37.49949" lon="-2.78365">
        <ele>873.184</ele>
        <time>2021-07-19T12:11:57Z</time>
      </trkpt>
      <trkpt lat="37.50139" lon="-2.78444">
        <ele>881.0049</ele>
        <time>2021-07-19T12:12:08Z</time>
      </trkpt>
      <trkpt lat="37.50307" lon="-2.78514">
        <ele>884.2742</ele>
        <time>2021-07-19T12:12:19Z</time>
      </trkpt>
      <trkpt lat="37.50349" lon="-2.78677">
        <ele>893.8954</ele>
        <time>2021-07-19T12:12:30Z</time>
      </trkpt>
      <trkpt lat="37.50429" lon="-2.78878">
        <ele>898.2111</ele>
        <time>2021-07-19T12:12:41Z</time>
      </trkpt>
      <trkpt lat="37.50564" lon="-2.79081">
        <ele>912.2755</ele>
        <time>2021-07-19T12:12:52Z</time>
      </trkpt>
      <trkpt lat="37.50705" lon="-2.79207">
        <ele>924.5094</ele>
        <time>2021-07-19T12:13:03Z</time>
      </trkpt>
      <trkpt lat="37.50772" lon="-2.79401">
        <ele>932.7497</ele>
        <time>2021-07-19T12:13:14Z</time>
      </trkpt>
      <trkpt lat="37.50606" lon="-2.79537">
        <ele>944.6634</ele>
        <time>2021-07-19T12:13:25Z</time>
      </trkpt>
      <trkpt lat="37.5041" lon="-2.79637">
        <ele>956.9057</ele>
        <time>2021-07-19T12:13:36Z</time>
      </trkpt>
      <trkpt lat="37.50265" lon="-2.79815">
        <ele>974.4123</ele>
        <time>2021-07-19T12:13:47Z</time>
      </trkpt>
      <trkpt lat="37.50179" lon="-2.80031">
        <ele>974.8939</ele>
        <time>2021-07-19T12:13:58Z</time>
      </trkpt>
      <trkpt lat="37.5024" lon="-2.80106">
        <ele>972.1215</ele>
        <time>2021-07-19T12:14:09Z</time>
      </trkpt>
      <trkpt lat="37.5048" lon="-2.80207">
        <ele>967.1344</ele>
        <time>2021-07-19T12:14:20Z</time>
      </trkpt>
      <trkpt lat="37.50717" lon="-2.80338">
        <ele>959.0156</ele>
        <time>2021-07-19T12:14:31Z</time>
      </trkpt>
      <trkpt lat="37.50851" lon="-2.8055">
        <ele>949.7557</ele>
        <time>2021-07-19T12:14:42Z</time>
      </trkpt>
      <trkpt lat="37.50913" lon="-2.8071">
        <ele>947.9014</ele>
        <time>2021-07-19T12:14:53Z</time>
      </trkpt>
      <trkpt lat="37.50937" lon="-2.80824">
        <ele>947.7151</ele>
        <time>2021-07-19T12:15:04Z</time>
      </trkpt>
      <trkpt lat="37.50997" lon="-2.81067">
        <ele>950.5341</ele>
        <time>2021-07-19T12:15:15Z</time>
      </trkpt>
      <trkpt lat="37.51168" lon="-2.81168">
        <ele>947.8096</ele>
        <time>2021-07-19T12:15:26Z</time>
      </trkpt>
      <trkpt lat="37.51398" lon="-2.81213">
        <ele>939.4071</ele>
        <time>2021-07-19T12:15:37Z</time>
      </trkpt>
      <trkpt lat="37.51555" lon="-2.81393">
        <ele>932.2545</ele>
        <time>2021-07-19T12:15:48Z</time>
      </trkpt>
      <trkpt lat="37.51754" lon="-2.8144">
        <ele>928.6443</ele>
        <time>2021-07-19T12:15:59Z</time>
      </trkpt>
      <trkpt lat="37.51964" lon="-2.81374">
        <ele>930.8473</ele>
        <time>2021-07-19T12:16:10Z</time>
      </trkpt>
      <trkpt lat="37.52183" lon="-2.81466">
        <ele>928.496</ele>
        <time>2021-07-19T12:16:21Z</time>
      </trkpt>
      <trkpt lat="37.52352" lon="-2.81659">
        <ele>923.0247</ele>
        <time>2021-07-19T12:16:32Z</time>
      </trkpt>
      <trkpt lat="37.52568" lon="-2.81583">
        <ele>919.236</ele>
        <time>2021-07-19T12:16:43Z</time>
      </trkpt>
      <trkpt lat="37.52726" lon="-2.81365">
        <ele>918.5286</ele>
        <time>2021-07-19T12:16:54Z</time>
      </trkpt>
      <trkpt lat="37.52941" lon="-2.81377">
        <ele>913.4076</ele>
        <time>2021-07-19T12:17:05Z</time>
      </trkpt>
      <trkpt lat="37.53049" lon="-2.81597">
        <ele>897.5174</ele>
        <time>2021-07-19T12:17:16Z</time>
      </trkpt>
      <trkpt lat="37.52983" lon="-2.81862">
        <ele>882.8858</ele>
        <time>2021-07-19T12:17:27Z</time>
      </trkpt>
      <trkpt lat="37.52964" lon="-2.82148">
        <ele>869.7377</ele>
        <time>2021-07-19T12:17:38Z</time>
      </trkpt>
      <trkpt lat="37.52977" lon="-2.82426">
        <ele>858.5556</ele>
        <time>2021-07-19T12:17:49Z</time>
      </trkpt>
      <trkpt lat="37.53102" lon="-2.82641">
        <ele>848.9175</ele>
        <time>2021-07-19T12:18:00Z</time>
      </trkpt>
      <trkpt lat="37.53194" lon="-2.82881">
        <ele>837.5632</ele>
        <time>2021-07-19T12:18:11Z</time>
      </trkpt>
      <trkpt lat="37.53283" lon="-2.83121">
        <ele>826.756</ele>
        <time>2021-07-19T12:18:22Z</time>
      </trkpt>
      <trkpt lat="37.53366" lon="-2.83316">
        <ele>821.66</ele>
        <time>2021-07-19T12:18:33Z</time>
      </trkpt>
      <trkpt lat="37.53453" lon="-2.83404">
        <ele>819.7406</ele>
        <time>2021-07-19T12:18:44Z</time>
      </trkpt>
      <trkpt lat="37.53583" lon="-2.83489">
        <ele>812.999</ele>
        <time>2021-07-19T12:18:55Z</time>
      </trkpt>
      <trkpt lat="37.53642" lon="-2.83562">
        <ele>810.7203</ele>
        <time>2021-07-19T12:19:06Z</time>
      </trkpt>
      <trkpt lat="37.53599" lon="-2.83823">
        <ele>800.0997</ele>
        <time>2021-07-19T12:19:17Z</time>
      </trkpt>
      <trkpt lat="37.53551" lon="-2.84138">
        <ele>800.4165</ele>
        <time>2021-07-19T12:19:28Z</time>
      </trkpt>
      <trkpt lat="37.53502" lon="-2.84449">
        <ele>809.4941</ele>
        <time>2021-07-19T12:19:39Z</time>
      </trkpt>
      <trkpt lat="37.53454" lon="-2.8476">
        <ele>803.0249</ele>
        <time>2021-07-19T12:19:50Z</time>
      </trkpt>
      <trkpt lat="37.53452" lon="-2.85076">
        <ele>818.6506</ele>
        <time>2021-07-19T12:20:01Z</time>
      </trkpt>
      <trkpt lat="37.53484" lon="-2.85383">
        <ele>820.7126</ele>
        <time>2021-07-19T12:20:12Z</time>
      </trkpt>
      <trkpt lat="37.53507" lon="-2.85589">
        <ele>825.0051</ele>
        <time>2021-07-19T12:20:23Z</time>
      </trkpt>
      <trkpt lat="37.53471" lon="-2.85783">
        <ele>830.1098</ele>
        <time>2021-07-19T12:20:34Z</time>
      </trkpt>
      <trkpt lat="37.5341" lon="-2.86102">
        <ele>829.418</ele>
        <time>2021-07-19T12:20:45Z</time>
      </trkpt>
      <trkpt lat="37.53348" lon="-2.86429">
        <ele>827.282</ele>
        <time>2021-07-19T12:20:56Z</time>
      </trkpt>
      <trkpt lat="37.53285" lon="-2.86756">
        <ele>831.4657</ele>
        <time>2021-07-19T12:21:07Z</time>
      </trkpt>
      <trkpt lat="37.53246" lon="-2.87092">
        <ele>840.2639</ele>
        <time>2021-07-19T12:21:18Z</time>
      </trkpt>
      <trkpt lat="37.53234" lon="-2.87433">
        <ele>846.1599</ele>
        <time>2021-07-19T12:21:29Z</time>
      </trkpt>
      <trkpt lat="37.53228" lon="-2.87776">
        <ele>838.9067</ele>
        <time>2021-07-19T12:21:40Z</time>
      </trkpt>
      <trkpt lat="37.53323" lon="-2.88112">
        <ele>835.6845</ele>
        <time>2021-07-19T12:21:51Z</time>
      </trkpt>
      <trkpt lat="37.53456" lon="-2.88416">
        <ele>829.2312</ele>
        <time>2021-07-19T12:22:02Z</time>
      </trkpt>
      <trkpt lat="37.53481" lon="-2.88739">
        <ele>823.5645</ele>
        <time>2021-07-19T12:22:13Z</time>
      </trkpt>
      <trkpt lat="37.53391" lon="-2.89017">
        <ele>819.4759</ele>
        <time>2021-07-19T12:22:24Z</time>
      </trkpt>
      <trkpt lat="37.53381" lon="-2.89324">
        <ele>819.0258</ele>
        <time>2021-07-19T12:22:35Z</time>
      </trkpt>
      <trkpt lat="37.53457" lon="-2.89633">
        <ele>819.6154</ele>
        <time>2021-07-19T12:22:46Z</time>
      </trkpt>
      <trkpt lat="37.53531" lon="-2.89936">
        <ele>812.4088</ele>
        <time>2021-07-19T12:22:57Z</time>
      </trkpt>
      <trkpt lat="37.53607" lon="-2.90248">
        <ele>795.0126</ele>
        <time>2021-07-19T12:23:08Z</time>
      </trkpt>
      <trkpt lat="37.53693" lon="-2.90564">
        <ele>774.9746</ele>
        <time>2021-07-19T12:23:19Z</time>
      </trkpt>
      <trkpt lat="37.53738" lon="-2.90888">
        <ele>767.8244</ele>
        <time>2021-07-19T12:23:30Z</time>
      </trkpt>
      <trkpt lat="37.53655" lon="-2.91208">
        <ele>751.4418</ele>
        <time>2021-07-19T12:23:41Z</time>
      </trkpt>
      <trkpt lat="37.53533" lon="-2.91484">
        <ele>735.0624</ele>
        <time>2021-07-19T12:23:52Z</time>
      </trkpt>
      <trkpt lat="37.5341" lon="-2.91764">
        <ele>744.5623</ele>
        <time>2021-07-19T12:24:03Z</time>
      </trkpt>
      <trkpt lat="37.53301" lon="-2.92064">
        <ele>739.6646</ele>
        <time>2021-07-19T12:24:14Z</time>
      </trkpt>
      <trkpt lat="37.53281" lon="-2.92386">
        <ele>739.5135</ele>
        <time>2021-07-19T12:24:25Z</time>
      </trkpt>
      <trkpt lat="37.53408" lon="-2.92667">
        <ele>740.9457</ele>
        <time>2021-07-19T12:24:36Z</time>
      </trkpt>
      <trkpt lat="37.53554" lon="-2.9293">
        <ele>731.1925</ele>
        <time>2021-07-19T12:24:47Z</time>
      </trkpt>
      <trkpt lat="37.53703" lon="-2.93192">
        <ele>718.9971</ele>
        <time>2021-07-19T12:24:58Z</time>
      </trkpt>
      <trkpt lat="37.53849" lon="-2.93456">
        <ele>710.7429</ele>
        <time>2021-07-19T12:25:09Z</time>
      </trkpt>
      <trkpt lat="37.54005" lon="-2.93728">
        <ele>702.9319</ele>
        <time>2021-07-19T12:25:20Z</time>
      </trkpt>
      <trkpt lat="37.54218" lon="-2.93944">
        <ele>694.7008</ele>
        <time>2021-07-19T12:25:31Z</time>
      </trkpt>
      <trkpt lat="37.54465" lon="-2.94107">
        <ele>687.096</ele>
        <time>2021-07-19T12:25:42Z</time>
      </trkpt>
      <trkpt lat="37.54705" lon="-2.94287">
        <ele>680.3253</ele>
        <time>2021-07-19T12:25:53Z</time>
      </trkpt>
      <trkpt lat="37.54919" lon="-2.94522">
        <ele>668.6857</ele>
        <time>2021-07-19T12:26:04Z</time>
      </trkpt>
      <trkpt lat="37.55083" lon="-2.94807">
        <ele>656.3096</ele>
        <time>2021-07-19T12:26:15Z</time>
      </trkpt>
      <trkpt lat="37.55265" lon="-2.95071">
        <ele>655.9989</ele>
        <time>2021-07-19T12:26:26Z</time>
      </trkpt>
      <trkpt lat="37.55503" lon="-2.95246">
        <ele>656.5853</ele>
        <time>2021-07-19T12:26:37Z</time>
      </trkpt>
      <trkpt lat="37.55727" lon="-2.9537">
        <ele>639.8287</ele>
        <time>2021-07-19T12:26:48Z</time>
      </trkpt>
      <trkpt lat="37.5586" lon="-2.9535">
        <ele>633.5222</ele>
        <time>2021-07-19T12:26:59Z</time>
      </trkpt>
      <trkpt lat="37.56006" lon="-2.9542">
        <ele>637.4406</ele>
        <time>2021-07-19T12:27:10Z</time>
      </trkpt>
      <trkpt lat="37.56152" lon="-2.95491">
        <ele>640.9761</ele>
        <time>2021-07-19T12:27:21Z</time>
      </trkpt>
      <trkpt lat="37.56267" lon="-2.95369">
        <ele>643.6767</ele>
        <time>2021-07-19T12:27:32Z</time>
      </trkpt>
      <trkpt lat="37.5639" lon="-2.95188">
        <ele>656.5218</ele>
        <time>2021-07-19T12:27:43Z</time>
      </trkpt>
      <trkpt lat="37.56389" lon="-2.95162">
        <ele>658.9738</ele>
        <time>2021-07-19T12:27:54Z</time>
      </trkpt>
      <trkpt lat="37.5639" lon="-2.95157">
        <ele>653.1188</ele>
        <time>2021-07-19T12:28:48Z</time>
      </trkpt>
      <trkpt lat="37.56392" lon="-2.9516">
        <ele>656.9772</ele>
        <time>2021-07-19T12:29:33Z</time>
      </trkpt>
      <trkpt lat="37.56392" lon="-2.95157">
        <ele>657.5364</ele>
        <time>2021-07-19T12:30:31Z</time>
      </trkpt>
      <trkpt lat="37.56396" lon="-2.95156">
        <ele>657.7122</ele>
        <time>2021-07-19T12:30:50Z</time>
      </trkpt>
      <trkpt lat="37.564" lon="-2.95158">
        <ele>656.4155</ele>
        <time>2021-07-19T12:31:40Z</time>
      </trkpt>
      <trkpt lat="37.56404" lon="-2.9516">
        <ele>657.8128</ele>
        <time>2021-07-19T12:31:57Z</time>
      </trkpt>
      <trkpt lat="37.56452" lon="-2.95141">
        <ele>665.5937</ele>
        <time>2021-07-19T12:32:08Z</time>
      </trkpt>
      <trkpt lat="37.56643" lon="-2.95083">
        <ele>681.5518</ele>
        <time>2021-07-19T12:32:19Z</time>
      </trkpt>
      <trkpt lat="37.56851" lon="-2.9516">
        <ele>699.724</ele>
        <time>2021-07-19T12:32:30Z</time>
      </trkpt>
      <trkpt lat="37.57022" lon="-2.95369">
        <ele>712.0016</ele>
        <time>2021-07-19T12:32:41Z</time>
      </trkpt>
      <trkpt lat="37.57255" lon="-2.95375">
        <ele>717.0919</ele>
        <time>2021-07-19T12:32:52Z</time>
      </trkpt>
      <trkpt lat="37.57478" lon="-2.95414">
        <ele>720.0452</ele>
        <time>2021-07-19T12:33:03Z</time>
      </trkpt>
      <trkpt lat="37.57711" lon="-2.95419">
        <ele>732.9553</ele>
        <time>2021-07-19T12:33:14Z</time>
      </trkpt>
      <trkpt lat="37.57902" lon="-2.95345">
        <ele>744.7534</ele>
        <time>2021-07-19T12:33:25Z</time>
      </trkpt>
      <trkpt lat="37.58107" lon="-2.95397">
        <ele>761.1792</ele>
        <time>2021-07-19T12:33:36Z</time>
      </trkpt>
      <trkpt lat="37.58284" lon="-2.95263">
        <ele>772.928</ele>
        <time>2021-07-19T12:33:47Z</time>
      </trkpt>
      <trkpt lat="37.58304" lon="-2.94951">
        <ele>786.7857</ele>
        <time>2021-07-19T12:33:58Z</time>
      </trkpt>
      <trkpt lat="37.58345" lon="-2.94643">
        <ele>786.8891</ele>
        <time>2021-07-19T12:34:09Z</time>
      </trkpt>
      <trkpt lat="37.58465" lon="-2.94348">
        <ele>784.594</ele>
        <time>2021-07-19T12:34:20Z</time>
      </trkpt>
      <trkpt lat="37.58661" lon="-2.94087">
        <ele>788.0798</ele>
        <time>2021-07-19T12:34:31Z</time>
      </trkpt>
      <trkpt lat="37.58864" lon="-2.93872">
        <ele>786.5113</ele>
        <time>2021-07-19T12:34:42Z</time>
      </trkpt>
      <trkpt lat="37.59123" lon="-2.93908">
        <ele>784.7015</ele>
        <time>2021-07-19T12:34:53Z</time>
      </trkpt>
      <trkpt lat="37.59364" lon="-2.93984">
        <ele>781.5738</ele>
        <time>2021-07-19T12:35:04Z</time>
      </trkpt>
      <trkpt lat="37.59637" lon="-2.94028">
        <ele>776.5739</ele>
        <time>2021-07-19T12:35:15Z</time>
      </trkpt>
      <trkpt lat="37.59905" lon="-2.94014">
        <ele>787.343</ele>
        <time>2021-07-19T12:35:26Z</time>
      </trkpt>
      <trkpt lat="37.60175" lon="-2.93979">
        <ele>790.5838</ele>
        <time>2021-07-19T12:35:37Z</time>
      </trkpt>
      <trkpt lat="37.60436" lon="-2.94013">
        <ele>801.5729</ele>
        <time>2021-07-19T12:35:48Z</time>
      </trkpt>
      <trkpt lat="37.60602" lon="-2.94046">
        <ele>807.9783</ele>
        <time>2021-07-19T12:35:59Z</time>
      </trkpt>
      <trkpt lat="37.60782" lon="-2.9396">
        <ele>807.0431</ele>
        <time>2021-07-19T12:36:10Z</time>
      </trkpt>
      <trkpt lat="37.6094" lon="-2.93741">
        <ele>809.6478</ele>
        <time>2021-07-19T12:36:21Z</time>
      </trkpt>
      <trkpt lat="37.61031" lon="-2.93491">
        <ele>814.1998</ele>
        <time>2021-07-19T12:36:32Z</time>
      </trkpt>
      <trkpt lat="37.61191" lon="-2.93327">
        <ele>813.1906</ele>
        <time>2021-07-19T12:36:43Z</time>
      </trkpt>
      <trkpt lat="37.61308" lon="-2.93256">
        <ele>811.8726</ele>
        <time>2021-07-19T12:36:54Z</time>
      </trkpt>
      <trkpt lat="37.6153" lon="-2.93248">
        <ele>812.3263</ele>
        <time>2021-07-19T12:37:05Z</time>
      </trkpt>
      <trkpt lat="37.6178" lon="-2.93286">
        <ele>816.0001</ele>
        <time>2021-07-19T12:37:16Z</time>
      </trkpt>
      <trkpt lat="37.62028" lon="-2.93287">
        <ele>815.0589</ele>
        <time>2021-07-19T12:37:27Z</time>
      </trkpt>
      <trkpt lat="37.62285" lon="-2.93287">
        <ele>813.4235</ele>
        <time>2021-07-19T12:37:38Z</time>
      </trkpt>
      <trkpt lat="37.6254" lon="-2.93377">
        <ele>812.6869</ele>
        <time>2021-07-19T12:37:49Z</time>
      </trkpt>
      <trkpt lat="37.62793" lon="-2.93468">
        <ele>814.1335</ele>
        <time>2021-07-19T12:38:00Z</time>
      </trkpt>
      <trkpt lat="37.63044" lon="-2.93566">
        <ele>812.8165</ele>
        <time>2021-07-19T12:38:11Z</time>
      </trkpt>
      <trkpt lat="37.63282" lon="-2.93671">
        <ele>812.3188</ele>
        <time>2021-07-19T12:38:22Z</time>
      </trkpt>
      <trkpt lat="37.63521" lon="-2.93757">
        <ele>817.0948</ele>
        <time>2021-07-19T12:38:33Z</time>
      </trkpt>
      <trkpt lat="37.63797" lon="-2.93733">
        <ele>816.7561</ele>
        <time>2021-07-19T12:38:44Z</time>
      </trkpt>
      <trkpt lat="37.64075" lon="-2.93715">
        <ele>817.6226</ele>
        <time>2021-07-19T12:38:55Z</time>
      </trkpt>
      <trkpt lat="37.64354" lon="-2.93699">
        <ele>819.5076</ele>
        <time>2021-07-19T12:39:06Z</time>
      </trkpt>
      <trkpt lat="37.64614" lon="-2.93676">
        <ele>823.205</ele>
        <time>2021-07-19T12:39:17Z</time>
      </trkpt>
      <trkpt lat="37.64867" lon="-2.93601">
        <ele>831.8802</ele>
        <time>2021-07-19T12:39:28Z</time>
      </trkpt>
      <trkpt lat="37.6513" lon="-2.93522">
        <ele>845.6585</ele>
        <time>2021-07-19T12:39:39Z</time>
      </trkpt>
      <trkpt lat="37.65392" lon="-2.93454">
        <ele>854.9201</ele>
        <time>2021-07-19T12:39:50Z</time>
      </trkpt>
      <trkpt lat="37.65665" lon="-2.93451">
        <ele>860.3769</ele>
        <time>2021-07-19T12:40:01Z</time>
      </trkpt>
      <trkpt lat="37.65938" lon="-2.93431">
        <ele>865.7073</ele>
        <time>2021-07-19T12:40:12Z</time>
      </trkpt>
      <trkpt lat="37.66204" lon="-2.93331">
        <ele>870.7442</ele>
        <time>2021-07-19T12:40:23Z</time>
      </trkpt>
      <trkpt lat="37.66473" lon="-2.93231">
        <ele>874.9811</ele>
        <time>2021-07-19T12:40:34Z</time>
      </trkpt>
      <trkpt lat="37.66742" lon="-2.93132">
        <ele>875.9342</ele>
        <time>2021-07-19T12:40:45Z</time>
      </trkpt>
      <trkpt lat="37.67008" lon="-2.93035">
        <ele>874.5106</ele>
        <time>2021-07-19T12:40:56Z</time>
      </trkpt>
      <trkpt lat="37.67276" lon="-2.92934">
        <ele>880.5894</ele>
        <time>2021-07-19T12:41:07Z</time>
      </trkpt>
      <trkpt lat="37.67536" lon="-2.92854">
        <ele>883.5231</ele>
        <time>2021-07-19T12:41:18Z</time>
      </trkpt>
      <trkpt lat="37.6779" lon="-2.92777">
        <ele>888.1737</ele>
        <time>2021-07-19T12:41:29Z</time>
      </trkpt>
      <trkpt lat="37.68044" lon="-2.92714">
        <ele>894.4153</ele>
        <time>2021-07-19T12:41:40Z</time>
      </trkpt>
      <trkpt lat="37.683" lon="-2.92768">
        <ele>898.3183</ele>
        <time>2021-07-19T12:41:51Z</time>
      </trkpt>
      <trkpt lat="37.6855" lon="-2.92853">
        <ele>899.0544</ele>
        <time>2021-07-19T12:42:02Z</time>
      </trkpt>
      <trkpt lat="37.68789" lon="-2.92941">
        <ele>896.6915</ele>
        <time>2021-07-19T12:42:13Z</time>
      </trkpt>
      <trkpt lat="37.68984" lon="-2.93044">
        <ele>891.8637</ele>
        <time>2021-07-19T12:42:24Z</time>
      </trkpt>
      <trkpt lat="37.6917" lon="-2.93167">
        <ele>882.7225</ele>
        <time>2021-07-19T12:42:35Z</time>
      </trkpt>
      <trkpt lat="37.69281" lon="-2.93374">
        <ele>872.6784</ele>
        <time>2021-07-19T12:42:46Z</time>
      </trkpt>
      <trkpt lat="37.69449" lon="-2.93493">
        <ele>859.3037</ele>
        <time>2021-07-19T12:42:57Z</time>
      </trkpt>
      <trkpt lat="37.69601" lon="-2.9347">
        <ele>858.6415</ele>
        <time>2021-07-19T12:43:08Z</time>
      </trkpt>
      <trkpt lat="37.69756" lon="-2.9342">
        <ele>856.063</ele>
        <time>2021-07-19T12:43:19Z</time>
      </trkpt>
      <trkpt lat="37.69884" lon="-2.93395">
        <ele>852.309</ele>
        <time>2021-07-19T12:43:30Z</time>
      </trkpt>
      <trkpt lat="37.69987" lon="-2.93408">
        <ele>849.1923</ele>
        <time>2021-07-19T12:43:41Z</time>
      </trkpt>
      <trkpt lat="37.70003" lon="-2.93402">
        <ele>847.3242</ele>
        <time>2021-07-19T12:43:52Z</time>
      </trkpt>
      <trkpt lat="37.70008" lon="-2.93409">
        <ele>851.4998</ele>
        <time>2021-07-19T12:44:03Z</time>
      </trkpt>
      <trkpt lat="37.70008" lon="-2.93417">
        <ele>851.6393</ele>
        <time>2021-07-19T12:44:14Z</time>
      </trkpt>
      <trkpt lat="37.70012" lon="-2.93408">
        <ele>843.983</ele>
        <time>2021-07-19T12:44:53Z</time>
      </trkpt>
      <trkpt lat="37.70013" lon="-2.93408">
        <ele>835.4592</ele>
        <time>2021-07-19T12:45:53Z</time>
      </trkpt>
      <trkpt lat="37.70012" lon="-2.93418">
        <ele>833.0165</ele>
        <time>2021-07-19T12:46:04Z</time>
      </trkpt>
      <trkpt lat="37.70011" lon="-2.93418">
        <ele>833.1707</ele>
        <time>2021-07-19T12:47:04Z</time>
      </trkpt>
      <trkpt lat="37.70011" lon="-2.93418">
        <ele>833.1707</ele>
        <time>2021-07-19T12:48:04Z</time>
      </trkpt>
      <trkpt lat="37.70009" lon="-2.93416">
        <ele>831.1014</ele>
        <time>2021-07-19T12:49:04Z</time>
      </trkpt>
      <trkpt lat="37.70009" lon="-2.93416">
        <ele>831.1014</ele>
        <time>2021-07-19T12:50:04Z</time>
      </trkpt>
      <trkpt lat="37.70009" lon="-2.93416">
        <ele>831.1014</ele>
        <time>2021-07-19T12:51:04Z</time>
      </trkpt>
      <trkpt lat="37.70014" lon="-2.93415">
        <ele>828.6082</ele>
        <time>2021-07-19T12:51:43Z</time>
      </trkpt>
      <trkpt lat="37.70013" lon="-2.93411">
        <ele>835.7494</ele>
        <time>2021-07-19T12:52:34Z</time>
      </trkpt>
      <trkpt lat="37.7001" lon="-2.93413">
        <ele>840.4178</ele>
        <time>2021-07-19T12:52:53Z</time>
      </trkpt>
      <trkpt lat="37.70009" lon="-2.93418">
        <ele>848.5135</ele>
        <time>2021-07-19T12:53:09Z</time>
      </trkpt>
      <trkpt lat="37.70061" lon="-2.93433">
        <ele>852.4166</ele>
        <time>2021-07-19T12:53:20Z</time>
      </trkpt>
      <trkpt lat="37.7011" lon="-2.9344">
        <ele>855.878</ele>
        <time>2021-07-19T12:53:31Z</time>
      </trkpt>
      <trkpt lat="37.70148" lon="-2.93459">
        <ele>867.1777</ele>
        <time>2021-07-19T12:53:42Z</time>
      </trkpt>
      <trkpt lat="37.70156" lon="-2.9346">
        <ele>866.4707</ele>
        <time>2021-07-19T12:53:53Z</time>
      </trkpt>
      <trkpt lat="37.70153" lon="-2.93453">
        <ele>866.5029</ele>
        <time>2021-07-19T12:54:04Z</time>
      </trkpt>
      <trkpt lat="37.70155" lon="-2.93443">
        <ele>865.8862</ele>
        <time>2021-07-19T12:54:25Z</time>
      </trkpt>
      <trkpt lat="37.7016" lon="-2.93444">
        <ele>869.2235</ele>
        <time>2021-07-19T12:54:55Z</time>
      </trkpt>
      <trkpt lat="37.70151" lon="-2.93443">
        <ele>864.4513</ele>
        <time>2021-07-19T12:55:06Z</time>
      </trkpt>
      <trkpt lat="37.70136" lon="-2.93436">
        <ele>866.5513</ele>
        <time>2021-07-19T12:55:17Z</time>
      </trkpt>
      <trkpt lat="37.70139" lon="-2.93433">
        <ele>866.5536</ele>
        <time>2021-07-19T12:55:33Z</time>
      </trkpt>
      <trkpt lat="37.70136" lon="-2.93431">
        <ele>849.5687</ele>
        <time>2021-07-19T12:55:46Z</time>
      </trkpt>
      <trkpt lat="37.70139" lon="-2.93438">
        <ele>849.1125</ele>
        <time>2021-07-19T12:55:57Z</time>
      </trkpt>
      <trkpt lat="37.70137" lon="-2.93434">
        <ele>848.2172</ele>
        <time>2021-07-19T12:56:14Z</time>
      </trkpt>
      <trkpt lat="37.70138" lon="-2.93441">
        <ele>848.7582</ele>
        <time>2021-07-19T12:56:44Z</time>
      </trkpt>
      <trkpt lat="37.70134" lon="-2.93443">
        <ele>849.9475</ele>
        <time>2021-07-19T12:57:14Z</time>
      </trkpt>
      <trkpt lat="37.70135" lon="-2.93438">
        <ele>851.2529</ele>
        <time>2021-07-19T12:57:26Z</time>
      </trkpt>
      <trkpt lat="37.70133" lon="-2.93433">
        <ele>849.4549</ele>
        <time>2021-07-19T12:57:40Z</time>
      </trkpt>
      <trkpt lat="37.70138" lon="-2.93438">
        <ele>850.3323</ele>
        <time>2021-07-19T12:57:51Z</time>
      </trkpt>
      <trkpt lat="37.70141" lon="-2.93441">
        <ele>849.8772</ele>
        <time>2021-07-19T12:58:32Z</time>
      </trkpt>
      <trkpt lat="37.70145" lon="-2.93443">
        <ele>849.7283</ele>
        <time>2021-07-19T12:58:44Z</time>
      </trkpt>
      <trkpt lat="37.70143" lon="-2.93439">
        <ele>849.5843</ele>
        <time>2021-07-19T12:58:58Z</time>
      </trkpt>
      <trkpt lat="37.70141" lon="-2.93435">
        <ele>848.1853</ele>
        <time>2021-07-19T12:59:30Z</time>
      </trkpt>
      <trkpt lat="37.70148" lon="-2.93438">
        <ele>848.8543</ele>
        <time>2021-07-19T13:00:05Z</time>
      </trkpt>
      <trkpt lat="37.70144" lon="-2.93436">
        <ele>846.8977</ele>
        <time>2021-07-19T13:00:16Z</time>
      </trkpt>
      <trkpt lat="37.70143" lon="-2.93431">
        <ele>848.4826</ele>
        <time>2021-07-19T13:00:27Z</time>
      </trkpt>
      <trkpt lat="37.70143" lon="-2.93436">
        <ele>849.1531</ele>
        <time>2021-07-19T13:01:09Z</time>
      </trkpt>
      <trkpt lat="37.70143" lon="-2.93431">
        <ele>848.7748</ele>
        <time>2021-07-19T13:01:27Z</time>
      </trkpt>
      <trkpt lat="37.70139" lon="-2.9343">
        <ele>849.189</ele>
        <time>2021-07-19T13:02:06Z</time>
      </trkpt>
      <trkpt lat="37.70141" lon="-2.93433">
        <ele>850.1122</ele>
        <time>2021-07-19T13:02:33Z</time>
      </trkpt>
      <trkpt lat="37.70142" lon="-2.93437">
        <ele>849.1419</ele>
        <time>2021-07-19T13:02:58Z</time>
      </trkpt>
      <trkpt lat="37.70139" lon="-2.93437">
        <ele>849.0533</ele>
        <time>2021-07-19T13:03:57Z</time>
      </trkpt>
      <trkpt lat="37.70142" lon="-2.93439">
        <ele>848.5819</ele>
        <time>2021-07-19T13:04:20Z</time>
      </trkpt>
      <trkpt lat="37.7014" lon="-2.93443">
        <ele>848.7948</ele>
        <time>2021-07-19T13:04:42Z</time>
      </trkpt>
      <trkpt lat="37.70141" lon="-2.93438">
        <ele>851.1576</ele>
        <time>2021-07-19T13:05:11Z</time>
      </trkpt>
      <trkpt lat="37.70139" lon="-2.93434">
        <ele>850.9384</ele>
        <time>2021-07-19T13:05:26Z</time>
      </trkpt>
      <trkpt lat="37.70135" lon="-2.93437">
        <ele>850.6378</ele>
        <time>2021-07-19T13:05:59Z</time>
      </trkpt>
      <trkpt lat="37.70136" lon="-2.93444">
        <ele>850.2443</ele>
        <time>2021-07-19T13:06:10Z</time>
      </trkpt>
      <trkpt lat="37.70138" lon="-2.93439">
        <ele>849.7796</ele>
        <time>2021-07-19T13:06:24Z</time>
      </trkpt>
      <trkpt lat="37.70141" lon="-2.93435">
        <ele>849.6886</ele>
        <time>2021-07-19T13:06:44Z</time>
      </trkpt>
      <trkpt lat="37.70144" lon="-2.93438">
        <ele>850.1417</ele>
        <time>2021-07-19T13:06:55Z</time>
      </trkpt>
      <trkpt lat="37.7014" lon="-2.93435">
        <ele>850.5923</ele>
        <time>2021-07-19T13:07:06Z</time>
      </trkpt>
      <trkpt lat="37.70143" lon="-2.93438">
        <ele>849.4189</ele>
        <time>2021-07-19T13:07:46Z</time>
      </trkpt>
      <trkpt lat="37.70147" lon="-2.93438">
        <ele>850.1236</ele>
        <time>2021-07-19T13:08:03Z</time>
      </trkpt>
      <trkpt lat="37.70152" lon="-2.93442">
        <ele>849.7564</ele>
        <time>2021-07-19T13:08:14Z</time>
      </trkpt>
      <trkpt lat="37.70147" lon="-2.93441">
        <ele>849.0236</ele>
        <time>2021-07-19T13:08:25Z</time>
      </trkpt>
      <trkpt lat="37.70144" lon="-2.93438">
        <ele>849.2184</ele>
        <time>2021-07-19T13:08:37Z</time>
      </trkpt>
      <trkpt lat="37.70142" lon="-2.93436">
        <ele>849.5497</ele>
        <time>2021-07-19T13:09:06Z</time>
      </trkpt>
      <trkpt lat="37.70142" lon="-2.93433">
        <ele>850.1488</ele>
        <time>2021-07-19T13:10:05Z</time>
      </trkpt>
      <trkpt lat="37.70146" lon="-2.93433">
        <ele>849.9851</ele>
        <time>2021-07-19T13:10:38Z</time>
      </trkpt>
      <trkpt lat="37.7015" lon="-2.93434">
        <ele>849.1639</ele>
        <time>2021-07-19T13:11:31Z</time>
      </trkpt>
      <trkpt lat="37.70146" lon="-2.93437">
        <ele>849.08</ele>
        <time>2021-07-19T13:11:42Z</time>
      </trkpt>
      <trkpt lat="37.70149" lon="-2.93434">
        <ele>849.3297</ele>
        <time>2021-07-19T13:11:56Z</time>
      </trkpt>
      <trkpt lat="37.70146" lon="-2.93431">
        <ele>850.4202</ele>
        <time>2021-07-19T13:12:30Z</time>
      </trkpt>
      <trkpt lat="37.70147" lon="-2.93435">
        <ele>849.3191</ele>
        <time>2021-07-19T13:13:23Z</time>
      </trkpt>
      <trkpt lat="37.70145" lon="-2.93439">
        <ele>848.7066</ele>
        <time>2021-07-19T13:14:20Z</time>
      </trkpt>
      <trkpt lat="37.70145" lon="-2.93438">
        <ele>848.733</ele>
        <time>2021-07-19T13:15:19Z</time>
      </trkpt>
      <trkpt lat="37.70143" lon="-2.93436">
        <ele>849.3471</ele>
        <time>2021-07-19T13:16:19Z</time>
      </trkpt>
      <trkpt lat="37.70147" lon="-2.93435">
        <ele>849.735</ele>
        <time>2021-07-19T13:16:47Z</time>
      </trkpt>
      <trkpt lat="37.70146" lon="-2.93431">
        <ele>848.9548</ele>
        <time>2021-07-19T13:17:17Z</time>
      </trkpt>
      <trkpt lat="37.70147" lon="-2.93434">
        <ele>848.6859</ele>
        <time>2021-07-19T13:18:17Z</time>
      </trkpt>
      <trkpt lat="37.70145" lon="-2.93442">
        <ele>848.5862</ele>
        <time>2021-07-19T13:18:54Z</time>
      </trkpt>
      <trkpt lat="37.70145" lon="-2.93441">
        <ele>848.6283</ele>
        <time>2021-07-19T13:19:54Z</time>
      </trkpt>
      <trkpt lat="37.70145" lon="-2.93441">
        <ele>848.6283</ele>
        <time>2021-07-19T13:20:54Z</time>
      </trkpt>
      <trkpt lat="37.70145" lon="-2.93441">
        <ele>848.6283</ele>
        <time>2021-07-19T13:21:54Z</time>
      </trkpt>
      <trkpt lat="37.70144" lon="-2.93441">
        <ele>849.1611</ele>
        <time>2021-07-19T13:22:54Z</time>
      </trkpt>
      <trkpt lat="37.70144" lon="-2.93441">
        <ele>849.2908</ele>
        <time>2021-07-19T13:23:54Z</time>
      </trkpt>
      <trkpt lat="37.70144" lon="-2.93441">
        <ele>849.2908</ele>
        <time>2021-07-19T13:24:54Z</time>
      </trkpt>
      <trkpt lat="37.70144" lon="-2.93441">
        <ele>849.2908</ele>
        <time>2021-07-19T13:25:54Z</time>
      </trkpt>
      <trkpt lat="37.70139" lon="-2.93442">
        <ele>849.4642</ele>
        <time>2021-07-19T13:26:05Z</time>
      </trkpt>
      <trkpt lat="37.70142" lon="-2.93439">
        <ele>849.32</ele>
        <time>2021-07-19T13:26:16Z</time>
      </trkpt>
      <trkpt lat="37.70146" lon="-2.93437">
        <ele>849.5515</ele>
        <time>2021-07-19T13:26:27Z</time>
      </trkpt>
      <trkpt lat="37.7015" lon="-2.93435">
        <ele>849.0912</ele>
        <time>2021-07-19T13:26:41Z</time>
      </trkpt>
      <trkpt lat="37.70147" lon="-2.93432">
        <ele>849.2269</ele>
        <time>2021-07-19T13:27:35Z</time>
      </trkpt>
      <trkpt lat="37.70147" lon="-2.93433">
        <ele>848.1431</ele>
        <time>2021-07-19T13:28:35Z</time>
      </trkpt>
      <trkpt lat="37.70147" lon="-2.93433">
        <ele>848.1431</ele>
        <time>2021-07-19T13:29:35Z</time>
      </trkpt>
      <trkpt lat="37.70147" lon="-2.93433">
        <ele>848.1431</ele>
        <time>2021-07-19T13:30:35Z</time>
      </trkpt>
      <trkpt lat="37.70145" lon="-2.93436">
        <ele>849.7755</ele>
        <time>2021-07-19T13:31:35Z</time>
      </trkpt>
      <trkpt lat="37.70145" lon="-2.93436">
        <ele>849.7755</ele>
        <time>2021-07-19T13:32:35Z</time>
      </trkpt>
      <trkpt lat="37.70145" lon="-2.93436">
        <ele>849.7755</ele>
        <time>2021-07-19T13:33:35Z</time>
      </trkpt>
      <trkpt lat="37.70145" lon="-2.93436">
        <ele>849.1896</ele>
        <time>2021-07-19T13:34:34Z</time>
      </trkpt>
      <trkpt lat="37.70146" lon="-2.9344">
        <ele>849.2095</ele>
        <time>2021-07-19T13:34:52Z</time>
      </trkpt>
      <trkpt lat="37.70148" lon="-2.93441">
        <ele>850.3446</ele>
        <time>2021-07-19T13:35:51Z</time>
      </trkpt>
      <trkpt lat="37.70144" lon="-2.93437">
        <ele>848.4243</ele>
        <time>2021-07-19T13:36:31Z</time>
      </trkpt>
      <trkpt lat="37.70141" lon="-2.93437">
        <ele>850.374</ele>
        <time>2021-07-19T13:36:51Z</time>
      </trkpt>
      <trkpt lat="37.70139" lon="-2.93439">
        <ele>849.51</ele>
        <time>2021-07-19T13:37:50Z</time>
      </trkpt>
      <trkpt lat="37.70143" lon="-2.93433">
        <ele>850.2486</ele>
        <time>2021-07-19T13:38:06Z</time>
      </trkpt>
      <trkpt lat="37.70147" lon="-2.93435">
        <ele>849.0623</ele>
        <time>2021-07-19T13:38:37Z</time>
      </trkpt>
      <trkpt lat="37.70143" lon="-2.93438">
        <ele>847.3518</ele>
        <time>2021-07-19T13:38:57Z</time>
      </trkpt>
      <trkpt lat="37.70143" lon="-2.93436">
        <ele>848.1152</ele>
        <time>2021-07-19T13:39:56Z</time>
      </trkpt>
      <trkpt lat="37.70142" lon="-2.93433">
        <ele>848.8028</ele>
        <time>2021-07-19T13:40:55Z</time>
      </trkpt>
      <trkpt lat="37.70142" lon="-2.93433">
        <ele>848.8028</ele>
        <time>2021-07-19T13:41:55Z</time>
      </trkpt>
      <trkpt lat="37.70139" lon="-2.93435">
        <ele>848.6755</ele>
        <time>2021-07-19T13:42:38Z</time>
      </trkpt>
      <trkpt lat="37.70142" lon="-2.93433">
        <ele>847.7815</ele>
        <time>2021-07-19T13:42:53Z</time>
      </trkpt>
      <trkpt lat="37.70146" lon="-2.93433">
        <ele>850.1832</ele>
        <time>2021-07-19T13:43:06Z</time>
      </trkpt>
      <trkpt lat="37.70145" lon="-2.93435">
        <ele>849.2313</ele>
        <time>2021-07-19T13:44:06Z</time>
      </trkpt>
      <trkpt lat="37.70145" lon="-2.93435">
        <ele>849.2313</ele>
        <time>2021-07-19T13:45:06Z</time>
      </trkpt>
      <trkpt lat="37.70145" lon="-2.93435">
        <ele>849.2313</ele>
        <time>2021-07-19T13:46:06Z</time>
      </trkpt>
      <trkpt lat="37.70145" lon="-2.93435">
        <ele>849.2313</ele>
        <time>2021-07-19T13:47:06Z</time>
      </trkpt>
      <trkpt lat="37.70147" lon="-2.93432">
        <ele>851.0974</ele>
        <time>2021-07-19T13:48:06Z</time>
      </trkpt>
      <trkpt lat="37.70147" lon="-2.93434">
        <ele>850.5008</ele>
        <time>2021-07-19T13:49:06Z</time>
      </trkpt>
      <trkpt lat="37.70147" lon="-2.93434">
        <ele>850.5008</ele>
        <time>2021-07-19T13:50:06Z</time>
      </trkpt>
      <trkpt lat="37.70147" lon="-2.93434">
        <ele>850.5008</ele>
        <time>2021-07-19T13:51:06Z</time>
      </trkpt>
      <trkpt lat="37.70145" lon="-2.93435">
        <ele>849.8866</ele>
        <time>2021-07-19T13:52:05Z</time>
      </trkpt>
      <trkpt lat="37.70144" lon="-2.93435">
        <ele>849.5264</ele>
        <time>2021-07-19T13:53:04Z</time>
      </trkpt>
      <trkpt lat="37.70144" lon="-2.93435">
        <ele>849.5264</ele>
        <time>2021-07-19T13:54:03Z</time>
      </trkpt>
      <trkpt lat="37.70144" lon="-2.93434">
        <ele>850.526</ele>
        <time>2021-07-19T13:55:02Z</time>
      </trkpt>
      <trkpt lat="37.70142" lon="-2.93434">
        <ele>849.7364</ele>
        <time>2021-07-19T13:56:00Z</time>
      </trkpt>
      <trkpt lat="37.70149" lon="-2.93439">
        <ele>850.196</ele>
        <time>2021-07-19T13:56:11Z</time>
      </trkpt>
      <trkpt lat="37.70151" lon="-2.93441">
        <ele>849.0091</ele>
        <time>2021-07-19T13:57:10Z</time>
      </trkpt>
      <trkpt lat="37.70149" lon="-2.93445">
        <ele>848.9112</ele>
        <time>2021-07-19T13:57:23Z</time>
      </trkpt>
      <trkpt lat="37.70152" lon="-2.93442">
        <ele>849.1789</ele>
        <time>2021-07-19T13:57:43Z</time>
      </trkpt>
      <trkpt lat="37.70156" lon="-2.93441">
        <ele>847.9517</ele>
        <time>2021-07-19T13:58:16Z</time>
      </trkpt>
      <trkpt lat="37.70157" lon="-2.93438">
        <ele>849.7925</ele>
        <time>2021-07-19T13:59:15Z</time>
      </trkpt>
      <trkpt lat="37.70154" lon="-2.93442">
        <ele>852.6079</ele>
        <time>2021-07-19T13:59:26Z</time>
      </trkpt>
      <trkpt lat="37.70156" lon="-2.93445">
        <ele>852.2269</ele>
        <time>2021-07-19T13:59:56Z</time>
      </trkpt>
      <trkpt lat="37.70156" lon="-2.9345">
        <ele>855.1217</ele>
        <time>2021-07-19T14:00:09Z</time>
      </trkpt>
      <trkpt lat="37.70155" lon="-2.93449">
        <ele>852.9502</ele>
        <time>2021-07-19T14:01:08Z</time>
      </trkpt>
      <trkpt lat="37.70157" lon="-2.93458">
        <ele>857.3618</ele>
        <time>2021-07-19T14:01:28Z</time>
      </trkpt>
      <trkpt lat="37.70207" lon="-2.9349">
        <ele>854.5112</ele>
        <time>2021-07-19T14:01:39Z</time>
      </trkpt>
      <trkpt lat="37.70267" lon="-2.93558">
        <ele>849.7673</ele>
        <time>2021-07-19T14:01:50Z</time>
      </trkpt>
      <trkpt lat="37.7031" lon="-2.93648">
        <ele>843.3102</ele>
        <time>2021-07-19T14:02:01Z</time>
      </trkpt>
      <trkpt lat="37.70397" lon="-2.93662">
        <ele>842.1754</ele>
        <time>2021-07-19T14:02:12Z</time>
      </trkpt>
      <trkpt lat="37.70459" lon="-2.93707">
        <ele>848.7777</ele>
        <time>2021-07-19T14:02:23Z</time>
      </trkpt>
      <trkpt lat="37.70527" lon="-2.93769">
        <ele>847.4373</ele>
        <time>2021-07-19T14:02:34Z</time>
      </trkpt>
      <trkpt lat="37.70603" lon="-2.93821">
        <ele>844.9532</ele>
        <time>2021-07-19T14:02:45Z</time>
      </trkpt>
      <trkpt lat="37.7066" lon="-2.9386">
        <ele>846.3305</ele>
        <time>2021-07-19T14:02:56Z</time>
      </trkpt>
      <trkpt lat="37.70723" lon="-2.93961">
        <ele>844.0698</ele>
        <time>2021-07-19T14:03:07Z</time>
      </trkpt>
      <trkpt lat="37.70772" lon="-2.9417">
        <ele>837.2585</ele>
        <time>2021-07-19T14:03:18Z</time>
      </trkpt>
      <trkpt lat="37.70858" lon="-2.94465">
        <ele>828.2399</ele>
        <time>2021-07-19T14:03:29Z</time>
      </trkpt>
      <trkpt lat="37.70949" lon="-2.94754">
        <ele>823.646</ele>
        <time>2021-07-19T14:03:40Z</time>
      </trkpt>
      <trkpt lat="37.71034" lon="-2.95021">
        <ele>817.1611</ele>
        <time>2021-07-19T14:03:51Z</time>
      </trkpt>
      <trkpt lat="37.71123" lon="-2.95291">
        <ele>811.6504</ele>
        <time>2021-07-19T14:04:02Z</time>
      </trkpt>
      <trkpt lat="37.71213" lon="-2.95533">
        <ele>809.6284</ele>
        <time>2021-07-19T14:04:13Z</time>
      </trkpt>
      <trkpt lat="37.71313" lon="-2.95816">
        <ele>805.2925</ele>
        <time>2021-07-19T14:04:24Z</time>
      </trkpt>
      <trkpt lat="37.7141" lon="-2.96121">
        <ele>800.5283</ele>
        <time>2021-07-19T14:04:35Z</time>
      </trkpt>
      <trkpt lat="37.71505" lon="-2.96425">
        <ele>794.4555</ele>
        <time>2021-07-19T14:04:46Z</time>
      </trkpt>
      <trkpt lat="37.71601" lon="-2.9673">
        <ele>791.642</ele>
        <time>2021-07-19T14:04:57Z</time>
      </trkpt>
      <trkpt lat="37.7168" lon="-2.97045">
        <ele>785.6435</ele>
        <time>2021-07-19T14:05:08Z</time>
      </trkpt>
      <trkpt lat="37.71655" lon="-2.97386">
        <ele>780.3452</ele>
        <time>2021-07-19T14:05:19Z</time>
      </trkpt>
      <trkpt lat="37.71627" lon="-2.97693">
        <ele>780.4874</ele>
        <time>2021-07-19T14:05:30Z</time>
      </trkpt>
      <trkpt lat="37.71563" lon="-2.97993">
        <ele>781.6008</ele>
        <time>2021-07-19T14:05:41Z</time>
      </trkpt>
      <trkpt lat="37.71444" lon="-2.98276">
        <ele>776.8558</ele>
        <time>2021-07-19T14:05:52Z</time>
      </trkpt>
      <trkpt lat="37.71311" lon="-2.98571">
        <ele>771.1705</ele>
        <time>2021-07-19T14:06:03Z</time>
      </trkpt>
      <trkpt lat="37.7118" lon="-2.98864">
        <ele>758.8396</ele>
        <time>2021-07-19T14:06:14Z</time>
      </trkpt>
      <trkpt lat="37.71112" lon="-2.99173">
        <ele>739.5017</ele>
        <time>2021-07-19T14:06:25Z</time>
      </trkpt>
      <trkpt lat="37.71107" lon="-2.99483">
        <ele>719.2451</ele>
        <time>2021-07-19T14:06:36Z</time>
      </trkpt>
      <trkpt lat="37.71036" lon="-2.99788">
        <ele>697.105</ele>
        <time>2021-07-19T14:06:47Z</time>
      </trkpt>
      <trkpt lat="37.7093" lon="-3.00083">
        <ele>684.1885</ele>
        <time>2021-07-19T14:06:58Z</time>
      </trkpt>
      <trkpt lat="37.70862" lon="-3.00398">
        <ele>683.0057</ele>
        <time>2021-07-19T14:07:09Z</time>
      </trkpt>
      <trkpt lat="37.70795" lon="-3.00705">
        <ele>690.9106</ele>
        <time>2021-07-19T14:07:20Z</time>
      </trkpt>
      <trkpt lat="37.70717" lon="-3.00993">
        <ele>697.0221</ele>
        <time>2021-07-19T14:07:31Z</time>
      </trkpt>
      <trkpt lat="37.70737" lon="-3.01299">
        <ele>684.6682</ele>
        <time>2021-07-19T14:07:42Z</time>
      </trkpt>
      <trkpt lat="37.70524" lon="-3.01466">
        <ele>666.7477</ele>
        <time>2021-07-19T14:07:53Z</time>
      </trkpt>
      <trkpt lat="37.70287" lon="-3.01598">
        <ele>652.4296</ele>
        <time>2021-07-19T14:08:04Z</time>
      </trkpt>
      <trkpt lat="37.70211" lon="-3.01897">
        <ele>641.4146</ele>
        <time>2021-07-19T14:08:15Z</time>
      </trkpt>
      <trkpt lat="37.7032" lon="-3.02196">
        <ele>628.0442</ele>
        <time>2021-07-19T14:08:26Z</time>
      </trkpt>
      <trkpt lat="37.7051" lon="-3.02428">
        <ele>614.4068</ele>
        <time>2021-07-19T14:08:37Z</time>
      </trkpt>
      <trkpt lat="37.70592" lon="-3.0275">
        <ele>599.4902</ele>
        <time>2021-07-19T14:08:48Z</time>
      </trkpt>
      <trkpt lat="37.70567" lon="-3.03053">
        <ele>585.3715</ele>
        <time>2021-07-19T14:08:59Z</time>
      </trkpt>
      <trkpt lat="37.70474" lon="-3.03345">
        <ele>564.9907</ele>
        <time>2021-07-19T14:09:10Z</time>
      </trkpt>
      <trkpt lat="37.70577" lon="-3.03663">
        <ele>547.0402</ele>
        <time>2021-07-19T14:09:21Z</time>
      </trkpt>
      <trkpt lat="37.70647" lon="-3.04006">
        <ele>525.5623</ele>
        <time>2021-07-19T14:09:32Z</time>
      </trkpt>
      <trkpt lat="37.7069" lon="-3.04335">
        <ele>504.542</ele>
        <time>2021-07-19T14:09:43Z</time>
      </trkpt>
      <trkpt lat="37.7089" lon="-3.04547">
        <ele>495.9839</ele>
        <time>2021-07-19T14:09:54Z</time>
      </trkpt>
      <trkpt lat="37.71123" lon="-3.04647">
        <ele>492.7983</ele>
        <time>2021-07-19T14:10:05Z</time>
      </trkpt>
      <trkpt lat="37.7133" lon="-3.04792">
        <ele>489.4315</ele>
        <time>2021-07-19T14:10:16Z</time>
      </trkpt>
      <trkpt lat="37.71492" lon="-3.05025">
        <ele>486.724</ele>
        <time>2021-07-19T14:10:27Z</time>
      </trkpt>
      <trkpt lat="37.71731" lon="-3.04931">
        <ele>484.8608</ele>
        <time>2021-07-19T14:10:38Z</time>
      </trkpt>
      <trkpt lat="37.71958" lon="-3.04796">
        <ele>480.3948</ele>
        <time>2021-07-19T14:10:49Z</time>
      </trkpt>
      <trkpt lat="37.72139" lon="-3.0498">
        <ele>474.8549</ele>
        <time>2021-07-19T14:11:00Z</time>
      </trkpt>
      <trkpt lat="37.72216" lon="-3.05298">
        <ele>474.3857</ele>
        <time>2021-07-19T14:11:11Z</time>
      </trkpt>
      <trkpt lat="37.7241" lon="-3.05448">
        <ele>475.2805</ele>
        <time>2021-07-19T14:11:22Z</time>
      </trkpt>
      <trkpt lat="37.72657" lon="-3.0543">
        <ele>477.5358</ele>
        <time>2021-07-19T14:11:33Z</time>
      </trkpt>
      <trkpt lat="37.72901" lon="-3.05417">
        <ele>485.6939</ele>
        <time>2021-07-19T14:11:44Z</time>
      </trkpt>
      <trkpt lat="37.73127" lon="-3.05475">
        <ele>488.9475</ele>
        <time>2021-07-19T14:11:55Z</time>
      </trkpt>
      <trkpt lat="37.73271" lon="-3.05741">
        <ele>483.5954</ele>
        <time>2021-07-19T14:12:06Z</time>
      </trkpt>
      <trkpt lat="37.73331" lon="-3.06028">
        <ele>484.712</ele>
        <time>2021-07-19T14:12:17Z</time>
      </trkpt>
      <trkpt lat="37.73408" lon="-3.06244">
        <ele>496.8382</ele>
        <time>2021-07-19T14:12:28Z</time>
      </trkpt>
      <trkpt lat="37.73389" lon="-3.06468">
        <ele>496.0937</ele>
        <time>2021-07-19T14:12:39Z</time>
      </trkpt>
      <trkpt lat="37.73301" lon="-3.06696">
        <ele>484.8038</ele>
        <time>2021-07-19T14:12:50Z</time>
      </trkpt>
      <trkpt lat="37.73213" lon="-3.06911">
        <ele>474.4523</ele>
        <time>2021-07-19T14:13:01Z</time>
      </trkpt>
      <trkpt lat="37.73026" lon="-3.07115">
        <ele>465.5932</ele>
        <time>2021-07-19T14:13:12Z</time>
      </trkpt>
      <trkpt lat="37.72944" lon="-3.07369">
        <ele>470.6381</ele>
        <time>2021-07-19T14:13:23Z</time>
      </trkpt>
      <trkpt lat="37.73046" lon="-3.07656">
        <ele>468.1149</ele>
        <time>2021-07-19T14:13:34Z</time>
      </trkpt>
      <trkpt lat="37.73237" lon="-3.07727">
        <ele>467.2769</ele>
        <time>2021-07-19T14:13:45Z</time>
      </trkpt>
      <trkpt lat="37.73452" lon="-3.07791">
        <ele>464.1931</ele>
        <time>2021-07-19T14:13:56Z</time>
      </trkpt>
      <trkpt lat="37.73664" lon="-3.07818">
        <ele>461.5202</ele>
        <time>2021-07-19T14:14:07Z</time>
      </trkpt>
      <trkpt lat="37.73862" lon="-3.07897">
        <ele>460.2151</ele>
        <time>2021-07-19T14:14:18Z</time>
      </trkpt>
      <trkpt lat="37.74033" lon="-3.08065">
        <ele>466.1358</ele>
        <time>2021-07-19T14:14:29Z</time>
      </trkpt>
      <trkpt lat="37.7418" lon="-3.08131">
        <ele>478.582</ele>
        <time>2021-07-19T14:14:40Z</time>
      </trkpt>
      <trkpt lat="37.74316" lon="-3.08331">
        <ele>498.6324</ele>
        <time>2021-07-19T14:14:51Z</time>
      </trkpt>
      <trkpt lat="37.74368" lon="-3.08562">
        <ele>515.9934</ele>
        <time>2021-07-19T14:15:02Z</time>
      </trkpt>
      <trkpt lat="37.74522" lon="-3.0866">
        <ele>534.5594</ele>
        <time>2021-07-19T14:15:13Z</time>
      </trkpt>
      <trkpt lat="37.74685" lon="-3.08729">
        <ele>554.4943</ele>
        <time>2021-07-19T14:15:24Z</time>
      </trkpt>
      <trkpt lat="37.74765" lon="-3.0896">
        <ele>571.8419</ele>
        <time>2021-07-19T14:15:35Z</time>
      </trkpt>
      <trkpt lat="37.74938" lon="-3.08962">
        <ele>586.1556</ele>
        <time>2021-07-19T14:15:46Z</time>
      </trkpt>
      <trkpt lat="37.75091" lon="-3.08777">
        <ele>582.8455</ele>
        <time>2021-07-19T14:15:57Z</time>
      </trkpt>
      <trkpt lat="37.75199" lon="-3.08566">
        <ele>573.3342</ele>
        <time>2021-07-19T14:16:08Z</time>
      </trkpt>
      <trkpt lat="37.753" lon="-3.08435">
        <ele>574.9162</ele>
        <time>2021-07-19T14:16:19Z</time>
      </trkpt>
      <trkpt lat="37.75438" lon="-3.08364">
        <ele>585.6011</ele>
        <time>2021-07-19T14:16:30Z</time>
      </trkpt>
      <trkpt lat="37.75608" lon="-3.0839">
        <ele>595.6016</ele>
        <time>2021-07-19T14:16:41Z</time>
      </trkpt>
      <trkpt lat="37.75787" lon="-3.08285">
        <ele>601.2176</ele>
        <time>2021-07-19T14:16:52Z</time>
      </trkpt>
      <trkpt lat="37.75922" lon="-3.08178">
        <ele>604.8575</ele>
        <time>2021-07-19T14:17:03Z</time>
      </trkpt>
      <trkpt lat="37.76079" lon="-3.08146">
        <ele>616.6321</ele>
        <time>2021-07-19T14:17:14Z</time>
      </trkpt>
      <trkpt lat="37.76231" lon="-3.08128">
        <ele>610.7745</ele>
        <time>2021-07-19T14:17:25Z</time>
      </trkpt>
      <trkpt lat="37.76312" lon="-3.08204">
        <ele>614.6801</ele>
        <time>2021-07-19T14:17:36Z</time>
      </trkpt>
      <trkpt lat="37.76364" lon="-3.08123">
        <ele>621.7044</ele>
        <time>2021-07-19T14:17:47Z</time>
      </trkpt>
      <trkpt lat="37.76414" lon="-3.08024">
        <ele>628.826</ele>
        <time>2021-07-19T14:17:58Z</time>
      </trkpt>
      <trkpt lat="37.76464" lon="-3.07924">
        <ele>634.7729</ele>
        <time>2021-07-19T14:18:09Z</time>
      </trkpt>
      <trkpt lat="37.76491" lon="-3.07865">
        <ele>637.5278</ele>
        <time>2021-07-19T14:18:20Z</time>
      </trkpt>
      <trkpt lat="37.76521" lon="-3.07792">
        <ele>649.0617</ele>
        <time>2021-07-19T14:18:31Z</time>
      </trkpt>
      <trkpt lat="37.76575" lon="-3.07703">
        <ele>653.6732</ele>
        <time>2021-07-19T14:18:42Z</time>
      </trkpt>
      <trkpt lat="37.76629" lon="-3.07615">
        <ele>656.1105</ele>
        <time>2021-07-19T14:18:53Z</time>
      </trkpt>
      <trkpt lat="37.76686" lon="-3.07599">
        <ele>653.881</ele>
        <time>2021-07-19T14:19:04Z</time>
      </trkpt>
      <trkpt lat="37.76798" lon="-3.07666">
        <ele>651.1923</ele>
        <time>2021-07-19T14:19:15Z</time>
      </trkpt>
      <trkpt lat="37.76935" lon="-3.0779">
        <ele>650.1012</ele>
        <time>2021-07-19T14:19:26Z</time>
      </trkpt>
      <trkpt lat="37.77153" lon="-3.0789">
        <ele>653.6536</ele>
        <time>2021-07-19T14:19:37Z</time>
      </trkpt>
      <trkpt lat="37.77357" lon="-3.07997">
        <ele>663.6113</ele>
        <time>2021-07-19T14:19:48Z</time>
      </trkpt>
      <trkpt lat="37.77452" lon="-3.08076">
        <ele>667.6465</ele>
        <time>2021-07-19T14:19:59Z</time>
      </trkpt>
      <trkpt lat="37.77434" lon="-3.08114">
        <ele>666.6725</ele>
        <time>2021-07-19T14:20:10Z</time>
      </trkpt>
      <trkpt lat="37.77432" lon="-3.08115">
        <ele>666.633</ele>
        <time>2021-07-19T14:21:10Z</time>
      </trkpt>
      <trkpt lat="37.77432" lon="-3.08115">
        <ele>666.633</ele>
        <time>2021-07-19T14:22:10Z</time>
      </trkpt>
      <trkpt lat="37.77436" lon="-3.08122">
        <ele>673.3186</ele>
        <time>2021-07-19T14:22:37Z</time>
      </trkpt>
      <trkpt lat="37.77435" lon="-3.08117">
        <ele>673.6299</ele>
        <time>2021-07-19T14:23:04Z</time>
      </trkpt>
      <trkpt lat="37.77419" lon="-3.08085">
        <ele>670.9143</ele>
        <time>2021-07-19T14:23:15Z</time>
      </trkpt>
      <trkpt lat="37.77421" lon="-3.08063">
        <ele>668.9273</ele>
        <time>2021-07-19T14:23:26Z</time>
      </trkpt>
      <trkpt lat="37.7752" lon="-3.08116">
        <ele>670.3934</ele>
        <time>2021-07-19T14:23:37Z</time>
      </trkpt>
      <trkpt lat="37.77662" lon="-3.08254">
        <ele>680.7531</ele>
        <time>2021-07-19T14:23:48Z</time>
      </trkpt>
      <trkpt lat="37.77813" lon="-3.08264">
        <ele>684.6735</ele>
        <time>2021-07-19T14:23:59Z</time>
      </trkpt>
      <trkpt lat="37.77946" lon="-3.08336">
        <ele>695.9843</ele>
        <time>2021-07-19T14:24:10Z</time>
      </trkpt>
      <trkpt lat="37.78084" lon="-3.08483">
        <ele>705.3503</ele>
        <time>2021-07-19T14:24:21Z</time>
      </trkpt>
      <trkpt lat="37.78281" lon="-3.08554">
        <ele>712.1458</ele>
        <time>2021-07-19T14:24:32Z</time>
      </trkpt>
      <trkpt lat="37.78485" lon="-3.08557">
        <ele>721.8043</ele>
        <time>2021-07-19T14:24:43Z</time>
      </trkpt>
      <trkpt lat="37.78681" lon="-3.08493">
        <ele>731.9354</ele>
        <time>2021-07-19T14:24:54Z</time>
      </trkpt>
      <trkpt lat="37.78829" lon="-3.08444">
        <ele>744.4678</ele>
        <time>2021-07-19T14:25:05Z</time>
      </trkpt>
      <trkpt lat="37.78931" lon="-3.08487">
        <ele>753.3213</ele>
        <time>2021-07-19T14:25:16Z</time>
      </trkpt>
      <trkpt lat="37.79041" lon="-3.08446">
        <ele>760.4844</ele>
        <time>2021-07-19T14:25:27Z</time>
      </trkpt>
      <trkpt lat="37.79133" lon="-3.08354">
        <ele>771.9947</ele>
        <time>2021-07-19T14:25:38Z</time>
      </trkpt>
      <trkpt lat="37.79225" lon="-3.08279">
        <ele>780.5367</ele>
        <time>2021-07-19T14:25:49Z</time>
      </trkpt>
      <trkpt lat="37.79384" lon="-3.08278">
        <ele>795.6189</ele>
        <time>2021-07-19T14:26:00Z</time>
      </trkpt>
      <trkpt lat="37.79546" lon="-3.08284">
        <ele>807.5956</ele>
        <time>2021-07-19T14:26:11Z</time>
      </trkpt>
      <trkpt lat="37.79729" lon="-3.08381">
        <ele>812.9143</ele>
        <time>2021-07-19T14:26:22Z</time>
      </trkpt>
      <trkpt lat="37.79898" lon="-3.08434">
        <ele>820.8648</ele>
        <time>2021-07-19T14:26:33Z</time>
      </trkpt>
      <trkpt lat="37.80112" lon="-3.08366">
        <ele>816.1007</ele>
        <time>2021-07-19T14:26:44Z</time>
      </trkpt>
      <trkpt lat="37.80344" lon="-3.08296">
        <ele>813.19</ele>
        <time>2021-07-19T14:26:55Z</time>
      </trkpt>
      <trkpt lat="37.80556" lon="-3.08217">
        <ele>815.0831</ele>
        <time>2021-07-19T14:27:06Z</time>
      </trkpt>
      <trkpt lat="37.80755" lon="-3.08404">
        <ele>824.283</ele>
        <time>2021-07-19T14:27:17Z</time>
      </trkpt>
      <trkpt lat="37.80978" lon="-3.08561">
        <ele>827.1027</ele>
        <time>2021-07-19T14:27:28Z</time>
      </trkpt>
      <trkpt lat="37.81178" lon="-3.08774">
        <ele>817.2304</ele>
        <time>2021-07-19T14:27:39Z</time>
      </trkpt>
      <trkpt lat="37.81347" lon="-3.08898">
        <ele>804.1579</ele>
        <time>2021-07-19T14:27:50Z</time>
      </trkpt>
      <trkpt lat="37.81449" lon="-3.09163">
        <ele>782.6375</ele>
        <time>2021-07-19T14:28:01Z</time>
      </trkpt>
      <trkpt lat="37.8165" lon="-3.09313">
        <ele>766.2889</ele>
        <time>2021-07-19T14:28:12Z</time>
      </trkpt>
      <trkpt lat="37.81866" lon="-3.09423">
        <ele>747.8512</ele>
        <time>2021-07-19T14:28:23Z</time>
      </trkpt>
      <trkpt lat="37.82063" lon="-3.09533">
        <ele>743.8638</ele>
        <time>2021-07-19T14:28:34Z</time>
      </trkpt>
      <trkpt lat="37.8223" lon="-3.09454">
        <ele>746.6375</ele>
        <time>2021-07-19T14:28:45Z</time>
      </trkpt>
      <trkpt lat="37.8233" lon="-3.09561">
        <ele>749.5881</ele>
        <time>2021-07-19T14:28:56Z</time>
      </trkpt>
      <trkpt lat="37.82431" lon="-3.09682">
        <ele>753.7975</ele>
        <time>2021-07-19T14:29:07Z</time>
      </trkpt>
      <trkpt lat="37.8256" lon="-3.09782">
        <ele>756.3173</ele>
        <time>2021-07-19T14:29:18Z</time>
      </trkpt>
      <trkpt lat="37.82629" lon="-3.09946">
        <ele>757.458</ele>
        <time>2021-07-19T14:29:29Z</time>
      </trkpt>
      <trkpt lat="37.82759" lon="-3.10019">
        <ele>763.8367</ele>
        <time>2021-07-19T14:29:40Z</time>
      </trkpt>
      <trkpt lat="37.82851" lon="-3.10125">
        <ele>773.0492</ele>
        <time>2021-07-19T14:29:51Z</time>
      </trkpt>
      <trkpt lat="37.82923" lon="-3.10071">
        <ele>782.2321</ele>
        <time>2021-07-19T14:30:02Z</time>
      </trkpt>
      <trkpt lat="37.82989" lon="-3.10008">
        <ele>790.3761</ele>
        <time>2021-07-19T14:30:13Z</time>
      </trkpt>
      <trkpt lat="37.8311" lon="-3.10006">
        <ele>801.168</ele>
        <time>2021-07-19T14:30:24Z</time>
      </trkpt>
      <trkpt lat="37.83233" lon="-3.09917">
        <ele>813.7147</ele>
        <time>2021-07-19T14:30:35Z</time>
      </trkpt>
      <trkpt lat="37.8336" lon="-3.09922">
        <ele>822.4418</ele>
        <time>2021-07-19T14:30:46Z</time>
      </trkpt>
      <trkpt lat="37.83426" lon="-3.09773">
        <ele>831.8641</ele>
        <time>2021-07-19T14:30:57Z</time>
      </trkpt>
      <trkpt lat="37.83513" lon="-3.09644">
        <ele>841.027</ele>
        <time>2021-07-19T14:31:08Z</time>
      </trkpt>
      <trkpt lat="37.83639" lon="-3.09528">
        <ele>851.0403</ele>
        <time>2021-07-19T14:31:19Z</time>
      </trkpt>
      <trkpt lat="37.83811" lon="-3.09514">
        <ele>851.3368</ele>
        <time>2021-07-19T14:31:30Z</time>
      </trkpt>
      <trkpt lat="37.83979" lon="-3.09507">
        <ele>845.3797</ele>
        <time>2021-07-19T14:31:41Z</time>
      </trkpt>
      <trkpt lat="37.84112" lon="-3.09336">
        <ele>834.9001</ele>
        <time>2021-07-19T14:31:52Z</time>
      </trkpt>
      <trkpt lat="37.84198" lon="-3.0901">
        <ele>832.5794</ele>
        <time>2021-07-19T14:32:03Z</time>
      </trkpt>
      <trkpt lat="37.84249" lon="-3.08744">
        <ele>835.8646</ele>
        <time>2021-07-19T14:32:14Z</time>
      </trkpt>
      <trkpt lat="37.84323" lon="-3.08483">
        <ele>821.1862</ele>
        <time>2021-07-19T14:32:25Z</time>
      </trkpt>
      <trkpt lat="37.84277" lon="-3.08214">
        <ele>808.1903</ele>
        <time>2021-07-19T14:32:36Z</time>
      </trkpt>
      <trkpt lat="37.84236" lon="-3.07921">
        <ele>789.8745</ele>
        <time>2021-07-19T14:32:47Z</time>
      </trkpt>
      <trkpt lat="37.84089" lon="-3.07734">
        <ele>775.2147</ele>
        <time>2021-07-19T14:32:58Z</time>
      </trkpt>
      <trkpt lat="37.84198" lon="-3.07565">
        <ele>756.2932</ele>
        <time>2021-07-19T14:33:09Z</time>
      </trkpt>
      <trkpt lat="37.84312" lon="-3.07494">
        <ele>743.6221</ele>
        <time>2021-07-19T14:33:20Z</time>
      </trkpt>
      <trkpt lat="37.84322" lon="-3.07595">
        <ele>737.6553</ele>
        <time>2021-07-19T14:33:31Z</time>
      </trkpt>
      <trkpt lat="37.84485" lon="-3.0763">
        <ele>725.126</ele>
        <time>2021-07-19T14:33:42Z</time>
      </trkpt>
      <trkpt lat="37.84633" lon="-3.07635">
        <ele>707.874</ele>
        <time>2021-07-19T14:33:53Z</time>
      </trkpt>
      <trkpt lat="37.84709" lon="-3.07601">
        <ele>692.2632</ele>
        <time>2021-07-19T14:34:04Z</time>
      </trkpt>
      <trkpt lat="37.84767" lon="-3.07593">
        <ele>673.0239</ele>
        <time>2021-07-19T14:34:15Z</time>
      </trkpt>
      <trkpt lat="37.84743" lon="-3.07363">
        <ele>657.1485</ele>
        <time>2021-07-19T14:34:26Z</time>
      </trkpt>
      <trkpt lat="37.84637" lon="-3.07309">
        <ele>649.4291</ele>
        <time>2021-07-19T14:34:37Z</time>
      </trkpt>
      <trkpt lat="37.84583" lon="-3.07273">
        <ele>652.7543</ele>
        <time>2021-07-19T14:34:48Z</time>
      </trkpt>
      <trkpt lat="37.8474" lon="-3.0726">
        <ele>641.472</ele>
        <time>2021-07-19T14:35:00Z</time>
      </trkpt>
      <trkpt lat="37.84872" lon="-3.07429">
        <ele>623.285</ele>
        <time>2021-07-19T14:35:11Z</time>
      </trkpt>
      <trkpt lat="37.85046" lon="-3.07535">
        <ele>613.7786</ele>
        <time>2021-07-19T14:35:22Z</time>
      </trkpt>
      <trkpt lat="37.85237" lon="-3.07635">
        <ele>600.3966</ele>
        <time>2021-07-19T14:35:33Z</time>
      </trkpt>
      <trkpt lat="37.85313" lon="-3.07836">
        <ele>586.0397</ele>
        <time>2021-07-19T14:35:44Z</time>
      </trkpt>
      <trkpt lat="37.85355" lon="-3.07954">
        <ele>576.7557</ele>
        <time>2021-07-19T14:35:55Z</time>
      </trkpt>
      <trkpt lat="37.85514" lon="-3.08042">
        <ele>564.2419</ele>
        <time>2021-07-19T14:36:06Z</time>
      </trkpt>
      <trkpt lat="37.85631" lon="-3.08244">
        <ele>555.8932</ele>
        <time>2021-07-19T14:36:17Z</time>
      </trkpt>
      <trkpt lat="37.85785" lon="-3.08318">
        <ele>561.9402</ele>
        <time>2021-07-19T14:36:28Z</time>
      </trkpt>
      <trkpt lat="37.8598" lon="-3.08405">
        <ele>579.8812</ele>
        <time>2021-07-19T14:36:39Z</time>
      </trkpt>
      <trkpt lat="37.86099" lon="-3.08507">
        <ele>589.5154</ele>
        <time>2021-07-19T14:36:50Z</time>
      </trkpt>
      <trkpt lat="37.86242" lon="-3.08495">
        <ele>601.7836</ele>
        <time>2021-07-19T14:37:01Z</time>
      </trkpt>
      <trkpt lat="37.86338" lon="-3.08407">
        <ele>608.8798</ele>
        <time>2021-07-19T14:37:12Z</time>
      </trkpt>
      <trkpt lat="37.86298" lon="-3.0815">
        <ele>610.736</ele>
        <time>2021-07-19T14:37:23Z</time>
      </trkpt>
      <trkpt lat="37.86357" lon="-3.07929">
        <ele>619.2022</ele>
        <time>2021-07-19T14:37:34Z</time>
      </trkpt>
      <trkpt lat="37.86485" lon="-3.07662">
        <ele>643.4378</ele>
        <time>2021-07-19T14:37:45Z</time>
      </trkpt>
      <trkpt lat="37.86563" lon="-3.0743">
        <ele>659.2019</ele>
        <time>2021-07-19T14:37:56Z</time>
      </trkpt>
      <trkpt lat="37.86554" lon="-3.07209">
        <ele>672.0548</ele>
        <time>2021-07-19T14:38:07Z</time>
      </trkpt>
      <trkpt lat="37.86509" lon="-3.06963">
        <ele>685.3606</ele>
        <time>2021-07-19T14:38:18Z</time>
      </trkpt>
      <trkpt lat="37.86608" lon="-3.06735">
        <ele>691.5671</ele>
        <time>2021-07-19T14:38:29Z</time>
      </trkpt>
      <trkpt lat="37.86852" lon="-3.06793">
        <ele>699.9583</ele>
        <time>2021-07-19T14:38:40Z</time>
      </trkpt>
      <trkpt lat="37.87063" lon="-3.06929">
        <ele>705.341</ele>
        <time>2021-07-19T14:38:51Z</time>
      </trkpt>
      <trkpt lat="37.87317" lon="-3.07068">
        <ele>706.3377</ele>
        <time>2021-07-19T14:39:02Z</time>
      </trkpt>
      <trkpt lat="37.8757" lon="-3.0719">
        <ele>717.531</ele>
        <time>2021-07-19T14:39:13Z</time>
      </trkpt>
      <trkpt lat="37.87834" lon="-3.07213">
        <ele>716.3342</ele>
        <time>2021-07-19T14:39:24Z</time>
      </trkpt>
      <trkpt lat="37.88121" lon="-3.07191">
        <ele>698.4673</ele>
        <time>2021-07-19T14:39:35Z</time>
      </trkpt>
      <trkpt lat="37.88375" lon="-3.07172">
        <ele>693.7867</ele>
        <time>2021-07-19T14:39:46Z</time>
      </trkpt>
      <trkpt lat="37.88625" lon="-3.07094">
        <ele>683.3748</ele>
        <time>2021-07-19T14:39:57Z</time>
      </trkpt>
      <trkpt lat="37.88874" lon="-3.07025">
        <ele>683.0839</ele>
        <time>2021-07-19T14:40:08Z</time>
      </trkpt>
      <trkpt lat="37.89029" lon="-3.06909">
        <ele>692.5279</ele>
        <time>2021-07-19T14:40:19Z</time>
      </trkpt>
      <trkpt lat="37.89068" lon="-3.06628">
        <ele>703.4229</ele>
        <time>2021-07-19T14:40:30Z</time>
      </trkpt>
      <trkpt lat="37.89006" lon="-3.0639">
        <ele>714.9258</ele>
        <time>2021-07-19T14:40:41Z</time>
      </trkpt>
      <trkpt lat="37.891" lon="-3.06202">
        <ele>726.5096</ele>
        <time>2021-07-19T14:40:52Z</time>
      </trkpt>
      <trkpt lat="37.89298" lon="-3.06051">
        <ele>740.336</ele>
        <time>2021-07-19T14:41:03Z</time>
      </trkpt>
      <trkpt lat="37.89402" lon="-3.05833">
        <ele>758.3281</ele>
        <time>2021-07-19T14:41:14Z</time>
      </trkpt>
      <trkpt lat="37.89317" lon="-3.05547">
        <ele>773.9275</ele>
        <time>2021-07-19T14:41:25Z</time>
      </trkpt>
      <trkpt lat="37.89219" lon="-3.05372">
        <ele>787.7369</ele>
        <time>2021-07-19T14:41:36Z</time>
      </trkpt>
      <trkpt lat="37.89195" lon="-3.05157">
        <ele>791.1685</ele>
        <time>2021-07-19T14:41:47Z</time>
      </trkpt>
      <trkpt lat="37.89338" lon="-3.05017">
        <ele>783.4941</ele>
        <time>2021-07-19T14:41:58Z</time>
      </trkpt>
      <trkpt lat="37.89442" lon="-3.04782">
        <ele>790.2041</ele>
        <time>2021-07-19T14:42:09Z</time>
      </trkpt>
      <trkpt lat="37.89589" lon="-3.04709">
        <ele>787.694</ele>
        <time>2021-07-19T14:42:20Z</time>
      </trkpt>
      <trkpt lat="37.89598" lon="-3.04481">
        <ele>789.0674</ele>
        <time>2021-07-19T14:42:31Z</time>
      </trkpt>
      <trkpt lat="37.89593" lon="-3.04349">
        <ele>793.0782</ele>
        <time>2021-07-19T14:42:42Z</time>
      </trkpt>
      <trkpt lat="37.8976" lon="-3.04442">
        <ele>805.1721</ele>
        <time>2021-07-19T14:42:53Z</time>
      </trkpt>
      <trkpt lat="37.89842" lon="-3.04356">
        <ele>809.3669</ele>
        <time>2021-07-19T14:43:04Z</time>
      </trkpt>
      <trkpt lat="37.89801" lon="-3.04146">
        <ele>815.364</ele>
        <time>2021-07-19T14:43:15Z</time>
      </trkpt>
      <trkpt lat="37.89926" lon="-3.04107">
        <ele>821.5043</ele>
        <time>2021-07-19T14:43:26Z</time>
      </trkpt>
      <trkpt lat="37.90115" lon="-3.04093">
        <ele>827.0794</ele>
        <time>2021-07-19T14:43:37Z</time>
      </trkpt>
      <trkpt lat="37.90199" lon="-3.03973">
        <ele>833.932</ele>
        <time>2021-07-19T14:43:48Z</time>
      </trkpt>
      <trkpt lat="37.90227" lon="-3.03689">
        <ele>829.666</ele>
        <time>2021-07-19T14:43:59Z</time>
      </trkpt>
      <trkpt lat="37.90249" lon="-3.03441">
        <ele>830.1462</ele>
        <time>2021-07-19T14:44:10Z</time>
      </trkpt>
      <trkpt lat="37.90275" lon="-3.03203">
        <ele>832.966</ele>
        <time>2021-07-19T14:44:21Z</time>
      </trkpt>
      <trkpt lat="37.9022" lon="-3.02981">
        <ele>840.3122</ele>
        <time>2021-07-19T14:44:32Z</time>
      </trkpt>
      <trkpt lat="37.90179" lon="-3.02775">
        <ele>842.3925</ele>
        <time>2021-07-19T14:44:43Z</time>
      </trkpt>
      <trkpt lat="37.90064" lon="-3.02592">
        <ele>841.0723</ele>
        <time>2021-07-19T14:44:54Z</time>
      </trkpt>
      <trkpt lat="37.89973" lon="-3.02464">
        <ele>836.8791</ele>
        <time>2021-07-19T14:45:05Z</time>
      </trkpt>
      <trkpt lat="37.90133" lon="-3.02501">
        <ele>833.0282</ele>
        <time>2021-07-19T14:45:16Z</time>
      </trkpt>
      <trkpt lat="37.9032" lon="-3.0258">
        <ele>824.3197</ele>
        <time>2021-07-19T14:45:27Z</time>
      </trkpt>
      <trkpt lat="37.90467" lon="-3.02687">
        <ele>817.6397</ele>
        <time>2021-07-19T14:45:38Z</time>
      </trkpt>
      <trkpt lat="37.90674" lon="-3.02786">
        <ele>815.746</ele>
        <time>2021-07-19T14:45:49Z</time>
      </trkpt>
      <trkpt lat="37.90865" lon="-3.02813">
        <ele>813.692</ele>
        <time>2021-07-19T14:46:00Z</time>
      </trkpt>
      <trkpt lat="37.90983" lon="-3.02638">
        <ele>810.7527</ele>
        <time>2021-07-19T14:46:11Z</time>
      </trkpt>
      <trkpt lat="37.90895" lon="-3.02392">
        <ele>796.4563</ele>
        <time>2021-07-19T14:46:22Z</time>
      </trkpt>
      <trkpt lat="37.90856" lon="-3.02165">
        <ele>804.8154</ele>
        <time>2021-07-19T14:46:33Z</time>
      </trkpt>
      <trkpt lat="37.90757" lon="-3.01951">
        <ele>815.405</ele>
        <time>2021-07-19T14:46:44Z</time>
      </trkpt>
      <trkpt lat="37.90736" lon="-3.01708">
        <ele>820.6149</ele>
        <time>2021-07-19T14:46:55Z</time>
      </trkpt>
      <trkpt lat="37.90933" lon="-3.0158">
        <ele>808.0426</ele>
        <time>2021-07-19T14:47:06Z</time>
      </trkpt>
      <trkpt lat="37.9111" lon="-3.01494">
        <ele>798.7036</ele>
        <time>2021-07-19T14:47:17Z</time>
      </trkpt>
      <trkpt lat="37.91308" lon="-3.01399">
        <ele>783.8341</ele>
        <time>2021-07-19T14:47:28Z</time>
      </trkpt>
      <trkpt lat="37.91488" lon="-3.01505">
        <ele>769.8426</ele>
        <time>2021-07-19T14:47:39Z</time>
      </trkpt>
      <trkpt lat="37.91639" lon="-3.01573">
        <ele>751.1935</ele>
        <time>2021-07-19T14:47:50Z</time>
      </trkpt>
      <trkpt lat="37.91609" lon="-3.01431">
        <ele>746.0769</ele>
        <time>2021-07-19T14:48:01Z</time>
      </trkpt>
      <trkpt lat="37.91487" lon="-3.01385">
        <ele>753.3083</ele>
        <time>2021-07-19T14:48:12Z</time>
      </trkpt>
      <trkpt lat="37.91448" lon="-3.01426">
        <ele>756.2434</ele>
        <time>2021-07-19T14:48:23Z</time>
      </trkpt>
      <trkpt lat="37.91529" lon="-3.01381">
        <ele>757.6203</ele>
        <time>2021-07-19T14:48:34Z</time>
      </trkpt>
      <trkpt lat="37.91651" lon="-3.01496">
        <ele>751.9313</ele>
        <time>2021-07-19T14:48:45Z</time>
      </trkpt>
      <trkpt lat="37.91713" lon="-3.01621">
        <ele>748.2292</ele>
        <time>2021-07-19T14:48:56Z</time>
      </trkpt>
      <trkpt lat="37.91688" lon="-3.01482">
        <ele>741.0701</ele>
        <time>2021-07-19T14:49:07Z</time>
      </trkpt>
      <trkpt lat="37.9156" lon="-3.01268">
        <ele>734.4333</ele>
        <time>2021-07-19T14:49:18Z</time>
      </trkpt>
      <trkpt lat="37.91425" lon="-3.01069">
        <ele>729.3544</ele>
        <time>2021-07-19T14:49:29Z</time>
      </trkpt>
      <trkpt lat="37.91249" lon="-3.01045">
        <ele>721.8729</ele>
        <time>2021-07-19T14:49:40Z</time>
      </trkpt>
      <trkpt lat="37.91157" lon="-3.00959">
        <ele>717.0496</ele>
        <time>2021-07-19T14:49:51Z</time>
      </trkpt>
      <trkpt lat="37.91267" lon="-3.00899">
        <ele>714.374</ele>
        <time>2021-07-19T14:50:02Z</time>
      </trkpt>
      <trkpt lat="37.91369" lon="-3.0084">
        <ele>721.1084</ele>
        <time>2021-07-19T14:50:13Z</time>
      </trkpt>
      <trkpt lat="37.91407" lon="-3.00724">
        <ele>726.2977</ele>
        <time>2021-07-19T14:50:24Z</time>
      </trkpt>
      <trkpt lat="37.91461" lon="-3.00683">
        <ele>732.5789</ele>
        <time>2021-07-19T14:50:35Z</time>
      </trkpt>
      <trkpt lat="37.9151" lon="-3.00673">
        <ele>741.5047</ele>
        <time>2021-07-19T14:50:46Z</time>
      </trkpt>
      <trkpt lat="37.91583" lon="-3.0066">
        <ele>751.7989</ele>
        <time>2021-07-19T14:50:57Z</time>
      </trkpt>
      <trkpt lat="37.91676" lon="-3.00696">
        <ele>755.3491</ele>
        <time>2021-07-19T14:51:08Z</time>
      </trkpt>
      <trkpt lat="37.9173" lon="-3.0062">
        <ele>759.3259</ele>
        <time>2021-07-19T14:51:19Z</time>
      </trkpt>
      <trkpt lat="37.91823" lon="-3.00614">
        <ele>763.0004</ele>
        <time>2021-07-19T14:51:30Z</time>
      </trkpt>
      <trkpt lat="37.91867" lon="-3.00599">
        <ele>771.5478</ele>
        <time>2021-07-19T14:51:41Z</time>
      </trkpt>
      <trkpt lat="37.91915" lon="-3.00552">
        <ele>769.7026</ele>
        <time>2021-07-19T14:51:52Z</time>
      </trkpt>
      <trkpt lat="37.91967" lon="-3.0045">
        <ele>772.2544</ele>
        <time>2021-07-19T14:52:03Z</time>
      </trkpt>
      <trkpt lat="37.91958" lon="-3.00357">
        <ele>782.0404</ele>
        <time>2021-07-19T14:52:14Z</time>
      </trkpt>
      <trkpt lat="37.91895" lon="-3.00384">
        <ele>789.7519</ele>
        <time>2021-07-19T14:52:25Z</time>
      </trkpt>
      <trkpt lat="37.91789" lon="-3.00318">
        <ele>801.3541</ele>
        <time>2021-07-19T14:52:36Z</time>
      </trkpt>
      <trkpt lat="37.91856" lon="-3.00265">
        <ele>811.9191</ele>
        <time>2021-07-19T14:52:47Z</time>
      </trkpt>
      <trkpt lat="37.91935" lon="-3.00162">
        <ele>817.7747</ele>
        <time>2021-07-19T14:52:58Z</time>
      </trkpt>
      <trkpt lat="37.91991" lon="-3.00049">
        <ele>837.8414</ele>
        <time>2021-07-19T14:53:09Z</time>
      </trkpt>
      <trkpt lat="37.92055" lon="-2.99958">
        <ele>845.1425</ele>
        <time>2021-07-19T14:53:20Z</time>
      </trkpt>
      <trkpt lat="37.92098" lon="-2.99773">
        <ele>857.8244</ele>
        <time>2021-07-19T14:53:31Z</time>
      </trkpt>
      <trkpt lat="37.92113" lon="-2.99627">
        <ele>869.3604</ele>
        <time>2021-07-19T14:53:42Z</time>
      </trkpt>
      <trkpt lat="37.92141" lon="-2.99508">
        <ele>879.662</ele>
        <time>2021-07-19T14:53:53Z</time>
      </trkpt>
      <trkpt lat="37.9222" lon="-2.99404">
        <ele>883.2595</ele>
        <time>2021-07-19T14:54:04Z</time>
      </trkpt>
      <trkpt lat="37.92255" lon="-2.99293">
        <ele>887.1135</ele>
        <time>2021-07-19T14:54:15Z</time>
      </trkpt>
      <trkpt lat="37.92221" lon="-2.99183">
        <ele>894.1073</ele>
        <time>2021-07-19T14:54:26Z</time>
      </trkpt>
      <trkpt lat="37.92186" lon="-2.99067">
        <ele>897.7836</ele>
        <time>2021-07-19T14:54:37Z</time>
      </trkpt>
      <trkpt lat="37.92159" lon="-2.98983">
        <ele>898.6725</ele>
        <time>2021-07-19T14:54:48Z</time>
      </trkpt>
      <trkpt lat="37.92097" lon="-2.98899">
        <ele>895.9389</ele>
        <time>2021-07-19T14:54:59Z</time>
      </trkpt>
      <trkpt lat="37.92074" lon="-2.98777">
        <ele>900.3843</ele>
        <time>2021-07-19T14:55:10Z</time>
      </trkpt>
      <trkpt lat="37.92157" lon="-2.987">
        <ele>908.3314</ele>
        <time>2021-07-19T14:55:21Z</time>
      </trkpt>
      <trkpt lat="37.92239" lon="-2.98551">
        <ele>908.3696</ele>
        <time>2021-07-19T14:55:32Z</time>
      </trkpt>
      <trkpt lat="37.92219" lon="-2.98379">
        <ele>912.6728</ele>
        <time>2021-07-19T14:55:43Z</time>
      </trkpt>
      <trkpt lat="37.92275" lon="-2.9825">
        <ele>908.5744</ele>
        <time>2021-07-19T14:55:54Z</time>
      </trkpt>
      <trkpt lat="37.92439" lon="-2.98161">
        <ele>899.1964</ele>
        <time>2021-07-19T14:56:05Z</time>
      </trkpt>
      <trkpt lat="37.92522" lon="-2.98048">
        <ele>891.6742</ele>
        <time>2021-07-19T14:56:16Z</time>
      </trkpt>
      <trkpt lat="37.9261" lon="-2.97884">
        <ele>886.3277</ele>
        <time>2021-07-19T14:56:27Z</time>
      </trkpt>
      <trkpt lat="37.92598" lon="-2.97728">
        <ele>879.5814</ele>
        <time>2021-07-19T14:56:38Z</time>
      </trkpt>
      <trkpt lat="37.92662" lon="-2.97541">
        <ele>871.6321</ele>
        <time>2021-07-19T14:56:49Z</time>
      </trkpt>
      <trkpt lat="37.92717" lon="-2.9733">
        <ele>862.1672</ele>
        <time>2021-07-19T14:57:00Z</time>
      </trkpt>
      <trkpt lat="37.92797" lon="-2.97109">
        <ele>849.8842</ele>
        <time>2021-07-19T14:57:11Z</time>
      </trkpt>
      <trkpt lat="37.92802" lon="-2.96988">
        <ele>845.7273</ele>
        <time>2021-07-19T14:57:22Z</time>
      </trkpt>
      <trkpt lat="37.92894" lon="-2.96993">
        <ele>848.3544</ele>
        <time>2021-07-19T14:57:33Z</time>
      </trkpt>
      <trkpt lat="37.93027" lon="-2.97013">
        <ele>856.8276</ele>
        <time>2021-07-19T14:57:44Z</time>
      </trkpt>
      <trkpt lat="37.93185" lon="-2.97101">
        <ele>864.4082</ele>
        <time>2021-07-19T14:57:55Z</time>
      </trkpt>
      <trkpt lat="37.93331" lon="-2.9721">
        <ele>870.1842</ele>
        <time>2021-07-19T14:58:06Z</time>
      </trkpt>
      <trkpt lat="37.93397" lon="-2.97283">
        <ele>873.6729</ele>
        <time>2021-07-19T14:58:17Z</time>
      </trkpt>
      <trkpt lat="37.93359" lon="-2.97143">
        <ele>877.2843</ele>
        <time>2021-07-19T14:58:28Z</time>
      </trkpt>
      <trkpt lat="37.9353" lon="-2.97057">
        <ele>880.5405</ele>
        <time>2021-07-19T14:58:39Z</time>
      </trkpt>
      <trkpt lat="37.93718" lon="-2.969">
        <ele>884.7841</ele>
        <time>2021-07-19T14:58:50Z</time>
      </trkpt>
      <trkpt lat="37.93812" lon="-2.96711">
        <ele>886.9632</ele>
        <time>2021-07-19T14:59:01Z</time>
      </trkpt>
      <trkpt lat="37.93835" lon="-2.96494">
        <ele>892.9371</ele>
        <time>2021-07-19T14:59:12Z</time>
      </trkpt>
      <trkpt lat="37.93753" lon="-2.9625">
        <ele>898.8102</ele>
        <time>2021-07-19T14:59:23Z</time>
      </trkpt>
      <trkpt lat="37.93768" lon="-2.95997">
        <ele>903.0739</ele>
        <time>2021-07-19T14:59:34Z</time>
      </trkpt>
      <trkpt lat="37.93795" lon="-2.95768">
        <ele>913.9135</ele>
        <time>2021-07-19T14:59:45Z</time>
      </trkpt>
      <trkpt lat="37.93831" lon="-2.95608">
        <ele>921.2191</ele>
        <time>2021-07-19T14:59:56Z</time>
      </trkpt>
      <trkpt lat="37.93945" lon="-2.95621">
        <ele>919.6385</ele>
        <time>2021-07-19T15:00:07Z</time>
      </trkpt>
      <trkpt lat="37.94077" lon="-2.95639">
        <ele>919.1037</ele>
        <time>2021-07-19T15:00:18Z</time>
      </trkpt>
      <trkpt lat="37.94233" lon="-2.95551">
        <ele>929.283</ele>
        <time>2021-07-19T15:00:29Z</time>
      </trkpt>
      <trkpt lat="37.94367" lon="-2.95441">
        <ele>937.1805</ele>
        <time>2021-07-19T15:00:40Z</time>
      </trkpt>
      <trkpt lat="37.94492" lon="-2.9536">
        <ele>942.596</ele>
        <time>2021-07-19T15:00:51Z</time>
      </trkpt>
      <trkpt lat="37.94564" lon="-2.95293">
        <ele>949.1101</ele>
        <time>2021-07-19T15:01:02Z</time>
      </trkpt>
      <trkpt lat="37.94622" lon="-2.95234">
        <ele>954.5813</ele>
        <time>2021-07-19T15:01:13Z</time>
      </trkpt>
      <trkpt lat="37.94715" lon="-2.95117">
        <ele>963.4801</ele>
        <time>2021-07-19T15:01:24Z</time>
      </trkpt>
      <trkpt lat="37.94812" lon="-2.94938">
        <ele>968.2702</ele>
        <time>2021-07-19T15:01:35Z</time>
      </trkpt>
      <trkpt lat="37.94881" lon="-2.9483">
        <ele>972.1694</ele>
        <time>2021-07-19T15:01:46Z</time>
      </trkpt>
      <trkpt lat="37.94918" lon="-2.94773">
        <ele>978.271</ele>
        <time>2021-07-19T15:01:57Z</time>
      </trkpt>
      <trkpt lat="37.94975" lon="-2.94743">
        <ele>986.6494</ele>
        <time>2021-07-19T15:02:08Z</time>
      </trkpt>
      <trkpt lat="37.95108" lon="-2.94839">
        <ele>1000.439</ele>
        <time>2021-07-19T15:02:19Z</time>
      </trkpt>
      <trkpt lat="37.95282" lon="-2.94909">
        <ele>1007.987</ele>
        <time>2021-07-19T15:02:30Z</time>
      </trkpt>
      <trkpt lat="37.95466" lon="-2.94904">
        <ele>1018.607</ele>
        <time>2021-07-19T15:02:41Z</time>
      </trkpt>
      <trkpt lat="37.95567" lon="-2.94927">
        <ele>1025.453</ele>
        <time>2021-07-19T15:02:52Z</time>
      </trkpt>
      <trkpt lat="37.95402" lon="-2.94846">
        <ele>1034.554</ele>
        <time>2021-07-19T15:03:03Z</time>
      </trkpt>
      <trkpt lat="37.95228" lon="-2.94763">
        <ele>1047.903</ele>
        <time>2021-07-19T15:03:14Z</time>
      </trkpt>
      <trkpt lat="37.95069" lon="-2.9461">
        <ele>1057.966</ele>
        <time>2021-07-19T15:03:25Z</time>
      </trkpt>
      <trkpt lat="37.95019" lon="-2.94482">
        <ele>1069.241</ele>
        <time>2021-07-19T15:03:36Z</time>
      </trkpt>
      <trkpt lat="37.94869" lon="-2.94593">
        <ele>1078.34</ele>
        <time>2021-07-19T15:03:47Z</time>
      </trkpt>
      <trkpt lat="37.94761" lon="-2.94597">
        <ele>1081.443</ele>
        <time>2021-07-19T15:03:58Z</time>
      </trkpt>
      <trkpt lat="37.94718" lon="-2.94725">
        <ele>1089.012</ele>
        <time>2021-07-19T15:04:09Z</time>
      </trkpt>
      <trkpt lat="37.94657" lon="-2.94838">
        <ele>1090.321</ele>
        <time>2021-07-19T15:04:20Z</time>
      </trkpt>
      <trkpt lat="37.94631" lon="-2.94862">
        <ele>1096.126</ele>
        <time>2021-07-19T15:04:31Z</time>
      </trkpt>
      <trkpt lat="37.94681" lon="-2.9475">
        <ele>1098.717</ele>
        <time>2021-07-19T15:04:42Z</time>
      </trkpt>
      <trkpt lat="37.94694" lon="-2.94588">
        <ele>1102.037</ele>
        <time>2021-07-19T15:04:53Z</time>
      </trkpt>
      <trkpt lat="37.94741" lon="-2.94493">
        <ele>1109.338</ele>
        <time>2021-07-19T15:05:04Z</time>
      </trkpt>
      <trkpt lat="37.94835" lon="-2.9449">
        <ele>1115.436</ele>
        <time>2021-07-19T15:05:15Z</time>
      </trkpt>
      <trkpt lat="37.94923" lon="-2.94402">
        <ele>1120.536</ele>
        <time>2021-07-19T15:05:26Z</time>
      </trkpt>
      <trkpt lat="37.95025" lon="-2.94296">
        <ele>1124.696</ele>
        <time>2021-07-19T15:05:37Z</time>
      </trkpt>
      <trkpt lat="37.95107" lon="-2.94195">
        <ele>1125.968</ele>
        <time>2021-07-19T15:05:48Z</time>
      </trkpt>
      <trkpt lat="37.95197" lon="-2.94313">
        <ele>1128.164</ele>
        <time>2021-07-19T15:05:59Z</time>
      </trkpt>
      <trkpt lat="37.95269" lon="-2.94451">
        <ele>1137.773</ele>
        <time>2021-07-19T15:06:10Z</time>
      </trkpt>
      <trkpt lat="37.95295" lon="-2.94578">
        <ele>1146.07</ele>
        <time>2021-07-19T15:06:21Z</time>
      </trkpt>
      <trkpt lat="37.95298" lon="-2.9436">
        <ele>1159.675</ele>
        <time>2021-07-19T15:06:32Z</time>
      </trkpt>
      <trkpt lat="37.95199" lon="-2.94191">
        <ele>1168.14</ele>
        <time>2021-07-19T15:06:43Z</time>
      </trkpt>
      <trkpt lat="37.95109" lon="-2.93994">
        <ele>1180.92</ele>
        <time>2021-07-19T15:06:54Z</time>
      </trkpt>
      <trkpt lat="37.94932" lon="-2.94138">
        <ele>1195.118</ele>
        <time>2021-07-19T15:07:05Z</time>
      </trkpt>
      <trkpt lat="37.94766" lon="-2.94147">
        <ele>1205.568</ele>
        <time>2021-07-19T15:07:16Z</time>
      </trkpt>
      <trkpt lat="37.9456" lon="-2.94143">
        <ele>1217.721</ele>
        <time>2021-07-19T15:07:27Z</time>
      </trkpt>
      <trkpt lat="37.94409" lon="-2.9407">
        <ele>1231.967</ele>
        <time>2021-07-19T15:07:38Z</time>
      </trkpt>
      <trkpt lat="37.94298" lon="-2.93972">
        <ele>1239.728</ele>
        <time>2021-07-19T15:07:49Z</time>
      </trkpt>
      <trkpt lat="37.94169" lon="-2.93974">
        <ele>1245.71</ele>
        <time>2021-07-19T15:08:00Z</time>
      </trkpt>
      <trkpt lat="37.9409" lon="-2.93915">
        <ele>1241.297</ele>
        <time>2021-07-19T15:08:11Z</time>
      </trkpt>
      <trkpt lat="37.94088" lon="-2.93908">
        <ele>1243.109</ele>
        <time>2021-07-19T15:08:22Z</time>
      </trkpt>
      <trkpt lat="37.94089" lon="-2.93904">
        <ele>1243.215</ele>
        <time>2021-07-19T15:09:06Z</time>
      </trkpt>
      <trkpt lat="37.94097" lon="-2.93907">
        <ele>1243.503</ele>
        <time>2021-07-19T15:09:17Z</time>
      </trkpt>
      <trkpt lat="37.94099" lon="-2.93903">
        <ele>1243.14</ele>
        <time>2021-07-19T15:09:29Z</time>
      </trkpt>
      <trkpt lat="37.94098" lon="-2.93908">
        <ele>1245.13</ele>
        <time>2021-07-19T15:09:48Z</time>
      </trkpt>
      <trkpt lat="37.94092" lon="-2.93907">
        <ele>1242.182</ele>
        <time>2021-07-19T15:09:59Z</time>
      </trkpt>
      <trkpt lat="37.94094" lon="-2.93907">
        <ele>1237.398</ele>
        <time>2021-07-19T15:10:58Z</time>
      </trkpt>
      <trkpt lat="37.94092" lon="-2.93908">
        <ele>1236.084</ele>
        <time>2021-07-19T15:11:57Z</time>
      </trkpt>
      <trkpt lat="37.94089" lon="-2.93908">
        <ele>1235.027</ele>
        <time>2021-07-19T15:12:57Z</time>
      </trkpt>
      <trkpt lat="37.94087" lon="-2.9391">
        <ele>1238.615</ele>
        <time>2021-07-19T15:13:57Z</time>
      </trkpt>
      <trkpt lat="37.9409" lon="-2.93913">
        <ele>1238.987</ele>
        <time>2021-07-19T15:14:57Z</time>
      </trkpt>
      <trkpt lat="37.94087" lon="-2.93916">
        <ele>1239.349</ele>
        <time>2021-07-19T15:15:23Z</time>
      </trkpt>
      <trkpt lat="37.94037" lon="-2.93924">
        <ele>1236.467</ele>
        <time>2021-07-19T15:15:34Z</time>
      </trkpt>
      <trkpt lat="37.93876" lon="-2.93939">
        <ele>1227.132</ele>
        <time>2021-07-19T15:15:45Z</time>
      </trkpt>
      <trkpt lat="37.93749" lon="-2.9398">
        <ele>1218.5</ele>
        <time>2021-07-19T15:15:56Z</time>
      </trkpt>
      <trkpt lat="37.93688" lon="-2.94103">
        <ele>1212.363</ele>
        <time>2021-07-19T15:16:07Z</time>
      </trkpt>
      <trkpt lat="37.93631" lon="-2.94243">
        <ele>1206.838</ele>
        <time>2021-07-19T15:16:18Z</time>
      </trkpt>
      <trkpt lat="37.93517" lon="-2.9433">
        <ele>1198.566</ele>
        <time>2021-07-19T15:16:29Z</time>
      </trkpt>
      <trkpt lat="37.93446" lon="-2.94413">
        <ele>1192.204</ele>
        <time>2021-07-19T15:16:40Z</time>
      </trkpt>
      <trkpt lat="37.93343" lon="-2.94509">
        <ele>1182.349</ele>
        <time>2021-07-19T15:16:51Z</time>
      </trkpt>
      <trkpt lat="37.93232" lon="-2.94604">
        <ele>1171.575</ele>
        <time>2021-07-19T15:17:02Z</time>
      </trkpt>
      <trkpt lat="37.93134" lon="-2.94698">
        <ele>1163.628</ele>
        <time>2021-07-19T15:17:13Z</time>
      </trkpt>
      <trkpt lat="37.93046" lon="-2.94737">
        <ele>1159.183</ele>
        <time>2021-07-19T15:17:24Z</time>
      </trkpt>
      <trkpt lat="37.93001" lon="-2.94856">
        <ele>1156.748</ele>
        <time>2021-07-19T15:17:35Z</time>
      </trkpt>
      <trkpt lat="37.92897" lon="-2.9491">
        <ele>1147.747</ele>
        <time>2021-07-19T15:17:46Z</time>
      </trkpt>
      <trkpt lat="37.92791" lon="-2.94927">
        <ele>1138.965</ele>
        <time>2021-07-19T15:17:57Z</time>
      </trkpt>
      <trkpt lat="37.927" lon="-2.94981">
        <ele>1135.887</ele>
        <time>2021-07-19T15:18:08Z</time>
      </trkpt>
      <trkpt lat="37.92586" lon="-2.95072">
        <ele>1134.515</ele>
        <time>2021-07-19T15:18:19Z</time>
      </trkpt>
      <trkpt lat="37.92472" lon="-2.95186">
        <ele>1128.013</ele>
        <time>2021-07-19T15:18:30Z</time>
      </trkpt>
      <trkpt lat="37.92365" lon="-2.95201">
        <ele>1122.471</ele>
        <time>2021-07-19T15:18:41Z</time>
      </trkpt>
      <trkpt lat="37.92232" lon="-2.95279">
        <ele>1108.93</ele>
        <time>2021-07-19T15:18:52Z</time>
      </trkpt>
      <trkpt lat="37.92075" lon="-2.95323">
        <ele>1102.542</ele>
        <time>2021-07-19T15:19:03Z</time>
      </trkpt>
      <trkpt lat="37.91928" lon="-2.95317">
        <ele>1084.153</ele>
        <time>2021-07-19T15:19:14Z</time>
      </trkpt>
      <trkpt lat="37.91856" lon="-2.95361">
        <ele>1085.001</ele>
        <time>2021-07-19T15:19:25Z</time>
      </trkpt>
      <trkpt lat="37.91738" lon="-2.95388">
        <ele>1078.79</ele>
        <time>2021-07-19T15:19:36Z</time>
      </trkpt>
      <trkpt lat="37.91667" lon="-2.95419">
        <ele>1079.929</ele>
        <time>2021-07-19T15:19:47Z</time>
      </trkpt>
      <trkpt lat="37.91673" lon="-2.95266">
        <ele>1066.877</ele>
        <time>2021-07-19T15:19:58Z</time>
      </trkpt>
      <trkpt lat="37.91696" lon="-2.95128">
        <ele>1056.245</ele>
        <time>2021-07-19T15:20:09Z</time>
      </trkpt>
      <trkpt lat="37.91831" lon="-2.951">
        <ele>1045.925</ele>
        <time>2021-07-19T15:20:20Z</time>
      </trkpt>
      <trkpt lat="37.91937" lon="-2.95007">
        <ele>1030.475</ele>
        <time>2021-07-19T15:20:31Z</time>
      </trkpt>
      <trkpt lat="37.91915" lon="-2.94873">
        <ele>1023.88</ele>
        <time>2021-07-19T15:20:42Z</time>
      </trkpt>
      <trkpt lat="37.92061" lon="-2.94865">
        <ele>1015.204</ele>
        <time>2021-07-19T15:20:53Z</time>
      </trkpt>
      <trkpt lat="37.92211" lon="-2.94824">
        <ele>995.1107</ele>
        <time>2021-07-19T15:21:04Z</time>
      </trkpt>
      <trkpt lat="37.92314" lon="-2.94658">
        <ele>984.4599</ele>
        <time>2021-07-19T15:21:15Z</time>
      </trkpt>
      <trkpt lat="37.92459" lon="-2.94506">
        <ele>969.0674</ele>
        <time>2021-07-19T15:21:26Z</time>
      </trkpt>
      <trkpt lat="37.92547" lon="-2.9432">
        <ele>956.8634</ele>
        <time>2021-07-19T15:21:37Z</time>
      </trkpt>
      <trkpt lat="37.92609" lon="-2.94105">
        <ele>943.7435</ele>
        <time>2021-07-19T15:21:48Z</time>
      </trkpt>
      <trkpt lat="37.92584" lon="-2.93956">
        <ele>932.9963</ele>
        <time>2021-07-19T15:21:59Z</time>
      </trkpt>
      <trkpt lat="37.92594" lon="-2.93731">
        <ele>913.895</ele>
        <time>2021-07-19T15:22:10Z</time>
      </trkpt>
      <trkpt lat="37.92675" lon="-2.9355">
        <ele>906.8963</ele>
        <time>2021-07-19T15:22:21Z</time>
      </trkpt>
      <trkpt lat="37.9268" lon="-2.93349">
        <ele>898.2467</ele>
        <time>2021-07-19T15:22:32Z</time>
      </trkpt>
      <trkpt lat="37.92716" lon="-2.93289">
        <ele>894.0549</ele>
        <time>2021-07-19T15:22:43Z</time>
      </trkpt>
      <trkpt lat="37.92802" lon="-2.93411">
        <ele>876.1142</ele>
        <time>2021-07-19T15:22:54Z</time>
      </trkpt>
      <trkpt lat="37.92794" lon="-2.93286">
        <ele>868.4408</ele>
        <time>2021-07-19T15:23:05Z</time>
      </trkpt>
      <trkpt lat="37.92761" lon="-2.93123">
        <ele>854.1271</ele>
        <time>2021-07-19T15:23:16Z</time>
      </trkpt>
      <trkpt lat="37.92847" lon="-2.93082">
        <ele>845.3308</ele>
        <time>2021-07-19T15:23:27Z</time>
      </trkpt>
      <trkpt lat="37.92953" lon="-2.93097">
        <ele>836.8288</ele>
        <time>2021-07-19T15:23:38Z</time>
      </trkpt>
      <trkpt lat="37.93038" lon="-2.93033">
        <ele>826.3422</ele>
        <time>2021-07-19T15:23:49Z</time>
      </trkpt>
      <trkpt lat="37.9312" lon="-2.9301">
        <ele>812.379</ele>
        <time>2021-07-19T15:24:00Z</time>
      </trkpt>
      <trkpt lat="37.9305" lon="-2.929">
        <ele>804.3799</ele>
        <time>2021-07-19T15:24:11Z</time>
      </trkpt>
      <trkpt lat="37.93105" lon="-2.92814">
        <ele>802.3287</ele>
        <time>2021-07-19T15:24:22Z</time>
      </trkpt>
      <trkpt lat="37.93202" lon="-2.92861">
        <ele>808.0049</ele>
        <time>2021-07-19T15:24:33Z</time>
      </trkpt>
      <trkpt lat="37.9329" lon="-2.92904">
        <ele>804.051</ele>
        <time>2021-07-19T15:24:44Z</time>
      </trkpt>
      <trkpt lat="37.93399" lon="-2.92923">
        <ele>805.403</ele>
        <time>2021-07-19T15:24:55Z</time>
      </trkpt>
      <trkpt lat="37.93502" lon="-2.9292">
        <ele>805.1267</ele>
        <time>2021-07-19T15:25:06Z</time>
      </trkpt>
      <trkpt lat="37.93664" lon="-2.92925">
        <ele>804.5655</ele>
        <time>2021-07-19T15:25:17Z</time>
      </trkpt>
      <trkpt lat="37.93783" lon="-2.92917">
        <ele>804.2313</ele>
        <time>2021-07-19T15:25:28Z</time>
      </trkpt>
      <trkpt lat="37.93885" lon="-2.92762">
        <ele>802.616</ele>
        <time>2021-07-19T15:25:39Z</time>
      </trkpt>
      <trkpt lat="37.94033" lon="-2.9261">
        <ele>802.3358</ele>
        <time>2021-07-19T15:25:50Z</time>
      </trkpt>
      <trkpt lat="37.94227" lon="-2.92579">
        <ele>802.1651</ele>
        <time>2021-07-19T15:26:01Z</time>
      </trkpt>
      <trkpt lat="37.9438" lon="-2.92496">
        <ele>804.7419</ele>
        <time>2021-07-19T15:26:12Z</time>
      </trkpt>
      <trkpt lat="37.94482" lon="-2.92301">
        <ele>807.6505</ele>
        <time>2021-07-19T15:26:23Z</time>
      </trkpt>
      <trkpt lat="37.94484" lon="-2.92114">
        <ele>811.4046</ele>
        <time>2021-07-19T15:26:34Z</time>
      </trkpt>
      <trkpt lat="37.94551" lon="-2.92058">
        <ele>811.9085</ele>
        <time>2021-07-19T15:26:45Z</time>
      </trkpt>
      <trkpt lat="37.94638" lon="-2.92061">
        <ele>813.0491</ele>
        <time>2021-07-19T15:26:56Z</time>
      </trkpt>
      <trkpt lat="37.94713" lon="-2.92089">
        <ele>808.6914</ele>
        <time>2021-07-19T15:27:07Z</time>
      </trkpt>
      <trkpt lat="37.94761" lon="-2.92088">
        <ele>806.6262</ele>
        <time>2021-07-19T15:27:18Z</time>
      </trkpt>
      <trkpt lat="37.9481" lon="-2.92083">
        <ele>807.7504</ele>
        <time>2021-07-19T15:27:29Z</time>
      </trkpt>
      <trkpt lat="37.94888" lon="-2.92082">
        <ele>809.8353</ele>
        <time>2021-07-19T15:27:41Z</time>
      </trkpt>
      <trkpt lat="37.94957" lon="-2.92081">
        <ele>812.5572</ele>
        <time>2021-07-19T15:27:52Z</time>
      </trkpt>
      <trkpt lat="37.95119" lon="-2.9207">
        <ele>807.1972</ele>
        <time>2021-07-19T15:28:03Z</time>
      </trkpt>
      <trkpt lat="37.95308" lon="-2.92056">
        <ele>804.8444</ele>
        <time>2021-07-19T15:28:14Z</time>
      </trkpt>
      <trkpt lat="37.95507" lon="-2.91942">
        <ele>802.0384</ele>
        <time>2021-07-19T15:28:25Z</time>
      </trkpt>
      <trkpt lat="37.95665" lon="-2.91851">
        <ele>803.898</ele>
        <time>2021-07-19T15:28:36Z</time>
      </trkpt>
      <trkpt lat="37.9585" lon="-2.91805">
        <ele>807.0127</ele>
        <time>2021-07-19T15:28:47Z</time>
      </trkpt>
      <trkpt lat="37.96046" lon="-2.91704">
        <ele>811.4181</ele>
        <time>2021-07-19T15:28:58Z</time>
      </trkpt>
      <trkpt lat="37.96194" lon="-2.91581">
        <ele>789.3868</ele>
        <time>2021-07-19T15:29:09Z</time>
      </trkpt>
      <trkpt lat="37.96358" lon="-2.91481">
        <ele>779.3429</ele>
        <time>2021-07-19T15:29:20Z</time>
      </trkpt>
      <trkpt lat="37.96458" lon="-2.91335">
        <ele>771.8625</ele>
        <time>2021-07-19T15:29:31Z</time>
      </trkpt>
      <trkpt lat="37.96586" lon="-2.9133">
        <ele>764.9247</ele>
        <time>2021-07-19T15:29:42Z</time>
      </trkpt>
      <trkpt lat="37.96697" lon="-2.91237">
        <ele>757.656</ele>
        <time>2021-07-19T15:29:53Z</time>
      </trkpt>
      <trkpt lat="37.96841" lon="-2.91295">
        <ele>746.5259</ele>
        <time>2021-07-19T15:30:04Z</time>
      </trkpt>
      <trkpt lat="37.9701" lon="-2.91364">
        <ele>741.8304</ele>
        <time>2021-07-19T15:30:15Z</time>
      </trkpt>
      <trkpt lat="37.97054" lon="-2.9128">
        <ele>745.1822</ele>
        <time>2021-07-19T15:30:26Z</time>
      </trkpt>
      <trkpt lat="37.97037" lon="-2.91113">
        <ele>745.0351</ele>
        <time>2021-07-19T15:30:37Z</time>
      </trkpt>
      <trkpt lat="37.97221" lon="-2.91008">
        <ele>738.4021</ele>
        <time>2021-07-19T15:30:48Z</time>
      </trkpt>
      <trkpt lat="37.97383" lon="-2.90817">
        <ele>737.3066</ele>
        <time>2021-07-19T15:30:59Z</time>
      </trkpt>
      <trkpt lat="37.97449" lon="-2.9064">
        <ele>739.5739</ele>
        <time>2021-07-19T15:31:10Z</time>
      </trkpt>
      <trkpt lat="37.97621" lon="-2.90594">
        <ele>742.5215</ele>
        <time>2021-07-19T15:31:21Z</time>
      </trkpt>
      <trkpt lat="37.97793" lon="-2.90666">
        <ele>736.6772</ele>
        <time>2021-07-19T15:31:32Z</time>
      </trkpt>
      <trkpt lat="37.97977" lon="-2.90753">
        <ele>738.8608</ele>
        <time>2021-07-19T15:31:43Z</time>
      </trkpt>
      <trkpt lat="37.98127" lon="-2.90874">
        <ele>727.5368</ele>
        <time>2021-07-19T15:31:54Z</time>
      </trkpt>
      <trkpt lat="37.98283" lon="-2.90835">
        <ele>728.5191</ele>
        <time>2021-07-19T15:32:05Z</time>
      </trkpt>
      <trkpt lat="37.9845" lon="-2.90731">
        <ele>731.0157</ele>
        <time>2021-07-19T15:32:16Z</time>
      </trkpt>
      <trkpt lat="37.9861" lon="-2.90667">
        <ele>739.1761</ele>
        <time>2021-07-19T15:32:27Z</time>
      </trkpt>
      <trkpt lat="37.98721" lon="-2.90659">
        <ele>737.6729</ele>
        <time>2021-07-19T15:32:38Z</time>
      </trkpt>
      <trkpt lat="37.9886" lon="-2.90482">
        <ele>732.3598</ele>
        <time>2021-07-19T15:32:49Z</time>
      </trkpt>
      <trkpt lat="37.98938" lon="-2.90363">
        <ele>730.1438</ele>
        <time>2021-07-19T15:33:00Z</time>
      </trkpt>
      <trkpt lat="37.99061" lon="-2.90217">
        <ele>717.3586</ele>
        <time>2021-07-19T15:33:11Z</time>
      </trkpt>
      <trkpt lat="37.99113" lon="-2.90027">
        <ele>713.525</ele>
        <time>2021-07-19T15:33:22Z</time>
      </trkpt>
      <trkpt lat="37.99239" lon="-2.89949">
        <ele>708.6388</ele>
        <time>2021-07-19T15:33:33Z</time>
      </trkpt>
      <trkpt lat="37.99362" lon="-2.89851">
        <ele>713.972</ele>
        <time>2021-07-19T15:33:44Z</time>
      </trkpt>
      <trkpt lat="37.99495" lon="-2.89779">
        <ele>717.2524</ele>
        <time>2021-07-19T15:33:55Z</time>
      </trkpt>
      <trkpt lat="37.99541" lon="-2.89601">
        <ele>721.9815</ele>
        <time>2021-07-19T15:34:06Z</time>
      </trkpt>
      <trkpt lat="37.99628" lon="-2.89438">
        <ele>725.1054</ele>
        <time>2021-07-19T15:34:17Z</time>
      </trkpt>
      <trkpt lat="37.99744" lon="-2.89298">
        <ele>726.8108</ele>
        <time>2021-07-19T15:34:28Z</time>
      </trkpt>
      <trkpt lat="37.9983" lon="-2.89088">
        <ele>730.8945</ele>
        <time>2021-07-19T15:34:39Z</time>
      </trkpt>
      <trkpt lat="37.99953" lon="-2.88967">
        <ele>731.0134</ele>
        <time>2021-07-19T15:34:50Z</time>
      </trkpt>
      <trkpt lat="38.00042" lon="-2.88769">
        <ele>736.5026</ele>
        <time>2021-07-19T15:35:01Z</time>
      </trkpt>
      <trkpt lat="38.00194" lon="-2.88661">
        <ele>737.6969</ele>
        <time>2021-07-19T15:35:12Z</time>
      </trkpt>
      <trkpt lat="38.00354" lon="-2.88627">
        <ele>736.5297</ele>
        <time>2021-07-19T15:35:23Z</time>
      </trkpt>
      <trkpt lat="38.00319" lon="-2.88535">
        <ele>736.3681</ele>
        <time>2021-07-19T15:35:34Z</time>
      </trkpt>
      <trkpt lat="38.00267" lon="-2.88364">
        <ele>735.8918</ele>
        <time>2021-07-19T15:35:45Z</time>
      </trkpt>
      <trkpt lat="38.00356" lon="-2.8819">
        <ele>735.7009</ele>
        <time>2021-07-19T15:35:56Z</time>
      </trkpt>
      <trkpt lat="38.00496" lon="-2.88009">
        <ele>732.3651</ele>
        <time>2021-07-19T15:36:07Z</time>
      </trkpt>
      <trkpt lat="38.0059" lon="-2.88121">
        <ele>726.7683</ele>
        <time>2021-07-19T15:36:18Z</time>
      </trkpt>
      <trkpt lat="38.00696" lon="-2.87991">
        <ele>720.3947</ele>
        <time>2021-07-19T15:36:29Z</time>
      </trkpt>
      <trkpt lat="38.00779" lon="-2.87838">
        <ele>706.7499</ele>
        <time>2021-07-19T15:36:40Z</time>
      </trkpt>
      <trkpt lat="38.00904" lon="-2.8767">
        <ele>699.8659</ele>
        <time>2021-07-19T15:36:51Z</time>
      </trkpt>
      <trkpt lat="38.01061" lon="-2.87557">
        <ele>693.0848</ele>
        <time>2021-07-19T15:37:02Z</time>
      </trkpt>
      <trkpt lat="38.01185" lon="-2.87381">
        <ele>696.6017</ele>
        <time>2021-07-19T15:37:13Z</time>
      </trkpt>
      <trkpt lat="38.01298" lon="-2.873">
        <ele>701.8737</ele>
        <time>2021-07-19T15:37:24Z</time>
      </trkpt>
      <trkpt lat="38.01317" lon="-2.87292">
        <ele>700.4279</ele>
        <time>2021-07-19T15:37:35Z</time>
      </trkpt>
      <trkpt lat="38.0132" lon="-2.87289">
        <ele>699.792</ele>
        <time>2021-07-19T15:37:46Z</time>
      </trkpt>
      <trkpt lat="38.01362" lon="-2.87285">
        <ele>700.0955</ele>
        <time>2021-07-19T15:37:57Z</time>
      </trkpt>
      <trkpt lat="38.01448" lon="-2.87201">
        <ele>696.5647</ele>
        <time>2021-07-19T15:38:08Z</time>
      </trkpt>
      <trkpt lat="38.01541" lon="-2.8727">
        <ele>689.3568</ele>
        <time>2021-07-19T15:38:19Z</time>
      </trkpt>
      <trkpt lat="38.0169" lon="-2.8725">
        <ele>692.7363</ele>
        <time>2021-07-19T15:38:30Z</time>
      </trkpt>
      <trkpt lat="38.01849" lon="-2.87249">
        <ele>682.7187</ele>
        <time>2021-07-19T15:38:41Z</time>
      </trkpt>
      <trkpt lat="38.0201" lon="-2.87149">
        <ele>676.5728</ele>
        <time>2021-07-19T15:38:52Z</time>
      </trkpt>
      <trkpt lat="38.02177" lon="-2.87087">
        <ele>671.6334</ele>
        <time>2021-07-19T15:39:03Z</time>
      </trkpt>
      <trkpt lat="38.02353" lon="-2.87056">
        <ele>670.4205</ele>
        <time>2021-07-19T15:39:14Z</time>
      </trkpt>
      <trkpt lat="38.02483" lon="-2.86877">
        <ele>673.5509</ele>
        <time>2021-07-19T15:39:25Z</time>
      </trkpt>
      <trkpt lat="38.02563" lon="-2.8667">
        <ele>670.1623</ele>
        <time>2021-07-19T15:39:36Z</time>
      </trkpt>
      <trkpt lat="38.02674" lon="-2.86555">
        <ele>664.8124</ele>
        <time>2021-07-19T15:39:47Z</time>
      </trkpt>
      <trkpt lat="38.02853" lon="-2.86598">
        <ele>660.0736</ele>
        <time>2021-07-19T15:39:58Z</time>
      </trkpt>
      <trkpt lat="38.02995" lon="-2.86568">
        <ele>662.7947</ele>
        <time>2021-07-19T15:40:09Z</time>
      </trkpt>
      <trkpt lat="38.03164" lon="-2.86578">
        <ele>664.0115</ele>
        <time>2021-07-19T15:40:20Z</time>
      </trkpt>
      <trkpt lat="38.03333" lon="-2.86595">
        <ele>671.6761</ele>
        <time>2021-07-19T15:40:31Z</time>
      </trkpt>
      <trkpt lat="38.03495" lon="-2.86582">
        <ele>680.9681</ele>
        <time>2021-07-19T15:40:42Z</time>
      </trkpt>
      <trkpt lat="38.03596" lon="-2.86589">
        <ele>688.5084</ele>
        <time>2021-07-19T15:40:53Z</time>
      </trkpt>
      <trkpt lat="38.03718" lon="-2.86473">
        <ele>689.2894</ele>
        <time>2021-07-19T15:41:04Z</time>
      </trkpt>
      <trkpt lat="38.03852" lon="-2.86299">
        <ele>683.8375</ele>
        <time>2021-07-19T15:41:15Z</time>
      </trkpt>
      <trkpt lat="38.04031" lon="-2.86172">
        <ele>679.419</ele>
        <time>2021-07-19T15:41:26Z</time>
      </trkpt>
      <trkpt lat="38.0415" lon="-2.86038">
        <ele>671.976</ele>
        <time>2021-07-19T15:41:37Z</time>
      </trkpt>
      <trkpt lat="38.04278" lon="-2.85951">
        <ele>663.421</ele>
        <time>2021-07-19T15:41:48Z</time>
      </trkpt>
      <trkpt lat="38.04346" lon="-2.85805">
        <ele>662.8645</ele>
        <time>2021-07-19T15:41:59Z</time>
      </trkpt>
      <trkpt lat="38.04425" lon="-2.85595">
        <ele>660.9567</ele>
        <time>2021-07-19T15:42:10Z</time>
      </trkpt>
      <trkpt lat="38.04601" lon="-2.85398">
        <ele>655.4566</ele>
        <time>2021-07-19T15:42:21Z</time>
      </trkpt>
      <trkpt lat="38.04718" lon="-2.8532">
        <ele>662.5166</ele>
        <time>2021-07-19T15:42:32Z</time>
      </trkpt>
      <trkpt lat="38.0485" lon="-2.85145">
        <ele>660.5721</ele>
        <time>2021-07-19T15:42:43Z</time>
      </trkpt>
      <trkpt lat="38.04905" lon="-2.85004">
        <ele>661.5383</ele>
        <time>2021-07-19T15:42:54Z</time>
      </trkpt>
      <trkpt lat="38.04965" lon="-2.84876">
        <ele>662.3154</ele>
        <time>2021-07-19T15:43:05Z</time>
      </trkpt>
      <trkpt lat="38.05008" lon="-2.84738">
        <ele>661.5399</ele>
        <time>2021-07-19T15:43:16Z</time>
      </trkpt>
      <trkpt lat="38.0509" lon="-2.84573">
        <ele>662.8775</ele>
        <time>2021-07-19T15:43:27Z</time>
      </trkpt>
      <trkpt lat="38.0522" lon="-2.84408">
        <ele>666.5493</ele>
        <time>2021-07-19T15:43:38Z</time>
      </trkpt>
      <trkpt lat="38.0537" lon="-2.8429">
        <ele>662.0666</ele>
        <time>2021-07-19T15:43:49Z</time>
      </trkpt>
      <trkpt lat="38.05503" lon="-2.84126">
        <ele>664.2606</ele>
        <time>2021-07-19T15:44:00Z</time>
      </trkpt>
      <trkpt lat="38.0559" lon="-2.83962">
        <ele>664.7702</ele>
        <time>2021-07-19T15:44:11Z</time>
      </trkpt>
      <trkpt lat="38.05632" lon="-2.83755">
        <ele>662.7951</ele>
        <time>2021-07-19T15:44:22Z</time>
      </trkpt>
      <trkpt lat="38.05744" lon="-2.8359">
        <ele>660.9991</ele>
        <time>2021-07-19T15:44:33Z</time>
      </trkpt>
      <trkpt lat="38.05858" lon="-2.8343">
        <ele>659.2405</ele>
        <time>2021-07-19T15:44:44Z</time>
      </trkpt>
      <trkpt lat="38.05978" lon="-2.83289">
        <ele>661.9149</ele>
        <time>2021-07-19T15:44:55Z</time>
      </trkpt>
      <trkpt lat="38.0612" lon="-2.83143">
        <ele>665.0113</ele>
        <time>2021-07-19T15:45:06Z</time>
      </trkpt>
      <trkpt lat="38.06292" lon="-2.83048">
        <ele>673.6965</ele>
        <time>2021-07-19T15:45:17Z</time>
      </trkpt>
      <trkpt lat="38.06461" lon="-2.82942">
        <ele>677.8785</ele>
        <time>2021-07-19T15:45:28Z</time>
      </trkpt>
      <trkpt lat="38.06596" lon="-2.82807">
        <ele>673.6531</ele>
        <time>2021-07-19T15:45:39Z</time>
      </trkpt>
      <trkpt lat="38.06758" lon="-2.82808">
        <ele>667.9706</ele>
        <time>2021-07-19T15:45:50Z</time>
      </trkpt>
      <trkpt lat="38.06774" lon="-2.82633">
        <ele>673.3395</ele>
        <time>2021-07-19T15:46:01Z</time>
      </trkpt>
      <trkpt lat="38.06878" lon="-2.82499">
        <ele>677.0966</ele>
        <time>2021-07-19T15:46:12Z</time>
      </trkpt>
      <trkpt lat="38.06962" lon="-2.82328">
        <ele>689.1754</ele>
        <time>2021-07-19T15:46:23Z</time>
      </trkpt>
      <trkpt lat="38.07094" lon="-2.82167">
        <ele>691.9928</ele>
        <time>2021-07-19T15:46:34Z</time>
      </trkpt>
      <trkpt lat="38.0724" lon="-2.82157">
        <ele>706.1251</ele>
        <time>2021-07-19T15:46:45Z</time>
      </trkpt>
      <trkpt lat="38.07364" lon="-2.82139">
        <ele>712.2966</ele>
        <time>2021-07-19T15:46:56Z</time>
      </trkpt>
      <trkpt lat="38.0752" lon="-2.82241">
        <ele>702.0986</ele>
        <time>2021-07-19T15:47:07Z</time>
      </trkpt>
      <trkpt lat="38.07672" lon="-2.82287">
        <ele>692.0572</ele>
        <time>2021-07-19T15:47:18Z</time>
      </trkpt>
      <trkpt lat="38.07741" lon="-2.82176">
        <ele>683.8117</ele>
        <time>2021-07-19T15:47:29Z</time>
      </trkpt>
      <trkpt lat="38.07857" lon="-2.8202">
        <ele>674.4724</ele>
        <time>2021-07-19T15:47:40Z</time>
      </trkpt>
      <trkpt lat="38.07995" lon="-2.81827">
        <ele>664.8496</ele>
        <time>2021-07-19T15:47:51Z</time>
      </trkpt>
      <trkpt lat="38.08073" lon="-2.81771">
        <ele>664.7334</ele>
        <time>2021-07-19T15:48:02Z</time>
      </trkpt>
      <trkpt lat="38.0804" lon="-2.81633">
        <ele>664.397</ele>
        <time>2021-07-19T15:48:13Z</time>
      </trkpt>
      <trkpt lat="38.08124" lon="-2.81549">
        <ele>664.038</ele>
        <time>2021-07-19T15:48:24Z</time>
      </trkpt>
      <trkpt lat="38.08214" lon="-2.81668">
        <ele>662.2008</ele>
        <time>2021-07-19T15:48:35Z</time>
      </trkpt>
      <trkpt lat="38.08296" lon="-2.81776">
        <ele>658.3036</ele>
        <time>2021-07-19T15:48:46Z</time>
      </trkpt>
      <trkpt lat="38.08415" lon="-2.8178">
        <ele>658.3268</ele>
        <time>2021-07-19T15:48:57Z</time>
      </trkpt>
      <trkpt lat="38.08523" lon="-2.81705">
        <ele>662.9266</ele>
        <time>2021-07-19T15:49:08Z</time>
      </trkpt>
      <trkpt lat="38.08645" lon="-2.81613">
        <ele>669.59</ele>
        <time>2021-07-19T15:49:19Z</time>
      </trkpt>
      <trkpt lat="38.08789" lon="-2.81559">
        <ele>669.3124</ele>
        <time>2021-07-19T15:49:30Z</time>
      </trkpt>
      <trkpt lat="38.0894" lon="-2.81508">
        <ele>669.6437</ele>
        <time>2021-07-19T15:49:41Z</time>
      </trkpt>
      <trkpt lat="38.09026" lon="-2.81456">
        <ele>675.0269</ele>
        <time>2021-07-19T15:49:52Z</time>
      </trkpt>
      <trkpt lat="38.091" lon="-2.81353">
        <ele>687.4807</ele>
        <time>2021-07-19T15:50:03Z</time>
      </trkpt>
      <trkpt lat="38.09253" lon="-2.81234">
        <ele>700.2816</ele>
        <time>2021-07-19T15:50:14Z</time>
      </trkpt>
      <trkpt lat="38.0941" lon="-2.81247">
        <ele>696.4906</ele>
        <time>2021-07-19T15:50:25Z</time>
      </trkpt>
      <trkpt lat="38.09567" lon="-2.81213">
        <ele>692.5109</ele>
        <time>2021-07-19T15:50:36Z</time>
      </trkpt>
      <trkpt lat="38.09693" lon="-2.81217">
        <ele>688.4222</ele>
        <time>2021-07-19T15:50:47Z</time>
      </trkpt>
      <trkpt lat="38.0985" lon="-2.8119">
        <ele>683.4165</ele>
        <time>2021-07-19T15:50:58Z</time>
      </trkpt>
      <trkpt lat="38.09997" lon="-2.81212">
        <ele>683.1838</ele>
        <time>2021-07-19T15:51:09Z</time>
      </trkpt>
      <trkpt lat="38.10154" lon="-2.81316">
        <ele>682.3048</ele>
        <time>2021-07-19T15:51:20Z</time>
      </trkpt>
      <trkpt lat="38.10343" lon="-2.81255">
        <ele>686.1443</ele>
        <time>2021-07-19T15:51:31Z</time>
      </trkpt>
      <trkpt lat="38.10425" lon="-2.81092">
        <ele>688.698</ele>
        <time>2021-07-19T15:51:42Z</time>
      </trkpt>
      <trkpt lat="38.10455" lon="-2.80886">
        <ele>688.5619</ele>
        <time>2021-07-19T15:51:53Z</time>
      </trkpt>
      <trkpt lat="38.10625" lon="-2.80773">
        <ele>693.0091</ele>
        <time>2021-07-19T15:52:04Z</time>
      </trkpt>
      <trkpt lat="38.10754" lon="-2.80678">
        <ele>692.7742</ele>
        <time>2021-07-19T15:52:15Z</time>
      </trkpt>
      <trkpt lat="38.10918" lon="-2.80636">
        <ele>683.4766</ele>
        <time>2021-07-19T15:52:26Z</time>
      </trkpt>
      <trkpt lat="38.11026" lon="-2.8051">
        <ele>679.2303</ele>
        <time>2021-07-19T15:52:37Z</time>
      </trkpt>
      <trkpt lat="38.11115" lon="-2.8043">
        <ele>676.537</ele>
        <time>2021-07-19T15:52:48Z</time>
      </trkpt>
      <trkpt lat="38.11264" lon="-2.80469">
        <ele>675.6761</ele>
        <time>2021-07-19T15:52:59Z</time>
      </trkpt>
      <trkpt lat="38.11414" lon="-2.80361">
        <ele>677.9973</ele>
        <time>2021-07-19T15:53:10Z</time>
      </trkpt>
      <trkpt lat="38.11559" lon="-2.8022">
        <ele>675.811</ele>
        <time>2021-07-19T15:53:21Z</time>
      </trkpt>
      <trkpt lat="38.11639" lon="-2.80055">
        <ele>673.4222</ele>
        <time>2021-07-19T15:53:32Z</time>
      </trkpt>
      <trkpt lat="38.11739" lon="-2.80112">
        <ele>676.0206</ele>
        <time>2021-07-19T15:53:43Z</time>
      </trkpt>
      <trkpt lat="38.11748" lon="-2.8031">
        <ele>682.3069</ele>
        <time>2021-07-19T15:53:54Z</time>
      </trkpt>
      <trkpt lat="38.11742" lon="-2.80538">
        <ele>691.6628</ele>
        <time>2021-07-19T15:54:05Z</time>
      </trkpt>
      <trkpt lat="38.11811" lon="-2.80665">
        <ele>692.9623</ele>
        <time>2021-07-19T15:54:16Z</time>
      </trkpt>
      <trkpt lat="38.11887" lon="-2.80544">
        <ele>696.4291</ele>
        <time>2021-07-19T15:54:27Z</time>
      </trkpt>
      <trkpt lat="38.11989" lon="-2.80536">
        <ele>691.1271</ele>
        <time>2021-07-19T15:54:38Z</time>
      </trkpt>
      <trkpt lat="38.12097" lon="-2.80661">
        <ele>688.2996</ele>
        <time>2021-07-19T15:54:49Z</time>
      </trkpt>
      <trkpt lat="38.12158" lon="-2.80459">
        <ele>683.802</ele>
        <time>2021-07-19T15:55:00Z</time>
      </trkpt>
      <trkpt lat="38.12221" lon="-2.80275">
        <ele>684.4438</ele>
        <time>2021-07-19T15:55:11Z</time>
      </trkpt>
      <trkpt lat="38.12302" lon="-2.80048">
        <ele>687.0308</ele>
        <time>2021-07-19T15:55:22Z</time>
      </trkpt>
      <trkpt lat="38.12326" lon="-2.79924">
        <ele>687.264</ele>
        <time>2021-07-19T15:55:33Z</time>
      </trkpt>
      <trkpt lat="38.12234" lon="-2.79788">
        <ele>687.2088</ele>
        <time>2021-07-19T15:55:44Z</time>
      </trkpt>
      <trkpt lat="38.12332" lon="-2.79594">
        <ele>688.0506</ele>
        <time>2021-07-19T15:55:55Z</time>
      </trkpt>
      <trkpt lat="38.12447" lon="-2.79602">
        <ele>679.9815</ele>
        <time>2021-07-19T15:56:06Z</time>
      </trkpt>
      <trkpt lat="38.12538" lon="-2.7957">
        <ele>692.1464</ele>
        <time>2021-07-19T15:56:17Z</time>
      </trkpt>
      <trkpt lat="38.12519" lon="-2.79351">
        <ele>686.4551</ele>
        <time>2021-07-19T15:56:28Z</time>
      </trkpt>
      <trkpt lat="38.12655" lon="-2.79312">
        <ele>686.1245</ele>
        <time>2021-07-19T15:56:39Z</time>
      </trkpt>
      <trkpt lat="38.12762" lon="-2.79118">
        <ele>682.8225</ele>
        <time>2021-07-19T15:56:50Z</time>
      </trkpt>
      <trkpt lat="38.12791" lon="-2.78942">
        <ele>681.4106</ele>
        <time>2021-07-19T15:57:01Z</time>
      </trkpt>
      <trkpt lat="38.12937" lon="-2.78823">
        <ele>682.2827</ele>
        <time>2021-07-19T15:57:12Z</time>
      </trkpt>
      <trkpt lat="38.13061" lon="-2.78623">
        <ele>690.8353</ele>
        <time>2021-07-19T15:57:23Z</time>
      </trkpt>
      <trkpt lat="38.13188" lon="-2.78476">
        <ele>695.0654</ele>
        <time>2021-07-19T15:57:34Z</time>
      </trkpt>
      <trkpt lat="38.13329" lon="-2.78398">
        <ele>696.8197</ele>
        <time>2021-07-19T15:57:45Z</time>
      </trkpt>
      <trkpt lat="38.13534" lon="-2.78425">
        <ele>696.7229</ele>
        <time>2021-07-19T15:57:56Z</time>
      </trkpt>
      <trkpt lat="38.13702" lon="-2.78433">
        <ele>699.922</ele>
        <time>2021-07-19T15:58:07Z</time>
      </trkpt>
      <trkpt lat="38.1389" lon="-2.78436">
        <ele>706.0237</ele>
        <time>2021-07-19T15:58:18Z</time>
      </trkpt>
      <trkpt lat="38.14039" lon="-2.78529">
        <ele>708.7137</ele>
        <time>2021-07-19T15:58:29Z</time>
      </trkpt>
      <trkpt lat="38.14106" lon="-2.78706">
        <ele>716.3986</ele>
        <time>2021-07-19T15:58:40Z</time>
      </trkpt>
      <trkpt lat="38.14274" lon="-2.78783">
        <ele>711.1637</ele>
        <time>2021-07-19T15:58:51Z</time>
      </trkpt>
      <trkpt lat="38.14419" lon="-2.78883">
        <ele>705.4901</ele>
        <time>2021-07-19T15:59:02Z</time>
      </trkpt>
      <trkpt lat="38.1447" lon="-2.79108">
        <ele>704.0684</ele>
        <time>2021-07-19T15:59:13Z</time>
      </trkpt>
      <trkpt lat="38.14495" lon="-2.79341">
        <ele>703.3383</ele>
        <time>2021-07-19T15:59:24Z</time>
      </trkpt>
      <trkpt lat="38.14597" lon="-2.79502">
        <ele>697.0389</ele>
        <time>2021-07-19T15:59:35Z</time>
      </trkpt>
      <trkpt lat="38.14693" lon="-2.79423">
        <ele>702.9733</ele>
        <time>2021-07-19T15:59:46Z</time>
      </trkpt>
      <trkpt lat="38.1482" lon="-2.79373">
        <ele>702.4126</ele>
        <time>2021-07-19T15:59:57Z</time>
      </trkpt>
      <trkpt lat="38.14903" lon="-2.79188">
        <ele>707.3548</ele>
        <time>2021-07-19T16:00:08Z</time>
      </trkpt>
      <trkpt lat="38.14954" lon="-2.78945">
        <ele>713.4898</ele>
        <time>2021-07-19T16:00:19Z</time>
      </trkpt>
      <trkpt lat="38.15046" lon="-2.78732">
        <ele>707.8451</ele>
        <time>2021-07-19T16:00:30Z</time>
      </trkpt>
      <trkpt lat="38.15051" lon="-2.78715">
        <ele>705.0947</ele>
        <time>2021-07-19T16:00:41Z</time>
      </trkpt>
      <trkpt lat="38.15054" lon="-2.78713">
        <ele>703.6847</ele>
        <time>2021-07-19T16:01:03Z</time>
      </trkpt>
      <trkpt lat="38.15052" lon="-2.78717">
        <ele>708.3532</ele>
        <time>2021-07-19T16:01:22Z</time>
      </trkpt>
      <trkpt lat="38.15041" lon="-2.78715">
        <ele>708.81</ele>
        <time>2021-07-19T16:01:33Z</time>
      </trkpt>
      <trkpt lat="38.15029" lon="-2.78708">
        <ele>709.8592</ele>
        <time>2021-07-19T16:01:44Z</time>
      </trkpt>
      <trkpt lat="38.15021" lon="-2.78699">
        <ele>711.146</ele>
        <time>2021-07-19T16:01:55Z</time>
      </trkpt>
      <trkpt lat="38.15017" lon="-2.78689">
        <ele>699.9064</ele>
        <time>2021-07-19T16:02:06Z</time>
      </trkpt>
      <trkpt lat="38.15007" lon="-2.78677">
        <ele>694.1284</ele>
        <time>2021-07-19T16:02:17Z</time>
      </trkpt>
      <trkpt lat="38.14998" lon="-2.78664">
        <ele>696.3089</ele>
        <time>2021-07-19T16:02:28Z</time>
      </trkpt>
      <trkpt lat="38.1499" lon="-2.78651">
        <ele>694.098</ele>
        <time>2021-07-19T16:02:39Z</time>
      </trkpt>
      <trkpt lat="38.14991" lon="-2.78656">
        <ele>692.2376</ele>
        <time>2021-07-19T16:03:24Z</time>
      </trkpt>
      <trkpt lat="38.14992" lon="-2.78651">
        <ele>691.8988</ele>
        <time>2021-07-19T16:03:59Z</time>
      </trkpt>
      <trkpt lat="38.14996" lon="-2.78637">
        <ele>691.4337</ele>
        <time>2021-07-19T16:04:10Z</time>
      </trkpt>
      <trkpt lat="38.15002" lon="-2.7863">
        <ele>690.6456</ele>
        <time>2021-07-19T16:04:21Z</time>
      </trkpt>
      <trkpt lat="38.15008" lon="-2.78627">
        <ele>687.5373</ele>
        <time>2021-07-19T16:04:32Z</time>
      </trkpt>
      <trkpt lat="38.15006" lon="-2.78631">
        <ele>684.7505</ele>
        <time>2021-07-19T16:04:54Z</time>
      </trkpt>
      <trkpt lat="38.15001" lon="-2.78645">
        <ele>688.6342</ele>
        <time>2021-07-19T16:05:05Z</time>
      </trkpt>
      <trkpt lat="38.15001" lon="-2.7866">
        <ele>691.5672</ele>
        <time>2021-07-19T16:05:16Z</time>
      </trkpt>
      <trkpt lat="38.15004" lon="-2.78673">
        <ele>695.8667</ele>
        <time>2021-07-19T16:05:27Z</time>
      </trkpt>
      <trkpt lat="38.15007" lon="-2.78682">
        <ele>695.2054</ele>
        <time>2021-07-19T16:05:38Z</time>
      </trkpt>
      <trkpt lat="38.15009" lon="-2.78687">
        <ele>692.1154</ele>
        <time>2021-07-19T16:05:50Z</time>
      </trkpt>
      <trkpt lat="38.15018" lon="-2.78698">
        <ele>696.4255</ele>
        <time>2021-07-19T16:06:01Z</time>
      </trkpt>
      <trkpt lat="38.15022" lon="-2.78708">
        <ele>693.6709</ele>
        <time>2021-07-19T16:06:12Z</time>
      </trkpt>
      <trkpt lat="38.15034" lon="-2.78718">
        <ele>695.5944</ele>
        <time>2021-07-19T16:06:23Z</time>
      </trkpt>
      <trkpt lat="38.15048" lon="-2.7872">
        <ele>698.5356</ele>
        <time>2021-07-19T16:06:34Z</time>
      </trkpt>
      <trkpt lat="38.15051" lon="-2.7871">
        <ele>697.592</ele>
        <time>2021-07-19T16:06:45Z</time>
      </trkpt>
      <trkpt lat="38.15054" lon="-2.78717">
        <ele>697.6305</ele>
        <time>2021-07-19T16:07:10Z</time>
      </trkpt>
      <trkpt lat="38.15056" lon="-2.78711">
        <ele>698.7041</ele>
        <time>2021-07-19T16:08:09Z</time>
      </trkpt>
      <trkpt lat="38.15079" lon="-2.78708">
        <ele>695.7802</ele>
        <time>2021-07-19T16:08:20Z</time>
      </trkpt>
      <trkpt lat="38.1508" lon="-2.78713">
        <ele>696.8948</ele>
        <time>2021-07-19T16:08:31Z</time>
      </trkpt>
      <trkpt lat="38.15087" lon="-2.78709">
        <ele>697.0674</ele>
        <time>2021-07-19T16:09:02Z</time>
      </trkpt>
      <trkpt lat="38.1522" lon="-2.78667">
        <ele>693.365</ele>
        <time>2021-07-19T16:09:13Z</time>
      </trkpt>
      <trkpt lat="38.15362" lon="-2.78644">
        <ele>688.2639</ele>
        <time>2021-07-19T16:09:24Z</time>
      </trkpt>
      <trkpt lat="38.15486" lon="-2.78668">
        <ele>686.4684</ele>
        <time>2021-07-19T16:09:35Z</time>
      </trkpt>
      <trkpt lat="38.15628" lon="-2.78671">
        <ele>691.6845</ele>
        <time>2021-07-19T16:09:46Z</time>
      </trkpt>
      <trkpt lat="38.15764" lon="-2.78606">
        <ele>689.4733</ele>
        <time>2021-07-19T16:09:57Z</time>
      </trkpt>
      <trkpt lat="38.15896" lon="-2.78622">
        <ele>681.704</ele>
        <time>2021-07-19T16:10:08Z</time>
      </trkpt>
      <trkpt lat="38.1602" lon="-2.7864">
        <ele>681.4106</ele>
        <time>2021-07-19T16:10:19Z</time>
      </trkpt>
      <trkpt lat="38.16103" lon="-2.78518">
        <ele>681.4651</ele>
        <time>2021-07-19T16:10:30Z</time>
      </trkpt>
      <trkpt lat="38.16259" lon="-2.78518">
        <ele>679.2018</ele>
        <time>2021-07-19T16:10:41Z</time>
      </trkpt>
      <trkpt lat="38.16419" lon="-2.78496">
        <ele>680.4539</ele>
        <time>2021-07-19T16:10:52Z</time>
      </trkpt>
      <trkpt lat="38.16558" lon="-2.78559">
        <ele>678.1414</ele>
        <time>2021-07-19T16:11:03Z</time>
      </trkpt>
      <trkpt lat="38.1657" lon="-2.78749">
        <ele>678.0207</ele>
        <time>2021-07-19T16:11:14Z</time>
      </trkpt>
      <trkpt lat="38.16636" lon="-2.78932">
        <ele>672.3512</ele>
        <time>2021-07-19T16:11:25Z</time>
      </trkpt>
      <trkpt lat="38.16669" lon="-2.79075">
        <ele>667.7176</ele>
        <time>2021-07-19T16:11:36Z</time>
      </trkpt>
      <trkpt lat="38.16706" lon="-2.79251">
        <ele>661.3512</ele>
        <time>2021-07-19T16:11:47Z</time>
      </trkpt>
      <trkpt lat="38.16616" lon="-2.79461">
        <ele>654.2527</ele>
        <time>2021-07-19T16:11:58Z</time>
      </trkpt>
      <trkpt lat="38.16606" lon="-2.79596">
        <ele>651.8695</ele>
        <time>2021-07-19T16:12:09Z</time>
      </trkpt>
      <trkpt lat="38.16683" lon="-2.79794">
        <ele>657.1665</ele>
        <time>2021-07-19T16:12:20Z</time>
      </trkpt>
      <trkpt lat="38.1678" lon="-2.79867">
        <ele>649.8286</ele>
        <time>2021-07-19T16:12:31Z</time>
      </trkpt>
      <trkpt lat="38.16896" lon="-2.79712">
        <ele>644.9623</ele>
        <time>2021-07-19T16:12:42Z</time>
      </trkpt>
      <trkpt lat="38.17063" lon="-2.79673">
        <ele>640.1274</ele>
        <time>2021-07-19T16:12:53Z</time>
      </trkpt>
      <trkpt lat="38.17174" lon="-2.79706">
        <ele>637.5466</ele>
        <time>2021-07-19T16:13:05Z</time>
      </trkpt>
      <trkpt lat="38.17293" lon="-2.79689">
        <ele>638.3701</ele>
        <time>2021-07-19T16:13:16Z</time>
      </trkpt>
      <trkpt lat="38.17364" lon="-2.79676">
        <ele>636.7448</ele>
        <time>2021-07-19T16:13:27Z</time>
      </trkpt>
      <trkpt lat="38.17364" lon="-2.79674">
        <ele>636.7162</ele>
        <time>2021-07-19T16:14:27Z</time>
      </trkpt>
      <trkpt lat="38.17407" lon="-2.79618">
        <ele>636.3916</ele>
        <time>2021-07-19T16:14:38Z</time>
      </trkpt>
      <trkpt lat="38.1751" lon="-2.79593">
        <ele>632.7602</ele>
        <time>2021-07-19T16:14:49Z</time>
      </trkpt>
      <trkpt lat="38.17594" lon="-2.79523">
        <ele>638.1667</ele>
        <time>2021-07-19T16:15:00Z</time>
      </trkpt>
      <trkpt lat="38.17552" lon="-2.79404">
        <ele>651.369</ele>
        <time>2021-07-19T16:15:11Z</time>
      </trkpt>
      <trkpt lat="38.17489" lon="-2.79279">
        <ele>652.7492</ele>
        <time>2021-07-19T16:15:22Z</time>
      </trkpt>
      <trkpt lat="38.17402" lon="-2.79213">
        <ele>654.6676</ele>
        <time>2021-07-19T16:15:33Z</time>
      </trkpt>
      <trkpt lat="38.17297" lon="-2.79151">
        <ele>657.8904</ele>
        <time>2021-07-19T16:15:44Z</time>
      </trkpt>
      <trkpt lat="38.17184" lon="-2.79083">
        <ele>664.7818</ele>
        <time>2021-07-19T16:15:55Z</time>
      </trkpt>
      <trkpt lat="38.17077" lon="-2.7896">
        <ele>671.2592</ele>
        <time>2021-07-19T16:16:06Z</time>
      </trkpt>
      <trkpt lat="38.17024" lon="-2.78773">
        <ele>664.0209</ele>
        <time>2021-07-19T16:16:17Z</time>
      </trkpt>
      <trkpt lat="38.17043" lon="-2.78591">
        <ele>650.0607</ele>
        <time>2021-07-19T16:16:28Z</time>
      </trkpt>
      <trkpt lat="38.17143" lon="-2.7844">
        <ele>648.3757</ele>
        <time>2021-07-19T16:16:39Z</time>
      </trkpt>
      <trkpt lat="38.17278" lon="-2.78223">
        <ele>659.0382</ele>
        <time>2021-07-19T16:16:50Z</time>
      </trkpt>
      <trkpt lat="38.17427" lon="-2.78085">
        <ele>667.485</ele>
        <time>2021-07-19T16:17:01Z</time>
      </trkpt>
      <trkpt lat="38.17592" lon="-2.77885">
        <ele>681.7063</ele>
        <time>2021-07-19T16:17:12Z</time>
      </trkpt>
      <trkpt lat="38.17754" lon="-2.77763">
        <ele>696.0062</ele>
        <time>2021-07-19T16:17:23Z</time>
      </trkpt>
      <trkpt lat="38.17909" lon="-2.77656">
        <ele>708.41</ele>
        <time>2021-07-19T16:17:34Z</time>
      </trkpt>
      <trkpt lat="38.18118" lon="-2.77633">
        <ele>720.5528</ele>
        <time>2021-07-19T16:17:45Z</time>
      </trkpt>
      <trkpt lat="38.1828" lon="-2.77672">
        <ele>731.8639</ele>
        <time>2021-07-19T16:17:56Z</time>
      </trkpt>
      <trkpt lat="38.1831" lon="-2.77552">
        <ele>753.8835</ele>
        <time>2021-07-19T16:18:07Z</time>
      </trkpt>
      <trkpt lat="38.18381" lon="-2.77471">
        <ele>752.4631</ele>
        <time>2021-07-19T16:18:18Z</time>
      </trkpt>
      <trkpt lat="38.18559" lon="-2.77353">
        <ele>761.5937</ele>
        <time>2021-07-19T16:18:29Z</time>
      </trkpt>
      <trkpt lat="38.18663" lon="-2.77162">
        <ele>762.3477</ele>
        <time>2021-07-19T16:18:40Z</time>
      </trkpt>
      <trkpt lat="38.18802" lon="-2.77032">
        <ele>754.6119</ele>
        <time>2021-07-19T16:18:51Z</time>
      </trkpt>
      <trkpt lat="38.18955" lon="-2.77096">
        <ele>752.8444</ele>
        <time>2021-07-19T16:19:02Z</time>
      </trkpt>
      <trkpt lat="38.19126" lon="-2.7721">
        <ele>743.9258</ele>
        <time>2021-07-19T16:19:13Z</time>
      </trkpt>
      <trkpt lat="38.19214" lon="-2.77071">
        <ele>750.9212</ele>
        <time>2021-07-19T16:19:24Z</time>
      </trkpt>
      <trkpt lat="38.19266" lon="-2.76897">
        <ele>754.1915</ele>
        <time>2021-07-19T16:19:35Z</time>
      </trkpt>
      <trkpt lat="38.19289" lon="-2.76665">
        <ele>768.2579</ele>
        <time>2021-07-19T16:19:46Z</time>
      </trkpt>
      <trkpt lat="38.19427" lon="-2.76492">
        <ele>765.6819</ele>
        <time>2021-07-19T16:19:57Z</time>
      </trkpt>
      <trkpt lat="38.19479" lon="-2.76259">
        <ele>759.248</ele>
        <time>2021-07-19T16:20:08Z</time>
      </trkpt>
      <trkpt lat="38.19621" lon="-2.76096">
        <ele>761.5694</ele>
        <time>2021-07-19T16:20:19Z</time>
      </trkpt>
      <trkpt lat="38.1978" lon="-2.75987">
        <ele>769.241</ele>
        <time>2021-07-19T16:20:30Z</time>
      </trkpt>
      <trkpt lat="38.1995" lon="-2.75885">
        <ele>779.4675</ele>
        <time>2021-07-19T16:20:41Z</time>
      </trkpt>
      <trkpt lat="38.20122" lon="-2.75805">
        <ele>785.9855</ele>
        <time>2021-07-19T16:20:52Z</time>
      </trkpt>
      <trkpt lat="38.20336" lon="-2.75685">
        <ele>791.6985</ele>
        <time>2021-07-19T16:21:03Z</time>
      </trkpt>
      <trkpt lat="38.20552" lon="-2.7568">
        <ele>787.616</ele>
        <time>2021-07-19T16:21:14Z</time>
      </trkpt>
      <trkpt lat="38.20756" lon="-2.75668">
        <ele>782.8669</ele>
        <time>2021-07-19T16:21:25Z</time>
      </trkpt>
      <trkpt lat="38.20956" lon="-2.75696">
        <ele>773.0267</ele>
        <time>2021-07-19T16:21:36Z</time>
      </trkpt>
      <trkpt lat="38.21138" lon="-2.7572">
        <ele>778.2366</ele>
        <time>2021-07-19T16:21:47Z</time>
      </trkpt>
      <trkpt lat="38.21327" lon="-2.75628">
        <ele>780.537</ele>
        <time>2021-07-19T16:21:58Z</time>
      </trkpt>
      <trkpt lat="38.21507" lon="-2.75526">
        <ele>783.1633</ele>
        <time>2021-07-19T16:22:09Z</time>
      </trkpt>
      <trkpt lat="38.21684" lon="-2.75413">
        <ele>772.3726</ele>
        <time>2021-07-19T16:22:20Z</time>
      </trkpt>
      <trkpt lat="38.21863" lon="-2.75315">
        <ele>757.7685</ele>
        <time>2021-07-19T16:22:31Z</time>
      </trkpt>
      <trkpt lat="38.22037" lon="-2.7534">
        <ele>755.1989</ele>
        <time>2021-07-19T16:22:42Z</time>
      </trkpt>
      <trkpt lat="38.22177" lon="-2.75134">
        <ele>748.0302</ele>
        <time>2021-07-19T16:22:53Z</time>
      </trkpt>
      <trkpt lat="38.22325" lon="-2.74963">
        <ele>734.5567</ele>
        <time>2021-07-19T16:23:04Z</time>
      </trkpt>
      <trkpt lat="38.2241" lon="-2.74743">
        <ele>721.839</ele>
        <time>2021-07-19T16:23:15Z</time>
      </trkpt>
      <trkpt lat="38.22328" lon="-2.7455">
        <ele>702.1215</ele>
        <time>2021-07-19T16:23:26Z</time>
      </trkpt>
      <trkpt lat="38.22329" lon="-2.7431">
        <ele>697.1678</ele>
        <time>2021-07-19T16:23:37Z</time>
      </trkpt>
      <trkpt lat="38.22289" lon="-2.74115">
        <ele>691.1385</ele>
        <time>2021-07-19T16:23:48Z</time>
      </trkpt>
      <trkpt lat="38.22341" lon="-2.73846">
        <ele>683.0676</ele>
        <time>2021-07-19T16:23:59Z</time>
      </trkpt>
      <trkpt lat="38.22362" lon="-2.73614">
        <ele>677.0257</ele>
        <time>2021-07-19T16:24:10Z</time>
      </trkpt>
      <trkpt lat="38.22225" lon="-2.7344">
        <ele>666.3639</ele>
        <time>2021-07-19T16:24:21Z</time>
      </trkpt>
      <trkpt lat="38.22085" lon="-2.73274">
        <ele>656.085</ele>
        <time>2021-07-19T16:24:32Z</time>
      </trkpt>
      <trkpt lat="38.22018" lon="-2.73082">
        <ele>649.3027</ele>
        <time>2021-07-19T16:24:43Z</time>
      </trkpt>
      <trkpt lat="38.22171" lon="-2.72996">
        <ele>655.4958</ele>
        <time>2021-07-19T16:24:54Z</time>
      </trkpt>
      <trkpt lat="38.224" lon="-2.72962">
        <ele>663.4756</ele>
        <time>2021-07-19T16:25:05Z</time>
      </trkpt>
      <trkpt lat="38.22608" lon="-2.72828">
        <ele>666.773</ele>
        <time>2021-07-19T16:25:16Z</time>
      </trkpt>
      <trkpt lat="38.22831" lon="-2.72721">
        <ele>669.9365</ele>
        <time>2021-07-19T16:25:27Z</time>
      </trkpt>
      <trkpt lat="38.22966" lon="-2.72561">
        <ele>674.9354</ele>
        <time>2021-07-19T16:25:38Z</time>
      </trkpt>
      <trkpt lat="38.23066" lon="-2.72462">
        <ele>678.4817</ele>
        <time>2021-07-19T16:25:49Z</time>
      </trkpt>
      <trkpt lat="38.2296" lon="-2.72321">
        <ele>681.5382</ele>
        <time>2021-07-19T16:26:00Z</time>
      </trkpt>
      <trkpt lat="38.22797" lon="-2.72157">
        <ele>689.1405</ele>
        <time>2021-07-19T16:26:11Z</time>
      </trkpt>
      <trkpt lat="38.2272" lon="-2.71944">
        <ele>703.6187</ele>
        <time>2021-07-19T16:26:22Z</time>
      </trkpt>
      <trkpt lat="38.22826" lon="-2.71799">
        <ele>695.0452</ele>
        <time>2021-07-19T16:26:33Z</time>
      </trkpt>
      <trkpt lat="38.22772" lon="-2.71571">
        <ele>697.315</ele>
        <time>2021-07-19T16:26:44Z</time>
      </trkpt>
      <trkpt lat="38.22678" lon="-2.71382">
        <ele>705.5998</ele>
        <time>2021-07-19T16:26:55Z</time>
      </trkpt>
      <trkpt lat="38.22631" lon="-2.71155">
        <ele>709.1935</ele>
        <time>2021-07-19T16:27:06Z</time>
      </trkpt>
      <trkpt lat="38.22511" lon="-2.71185">
        <ele>717.4489</ele>
        <time>2021-07-19T16:27:17Z</time>
      </trkpt>
      <trkpt lat="38.22475" lon="-2.71386">
        <ele>729.0157</ele>
        <time>2021-07-19T16:27:28Z</time>
      </trkpt>
      <trkpt lat="38.22345" lon="-2.71506">
        <ele>743.1057</ele>
        <time>2021-07-19T16:27:39Z</time>
      </trkpt>
      <trkpt lat="38.2219" lon="-2.71619">
        <ele>754.3229</ele>
        <time>2021-07-19T16:27:50Z</time>
      </trkpt>
      <trkpt lat="38.22054" lon="-2.71679">
        <ele>769.2175</ele>
        <time>2021-07-19T16:28:01Z</time>
      </trkpt>
      <trkpt lat="38.21959" lon="-2.71837">
        <ele>784.1499</ele>
        <time>2021-07-19T16:28:12Z</time>
      </trkpt>
      <trkpt lat="38.2192" lon="-2.71705">
        <ele>791.6144</ele>
        <time>2021-07-19T16:28:23Z</time>
      </trkpt>
      <trkpt lat="38.22052" lon="-2.71504">
        <ele>810.2124</ele>
        <time>2021-07-19T16:28:34Z</time>
      </trkpt>
      <trkpt lat="38.22102" lon="-2.71351">
        <ele>826.4767</ele>
        <time>2021-07-19T16:28:45Z</time>
      </trkpt>
      <trkpt lat="38.22101" lon="-2.71275">
        <ele>840.0707</ele>
        <time>2021-07-19T16:28:56Z</time>
      </trkpt>
      <trkpt lat="38.22013" lon="-2.71426">
        <ele>848.9685</ele>
        <time>2021-07-19T16:29:07Z</time>
      </trkpt>
      <trkpt lat="38.21889" lon="-2.71524">
        <ele>849.01</ele>
        <time>2021-07-19T16:29:18Z</time>
      </trkpt>
      <trkpt lat="38.21756" lon="-2.71601">
        <ele>860.8085</ele>
        <time>2021-07-19T16:29:29Z</time>
      </trkpt>
      <trkpt lat="38.21655" lon="-2.71685">
        <ele>870.7337</ele>
        <time>2021-07-19T16:29:40Z</time>
      </trkpt>
      <trkpt lat="38.21589" lon="-2.71756">
        <ele>869.2788</ele>
        <time>2021-07-19T16:29:51Z</time>
      </trkpt>
      <trkpt lat="38.21489" lon="-2.71839">
        <ele>852.3629</ele>
        <time>2021-07-19T16:30:02Z</time>
      </trkpt>
      <trkpt lat="38.21324" lon="-2.71956">
        <ele>848.1408</ele>
        <time>2021-07-19T16:30:13Z</time>
      </trkpt>
      <trkpt lat="38.21163" lon="-2.71987">
        <ele>845.5845</ele>
        <time>2021-07-19T16:30:24Z</time>
      </trkpt>
      <trkpt lat="38.21074" lon="-2.71824">
        <ele>845.6643</ele>
        <time>2021-07-19T16:30:35Z</time>
      </trkpt>
      <trkpt lat="38.209" lon="-2.71738">
        <ele>849.3719</ele>
        <time>2021-07-19T16:30:46Z</time>
      </trkpt>
      <trkpt lat="38.2073" lon="-2.71624">
        <ele>833.3258</ele>
        <time>2021-07-19T16:30:57Z</time>
      </trkpt>
      <trkpt lat="38.20609" lon="-2.71481">
        <ele>823.9203</ele>
        <time>2021-07-19T16:31:08Z</time>
      </trkpt>
      <trkpt lat="38.20485" lon="-2.71633">
        <ele>820.6483</ele>
        <time>2021-07-19T16:31:19Z</time>
      </trkpt>
      <trkpt lat="38.20356" lon="-2.71773">
        <ele>810.1936</ele>
        <time>2021-07-19T16:31:30Z</time>
      </trkpt>
      <trkpt lat="38.2016" lon="-2.71747">
        <ele>800.7887</ele>
        <time>2021-07-19T16:31:41Z</time>
      </trkpt>
      <trkpt lat="38.20004" lon="-2.7164">
        <ele>792.8269</ele>
        <time>2021-07-19T16:31:52Z</time>
      </trkpt>
      <trkpt lat="38.19906" lon="-2.71499">
        <ele>776.0651</ele>
        <time>2021-07-19T16:32:03Z</time>
      </trkpt>
      <trkpt lat="38.19855" lon="-2.71329">
        <ele>762.1167</ele>
        <time>2021-07-19T16:32:14Z</time>
      </trkpt>
      <trkpt lat="38.19774" lon="-2.71302">
        <ele>751.311</ele>
        <time>2021-07-19T16:32:25Z</time>
      </trkpt>
      <trkpt lat="38.19794" lon="-2.71468">
        <ele>740.1955</ele>
        <time>2021-07-19T16:32:36Z</time>
      </trkpt>
      <trkpt lat="38.19822" lon="-2.71666">
        <ele>728.7969</ele>
        <time>2021-07-19T16:32:47Z</time>
      </trkpt>
      <trkpt lat="38.19861" lon="-2.71874">
        <ele>719.8013</ele>
        <time>2021-07-19T16:32:58Z</time>
      </trkpt>
      <trkpt lat="38.19851" lon="-2.72187">
        <ele>727.947</ele>
        <time>2021-07-19T16:33:09Z</time>
      </trkpt>
      <trkpt lat="38.19758" lon="-2.72371">
        <ele>752.5524</ele>
        <time>2021-07-19T16:33:20Z</time>
      </trkpt>
      <trkpt lat="38.19604" lon="-2.72426">
        <ele>759.1638</ele>
        <time>2021-07-19T16:33:31Z</time>
      </trkpt>
      <trkpt lat="38.19448" lon="-2.72508">
        <ele>764.5349</ele>
        <time>2021-07-19T16:33:42Z</time>
      </trkpt>
      <trkpt lat="38.19272" lon="-2.72658">
        <ele>772.3542</ele>
        <time>2021-07-19T16:33:53Z</time>
      </trkpt>
      <trkpt lat="38.19124" lon="-2.7282">
        <ele>768.1531</ele>
        <time>2021-07-19T16:34:04Z</time>
      </trkpt>
      <trkpt lat="38.18921" lon="-2.72812">
        <ele>764.1283</ele>
        <time>2021-07-19T16:34:15Z</time>
      </trkpt>
      <trkpt lat="38.18715" lon="-2.72752">
        <ele>762.3068</ele>
        <time>2021-07-19T16:34:26Z</time>
      </trkpt>
      <trkpt lat="38.18597" lon="-2.72812">
        <ele>776.7743</ele>
        <time>2021-07-19T16:34:37Z</time>
      </trkpt>
      <trkpt lat="38.1854" lon="-2.72701">
        <ele>793.6313</ele>
        <time>2021-07-19T16:34:48Z</time>
      </trkpt>
      <trkpt lat="38.1836" lon="-2.72718">
        <ele>813.4412</ele>
        <time>2021-07-19T16:34:59Z</time>
      </trkpt>
      <trkpt lat="38.18237" lon="-2.72783">
        <ele>831.3438</ele>
        <time>2021-07-19T16:35:10Z</time>
      </trkpt>
      <trkpt lat="38.18336" lon="-2.72677">
        <ele>845.5909</ele>
        <time>2021-07-19T16:35:21Z</time>
      </trkpt>
      <trkpt lat="38.18313" lon="-2.7264">
        <ele>862.9978</ele>
        <time>2021-07-19T16:35:32Z</time>
      </trkpt>
      <trkpt lat="38.18131" lon="-2.72675">
        <ele>882.5904</ele>
        <time>2021-07-19T16:35:43Z</time>
      </trkpt>
      <trkpt lat="38.18066" lon="-2.72788">
        <ele>889.4838</ele>
        <time>2021-07-19T16:35:54Z</time>
      </trkpt>
      <trkpt lat="38.1805" lon="-2.72625">
        <ele>902.6612</ele>
        <time>2021-07-19T16:36:05Z</time>
      </trkpt>
      <trkpt lat="38.17914" lon="-2.72615">
        <ele>923.4099</ele>
        <time>2021-07-19T16:36:16Z</time>
      </trkpt>
      <trkpt lat="38.17808" lon="-2.72692">
        <ele>937.1821</ele>
        <time>2021-07-19T16:36:27Z</time>
      </trkpt>
      <trkpt lat="38.17621" lon="-2.7275">
        <ele>963.2253</ele>
        <time>2021-07-19T16:36:38Z</time>
      </trkpt>
      <trkpt lat="38.17516" lon="-2.72832">
        <ele>981.1374</ele>
        <time>2021-07-19T16:36:49Z</time>
      </trkpt>
      <trkpt lat="38.17407" lon="-2.72839">
        <ele>996.9685</ele>
        <time>2021-07-19T16:37:00Z</time>
      </trkpt>
      <trkpt lat="38.17528" lon="-2.72763">
        <ele>1006.99</ele>
        <time>2021-07-19T16:37:11Z</time>
      </trkpt>
      <trkpt lat="38.17528" lon="-2.72577">
        <ele>1021.044</ele>
        <time>2021-07-19T16:37:22Z</time>
      </trkpt>
      <trkpt lat="38.17582" lon="-2.7242">
        <ele>1039.748</ele>
        <time>2021-07-19T16:37:33Z</time>
      </trkpt>
      <trkpt lat="38.17662" lon="-2.72297">
        <ele>1060.877</ele>
        <time>2021-07-19T16:37:44Z</time>
      </trkpt>
      <trkpt lat="38.1768" lon="-2.72104">
        <ele>1073.216</ele>
        <time>2021-07-19T16:37:55Z</time>
      </trkpt>
      <trkpt lat="38.17719" lon="-2.71856">
        <ele>1077.663</ele>
        <time>2021-07-19T16:38:06Z</time>
      </trkpt>
      <trkpt lat="38.17599" lon="-2.71606">
        <ele>1081.573</ele>
        <time>2021-07-19T16:38:17Z</time>
      </trkpt>
      <trkpt lat="38.17398" lon="-2.715">
        <ele>1090.085</ele>
        <time>2021-07-19T16:38:28Z</time>
      </trkpt>
      <trkpt lat="38.17297" lon="-2.71502">
        <ele>1108.095</ele>
        <time>2021-07-19T16:38:39Z</time>
      </trkpt>
      <trkpt lat="38.17189" lon="-2.71512">
        <ele>1121.501</ele>
        <time>2021-07-19T16:38:51Z</time>
      </trkpt>
      <trkpt lat="38.17146" lon="-2.71315">
        <ele>1124.069</ele>
        <time>2021-07-19T16:39:02Z</time>
      </trkpt>
      <trkpt lat="38.1703" lon="-2.71282">
        <ele>1110.376</ele>
        <time>2021-07-19T16:39:13Z</time>
      </trkpt>
      <trkpt lat="38.1695" lon="-2.71269">
        <ele>1096.969</ele>
        <time>2021-07-19T16:39:24Z</time>
      </trkpt>
      <trkpt lat="38.1709" lon="-2.71098">
        <ele>1072.684</ele>
        <time>2021-07-19T16:39:35Z</time>
      </trkpt>
      <trkpt lat="38.17071" lon="-2.70972">
        <ele>1051.479</ele>
        <time>2021-07-19T16:39:46Z</time>
      </trkpt>
      <trkpt lat="38.16961" lon="-2.70927">
        <ele>1068.859</ele>
        <time>2021-07-19T16:39:57Z</time>
      </trkpt>
      <trkpt lat="38.16843" lon="-2.70741">
        <ele>1089.474</ele>
        <time>2021-07-19T16:40:08Z</time>
      </trkpt>
      <trkpt lat="38.16913" lon="-2.70533">
        <ele>1083.014</ele>
        <time>2021-07-19T16:40:19Z</time>
      </trkpt>
      <trkpt lat="38.17004" lon="-2.70315">
        <ele>1067.853</ele>
        <time>2021-07-19T16:40:30Z</time>
      </trkpt>
      <trkpt lat="38.16838" lon="-2.70224">
        <ele>1065.612</ele>
        <time>2021-07-19T16:40:41Z</time>
      </trkpt>
      <trkpt lat="38.16708" lon="-2.70018">
        <ele>1072.933</ele>
        <time>2021-07-19T16:40:52Z</time>
      </trkpt>
      <trkpt lat="38.16654" lon="-2.69791">
        <ele>1093.988</ele>
        <time>2021-07-19T16:41:03Z</time>
      </trkpt>
      <trkpt lat="38.16641" lon="-2.69669">
        <ele>1110.025</ele>
        <time>2021-07-19T16:41:14Z</time>
      </trkpt>
      <trkpt lat="38.16545" lon="-2.69489">
        <ele>1130.001</ele>
        <time>2021-07-19T16:41:25Z</time>
      </trkpt>
      <trkpt lat="38.16446" lon="-2.69298">
        <ele>1150.738</ele>
        <time>2021-07-19T16:41:36Z</time>
      </trkpt>
      <trkpt lat="38.16515" lon="-2.69112">
        <ele>1167.936</ele>
        <time>2021-07-19T16:41:47Z</time>
      </trkpt>
      <trkpt lat="38.16661" lon="-2.68879">
        <ele>1185.965</ele>
        <time>2021-07-19T16:41:58Z</time>
      </trkpt>
      <trkpt lat="38.16742" lon="-2.68709">
        <ele>1194.394</ele>
        <time>2021-07-19T16:42:09Z</time>
      </trkpt>
      <trkpt lat="38.16573" lon="-2.68828">
        <ele>1215.936</ele>
        <time>2021-07-19T16:42:20Z</time>
      </trkpt>
      <trkpt lat="38.16408" lon="-2.68992">
        <ele>1225.089</ele>
        <time>2021-07-19T16:42:31Z</time>
      </trkpt>
      <trkpt lat="38.1634" lon="-2.68879">
        <ele>1228.449</ele>
        <time>2021-07-19T16:42:42Z</time>
      </trkpt>
      <trkpt lat="38.16269" lon="-2.68684">
        <ele>1224.011</ele>
        <time>2021-07-19T16:42:53Z</time>
      </trkpt>
      <trkpt lat="38.16146" lon="-2.68766">
        <ele>1231.76</ele>
        <time>2021-07-19T16:43:04Z</time>
      </trkpt>
      <trkpt lat="38.16054" lon="-2.68894">
        <ele>1238.832</ele>
        <time>2021-07-19T16:43:15Z</time>
      </trkpt>
      <trkpt lat="38.15912" lon="-2.68874">
        <ele>1243.864</ele>
        <time>2021-07-19T16:43:26Z</time>
      </trkpt>
      <trkpt lat="38.15772" lon="-2.68865">
        <ele>1251.696</ele>
        <time>2021-07-19T16:43:37Z</time>
      </trkpt>
      <trkpt lat="38.15694" lon="-2.68772">
        <ele>1261.511</ele>
        <time>2021-07-19T16:43:48Z</time>
      </trkpt>
      <trkpt lat="38.1567" lon="-2.68961">
        <ele>1274.248</ele>
        <time>2021-07-19T16:43:59Z</time>
      </trkpt>
      <trkpt lat="38.1566" lon="-2.69186">
        <ele>1289.333</ele>
        <time>2021-07-19T16:44:10Z</time>
      </trkpt>
      <trkpt lat="38.15513" lon="-2.69166">
        <ele>1303.651</ele>
        <time>2021-07-19T16:44:21Z</time>
      </trkpt>
      <trkpt lat="38.15427" lon="-2.68996">
        <ele>1320.207</ele>
        <time>2021-07-19T16:44:32Z</time>
      </trkpt>
      <trkpt lat="38.15336" lon="-2.69013">
        <ele>1314.799</ele>
        <time>2021-07-19T16:44:43Z</time>
      </trkpt>
      <trkpt lat="38.15136" lon="-2.6894">
        <ele>1330.2</ele>
        <time>2021-07-19T16:44:54Z</time>
      </trkpt>
      <trkpt lat="38.15058" lon="-2.68816">
        <ele>1347.301</ele>
        <time>2021-07-19T16:45:05Z</time>
      </trkpt>
      <trkpt lat="38.15114" lon="-2.68651">
        <ele>1366.114</ele>
        <time>2021-07-19T16:45:16Z</time>
      </trkpt>
      <trkpt lat="38.15011" lon="-2.68611">
        <ele>1377.745</ele>
        <time>2021-07-19T16:45:27Z</time>
      </trkpt>
      <trkpt lat="38.14924" lon="-2.68513">
        <ele>1389.095</ele>
        <time>2021-07-19T16:45:38Z</time>
      </trkpt>
      <trkpt lat="38.14769" lon="-2.68472">
        <ele>1401.871</ele>
        <time>2021-07-19T16:45:49Z</time>
      </trkpt>
      <trkpt lat="38.14579" lon="-2.68508">
        <ele>1413.05</ele>
        <time>2021-07-19T16:46:00Z</time>
      </trkpt>
      <trkpt lat="38.1436" lon="-2.68517">
        <ele>1427.1</ele>
        <time>2021-07-19T16:46:11Z</time>
      </trkpt>
      <trkpt lat="38.14159" lon="-2.68629">
        <ele>1441.124</ele>
        <time>2021-07-19T16:46:22Z</time>
      </trkpt>
      <trkpt lat="38.13999" lon="-2.68671">
        <ele>1447.826</ele>
        <time>2021-07-19T16:46:33Z</time>
      </trkpt>
      <trkpt lat="38.13967" lon="-2.68711">
        <ele>1451.206</ele>
        <time>2021-07-19T16:46:44Z</time>
      </trkpt>
      <trkpt lat="38.14024" lon="-2.68644">
        <ele>1451.606</ele>
        <time>2021-07-19T16:46:55Z</time>
      </trkpt>
      <trkpt lat="38.14059" lon="-2.68492">
        <ele>1454.966</ele>
        <time>2021-07-19T16:47:06Z</time>
      </trkpt>
      <trkpt lat="38.14173" lon="-2.68337">
        <ele>1462.155</ele>
        <time>2021-07-19T16:47:17Z</time>
      </trkpt>
      <trkpt lat="38.14345" lon="-2.68319">
        <ele>1467.593</ele>
        <time>2021-07-19T16:47:28Z</time>
      </trkpt>
      <trkpt lat="38.14535" lon="-2.68295">
        <ele>1472.188</ele>
        <time>2021-07-19T16:47:39Z</time>
      </trkpt>
      <trkpt lat="38.14738" lon="-2.68251">
        <ele>1485.61</ele>
        <time>2021-07-19T16:47:50Z</time>
      </trkpt>
      <trkpt lat="38.14945" lon="-2.68154">
        <ele>1498.232</ele>
        <time>2021-07-19T16:48:01Z</time>
      </trkpt>
      <trkpt lat="38.15162" lon="-2.68179">
        <ele>1497.909</ele>
        <time>2021-07-19T16:48:12Z</time>
      </trkpt>
      <trkpt lat="38.15366" lon="-2.68136">
        <ele>1491.571</ele>
        <time>2021-07-19T16:48:23Z</time>
      </trkpt>
      <trkpt lat="38.15578" lon="-2.67937">
        <ele>1493.025</ele>
        <time>2021-07-19T16:48:34Z</time>
      </trkpt>
      <trkpt lat="38.15744" lon="-2.67769">
        <ele>1501.551</ele>
        <time>2021-07-19T16:48:45Z</time>
      </trkpt>
      <trkpt lat="38.15944" lon="-2.67738">
        <ele>1492.499</ele>
        <time>2021-07-19T16:48:56Z</time>
      </trkpt>
      <trkpt lat="38.16083" lon="-2.67638">
        <ele>1485.879</ele>
        <time>2021-07-19T16:49:07Z</time>
      </trkpt>
      <trkpt lat="38.16249" lon="-2.676">
        <ele>1481.227</ele>
        <time>2021-07-19T16:49:18Z</time>
      </trkpt>
      <trkpt lat="38.16377" lon="-2.6754">
        <ele>1486.2</ele>
        <time>2021-07-19T16:49:29Z</time>
      </trkpt>
      <trkpt lat="38.1647" lon="-2.67411">
        <ele>1501.946</ele>
        <time>2021-07-19T16:49:40Z</time>
      </trkpt>
      <trkpt lat="38.16552" lon="-2.67297">
        <ele>1507.121</ele>
        <time>2021-07-19T16:49:51Z</time>
      </trkpt>
      <trkpt lat="38.16492" lon="-2.67186">
        <ele>1506.839</ele>
        <time>2021-07-19T16:50:02Z</time>
      </trkpt>
      <trkpt lat="38.16599" lon="-2.67082">
        <ele>1498.832</ele>
        <time>2021-07-19T16:50:13Z</time>
      </trkpt>
      <trkpt lat="38.16798" lon="-2.67072">
        <ele>1490.085</ele>
        <time>2021-07-19T16:50:24Z</time>
      </trkpt>
      <trkpt lat="38.16995" lon="-2.67088">
        <ele>1477.481</ele>
        <time>2021-07-19T16:50:35Z</time>
      </trkpt>
      <trkpt lat="38.17129" lon="-2.67153">
        <ele>1467.738</ele>
        <time>2021-07-19T16:50:46Z</time>
      </trkpt>
      <trkpt lat="38.17282" lon="-2.67122">
        <ele>1472.627</ele>
        <time>2021-07-19T16:50:57Z</time>
      </trkpt>
      <trkpt lat="38.17441" lon="-2.67013">
        <ele>1475.211</ele>
        <time>2021-07-19T16:51:08Z</time>
      </trkpt>
      <trkpt lat="38.17597" lon="-2.67022">
        <ele>1480.283</ele>
        <time>2021-07-19T16:51:19Z</time>
      </trkpt>
      <trkpt lat="38.1777" lon="-2.66863">
        <ele>1491.829</ele>
        <time>2021-07-19T16:51:30Z</time>
      </trkpt>
      <trkpt lat="38.17968" lon="-2.66789">
        <ele>1506.516</ele>
        <time>2021-07-19T16:51:41Z</time>
      </trkpt>
      <trkpt lat="38.18144" lon="-2.6683">
        <ele>1504.448</ele>
        <time>2021-07-19T16:51:52Z</time>
      </trkpt>
      <trkpt lat="38.18236" lon="-2.66935">
        <ele>1503.746</ele>
        <time>2021-07-19T16:52:03Z</time>
      </trkpt>
      <trkpt lat="38.18444" lon="-2.66874">
        <ele>1493.559</ele>
        <time>2021-07-19T16:52:14Z</time>
      </trkpt>
      <trkpt lat="38.18636" lon="-2.66992">
        <ele>1476.892</ele>
        <time>2021-07-19T16:52:25Z</time>
      </trkpt>
      <trkpt lat="38.1886" lon="-2.67092">
        <ele>1478.637</ele>
        <time>2021-07-19T16:52:36Z</time>
      </trkpt>
      <trkpt lat="38.1907" lon="-2.66996">
        <ele>1477.299</ele>
        <time>2021-07-19T16:52:47Z</time>
      </trkpt>
      <trkpt lat="38.19219" lon="-2.6684">
        <ele>1479.598</ele>
        <time>2021-07-19T16:52:58Z</time>
      </trkpt>
      <trkpt lat="38.19413" lon="-2.6671">
        <ele>1477.658</ele>
        <time>2021-07-19T16:53:09Z</time>
      </trkpt>
      <trkpt lat="38.19565" lon="-2.66654">
        <ele>1477.049</ele>
        <time>2021-07-19T16:53:20Z</time>
      </trkpt>
      <trkpt lat="38.19729" lon="-2.66509">
        <ele>1478.845</ele>
        <time>2021-07-19T16:53:31Z</time>
      </trkpt>
      <trkpt lat="38.19893" lon="-2.66566">
        <ele>1467.276</ele>
        <time>2021-07-19T16:53:42Z</time>
      </trkpt>
      <trkpt lat="38.20084" lon="-2.66567">
        <ele>1465.304</ele>
        <time>2021-07-19T16:53:53Z</time>
      </trkpt>
      <trkpt lat="38.20279" lon="-2.66496">
        <ele>1466.816</ele>
        <time>2021-07-19T16:54:04Z</time>
      </trkpt>
      <trkpt lat="38.20393" lon="-2.66298">
        <ele>1483.13</ele>
        <time>2021-07-19T16:54:15Z</time>
      </trkpt>
      <trkpt lat="38.20553" lon="-2.6632">
        <ele>1484.444</ele>
        <time>2021-07-19T16:54:26Z</time>
      </trkpt>
      <trkpt lat="38.20745" lon="-2.66192">
        <ele>1491.719</ele>
        <time>2021-07-19T16:54:37Z</time>
      </trkpt>
      <trkpt lat="38.20981" lon="-2.66154">
        <ele>1486.618</ele>
        <time>2021-07-19T16:54:48Z</time>
      </trkpt>
      <trkpt lat="38.21184" lon="-2.6609">
        <ele>1481.519</ele>
        <time>2021-07-19T16:54:59Z</time>
      </trkpt>
      <trkpt lat="38.21257" lon="-2.65918">
        <ele>1485.273</ele>
        <time>2021-07-19T16:55:10Z</time>
      </trkpt>
      <trkpt lat="38.21371" lon="-2.65773">
        <ele>1486.89</ele>
        <time>2021-07-19T16:55:21Z</time>
      </trkpt>
      <trkpt lat="38.21561" lon="-2.65599">
        <ele>1499.848</ele>
        <time>2021-07-19T16:55:32Z</time>
      </trkpt>
      <trkpt lat="38.21661" lon="-2.65352">
        <ele>1509.911</ele>
        <time>2021-07-19T16:55:43Z</time>
      </trkpt>
      <trkpt lat="38.21789" lon="-2.65359">
        <ele>1522.736</ele>
        <time>2021-07-19T16:55:54Z</time>
      </trkpt>
      <trkpt lat="38.21933" lon="-2.65244">
        <ele>1514.389</ele>
        <time>2021-07-19T16:56:05Z</time>
      </trkpt>
      <trkpt lat="38.22094" lon="-2.65256">
        <ele>1506.481</ele>
        <time>2021-07-19T16:56:16Z</time>
      </trkpt>
      <trkpt lat="38.22279" lon="-2.65235">
        <ele>1494.76</ele>
        <time>2021-07-19T16:56:27Z</time>
      </trkpt>
      <trkpt lat="38.22502" lon="-2.65238">
        <ele>1477.966</ele>
        <time>2021-07-19T16:56:38Z</time>
      </trkpt>
      <trkpt lat="38.22677" lon="-2.65186">
        <ele>1466.806</ele>
        <time>2021-07-19T16:56:49Z</time>
      </trkpt>
      <trkpt lat="38.22869" lon="-2.65157">
        <ele>1460.273</ele>
        <time>2021-07-19T16:57:00Z</time>
      </trkpt>
      <trkpt lat="38.23034" lon="-2.65256">
        <ele>1454.846</ele>
        <time>2021-07-19T16:57:11Z</time>
      </trkpt>
      <trkpt lat="38.23148" lon="-2.65423">
        <ele>1443.514</ele>
        <time>2021-07-19T16:57:22Z</time>
      </trkpt>
      <trkpt lat="38.23265" lon="-2.65484">
        <ele>1434.396</ele>
        <time>2021-07-19T16:57:33Z</time>
      </trkpt>
      <trkpt lat="38.23487" lon="-2.65421">
        <ele>1426.667</ele>
        <time>2021-07-19T16:57:44Z</time>
      </trkpt>
      <trkpt lat="38.23655" lon="-2.65501">
        <ele>1427.483</ele>
        <time>2021-07-19T16:57:55Z</time>
      </trkpt>
      <trkpt lat="38.23777" lon="-2.65553">
        <ele>1438.524</ele>
        <time>2021-07-19T16:58:06Z</time>
      </trkpt>
      <trkpt lat="38.23871" lon="-2.65379">
        <ele>1451.973</ele>
        <time>2021-07-19T16:58:17Z</time>
      </trkpt>
      <trkpt lat="38.24031" lon="-2.65341">
        <ele>1450.639</ele>
        <time>2021-07-19T16:58:28Z</time>
      </trkpt>
      <trkpt lat="38.24165" lon="-2.65246">
        <ele>1448.847</ele>
        <time>2021-07-19T16:58:39Z</time>
      </trkpt>
      <trkpt lat="38.24314" lon="-2.65279">
        <ele>1439.881</ele>
        <time>2021-07-19T16:58:50Z</time>
      </trkpt>
      <trkpt lat="38.24481" lon="-2.65212">
        <ele>1433.872</ele>
        <time>2021-07-19T16:59:01Z</time>
      </trkpt>
      <trkpt lat="38.24641" lon="-2.65067">
        <ele>1428.779</ele>
        <time>2021-07-19T16:59:12Z</time>
      </trkpt>
      <trkpt lat="38.24844" lon="-2.64945">
        <ele>1424.858</ele>
        <time>2021-07-19T16:59:23Z</time>
      </trkpt>
      <trkpt lat="38.2502" lon="-2.64851">
        <ele>1420.779</ele>
        <time>2021-07-19T16:59:34Z</time>
      </trkpt>
      <trkpt lat="38.25231" lon="-2.64708">
        <ele>1419.549</ele>
        <time>2021-07-19T16:59:45Z</time>
      </trkpt>
      <trkpt lat="38.25399" lon="-2.64545">
        <ele>1421.304</ele>
        <time>2021-07-19T16:59:56Z</time>
      </trkpt>
      <trkpt lat="38.25523" lon="-2.64314">
        <ele>1417.275</ele>
        <time>2021-07-19T17:00:07Z</time>
      </trkpt>
      <trkpt lat="38.25627" lon="-2.64064">
        <ele>1410.904</ele>
        <time>2021-07-19T17:00:18Z</time>
      </trkpt>
      <trkpt lat="38.25793" lon="-2.64011">
        <ele>1397.525</ele>
        <time>2021-07-19T17:00:29Z</time>
      </trkpt>
      <trkpt lat="38.2593" lon="-2.63901">
        <ele>1388.403</ele>
        <time>2021-07-19T17:00:40Z</time>
      </trkpt>
      <trkpt lat="38.25901" lon="-2.63731">
        <ele>1384.292</ele>
        <time>2021-07-19T17:00:51Z</time>
      </trkpt>
      <trkpt lat="38.26025" lon="-2.63607">
        <ele>1375.152</ele>
        <time>2021-07-19T17:01:02Z</time>
      </trkpt>
      <trkpt lat="38.26173" lon="-2.63627">
        <ele>1370.858</ele>
        <time>2021-07-19T17:01:13Z</time>
      </trkpt>
      <trkpt lat="38.26281" lon="-2.63452">
        <ele>1362.175</ele>
        <time>2021-07-19T17:01:24Z</time>
      </trkpt>
      <trkpt lat="38.26403" lon="-2.63379">
        <ele>1355.349</ele>
        <time>2021-07-19T17:01:35Z</time>
      </trkpt>
      <trkpt lat="38.26414" lon="-2.6337">
        <ele>1353.37</ele>
        <time>2021-07-19T17:01:47Z</time>
      </trkpt>
      <trkpt lat="38.26414" lon="-2.63368">
        <ele>1356.639</ele>
        <time>2021-07-19T17:02:47Z</time>
      </trkpt>
      <trkpt lat="38.26413" lon="-2.6337">
        <ele>1356.158</ele>
        <time>2021-07-19T17:03:46Z</time>
      </trkpt>
      <trkpt lat="38.26416" lon="-2.63363">
        <ele>1354.155</ele>
        <time>2021-07-19T17:04:36Z</time>
      </trkpt>
      <trkpt lat="38.26363" lon="-2.63272">
        <ele>1345.737</ele>
        <time>2021-07-19T17:04:47Z</time>
      </trkpt>
      <trkpt lat="38.26205" lon="-2.63243">
        <ele>1327.256</ele>
        <time>2021-07-19T17:04:58Z</time>
      </trkpt>
      <trkpt lat="38.26288" lon="-2.63156">
        <ele>1317.543</ele>
        <time>2021-07-19T17:05:09Z</time>
      </trkpt>
      <trkpt lat="38.26506" lon="-2.63009">
        <ele>1313.074</ele>
        <time>2021-07-19T17:05:20Z</time>
      </trkpt>
      <trkpt lat="38.26657" lon="-2.6279">
        <ele>1324.204</ele>
        <time>2021-07-19T17:05:31Z</time>
      </trkpt>
      <trkpt lat="38.26792" lon="-2.62785">
        <ele>1326.473</ele>
        <time>2021-07-19T17:05:42Z</time>
      </trkpt>
      <trkpt lat="38.26946" lon="-2.62789">
        <ele>1345.753</ele>
        <time>2021-07-19T17:05:53Z</time>
      </trkpt>
      <trkpt lat="38.27113" lon="-2.62712">
        <ele>1343.279</ele>
        <time>2021-07-19T17:06:04Z</time>
      </trkpt>
      <trkpt lat="38.2726" lon="-2.62605">
        <ele>1341.516</ele>
        <time>2021-07-19T17:06:15Z</time>
      </trkpt>
      <trkpt lat="38.27425" lon="-2.6244">
        <ele>1337.141</ele>
        <time>2021-07-19T17:06:26Z</time>
      </trkpt>
      <trkpt lat="38.27557" lon="-2.6225">
        <ele>1325.225</ele>
        <time>2021-07-19T17:06:37Z</time>
      </trkpt>
      <trkpt lat="38.27706" lon="-2.62116">
        <ele>1317.276</ele>
        <time>2021-07-19T17:06:48Z</time>
      </trkpt>
      <trkpt lat="38.27844" lon="-2.61955">
        <ele>1293.951</ele>
        <time>2021-07-19T17:06:59Z</time>
      </trkpt>
      <trkpt lat="38.27939" lon="-2.6182">
        <ele>1266.912</ele>
        <time>2021-07-19T17:07:10Z</time>
      </trkpt>
      <trkpt lat="38.28108" lon="-2.61666">
        <ele>1307.552</ele>
        <time>2021-07-19T17:07:21Z</time>
      </trkpt>
      <trkpt lat="38.282" lon="-2.61495">
        <ele>1310.968</ele>
        <time>2021-07-19T17:07:32Z</time>
      </trkpt>
      <trkpt lat="38.28312" lon="-2.61278">
        <ele>1308.441</ele>
        <time>2021-07-19T17:07:43Z</time>
      </trkpt>
      <trkpt lat="38.2841" lon="-2.6106">
        <ele>1307.058</ele>
        <time>2021-07-19T17:07:54Z</time>
      </trkpt>
      <trkpt lat="38.28434" lon="-2.60889">
        <ele>1312.08</ele>
        <time>2021-07-19T17:08:05Z</time>
      </trkpt>
      <trkpt lat="38.28535" lon="-2.60723">
        <ele>1310.031</ele>
        <time>2021-07-19T17:08:16Z</time>
      </trkpt>
      <trkpt lat="38.28699" lon="-2.60635">
        <ele>1315.786</ele>
        <time>2021-07-19T17:08:27Z</time>
      </trkpt>
      <trkpt lat="38.28878" lon="-2.60496">
        <ele>1319.179</ele>
        <time>2021-07-19T17:08:38Z</time>
      </trkpt>
      <trkpt lat="38.28979" lon="-2.60317">
        <ele>1322.699</ele>
        <time>2021-07-19T17:08:49Z</time>
      </trkpt>
      <trkpt lat="38.29092" lon="-2.60231">
        <ele>1322.872</ele>
        <time>2021-07-19T17:09:00Z</time>
      </trkpt>
      <trkpt lat="38.2923" lon="-2.60093">
        <ele>1331.053</ele>
        <time>2021-07-19T17:09:11Z</time>
      </trkpt>
      <trkpt lat="38.29381" lon="-2.59979">
        <ele>1336.655</ele>
        <time>2021-07-19T17:09:22Z</time>
      </trkpt>
      <trkpt lat="38.29531" lon="-2.59756">
        <ele>1345.549</ele>
        <time>2021-07-19T17:09:33Z</time>
      </trkpt>
      <trkpt lat="38.2973" lon="-2.59544">
        <ele>1346.588</ele>
        <time>2021-07-19T17:09:44Z</time>
      </trkpt>
      <trkpt lat="38.29923" lon="-2.59336">
        <ele>1355.507</ele>
        <time>2021-07-19T17:09:55Z</time>
      </trkpt>
      <trkpt lat="38.30062" lon="-2.59161">
        <ele>1356.53</ele>
        <time>2021-07-19T17:10:06Z</time>
      </trkpt>
      <trkpt lat="38.30152" lon="-2.59031">
        <ele>1355.343</ele>
        <time>2021-07-19T17:10:17Z</time>
      </trkpt>
      <trkpt lat="38.303" lon="-2.58918">
        <ele>1358.835</ele>
        <time>2021-07-19T17:10:28Z</time>
      </trkpt>
      <trkpt lat="38.30398" lon="-2.58763">
        <ele>1365.568</ele>
        <time>2021-07-19T17:10:39Z</time>
      </trkpt>
      <trkpt lat="38.3049" lon="-2.58593">
        <ele>1379.817</ele>
        <time>2021-07-19T17:10:50Z</time>
      </trkpt>
      <trkpt lat="38.30602" lon="-2.58467">
        <ele>1379.418</ele>
        <time>2021-07-19T17:11:01Z</time>
      </trkpt>
      <trkpt lat="38.3071" lon="-2.58308">
        <ele>1365.828</ele>
        <time>2021-07-19T17:11:12Z</time>
      </trkpt>
      <trkpt lat="38.30861" lon="-2.58263">
        <ele>1358.069</ele>
        <time>2021-07-19T17:11:23Z</time>
      </trkpt>
      <trkpt lat="38.3103" lon="-2.58236">
        <ele>1338.949</ele>
        <time>2021-07-19T17:11:34Z</time>
      </trkpt>
      <trkpt lat="38.31221" lon="-2.58175">
        <ele>1343.984</ele>
        <time>2021-07-19T17:11:45Z</time>
      </trkpt>
      <trkpt lat="38.31282" lon="-2.58041">
        <ele>1339.566</ele>
        <time>2021-07-19T17:11:56Z</time>
      </trkpt>
      <trkpt lat="38.31294" lon="-2.57822">
        <ele>1345.862</ele>
        <time>2021-07-19T17:12:07Z</time>
      </trkpt>
      <trkpt lat="38.31432" lon="-2.57674">
        <ele>1345.008</ele>
        <time>2021-07-19T17:12:18Z</time>
      </trkpt>
      <trkpt lat="38.31638" lon="-2.57582">
        <ele>1337.191</ele>
        <time>2021-07-19T17:12:29Z</time>
      </trkpt>
      <trkpt lat="38.31813" lon="-2.57535">
        <ele>1331.393</ele>
        <time>2021-07-19T17:12:40Z</time>
      </trkpt>
      <trkpt lat="38.31975" lon="-2.57442">
        <ele>1322.105</ele>
        <time>2021-07-19T17:12:51Z</time>
      </trkpt>
      <trkpt lat="38.3201" lon="-2.57523">
        <ele>1315.354</ele>
        <time>2021-07-19T17:13:02Z</time>
      </trkpt>
      <trkpt lat="38.31914" lon="-2.5765">
        <ele>1311.448</ele>
        <time>2021-07-19T17:13:13Z</time>
      </trkpt>
      <trkpt lat="38.31924" lon="-2.57776">
        <ele>1310.523</ele>
        <time>2021-07-19T17:13:24Z</time>
      </trkpt>
      <trkpt lat="38.32052" lon="-2.57693">
        <ele>1297.59</ele>
        <time>2021-07-19T17:13:35Z</time>
      </trkpt>
      <trkpt lat="38.32237" lon="-2.57661">
        <ele>1277.243</ele>
        <time>2021-07-19T17:13:46Z</time>
      </trkpt>
      <trkpt lat="38.32421" lon="-2.57558">
        <ele>1280.332</ele>
        <time>2021-07-19T17:13:57Z</time>
      </trkpt>
      <trkpt lat="38.32568" lon="-2.57504">
        <ele>1277.286</ele>
        <time>2021-07-19T17:14:08Z</time>
      </trkpt>
      <trkpt lat="38.32696" lon="-2.57444">
        <ele>1282.179</ele>
        <time>2021-07-19T17:14:19Z</time>
      </trkpt>
      <trkpt lat="38.32809" lon="-2.57368">
        <ele>1280.959</ele>
        <time>2021-07-19T17:14:30Z</time>
      </trkpt>
      <trkpt lat="38.32913" lon="-2.57478">
        <ele>1288.241</ele>
        <time>2021-07-19T17:14:41Z</time>
      </trkpt>
      <trkpt lat="38.32948" lon="-2.57352">
        <ele>1293.524</ele>
        <time>2021-07-19T17:14:52Z</time>
      </trkpt>
      <trkpt lat="38.32886" lon="-2.57279">
        <ele>1301.446</ele>
        <time>2021-07-19T17:15:03Z</time>
      </trkpt>
      <trkpt lat="38.32964" lon="-2.57216">
        <ele>1302.781</ele>
        <time>2021-07-19T17:15:14Z</time>
      </trkpt>
      <trkpt lat="38.32888" lon="-2.57071">
        <ele>1313.554</ele>
        <time>2021-07-19T17:15:25Z</time>
      </trkpt>
      <trkpt lat="38.32919" lon="-2.57041">
        <ele>1326.235</ele>
        <time>2021-07-19T17:15:36Z</time>
      </trkpt>
      <trkpt lat="38.33027" lon="-2.5715">
        <ele>1333.01</ele>
        <time>2021-07-19T17:15:47Z</time>
      </trkpt>
      <trkpt lat="38.3319" lon="-2.57172">
        <ele>1328.69</ele>
        <time>2021-07-19T17:15:58Z</time>
      </trkpt>
      <trkpt lat="38.33339" lon="-2.57073">
        <ele>1310.785</ele>
        <time>2021-07-19T17:16:09Z</time>
      </trkpt>
      <trkpt lat="38.3349" lon="-2.56972">
        <ele>1308.892</ele>
        <time>2021-07-19T17:16:20Z</time>
      </trkpt>
      <trkpt lat="38.33635" lon="-2.56928">
        <ele>1299.485</ele>
        <time>2021-07-19T17:16:31Z</time>
      </trkpt>
      <trkpt lat="38.33759" lon="-2.57081">
        <ele>1296.062</ele>
        <time>2021-07-19T17:16:42Z</time>
      </trkpt>
      <trkpt lat="38.33897" lon="-2.57023">
        <ele>1274.208</ele>
        <time>2021-07-19T17:16:53Z</time>
      </trkpt>
      <trkpt lat="38.33992" lon="-2.56856">
        <ele>1264.129</ele>
        <time>2021-07-19T17:17:04Z</time>
      </trkpt>
      <trkpt lat="38.34017" lon="-2.56667">
        <ele>1254.419</ele>
        <time>2021-07-19T17:17:15Z</time>
      </trkpt>
      <trkpt lat="38.33992" lon="-2.56517">
        <ele>1249.917</ele>
        <time>2021-07-19T17:17:26Z</time>
      </trkpt>
      <trkpt lat="38.33961" lon="-2.56447">
        <ele>1242.164</ele>
        <time>2021-07-19T17:17:37Z</time>
      </trkpt>
      <trkpt lat="38.3407" lon="-2.565">
        <ele>1234.272</ele>
        <time>2021-07-19T17:17:48Z</time>
      </trkpt>
      <trkpt lat="38.34198" lon="-2.56476">
        <ele>1222.565</ele>
        <time>2021-07-19T17:17:59Z</time>
      </trkpt>
      <trkpt lat="38.34129" lon="-2.5637">
        <ele>1212.779</ele>
        <time>2021-07-19T17:18:10Z</time>
      </trkpt>
      <trkpt lat="38.34046" lon="-2.56312">
        <ele>1200.786</ele>
        <time>2021-07-19T17:18:21Z</time>
      </trkpt>
      <trkpt lat="38.34158" lon="-2.5632">
        <ele>1189.278</ele>
        <time>2021-07-19T17:18:32Z</time>
      </trkpt>
      <trkpt lat="38.343" lon="-2.56401">
        <ele>1180.164</ele>
        <time>2021-07-19T17:18:43Z</time>
      </trkpt>
      <trkpt lat="38.34316" lon="-2.56562">
        <ele>1173.899</ele>
        <time>2021-07-19T17:18:54Z</time>
      </trkpt>
      <trkpt lat="38.34296" lon="-2.56645">
        <ele>1175.799</ele>
        <time>2021-07-19T17:19:05Z</time>
      </trkpt>
      <trkpt lat="38.34233" lon="-2.5681">
        <ele>1168.606</ele>
        <time>2021-07-19T17:19:16Z</time>
      </trkpt>
      <trkpt lat="38.3428" lon="-2.56923">
        <ele>1162.788</ele>
        <time>2021-07-19T17:19:27Z</time>
      </trkpt>
      <trkpt lat="38.34338" lon="-2.57111">
        <ele>1149.949</ele>
        <time>2021-07-19T17:19:38Z</time>
      </trkpt>
      <trkpt lat="38.34341" lon="-2.57297">
        <ele>1134.778</ele>
        <time>2021-07-19T17:19:49Z</time>
      </trkpt>
      <trkpt lat="38.34357" lon="-2.57446">
        <ele>1124.522</ele>
        <time>2021-07-19T17:20:00Z</time>
      </trkpt>
      <trkpt lat="38.34467" lon="-2.57469">
        <ele>1115.827</ele>
        <time>2021-07-19T17:20:11Z</time>
      </trkpt>
      <trkpt lat="38.34595" lon="-2.57508">
        <ele>1104.269</ele>
        <time>2021-07-19T17:20:22Z</time>
      </trkpt>
      <trkpt lat="38.34701" lon="-2.57595">
        <ele>1097.711</ele>
        <time>2021-07-19T17:20:33Z</time>
      </trkpt>
      <trkpt lat="38.34821" lon="-2.57663">
        <ele>1087.946</ele>
        <time>2021-07-19T17:20:44Z</time>
      </trkpt>
      <trkpt lat="38.34855" lon="-2.57829">
        <ele>1071.456</ele>
        <time>2021-07-19T17:20:55Z</time>
      </trkpt>
      <trkpt lat="38.3489" lon="-2.57981">
        <ele>1061.103</ele>
        <time>2021-07-19T17:21:06Z</time>
      </trkpt>
      <trkpt lat="38.34942" lon="-2.58177">
        <ele>1048.202</ele>
        <time>2021-07-19T17:21:17Z</time>
      </trkpt>
      <trkpt lat="38.34959" lon="-2.58303">
        <ele>1035.233</ele>
        <time>2021-07-19T17:21:28Z</time>
      </trkpt>
      <trkpt lat="38.35097" lon="-2.58373">
        <ele>1021.481</ele>
        <time>2021-07-19T17:21:39Z</time>
      </trkpt>
      <trkpt lat="38.35267" lon="-2.58465">
        <ele>1000.849</ele>
        <time>2021-07-19T17:21:50Z</time>
      </trkpt>
      <trkpt lat="38.35246" lon="-2.58357">
        <ele>998.7801</ele>
        <time>2021-07-19T17:22:01Z</time>
      </trkpt>
      <trkpt lat="38.35267" lon="-2.58303">
        <ele>990.7615</ele>
        <time>2021-07-19T17:22:12Z</time>
      </trkpt>
      <trkpt lat="38.35373" lon="-2.58359">
        <ele>974.3998</ele>
        <time>2021-07-19T17:22:23Z</time>
      </trkpt>
      <trkpt lat="38.35386" lon="-2.58467">
        <ele>965.8991</ele>
        <time>2021-07-19T17:22:34Z</time>
      </trkpt>
      <trkpt lat="38.35508" lon="-2.58357">
        <ele>951.6891</ele>
        <time>2021-07-19T17:22:45Z</time>
      </trkpt>
      <trkpt lat="38.35666" lon="-2.58301">
        <ele>934.8359</ele>
        <time>2021-07-19T17:22:56Z</time>
      </trkpt>
      <trkpt lat="38.35804" lon="-2.58293">
        <ele>919.0599</ele>
        <time>2021-07-19T17:23:07Z</time>
      </trkpt>
      <trkpt lat="38.35945" lon="-2.58284">
        <ele>896.9904</ele>
        <time>2021-07-19T17:23:18Z</time>
      </trkpt>
      <trkpt lat="38.36071" lon="-2.58287">
        <ele>882.0358</ele>
        <time>2021-07-19T17:23:29Z</time>
      </trkpt>
      <trkpt lat="38.35961" lon="-2.58224">
        <ele>878.8295</ele>
        <time>2021-07-19T17:23:40Z</time>
      </trkpt>
      <trkpt lat="38.36059" lon="-2.58202">
        <ele>863.2967</ele>
        <time>2021-07-19T17:23:51Z</time>
      </trkpt>
      <trkpt lat="38.35997" lon="-2.58158">
        <ele>860.2449</ele>
        <time>2021-07-19T17:24:02Z</time>
      </trkpt>
      <trkpt lat="38.36075" lon="-2.58098">
        <ele>857.9994</ele>
        <time>2021-07-19T17:24:13Z</time>
      </trkpt>
      <trkpt lat="38.36203" lon="-2.58103">
        <ele>837.6723</ele>
        <time>2021-07-19T17:24:24Z</time>
      </trkpt>
      <trkpt lat="38.36304" lon="-2.5809">
        <ele>827.4996</ele>
        <time>2021-07-19T17:24:35Z</time>
      </trkpt>
      <trkpt lat="38.36453" lon="-2.58018">
        <ele>810.5076</ele>
        <time>2021-07-19T17:24:46Z</time>
      </trkpt>
      <trkpt lat="38.36648" lon="-2.57971">
        <ele>800.6923</ele>
        <time>2021-07-19T17:24:57Z</time>
      </trkpt>
      <trkpt lat="38.36768" lon="-2.5793">
        <ele>794.0861</ele>
        <time>2021-07-19T17:25:08Z</time>
      </trkpt>
      <trkpt lat="38.36906" lon="-2.57878">
        <ele>781.9648</ele>
        <time>2021-07-19T17:25:19Z</time>
      </trkpt>
      <trkpt lat="38.3701" lon="-2.5784">
        <ele>778.2763</ele>
        <time>2021-07-19T17:25:30Z</time>
      </trkpt>
      <trkpt lat="38.37117" lon="-2.57833">
        <ele>781.7286</ele>
        <time>2021-07-19T17:25:41Z</time>
      </trkpt>
      <trkpt lat="38.37237" lon="-2.57892">
        <ele>784.349</ele>
        <time>2021-07-19T17:25:52Z</time>
      </trkpt>
      <trkpt lat="38.37374" lon="-2.57986">
        <ele>782.3502</ele>
        <time>2021-07-19T17:26:03Z</time>
      </trkpt>
      <trkpt lat="38.37523" lon="-2.58004">
        <ele>774.9854</ele>
        <time>2021-07-19T17:26:14Z</time>
      </trkpt>
      <trkpt lat="38.37623" lon="-2.58073">
        <ele>772.159</ele>
        <time>2021-07-19T17:26:25Z</time>
      </trkpt>
      <trkpt lat="38.37748" lon="-2.5814">
        <ele>764.3774</ele>
        <time>2021-07-19T17:26:36Z</time>
      </trkpt>
      <trkpt lat="38.37826" lon="-2.58284">
        <ele>760.5372</ele>
        <time>2021-07-19T17:26:47Z</time>
      </trkpt>
      <trkpt lat="38.37914" lon="-2.58473">
        <ele>756.8048</ele>
        <time>2021-07-19T17:26:58Z</time>
      </trkpt>
      <trkpt lat="38.37994" lon="-2.58601">
        <ele>749.1434</ele>
        <time>2021-07-19T17:27:09Z</time>
      </trkpt>
      <trkpt lat="38.38079" lon="-2.58713">
        <ele>745.397</ele>
        <time>2021-07-19T17:27:20Z</time>
      </trkpt>
      <trkpt lat="38.38167" lon="-2.58847">
        <ele>750.7238</ele>
        <time>2021-07-19T17:27:31Z</time>
      </trkpt>
      <trkpt lat="38.3827" lon="-2.58958">
        <ele>754.0901</ele>
        <time>2021-07-19T17:27:42Z</time>
      </trkpt>
      <trkpt lat="38.38319" lon="-2.58977">
        <ele>752.6542</ele>
        <time>2021-07-19T17:27:53Z</time>
      </trkpt>
      <trkpt lat="38.38323" lon="-2.58978">
        <ele>757.7738</ele>
        <time>2021-07-19T17:28:07Z</time>
      </trkpt>
      <trkpt lat="38.38433" lon="-2.58939">
        <ele>770.7355</ele>
        <time>2021-07-19T17:28:18Z</time>
      </trkpt>
      <trkpt lat="38.38473" lon="-2.58749">
        <ele>782.5899</ele>
        <time>2021-07-19T17:28:29Z</time>
      </trkpt>
      <trkpt lat="38.38507" lon="-2.5861">
        <ele>788.7068</ele>
        <time>2021-07-19T17:28:40Z</time>
      </trkpt>
      <trkpt lat="38.38521" lon="-2.58603">
        <ele>787.6687</ele>
        <time>2021-07-19T17:28:51Z</time>
      </trkpt>
      <trkpt lat="38.38515" lon="-2.58607">
        <ele>787.8015</ele>
        <time>2021-07-19T17:29:02Z</time>
      </trkpt>
      <trkpt lat="38.38513" lon="-2.58605">
        <ele>781.9377</ele>
        <time>2021-07-19T17:30:02Z</time>
      </trkpt>
      <trkpt lat="38.38511" lon="-2.58612">
        <ele>787.1608</ele>
        <time>2021-07-19T17:30:13Z</time>
      </trkpt>
      <trkpt lat="38.38511" lon="-2.58613">
        <ele>787.4592</ele>
        <time>2021-07-19T17:31:13Z</time>
      </trkpt>
      <trkpt lat="38.38503" lon="-2.58615">
        <ele>795.6542</ele>
        <time>2021-07-19T17:31:52Z</time>
      </trkpt>
      <trkpt lat="38.38505" lon="-2.5862">
        <ele>800.8943</ele>
        <time>2021-07-19T17:32:10Z</time>
      </trkpt>
      <trkpt lat="38.38507" lon="-2.58625">
        <ele>804.2085</ele>
        <time>2021-07-19T17:32:21Z</time>
      </trkpt>
      <trkpt lat="38.38516" lon="-2.58625">
        <ele>802.9795</ele>
        <time>2021-07-19T17:32:32Z</time>
      </trkpt>
      <trkpt lat="38.38513" lon="-2.58622">
        <ele>801.3215</ele>
        <time>2021-07-19T17:32:45Z</time>
      </trkpt>
      <trkpt lat="38.38508" lon="-2.58622">
        <ele>808.9346</ele>
        <time>2021-07-19T17:33:03Z</time>
      </trkpt>
      <trkpt lat="38.38504" lon="-2.58617">
        <ele>815.6861</ele>
        <time>2021-07-19T17:33:24Z</time>
      </trkpt>
      <trkpt lat="38.38513" lon="-2.58628">
        <ele>811.1126</ele>
        <time>2021-07-19T17:33:35Z</time>
      </trkpt>
      <trkpt lat="38.38515" lon="-2.5863">
        <ele>802.1244</ele>
        <time>2021-07-19T17:34:35Z</time>
      </trkpt>
      <trkpt lat="38.38515" lon="-2.5863">
        <ele>802.1244</ele>
        <time>2021-07-19T17:35:35Z</time>
      </trkpt>
      <trkpt lat="38.38515" lon="-2.5863">
        <ele>802.1244</ele>
        <time>2021-07-19T17:36:35Z</time>
      </trkpt>
      <trkpt lat="38.38515" lon="-2.5863">
        <ele>802.1244</ele>
        <time>2021-07-19T17:37:35Z</time>
      </trkpt>
      <trkpt lat="38.38515" lon="-2.5863">
        <ele>802.1244</ele>
        <time>2021-07-19T17:38:35Z</time>
      </trkpt>
      <trkpt lat="38.38515" lon="-2.5863">
        <ele>802.1244</ele>
        <time>2021-07-19T17:39:35Z</time>
      </trkpt>
      <trkpt lat="38.38518" lon="-2.58628">
        <ele>795.2122</ele>
        <time>2021-07-19T17:39:59Z</time>
      </trkpt>
      <trkpt lat="38.38515" lon="-2.58631">
        <ele>795.5268</ele>
        <time>2021-07-19T17:40:47Z</time>
      </trkpt>
      <trkpt lat="38.38517" lon="-2.58636">
        <ele>789.034</ele>
        <time>2021-07-19T17:40:58Z</time>
      </trkpt>
      <trkpt lat="38.38515" lon="-2.5864">
        <ele>791.4984</ele>
        <time>2021-07-19T17:41:22Z</time>
      </trkpt>
      <trkpt lat="38.38529" lon="-2.5853">
        <ele>791.8275</ele>
        <time>2021-07-19T17:41:33Z</time>
      </trkpt>
      <trkpt lat="38.38603" lon="-2.58428">
        <ele>800.5593</ele>
        <time>2021-07-19T17:41:44Z</time>
      </trkpt>
      <trkpt lat="38.38704" lon="-2.58473">
        <ele>808.0214</ele>
        <time>2021-07-19T17:41:55Z</time>
      </trkpt>
      <trkpt lat="38.38802" lon="-2.58468">
        <ele>814.1715</ele>
        <time>2021-07-19T17:42:06Z</time>
      </trkpt>
      <trkpt lat="38.38871" lon="-2.58482">
        <ele>817.6243</ele>
        <time>2021-07-19T17:42:17Z</time>
      </trkpt>
      <trkpt lat="38.38948" lon="-2.58465">
        <ele>825.5775</ele>
        <time>2021-07-19T17:42:28Z</time>
      </trkpt>
      <trkpt lat="38.38989" lon="-2.58427">
        <ele>831.1896</ele>
        <time>2021-07-19T17:42:39Z</time>
      </trkpt>
      <trkpt lat="38.39058" lon="-2.58346">
        <ele>831.1993</ele>
        <time>2021-07-19T17:42:50Z</time>
      </trkpt>
      <trkpt lat="38.39185" lon="-2.58266">
        <ele>836.414</ele>
        <time>2021-07-19T17:43:01Z</time>
      </trkpt>
      <trkpt lat="38.39355" lon="-2.58138">
        <ele>834.137</ele>
        <time>2021-07-19T17:43:12Z</time>
      </trkpt>
      <trkpt lat="38.39572" lon="-2.57949">
        <ele>834.8257</ele>
        <time>2021-07-19T17:43:23Z</time>
      </trkpt>
      <trkpt lat="38.39699" lon="-2.57672">
        <ele>834.2764</ele>
        <time>2021-07-19T17:43:34Z</time>
      </trkpt>
      <trkpt lat="38.39829" lon="-2.5739">
        <ele>829.304</ele>
        <time>2021-07-19T17:43:45Z</time>
      </trkpt>
      <trkpt lat="38.39727" lon="-2.57091">
        <ele>818.9855</ele>
        <time>2021-07-19T17:43:56Z</time>
      </trkpt>
      <trkpt lat="38.39675" lon="-2.56864">
        <ele>811.5818</ele>
        <time>2021-07-19T17:44:07Z</time>
      </trkpt>
      <trkpt lat="38.39757" lon="-2.5655">
        <ele>802.0095</ele>
        <time>2021-07-19T17:44:18Z</time>
      </trkpt>
      <trkpt lat="38.39793" lon="-2.56207">
        <ele>797.0983</ele>
        <time>2021-07-19T17:44:29Z</time>
      </trkpt>
      <trkpt lat="38.39833" lon="-2.55963">
        <ele>795.2858</ele>
        <time>2021-07-19T17:44:40Z</time>
      </trkpt>
      <trkpt lat="38.39884" lon="-2.55644">
        <ele>789.4188</ele>
        <time>2021-07-19T17:44:51Z</time>
      </trkpt>
      <trkpt lat="38.39992" lon="-2.55343">
        <ele>799.2626</ele>
        <time>2021-07-19T17:45:02Z</time>
      </trkpt>
      <trkpt lat="38.40197" lon="-2.55139">
        <ele>808.1667</ele>
        <time>2021-07-19T17:45:13Z</time>
      </trkpt>
      <trkpt lat="38.40408" lon="-2.55001">
        <ele>806.8438</ele>
        <time>2021-07-19T17:45:24Z</time>
      </trkpt>
      <trkpt lat="38.40627" lon="-2.5506">
        <ele>791.6814</ele>
        <time>2021-07-19T17:45:35Z</time>
      </trkpt>
      <trkpt lat="38.40847" lon="-2.5507">
        <ele>776.8727</ele>
        <time>2021-07-19T17:45:46Z</time>
      </trkpt>
      <trkpt lat="38.40914" lon="-2.54833">
        <ele>760.9979</ele>
        <time>2021-07-19T17:45:57Z</time>
      </trkpt>
      <trkpt lat="38.41123" lon="-2.54711">
        <ele>748.9284</ele>
        <time>2021-07-19T17:46:08Z</time>
      </trkpt>
      <trkpt lat="38.41404" lon="-2.54687">
        <ele>739.9642</ele>
        <time>2021-07-19T17:46:19Z</time>
      </trkpt>
      <trkpt lat="38.41648" lon="-2.5462">
        <ele>732.6561</ele>
        <time>2021-07-19T17:46:30Z</time>
      </trkpt>
      <trkpt lat="38.41882" lon="-2.54503">
        <ele>733.1335</ele>
        <time>2021-07-19T17:46:41Z</time>
      </trkpt>
      <trkpt lat="38.42076" lon="-2.54259">
        <ele>734.2783</ele>
        <time>2021-07-19T17:46:52Z</time>
      </trkpt>
      <trkpt lat="38.42261" lon="-2.54135">
        <ele>732.927</ele>
        <time>2021-07-19T17:47:03Z</time>
      </trkpt>
      <trkpt lat="38.42394" lon="-2.53912">
        <ele>741.3781</ele>
        <time>2021-07-19T17:47:14Z</time>
      </trkpt>
      <trkpt lat="38.42508" lon="-2.53613">
        <ele>751.4226</ele>
        <time>2021-07-19T17:47:25Z</time>
      </trkpt>
      <trkpt lat="38.42666" lon="-2.53339">
        <ele>756.5069</ele>
        <time>2021-07-19T17:47:36Z</time>
      </trkpt>
      <trkpt lat="38.42844" lon="-2.53171">
        <ele>757.6311</ele>
        <time>2021-07-19T17:47:47Z</time>
      </trkpt>
      <trkpt lat="38.43039" lon="-2.5302">
        <ele>749.8845</ele>
        <time>2021-07-19T17:47:58Z</time>
      </trkpt>
      <trkpt lat="38.43189" lon="-2.52823">
        <ele>745.8234</ele>
        <time>2021-07-19T17:48:09Z</time>
      </trkpt>
      <trkpt lat="38.43346" lon="-2.52616">
        <ele>749.9441</ele>
        <time>2021-07-19T17:48:20Z</time>
      </trkpt>
      <trkpt lat="38.4351" lon="-2.524">
        <ele>758.1586</ele>
        <time>2021-07-19T17:48:31Z</time>
      </trkpt>
      <trkpt lat="38.43683" lon="-2.5217">
        <ele>769.3426</ele>
        <time>2021-07-19T17:48:42Z</time>
      </trkpt>
      <trkpt lat="38.43888" lon="-2.51966">
        <ele>779.4551</ele>
        <time>2021-07-19T17:48:53Z</time>
      </trkpt>
      <trkpt lat="38.44078" lon="-2.51778">
        <ele>788.621</ele>
        <time>2021-07-19T17:49:04Z</time>
      </trkpt>
      <trkpt lat="38.44325" lon="-2.51719">
        <ele>794.6851</ele>
        <time>2021-07-19T17:49:15Z</time>
      </trkpt>
      <trkpt lat="38.44533" lon="-2.51537">
        <ele>804.4365</ele>
        <time>2021-07-19T17:49:26Z</time>
      </trkpt>
      <trkpt lat="38.44679" lon="-2.51272">
        <ele>821.5092</ele>
        <time>2021-07-19T17:49:37Z</time>
      </trkpt>
      <trkpt lat="38.44713" lon="-2.50979">
        <ele>831.5217</ele>
        <time>2021-07-19T17:49:48Z</time>
      </trkpt>
      <trkpt lat="38.44738" lon="-2.50748">
        <ele>838.0444</ele>
        <time>2021-07-19T17:49:59Z</time>
      </trkpt>
      <trkpt lat="38.44706" lon="-2.5048">
        <ele>852.8078</ele>
        <time>2021-07-19T17:50:10Z</time>
      </trkpt>
      <trkpt lat="38.44511" lon="-2.50265">
        <ele>868.3267</ele>
        <time>2021-07-19T17:50:21Z</time>
      </trkpt>
      <trkpt lat="38.44378" lon="-2.50048">
        <ele>878.1468</ele>
        <time>2021-07-19T17:50:32Z</time>
      </trkpt>
      <trkpt lat="38.44293" lon="-2.49858">
        <ele>887.3457</ele>
        <time>2021-07-19T17:50:43Z</time>
      </trkpt>
      <trkpt lat="38.44316" lon="-2.49585">
        <ele>904.6043</ele>
        <time>2021-07-19T17:50:54Z</time>
      </trkpt>
      <trkpt lat="38.44414" lon="-2.49285">
        <ele>915.3793</ele>
        <time>2021-07-19T17:51:05Z</time>
      </trkpt>
      <trkpt lat="38.44519" lon="-2.48954">
        <ele>934.2321</ele>
        <time>2021-07-19T17:51:16Z</time>
      </trkpt>
      <trkpt lat="38.4466" lon="-2.48675">
        <ele>943.3009</ele>
        <time>2021-07-19T17:51:27Z</time>
      </trkpt>
      <trkpt lat="38.44776" lon="-2.48472">
        <ele>954.4354</ele>
        <time>2021-07-19T17:51:38Z</time>
      </trkpt>
      <trkpt lat="38.4488" lon="-2.48234">
        <ele>968.4038</ele>
        <time>2021-07-19T17:51:49Z</time>
      </trkpt>
      <trkpt lat="38.44962" lon="-2.47978">
        <ele>978.7377</ele>
        <time>2021-07-19T17:52:00Z</time>
      </trkpt>
      <trkpt lat="38.45026" lon="-2.47649">
        <ele>992.2962</ele>
        <time>2021-07-19T17:52:11Z</time>
      </trkpt>
      <trkpt lat="38.45065" lon="-2.47353">
        <ele>1003.853</ele>
        <time>2021-07-19T17:52:22Z</time>
      </trkpt>
      <trkpt lat="38.45139" lon="-2.47182">
        <ele>1009.277</ele>
        <time>2021-07-19T17:52:33Z</time>
      </trkpt>
      <trkpt lat="38.45219" lon="-2.47085">
        <ele>1016.411</ele>
        <time>2021-07-19T17:52:44Z</time>
      </trkpt>
      <trkpt lat="38.45224" lon="-2.4691">
        <ele>1023.84</ele>
        <time>2021-07-19T17:52:55Z</time>
      </trkpt>
      <trkpt lat="38.45143" lon="-2.46783">
        <ele>1025.944</ele>
        <time>2021-07-19T17:53:06Z</time>
      </trkpt>
      <trkpt lat="38.45267" lon="-2.46769">
        <ele>1031.224</ele>
        <time>2021-07-19T17:53:17Z</time>
      </trkpt>
      <trkpt lat="38.45419" lon="-2.46732">
        <ele>1041.354</ele>
        <time>2021-07-19T17:53:28Z</time>
      </trkpt>
      <trkpt lat="38.45604" lon="-2.46669">
        <ele>1042.136</ele>
        <time>2021-07-19T17:53:39Z</time>
      </trkpt>
      <trkpt lat="38.45815" lon="-2.46688">
        <ele>1045.457</ele>
        <time>2021-07-19T17:53:50Z</time>
      </trkpt>
      <trkpt lat="38.46014" lon="-2.46559">
        <ele>1060.529</ele>
        <time>2021-07-19T17:54:01Z</time>
      </trkpt>
      <trkpt lat="38.46269" lon="-2.46432">
        <ele>1076.556</ele>
        <time>2021-07-19T17:54:12Z</time>
      </trkpt>
      <trkpt lat="38.46454" lon="-2.46238">
        <ele>1097.334</ele>
        <time>2021-07-19T17:54:23Z</time>
      </trkpt>
      <trkpt lat="38.46627" lon="-2.45977">
        <ele>1121.854</ele>
        <time>2021-07-19T17:54:34Z</time>
      </trkpt>
      <trkpt lat="38.46747" lon="-2.45772">
        <ele>1135.637</ele>
        <time>2021-07-19T17:54:45Z</time>
      </trkpt>
      <trkpt lat="38.46798" lon="-2.45621">
        <ele>1141.563</ele>
        <time>2021-07-19T17:54:56Z</time>
      </trkpt>
      <trkpt lat="38.46872" lon="-2.45453">
        <ele>1136.389</ele>
        <time>2021-07-19T17:55:07Z</time>
      </trkpt>
      <trkpt lat="38.47005" lon="-2.4515">
        <ele>1124.007</ele>
        <time>2021-07-19T17:55:18Z</time>
      </trkpt>
      <trkpt lat="38.47136" lon="-2.44803">
        <ele>1112.82</ele>
        <time>2021-07-19T17:55:29Z</time>
      </trkpt>
      <trkpt lat="38.47337" lon="-2.44619">
        <ele>1097.618</ele>
        <time>2021-07-19T17:55:40Z</time>
      </trkpt>
      <trkpt lat="38.47607" lon="-2.44555">
        <ele>1076.076</ele>
        <time>2021-07-19T17:55:51Z</time>
      </trkpt>
      <trkpt lat="38.47668" lon="-2.44291">
        <ele>1064.732</ele>
        <time>2021-07-19T17:56:02Z</time>
      </trkpt>
      <trkpt lat="38.47769" lon="-2.43917">
        <ele>1051.017</ele>
        <time>2021-07-19T17:56:13Z</time>
      </trkpt>
      <trkpt lat="38.47902" lon="-2.43606">
        <ele>1044.788</ele>
        <time>2021-07-19T17:56:24Z</time>
      </trkpt>
      <trkpt lat="38.4804" lon="-2.43315">
        <ele>1036.872</ele>
        <time>2021-07-19T17:56:35Z</time>
      </trkpt>
      <trkpt lat="38.48124" lon="-2.43001">
        <ele>1031.608</ele>
        <time>2021-07-19T17:56:46Z</time>
      </trkpt>
      <trkpt lat="38.48234" lon="-2.42712">
        <ele>1024.738</ele>
        <time>2021-07-19T17:56:57Z</time>
      </trkpt>
      <trkpt lat="38.48395" lon="-2.42468">
        <ele>1020.446</ele>
        <time>2021-07-19T17:57:08Z</time>
      </trkpt>
      <trkpt lat="38.48352" lon="-2.42284">
        <ele>1013.948</ele>
        <time>2021-07-19T17:57:19Z</time>
      </trkpt>
      <trkpt lat="38.48205" lon="-2.42082">
        <ele>1007.365</ele>
        <time>2021-07-19T17:57:30Z</time>
      </trkpt>
      <trkpt lat="38.48289" lon="-2.41854">
        <ele>999.4813</ele>
        <time>2021-07-19T17:57:41Z</time>
      </trkpt>
      <trkpt lat="38.48282" lon="-2.41638">
        <ele>998.213</ele>
        <time>2021-07-19T17:57:52Z</time>
      </trkpt>
      <trkpt lat="38.48283" lon="-2.41444">
        <ele>993.5809</ele>
        <time>2021-07-19T17:58:03Z</time>
      </trkpt>
      <trkpt lat="38.48338" lon="-2.41185">
        <ele>981.4411</ele>
        <time>2021-07-19T17:58:14Z</time>
      </trkpt>
      <trkpt lat="38.48425" lon="-2.40925">
        <ele>971.1381</ele>
        <time>2021-07-19T17:58:25Z</time>
      </trkpt>
      <trkpt lat="38.48639" lon="-2.40834">
        <ele>959.1582</ele>
        <time>2021-07-19T17:58:36Z</time>
      </trkpt>
      <trkpt lat="38.48894" lon="-2.40945">
        <ele>951.7344</ele>
        <time>2021-07-19T17:58:47Z</time>
      </trkpt>
      <trkpt lat="38.4909" lon="-2.41206">
        <ele>947.4919</ele>
        <time>2021-07-19T17:58:58Z</time>
      </trkpt>
      <trkpt lat="38.49273" lon="-2.41211">
        <ele>943.7746</ele>
        <time>2021-07-19T17:59:09Z</time>
      </trkpt>
      <trkpt lat="38.49346" lon="-2.41162">
        <ele>944.5385</ele>
        <time>2021-07-19T17:59:20Z</time>
      </trkpt>
      <trkpt lat="38.49425" lon="-2.41232">
        <ele>951.2532</ele>
        <time>2021-07-19T17:59:31Z</time>
      </trkpt>
      <trkpt lat="38.4952" lon="-2.41469">
        <ele>962.622</ele>
        <time>2021-07-19T17:59:42Z</time>
      </trkpt>
      <trkpt lat="38.49635" lon="-2.41615">
        <ele>971.6856</ele>
        <time>2021-07-19T17:59:53Z</time>
      </trkpt>
      <trkpt lat="38.49746" lon="-2.41673">
        <ele>971.833</ele>
        <time>2021-07-19T18:00:04Z</time>
      </trkpt>
      <trkpt lat="38.49858" lon="-2.41705">
        <ele>975.0777</ele>
        <time>2021-07-19T18:00:15Z</time>
      </trkpt>
      <trkpt lat="38.49908" lon="-2.41746">
        <ele>977.5309</ele>
        <time>2021-07-19T18:00:26Z</time>
      </trkpt>
      <trkpt lat="38.49892" lon="-2.41913">
        <ele>968.9394</ele>
        <time>2021-07-19T18:00:37Z</time>
      </trkpt>
      <trkpt lat="38.4987" lon="-2.42083">
        <ele>966.0776</ele>
        <time>2021-07-19T18:00:48Z</time>
      </trkpt>
      <trkpt lat="38.4982" lon="-2.42253">
        <ele>965.0847</ele>
        <time>2021-07-19T18:00:59Z</time>
      </trkpt>
      <trkpt lat="38.49792" lon="-2.42436">
        <ele>963.1447</ele>
        <time>2021-07-19T18:01:10Z</time>
      </trkpt>
      <trkpt lat="38.49776" lon="-2.42652">
        <ele>966.3695</ele>
        <time>2021-07-19T18:01:21Z</time>
      </trkpt>
      <trkpt lat="38.49804" lon="-2.43001">
        <ele>963.9709</ele>
        <time>2021-07-19T18:01:32Z</time>
      </trkpt>
      <trkpt lat="38.49871" lon="-2.43336">
        <ele>965.6298</ele>
        <time>2021-07-19T18:01:43Z</time>
      </trkpt>
      <trkpt lat="38.49871" lon="-2.43645">
        <ele>968.5758</ele>
        <time>2021-07-19T18:01:54Z</time>
      </trkpt>
      <trkpt lat="38.49847" lon="-2.44017">
        <ele>972.4458</ele>
        <time>2021-07-19T18:02:05Z</time>
      </trkpt>
      <trkpt lat="38.4979" lon="-2.44316">
        <ele>978.3218</ele>
        <time>2021-07-19T18:02:16Z</time>
      </trkpt>
      <trkpt lat="38.49811" lon="-2.44664">
        <ele>989.0617</ele>
        <time>2021-07-19T18:02:27Z</time>
      </trkpt>
      <trkpt lat="38.50002" lon="-2.44924">
        <ele>990.5725</ele>
        <time>2021-07-19T18:02:38Z</time>
      </trkpt>
      <trkpt lat="38.50182" lon="-2.45186">
        <ele>998.8688</ele>
        <time>2021-07-19T18:02:49Z</time>
      </trkpt>
      <trkpt lat="38.50236" lon="-2.45508">
        <ele>1000.178</ele>
        <time>2021-07-19T18:03:00Z</time>
      </trkpt>
      <trkpt lat="38.50262" lon="-2.45813">
        <ele>1015.15</ele>
        <time>2021-07-19T18:03:11Z</time>
      </trkpt>
      <trkpt lat="38.50317" lon="-2.46148">
        <ele>1003.081</ele>
        <time>2021-07-19T18:03:22Z</time>
      </trkpt>
      <trkpt lat="38.50433" lon="-2.46437">
        <ele>1003.47</ele>
        <time>2021-07-19T18:03:33Z</time>
      </trkpt>
      <trkpt lat="38.50503" lon="-2.46751">
        <ele>1005.595</ele>
        <time>2021-07-19T18:03:44Z</time>
      </trkpt>
      <trkpt lat="38.50634" lon="-2.47048">
        <ele>1010.834</ele>
        <time>2021-07-19T18:03:55Z</time>
      </trkpt>
      <trkpt lat="38.50729" lon="-2.47368">
        <ele>1023.655</ele>
        <time>2021-07-19T18:04:06Z</time>
      </trkpt>
      <trkpt lat="38.50738" lon="-2.47715">
        <ele>1031.391</ele>
        <time>2021-07-19T18:04:17Z</time>
      </trkpt>
      <trkpt lat="38.5073" lon="-2.48051">
        <ele>1037.894</ele>
        <time>2021-07-19T18:04:28Z</time>
      </trkpt>
      <trkpt lat="38.50717" lon="-2.48316">
        <ele>1048.171</ele>
        <time>2021-07-19T18:04:39Z</time>
      </trkpt>
      <trkpt lat="38.50695" lon="-2.48534">
        <ele>1054.947</ele>
        <time>2021-07-19T18:04:50Z</time>
      </trkpt>
      <trkpt lat="38.50743" lon="-2.48799">
        <ele>1066.286</ele>
        <time>2021-07-19T18:05:01Z</time>
      </trkpt>
      <trkpt lat="38.50882" lon="-2.48975">
        <ele>1079.562</ele>
        <time>2021-07-19T18:05:12Z</time>
      </trkpt>
      <trkpt lat="38.50899" lon="-2.49136">
        <ele>1088.778</ele>
        <time>2021-07-19T18:05:23Z</time>
      </trkpt>
      <trkpt lat="38.50985" lon="-2.4935">
        <ele>1107.972</ele>
        <time>2021-07-19T18:05:34Z</time>
      </trkpt>
      <trkpt lat="38.51056" lon="-2.49527">
        <ele>1129.771</ele>
        <time>2021-07-19T18:05:45Z</time>
      </trkpt>
      <trkpt lat="38.51122" lon="-2.49705">
        <ele>1146.436</ele>
        <time>2021-07-19T18:05:56Z</time>
      </trkpt>
      <trkpt lat="38.51061" lon="-2.49845">
        <ele>1159.772</ele>
        <time>2021-07-19T18:06:07Z</time>
      </trkpt>
      <trkpt lat="38.5104" lon="-2.50001">
        <ele>1165.623</ele>
        <time>2021-07-19T18:06:18Z</time>
      </trkpt>
      <trkpt lat="38.50964" lon="-2.50019">
        <ele>1178.167</ele>
        <time>2021-07-19T18:06:29Z</time>
      </trkpt>
      <trkpt lat="38.51089" lon="-2.50208">
        <ele>1190.964</ele>
        <time>2021-07-19T18:06:40Z</time>
      </trkpt>
      <trkpt lat="38.51192" lon="-2.50302">
        <ele>1203.476</ele>
        <time>2021-07-19T18:06:51Z</time>
      </trkpt>
      <trkpt lat="38.51355" lon="-2.50494">
        <ele>1226.456</ele>
        <time>2021-07-19T18:07:02Z</time>
      </trkpt>
      <trkpt lat="38.51425" lon="-2.50701">
        <ele>1236.601</ele>
        <time>2021-07-19T18:07:13Z</time>
      </trkpt>
      <trkpt lat="38.51458" lon="-2.5092">
        <ele>1248.636</ele>
        <time>2021-07-19T18:07:24Z</time>
      </trkpt>
      <trkpt lat="38.51544" lon="-2.51141">
        <ele>1263.857</ele>
        <time>2021-07-19T18:07:35Z</time>
      </trkpt>
      <trkpt lat="38.51485" lon="-2.51315">
        <ele>1271.189</ele>
        <time>2021-07-19T18:07:46Z</time>
      </trkpt>
      <trkpt lat="38.51602" lon="-2.51141">
        <ele>1285.54</ele>
        <time>2021-07-19T18:07:57Z</time>
      </trkpt>
      <trkpt lat="38.51637" lon="-2.50924">
        <ele>1299.203</ele>
        <time>2021-07-19T18:08:08Z</time>
      </trkpt>
      <trkpt lat="38.51747" lon="-2.50752">
        <ele>1289.291</ele>
        <time>2021-07-19T18:08:19Z</time>
      </trkpt>
      <trkpt lat="38.51767" lon="-2.5057">
        <ele>1274.83</ele>
        <time>2021-07-19T18:08:30Z</time>
      </trkpt>
      <trkpt lat="38.51834" lon="-2.50748">
        <ele>1269.001</ele>
        <time>2021-07-19T18:08:41Z</time>
      </trkpt>
      <trkpt lat="38.51887" lon="-2.50957">
        <ele>1257.506</ele>
        <time>2021-07-19T18:08:52Z</time>
      </trkpt>
      <trkpt lat="38.52093" lon="-2.51086">
        <ele>1238.932</ele>
        <time>2021-07-19T18:09:03Z</time>
      </trkpt>
      <trkpt lat="38.5227" lon="-2.51233">
        <ele>1219.539</ele>
        <time>2021-07-19T18:09:14Z</time>
      </trkpt>
      <trkpt lat="38.52521" lon="-2.51295">
        <ele>1203.111</ele>
        <time>2021-07-19T18:09:25Z</time>
      </trkpt>
      <trkpt lat="38.5268" lon="-2.51376">
        <ele>1182.702</ele>
        <time>2021-07-19T18:09:36Z</time>
      </trkpt>
      <trkpt lat="38.52903" lon="-2.51399">
        <ele>1167.151</ele>
        <time>2021-07-19T18:09:47Z</time>
      </trkpt>
      <trkpt lat="38.53078" lon="-2.51324">
        <ele>1164.319</ele>
        <time>2021-07-19T18:09:58Z</time>
      </trkpt>
      <trkpt lat="38.53276" lon="-2.51281">
        <ele>1159.602</ele>
        <time>2021-07-19T18:10:09Z</time>
      </trkpt>
      <trkpt lat="38.53451" lon="-2.51217">
        <ele>1151.198</ele>
        <time>2021-07-19T18:10:20Z</time>
      </trkpt>
      <trkpt lat="38.53654" lon="-2.51212">
        <ele>1147.855</ele>
        <time>2021-07-19T18:10:31Z</time>
      </trkpt>
      <trkpt lat="38.53865" lon="-2.51226">
        <ele>1139.895</ele>
        <time>2021-07-19T18:10:42Z</time>
      </trkpt>
      <trkpt lat="38.54033" lon="-2.51035">
        <ele>1132.633</ele>
        <time>2021-07-19T18:10:53Z</time>
      </trkpt>
      <trkpt lat="38.5427" lon="-2.5098">
        <ele>1130.47</ele>
        <time>2021-07-19T18:11:04Z</time>
      </trkpt>
      <trkpt lat="38.54477" lon="-2.50838">
        <ele>1124.722</ele>
        <time>2021-07-19T18:11:15Z</time>
      </trkpt>
      <trkpt lat="38.54628" lon="-2.50596">
        <ele>1120.454</ele>
        <time>2021-07-19T18:11:26Z</time>
      </trkpt>
      <trkpt lat="38.54789" lon="-2.50439">
        <ele>1116.507</ele>
        <time>2021-07-19T18:11:37Z</time>
      </trkpt>
      <trkpt lat="38.54984" lon="-2.50221">
        <ele>1114.261</ele>
        <time>2021-07-19T18:11:48Z</time>
      </trkpt>
      <trkpt lat="38.55182" lon="-2.50094">
        <ele>1103.639</ele>
        <time>2021-07-19T18:11:59Z</time>
      </trkpt>
      <trkpt lat="38.55399" lon="-2.50221">
        <ele>1091.737</ele>
        <time>2021-07-19T18:12:10Z</time>
      </trkpt>
      <trkpt lat="38.55622" lon="-2.50227">
        <ele>1093.363</ele>
        <time>2021-07-19T18:12:21Z</time>
      </trkpt>
      <trkpt lat="38.5585" lon="-2.50301">
        <ele>1080.528</ele>
        <time>2021-07-19T18:12:32Z</time>
      </trkpt>
      <trkpt lat="38.56081" lon="-2.50237">
        <ele>1079.399</ele>
        <time>2021-07-19T18:12:43Z</time>
      </trkpt>
      <trkpt lat="38.56292" lon="-2.50376">
        <ele>1074.768</ele>
        <time>2021-07-19T18:12:54Z</time>
      </trkpt>
      <trkpt lat="38.56513" lon="-2.50409">
        <ele>1068.23</ele>
        <time>2021-07-19T18:13:05Z</time>
      </trkpt>
      <trkpt lat="38.56733" lon="-2.50523">
        <ele>1065.645</ele>
        <time>2021-07-19T18:13:16Z</time>
      </trkpt>
      <trkpt lat="38.56908" lon="-2.50549">
        <ele>1055.507</ele>
        <time>2021-07-19T18:13:27Z</time>
      </trkpt>
      <trkpt lat="38.57122" lon="-2.50735">
        <ele>1047.612</ele>
        <time>2021-07-19T18:13:38Z</time>
      </trkpt>
      <trkpt lat="38.57326" lon="-2.50778">
        <ele>1045.828</ele>
        <time>2021-07-19T18:13:49Z</time>
      </trkpt>
      <trkpt lat="38.57463" lon="-2.50973">
        <ele>1045.225</ele>
        <time>2021-07-19T18:14:00Z</time>
      </trkpt>
      <trkpt lat="38.57526" lon="-2.51214">
        <ele>1047.765</ele>
        <time>2021-07-19T18:14:11Z</time>
      </trkpt>
      <trkpt lat="38.57644" lon="-2.51323">
        <ele>1041.688</ele>
        <time>2021-07-19T18:14:22Z</time>
      </trkpt>
      <trkpt lat="38.57658" lon="-2.51364">
        <ele>1042.252</ele>
        <time>2021-07-19T18:14:33Z</time>
      </trkpt>
      <trkpt lat="38.57659" lon="-2.51372">
        <ele>1044.434</ele>
        <time>2021-07-19T18:14:51Z</time>
      </trkpt>
      <trkpt lat="38.57754" lon="-2.51605">
        <ele>1041.728</ele>
        <time>2021-07-19T18:15:02Z</time>
      </trkpt>
      <trkpt lat="38.57806" lon="-2.51954">
        <ele>1040.09</ele>
        <time>2021-07-19T18:15:13Z</time>
      </trkpt>
      <trkpt lat="38.57879" lon="-2.52212">
        <ele>1037.257</ele>
        <time>2021-07-19T18:15:24Z</time>
      </trkpt>
      <trkpt lat="38.58" lon="-2.52457">
        <ele>1028.016</ele>
        <time>2021-07-19T18:15:35Z</time>
      </trkpt>
      <trkpt lat="38.58236" lon="-2.5264">
        <ele>1025.216</ele>
        <time>2021-07-19T18:15:46Z</time>
      </trkpt>
      <trkpt lat="38.58458" lon="-2.52851">
        <ele>1012.762</ele>
        <time>2021-07-19T18:15:57Z</time>
      </trkpt>
      <trkpt lat="38.58598" lon="-2.53145">
        <ele>998.4132</ele>
        <time>2021-07-19T18:16:08Z</time>
      </trkpt>
      <trkpt lat="38.58676" lon="-2.53412">
        <ele>978.4145</ele>
        <time>2021-07-19T18:16:19Z</time>
      </trkpt>
      <trkpt lat="38.58851" lon="-2.53597">
        <ele>962.3238</ele>
        <time>2021-07-19T18:16:30Z</time>
      </trkpt>
      <trkpt lat="38.59044" lon="-2.53909">
        <ele>952.6561</ele>
        <time>2021-07-19T18:16:41Z</time>
      </trkpt>
      <trkpt lat="38.59155" lon="-2.54287">
        <ele>965.7391</ele>
        <time>2021-07-19T18:16:52Z</time>
      </trkpt>
      <trkpt lat="38.59327" lon="-2.54619">
        <ele>965.452</ele>
        <time>2021-07-19T18:17:03Z</time>
      </trkpt>
      <trkpt lat="38.59461" lon="-2.54895">
        <ele>960.6221</ele>
        <time>2021-07-19T18:17:14Z</time>
      </trkpt>
      <trkpt lat="38.59581" lon="-2.55219">
        <ele>943.053</ele>
        <time>2021-07-19T18:17:25Z</time>
      </trkpt>
      <trkpt lat="38.59736" lon="-2.55537">
        <ele>916.2819</ele>
        <time>2021-07-19T18:17:36Z</time>
      </trkpt>
      <trkpt lat="38.59843" lon="-2.55871">
        <ele>909.3319</ele>
        <time>2021-07-19T18:17:47Z</time>
      </trkpt>
      <trkpt lat="38.59998" lon="-2.56163">
        <ele>906.4006</ele>
        <time>2021-07-19T18:17:58Z</time>
      </trkpt>
      <trkpt lat="38.60167" lon="-2.56287">
        <ele>906.547</ele>
        <time>2021-07-19T18:18:09Z</time>
      </trkpt>
      <trkpt lat="38.60414" lon="-2.56217">
        <ele>925.4896</ele>
        <time>2021-07-19T18:18:20Z</time>
      </trkpt>
      <trkpt lat="38.60615" lon="-2.56281">
        <ele>942.6241</ele>
        <time>2021-07-19T18:18:31Z</time>
      </trkpt>
      <trkpt lat="38.60841" lon="-2.56236">
        <ele>936.4469</ele>
        <time>2021-07-19T18:18:42Z</time>
      </trkpt>
      <trkpt lat="38.61079" lon="-2.56189">
        <ele>929.7094</ele>
        <time>2021-07-19T18:18:53Z</time>
      </trkpt>
      <trkpt lat="38.612" lon="-2.55917">
        <ele>915.6321</ele>
        <time>2021-07-19T18:19:04Z</time>
      </trkpt>
      <trkpt lat="38.61305" lon="-2.55677">
        <ele>899.3943</ele>
        <time>2021-07-19T18:19:15Z</time>
      </trkpt>
      <trkpt lat="38.61511" lon="-2.55489">
        <ele>892.3355</ele>
        <time>2021-07-19T18:19:26Z</time>
      </trkpt>
      <trkpt lat="38.61686" lon="-2.55454">
        <ele>887.1545</ele>
        <time>2021-07-19T18:19:37Z</time>
      </trkpt>
      <trkpt lat="38.61861" lon="-2.55616">
        <ele>868.799</ele>
        <time>2021-07-19T18:19:48Z</time>
      </trkpt>
      <trkpt lat="38.61939" lon="-2.55888">
        <ele>859.0992</ele>
        <time>2021-07-19T18:19:59Z</time>
      </trkpt>
      <trkpt lat="38.62022" lon="-2.56176">
        <ele>850.8699</ele>
        <time>2021-07-19T18:20:10Z</time>
      </trkpt>
      <trkpt lat="38.62115" lon="-2.56444">
        <ele>847.7546</ele>
        <time>2021-07-19T18:20:21Z</time>
      </trkpt>
      <trkpt lat="38.62306" lon="-2.56586">
        <ele>846.9222</ele>
        <time>2021-07-19T18:20:32Z</time>
      </trkpt>
      <trkpt lat="38.62553" lon="-2.56588">
        <ele>846.5393</ele>
        <time>2021-07-19T18:20:43Z</time>
      </trkpt>
      <trkpt lat="38.62697" lon="-2.56722">
        <ele>836.5485</ele>
        <time>2021-07-19T18:20:54Z</time>
      </trkpt>
      <trkpt lat="38.62958" lon="-2.56717">
        <ele>833.0711</ele>
        <time>2021-07-19T18:21:05Z</time>
      </trkpt>
      <trkpt lat="38.63241" lon="-2.56697">
        <ele>832.1092</ele>
        <time>2021-07-19T18:21:16Z</time>
      </trkpt>
      <trkpt lat="38.63521" lon="-2.56678">
        <ele>832.2993</ele>
        <time>2021-07-19T18:21:27Z</time>
      </trkpt>
      <trkpt lat="38.63802" lon="-2.56659">
        <ele>831.0638</ele>
        <time>2021-07-19T18:21:38Z</time>
      </trkpt>
      <trkpt lat="38.64072" lon="-2.56633">
        <ele>825.7998</ele>
        <time>2021-07-19T18:21:49Z</time>
      </trkpt>
      <trkpt lat="38.64341" lon="-2.56604">
        <ele>823.8649</ele>
        <time>2021-07-19T18:22:00Z</time>
      </trkpt>
      <trkpt lat="38.64603" lon="-2.56568">
        <ele>823.2055</ele>
        <time>2021-07-19T18:22:11Z</time>
      </trkpt>
      <trkpt lat="38.64833" lon="-2.56402">
        <ele>826.329</ele>
        <time>2021-07-19T18:22:22Z</time>
      </trkpt>
      <trkpt lat="38.65062" lon="-2.56232">
        <ele>825.626</ele>
        <time>2021-07-19T18:22:33Z</time>
      </trkpt>
      <trkpt lat="38.65292" lon="-2.56059">
        <ele>830.853</ele>
        <time>2021-07-19T18:22:44Z</time>
      </trkpt>
      <trkpt lat="38.65509" lon="-2.55866">
        <ele>834.38</ele>
        <time>2021-07-19T18:22:55Z</time>
      </trkpt>
      <trkpt lat="38.65702" lon="-2.55643">
        <ele>837.1022</ele>
        <time>2021-07-19T18:23:06Z</time>
      </trkpt>
      <trkpt lat="38.65854" lon="-2.55366">
        <ele>835.7615</ele>
        <time>2021-07-19T18:23:17Z</time>
      </trkpt>
      <trkpt lat="38.66049" lon="-2.55134">
        <ele>834.0385</ele>
        <time>2021-07-19T18:23:28Z</time>
      </trkpt>
      <trkpt lat="38.66253" lon="-2.54898">
        <ele>832.8412</ele>
        <time>2021-07-19T18:23:39Z</time>
      </trkpt>
      <trkpt lat="38.66432" lon="-2.54639">
        <ele>834.3901</ele>
        <time>2021-07-19T18:23:50Z</time>
      </trkpt>
      <trkpt lat="38.66449" lon="-2.54297">
        <ele>838.6353</ele>
        <time>2021-07-19T18:24:01Z</time>
      </trkpt>
      <trkpt lat="38.66441" lon="-2.53967">
        <ele>842.8807</ele>
        <time>2021-07-19T18:24:12Z</time>
      </trkpt>
      <trkpt lat="38.6643" lon="-2.53627">
        <ele>846.0826</ele>
        <time>2021-07-19T18:24:23Z</time>
      </trkpt>
      <trkpt lat="38.66458" lon="-2.53283">
        <ele>848.7147</ele>
        <time>2021-07-19T18:24:34Z</time>
      </trkpt>
      <trkpt lat="38.6649" lon="-2.5294">
        <ele>854.9772</ele>
        <time>2021-07-19T18:24:45Z</time>
      </trkpt>
      <trkpt lat="38.66576" lon="-2.52626">
        <ele>854.4871</ele>
        <time>2021-07-19T18:24:56Z</time>
      </trkpt>
      <trkpt lat="38.66714" lon="-2.52338">
        <ele>855.3882</ele>
        <time>2021-07-19T18:25:07Z</time>
      </trkpt>
      <trkpt lat="38.6686" lon="-2.52037">
        <ele>859.3439</ele>
        <time>2021-07-19T18:25:18Z</time>
      </trkpt>
      <trkpt lat="38.67005" lon="-2.5174">
        <ele>864.8433</ele>
        <time>2021-07-19T18:25:29Z</time>
      </trkpt>
      <trkpt lat="38.67148" lon="-2.51445">
        <ele>868.3399</ele>
        <time>2021-07-19T18:25:40Z</time>
      </trkpt>
      <trkpt lat="38.6731" lon="-2.5116">
        <ele>869.6357</ele>
        <time>2021-07-19T18:25:51Z</time>
      </trkpt>
      <trkpt lat="38.6742" lon="-2.50832">
        <ele>873.4624</ele>
        <time>2021-07-19T18:26:02Z</time>
      </trkpt>
      <trkpt lat="38.67516" lon="-2.505">
        <ele>879.4526</ele>
        <time>2021-07-19T18:26:13Z</time>
      </trkpt>
      <trkpt lat="38.67478" lon="-2.50185">
        <ele>885.2024</ele>
        <time>2021-07-19T18:26:24Z</time>
      </trkpt>
      <trkpt lat="38.67342" lon="-2.49897">
        <ele>894.2562</ele>
        <time>2021-07-19T18:26:35Z</time>
      </trkpt>
      <trkpt lat="38.67291" lon="-2.49581">
        <ele>903.9116</ele>
        <time>2021-07-19T18:26:46Z</time>
      </trkpt>
      <trkpt lat="38.67271" lon="-2.49307">
        <ele>916.0416</ele>
        <time>2021-07-19T18:26:57Z</time>
      </trkpt>
      <trkpt lat="38.67414" lon="-2.49267">
        <ele>914.8515</ele>
        <time>2021-07-19T18:27:08Z</time>
      </trkpt>
      <trkpt lat="38.67599" lon="-2.49342">
        <ele>909.8507</ele>
        <time>2021-07-19T18:27:19Z</time>
      </trkpt>
      <trkpt lat="38.67808" lon="-2.49429">
        <ele>903.2877</ele>
        <time>2021-07-19T18:27:30Z</time>
      </trkpt>
      <trkpt lat="38.68008" lon="-2.49511">
        <ele>900.899</ele>
        <time>2021-07-19T18:27:41Z</time>
      </trkpt>
      <trkpt lat="38.68196" lon="-2.49573">
        <ele>900.0964</ele>
        <time>2021-07-19T18:27:52Z</time>
      </trkpt>
      <trkpt lat="38.68425" lon="-2.49523">
        <ele>898.1575</ele>
        <time>2021-07-19T18:28:03Z</time>
      </trkpt>
      <trkpt lat="38.68703" lon="-2.49416">
        <ele>913.9093</ele>
        <time>2021-07-19T18:28:14Z</time>
      </trkpt>
      <trkpt lat="38.68936" lon="-2.4921">
        <ele>919.8015</ele>
        <time>2021-07-19T18:28:25Z</time>
      </trkpt>
      <trkpt lat="38.69177" lon="-2.48996">
        <ele>924.6611</ele>
        <time>2021-07-19T18:28:36Z</time>
      </trkpt>
      <trkpt lat="38.69416" lon="-2.48782">
        <ele>924.7516</ele>
        <time>2021-07-19T18:28:47Z</time>
      </trkpt>
      <trkpt lat="38.69621" lon="-2.48509">
        <ele>916.0017</ele>
        <time>2021-07-19T18:28:58Z</time>
      </trkpt>
      <trkpt lat="38.69884" lon="-2.48337">
        <ele>921.3122</ele>
        <time>2021-07-19T18:29:09Z</time>
      </trkpt>
      <trkpt lat="38.70156" lon="-2.48118">
        <ele>930.2892</ele>
        <time>2021-07-19T18:29:20Z</time>
      </trkpt>
      <trkpt lat="38.70401" lon="-2.47898">
        <ele>937.0707</ele>
        <time>2021-07-19T18:29:31Z</time>
      </trkpt>
      <trkpt lat="38.70677" lon="-2.47751">
        <ele>944.9666</ele>
        <time>2021-07-19T18:29:42Z</time>
      </trkpt>
      <trkpt lat="38.70952" lon="-2.47592">
        <ele>951.2794</ele>
        <time>2021-07-19T18:29:53Z</time>
      </trkpt>
      <trkpt lat="38.71223" lon="-2.47436">
        <ele>959.5188</ele>
        <time>2021-07-19T18:30:04Z</time>
      </trkpt>
      <trkpt lat="38.71511" lon="-2.47358">
        <ele>966.8987</ele>
        <time>2021-07-19T18:30:15Z</time>
      </trkpt>
      <trkpt lat="38.71771" lon="-2.47206">
        <ele>970.8199</ele>
        <time>2021-07-19T18:30:26Z</time>
      </trkpt>
      <trkpt lat="38.7195" lon="-2.47031">
        <ele>976.287</ele>
        <time>2021-07-19T18:30:37Z</time>
      </trkpt>
      <trkpt lat="38.72089" lon="-2.46882">
        <ele>982.2715</ele>
        <time>2021-07-19T18:30:48Z</time>
      </trkpt>
      <trkpt lat="38.72249" lon="-2.46755">
        <ele>987.4824</ele>
        <time>2021-07-19T18:30:59Z</time>
      </trkpt>
      <trkpt lat="38.72456" lon="-2.46787">
        <ele>997.02</ele>
        <time>2021-07-19T18:31:10Z</time>
      </trkpt>
      <trkpt lat="38.72657" lon="-2.46996">
        <ele>1012.021</ele>
        <time>2021-07-19T18:31:21Z</time>
      </trkpt>
      <trkpt lat="38.72866" lon="-2.46999">
        <ele>1024.823</ele>
        <time>2021-07-19T18:31:32Z</time>
      </trkpt>
      <trkpt lat="38.73045" lon="-2.46866">
        <ele>1036.459</ele>
        <time>2021-07-19T18:31:43Z</time>
      </trkpt>
      <trkpt lat="38.73211" lon="-2.46694">
        <ele>1044.141</ele>
        <time>2021-07-19T18:31:54Z</time>
      </trkpt>
      <trkpt lat="38.73404" lon="-2.46662">
        <ele>1049.818</ele>
        <time>2021-07-19T18:32:05Z</time>
      </trkpt>
      <trkpt lat="38.73595" lon="-2.46592">
        <ele>1059.271</ele>
        <time>2021-07-19T18:32:16Z</time>
      </trkpt>
      <trkpt lat="38.73757" lon="-2.4633">
        <ele>1066.841</ele>
        <time>2021-07-19T18:32:27Z</time>
      </trkpt>
      <trkpt lat="38.73944" lon="-2.46041">
        <ele>1067.254</ele>
        <time>2021-07-19T18:32:38Z</time>
      </trkpt>
      <trkpt lat="38.74171" lon="-2.45746">
        <ele>1052.293</ele>
        <time>2021-07-19T18:32:49Z</time>
      </trkpt>
      <trkpt lat="38.74401" lon="-2.45565">
        <ele>1053.32</ele>
        <time>2021-07-19T18:33:00Z</time>
      </trkpt>
      <trkpt lat="38.74702" lon="-2.45604">
        <ele>1056.728</ele>
        <time>2021-07-19T18:33:11Z</time>
      </trkpt>
      <trkpt lat="38.75008" lon="-2.45573">
        <ele>1044.12</ele>
        <time>2021-07-19T18:33:22Z</time>
      </trkpt>
      <trkpt lat="38.75329" lon="-2.45574">
        <ele>1047.067</ele>
        <time>2021-07-19T18:33:33Z</time>
      </trkpt>
      <trkpt lat="38.75614" lon="-2.45508">
        <ele>1049.817</ele>
        <time>2021-07-19T18:33:44Z</time>
      </trkpt>
      <trkpt lat="38.75763" lon="-2.45252">
        <ele>1041.396</ele>
        <time>2021-07-19T18:33:55Z</time>
      </trkpt>
      <trkpt lat="38.75907" lon="-2.4506">
        <ele>1033.183</ele>
        <time>2021-07-19T18:34:06Z</time>
      </trkpt>
      <trkpt lat="38.76066" lon="-2.44917">
        <ele>1026.708</ele>
        <time>2021-07-19T18:34:17Z</time>
      </trkpt>
      <trkpt lat="38.76276" lon="-2.44899">
        <ele>1019.469</ele>
        <time>2021-07-19T18:34:28Z</time>
      </trkpt>
      <trkpt lat="38.76537" lon="-2.44949">
        <ele>1013.812</ele>
        <time>2021-07-19T18:34:39Z</time>
      </trkpt>
      <trkpt lat="38.76786" lon="-2.44997">
        <ele>1010.221</ele>
        <time>2021-07-19T18:34:50Z</time>
      </trkpt>
      <trkpt lat="38.77075" lon="-2.45052">
        <ele>1006.9</ele>
        <time>2021-07-19T18:35:01Z</time>
      </trkpt>
      <trkpt lat="38.77364" lon="-2.45027">
        <ele>1003.984</ele>
        <time>2021-07-19T18:35:12Z</time>
      </trkpt>
      <trkpt lat="38.77534" lon="-2.44768">
        <ele>1001.93</ele>
        <time>2021-07-19T18:35:23Z</time>
      </trkpt>
      <trkpt lat="38.77639" lon="-2.44415">
        <ele>995.5434</ele>
        <time>2021-07-19T18:35:34Z</time>
      </trkpt>
      <trkpt lat="38.77684" lon="-2.441">
        <ele>988.7773</ele>
        <time>2021-07-19T18:35:45Z</time>
      </trkpt>
      <trkpt lat="38.77674" lon="-2.43844">
        <ele>985.9427</ele>
        <time>2021-07-19T18:35:56Z</time>
      </trkpt>
      <trkpt lat="38.77594" lon="-2.43555">
        <ele>980.6605</ele>
        <time>2021-07-19T18:36:07Z</time>
      </trkpt>
      <trkpt lat="38.77643" lon="-2.43242">
        <ele>975.3961</ele>
        <time>2021-07-19T18:36:18Z</time>
      </trkpt>
      <trkpt lat="38.77498" lon="-2.42972">
        <ele>973.6668</ele>
        <time>2021-07-19T18:36:30Z</time>
      </trkpt>
      <trkpt lat="38.77358" lon="-2.42671">
        <ele>964.2312</ele>
        <time>2021-07-19T18:36:41Z</time>
      </trkpt>
      <trkpt lat="38.7733" lon="-2.42308">
        <ele>961.3963</ele>
        <time>2021-07-19T18:36:52Z</time>
      </trkpt>
      <trkpt lat="38.77404" lon="-2.42006">
        <ele>957.8485</ele>
        <time>2021-07-19T18:37:03Z</time>
      </trkpt>
      <trkpt lat="38.7741" lon="-2.41703">
        <ele>948.163</ele>
        <time>2021-07-19T18:37:14Z</time>
      </trkpt>
      <trkpt lat="38.77443" lon="-2.41358">
        <ele>941.6187</ele>
        <time>2021-07-19T18:37:25Z</time>
      </trkpt>
      <trkpt lat="38.77478" lon="-2.40983">
        <ele>935.7736</ele>
        <time>2021-07-19T18:37:36Z</time>
      </trkpt>
      <trkpt lat="38.77516" lon="-2.40582">
        <ele>932.868</ele>
        <time>2021-07-19T18:37:47Z</time>
      </trkpt>
      <trkpt lat="38.77572" lon="-2.40212">
        <ele>928.2513</ele>
        <time>2021-07-19T18:37:58Z</time>
      </trkpt>
      <trkpt lat="38.77629" lon="-2.39841">
        <ele>926.9066</ele>
        <time>2021-07-19T18:38:09Z</time>
      </trkpt>
      <trkpt lat="38.77641" lon="-2.39501">
        <ele>926.5214</ele>
        <time>2021-07-19T18:38:20Z</time>
      </trkpt>
      <trkpt lat="38.77814" lon="-2.39254">
        <ele>926.784</ele>
        <time>2021-07-19T18:38:31Z</time>
      </trkpt>
      <trkpt lat="38.78039" lon="-2.39048">
        <ele>924.6424</ele>
        <time>2021-07-19T18:38:42Z</time>
      </trkpt>
      <trkpt lat="38.78302" lon="-2.38848">
        <ele>919.0685</ele>
        <time>2021-07-19T18:38:53Z</time>
      </trkpt>
      <trkpt lat="38.78489" lon="-2.38725">
        <ele>916.2328</ele>
        <time>2021-07-19T18:39:04Z</time>
      </trkpt>
      <trkpt lat="38.78663" lon="-2.38605">
        <ele>917.8815</ele>
        <time>2021-07-19T18:39:15Z</time>
      </trkpt>
      <trkpt lat="38.78733" lon="-2.38372">
        <ele>916.984</ele>
        <time>2021-07-19T18:39:26Z</time>
      </trkpt>
      <trkpt lat="38.78707" lon="-2.38098">
        <ele>914.3239</ele>
        <time>2021-07-19T18:39:37Z</time>
      </trkpt>
      <trkpt lat="38.78767" lon="-2.37823">
        <ele>914.9449</ele>
        <time>2021-07-19T18:39:48Z</time>
      </trkpt>
      <trkpt lat="38.79005" lon="-2.37796">
        <ele>915.7394</ele>
        <time>2021-07-19T18:39:59Z</time>
      </trkpt>
      <trkpt lat="38.79172" lon="-2.37569">
        <ele>913.7561</ele>
        <time>2021-07-19T18:40:10Z</time>
      </trkpt>
      <trkpt lat="38.79334" lon="-2.37412">
        <ele>912.5894</ele>
        <time>2021-07-19T18:40:21Z</time>
      </trkpt>
      <trkpt lat="38.79549" lon="-2.37294">
        <ele>913.2858</ele>
        <time>2021-07-19T18:40:32Z</time>
      </trkpt>
      <trkpt lat="38.79702" lon="-2.37043">
        <ele>912.8397</ele>
        <time>2021-07-19T18:40:43Z</time>
      </trkpt>
      <trkpt lat="38.79794" lon="-2.36703">
        <ele>915.1104</ele>
        <time>2021-07-19T18:40:54Z</time>
      </trkpt>
      <trkpt lat="38.79887" lon="-2.36357">
        <ele>915.623</ele>
        <time>2021-07-19T18:41:05Z</time>
      </trkpt>
      <trkpt lat="38.80026" lon="-2.36054">
        <ele>914.8376</ele>
        <time>2021-07-19T18:41:16Z</time>
      </trkpt>
      <trkpt lat="38.80069" lon="-2.35693">
        <ele>911.6089</ele>
        <time>2021-07-19T18:41:27Z</time>
      </trkpt>
      <trkpt lat="38.8015" lon="-2.35349">
        <ele>911.5955</ele>
        <time>2021-07-19T18:41:38Z</time>
      </trkpt>
      <trkpt lat="38.80127" lon="-2.34989">
        <ele>910.0967</ele>
        <time>2021-07-19T18:41:49Z</time>
      </trkpt>
      <trkpt lat="38.80011" lon="-2.34651">
        <ele>909.2134</ele>
        <time>2021-07-19T18:42:00Z</time>
      </trkpt>
      <trkpt lat="38.79975" lon="-2.34294">
        <ele>906.3709</ele>
        <time>2021-07-19T18:42:11Z</time>
      </trkpt>
      <trkpt lat="38.80054" lon="-2.33944">
        <ele>900.4639</ele>
        <time>2021-07-19T18:42:22Z</time>
      </trkpt>
      <trkpt lat="38.80118" lon="-2.33603">
        <ele>899.7977</ele>
        <time>2021-07-19T18:42:33Z</time>
      </trkpt>
      <trkpt lat="38.80098" lon="-2.33279">
        <ele>901.2912</ele>
        <time>2021-07-19T18:42:44Z</time>
      </trkpt>
      <trkpt lat="38.80305" lon="-2.33117">
        <ele>898.8382</ele>
        <time>2021-07-19T18:42:55Z</time>
      </trkpt>
      <trkpt lat="38.80534" lon="-2.3306">
        <ele>894.5871</ele>
        <time>2021-07-19T18:43:06Z</time>
      </trkpt>
      <trkpt lat="38.80594" lon="-2.32894">
        <ele>898.7021</ele>
        <time>2021-07-19T18:43:17Z</time>
      </trkpt>
      <trkpt lat="38.80627" lon="-2.32759">
        <ele>899.7535</ele>
        <time>2021-07-19T18:43:28Z</time>
      </trkpt>
      <trkpt lat="38.80718" lon="-2.32675">
        <ele>897.6322</ele>
        <time>2021-07-19T18:43:39Z</time>
      </trkpt>
      <trkpt lat="38.80835" lon="-2.32742">
        <ele>895.9495</ele>
        <time>2021-07-19T18:43:50Z</time>
      </trkpt>
      <trkpt lat="38.80931" lon="-2.328">
        <ele>897.5624</ele>
        <time>2021-07-19T18:44:01Z</time>
      </trkpt>
      <trkpt lat="38.81045" lon="-2.32761">
        <ele>896.6626</ele>
        <time>2021-07-19T18:44:12Z</time>
      </trkpt>
      <trkpt lat="38.81131" lon="-2.32676">
        <ele>896.6245</ele>
        <time>2021-07-19T18:44:23Z</time>
      </trkpt>
      <trkpt lat="38.81215" lon="-2.3259">
        <ele>897.6259</ele>
        <time>2021-07-19T18:44:34Z</time>
      </trkpt>
      <trkpt lat="38.81271" lon="-2.32501">
        <ele>895.881</ele>
        <time>2021-07-19T18:44:45Z</time>
      </trkpt>
      <trkpt lat="38.81275" lon="-2.32368">
        <ele>896.2485</ele>
        <time>2021-07-19T18:44:56Z</time>
      </trkpt>
      <trkpt lat="38.81243" lon="-2.32243">
        <ele>894.5632</ele>
        <time>2021-07-19T18:45:07Z</time>
      </trkpt>
      <trkpt lat="38.81125" lon="-2.32149">
        <ele>891.2409</ele>
        <time>2021-07-19T18:45:18Z</time>
      </trkpt>
      <trkpt lat="38.81036" lon="-2.32007">
        <ele>889.7673</ele>
        <time>2021-07-19T18:45:29Z</time>
      </trkpt>
      <trkpt lat="38.81061" lon="-2.31755">
        <ele>886.9359</ele>
        <time>2021-07-19T18:45:40Z</time>
      </trkpt>
      <trkpt lat="38.81107" lon="-2.31434">
        <ele>883.1364</ele>
        <time>2021-07-19T18:45:51Z</time>
      </trkpt>
      <trkpt lat="38.81131" lon="-2.31123">
        <ele>879.9955</ele>
        <time>2021-07-19T18:46:02Z</time>
      </trkpt>
      <trkpt lat="38.8103" lon="-2.30885">
        <ele>879.258</ele>
        <time>2021-07-19T18:46:13Z</time>
      </trkpt>
      <trkpt lat="38.81131" lon="-2.30708">
        <ele>878.4164</ele>
        <time>2021-07-19T18:46:24Z</time>
      </trkpt>
      <trkpt lat="38.81213" lon="-2.30478">
        <ele>879.0645</ele>
        <time>2021-07-19T18:46:35Z</time>
      </trkpt>
      <trkpt lat="38.81034" lon="-2.30349">
        <ele>880.4166</ele>
        <time>2021-07-19T18:46:46Z</time>
      </trkpt>
      <trkpt lat="38.80999" lon="-2.30097">
        <ele>873.8507</ele>
        <time>2021-07-19T18:46:57Z</time>
      </trkpt>
      <trkpt lat="38.81144" lon="-2.29887">
        <ele>872.0904</ele>
        <time>2021-07-19T18:47:08Z</time>
      </trkpt>
      <trkpt lat="38.81191" lon="-2.29597">
        <ele>871.0213</ele>
        <time>2021-07-19T18:47:19Z</time>
      </trkpt>
      <trkpt lat="38.81273" lon="-2.29465">
        <ele>869.4138</ele>
        <time>2021-07-19T18:47:30Z</time>
      </trkpt>
      <trkpt lat="38.81449" lon="-2.29457">
        <ele>863.9181</ele>
        <time>2021-07-19T18:47:41Z</time>
      </trkpt>
      <trkpt lat="38.81514" lon="-2.29158">
        <ele>868.0258</ele>
        <time>2021-07-19T18:47:52Z</time>
      </trkpt>
      <trkpt lat="38.81367" lon="-2.28972">
        <ele>864.3359</ele>
        <time>2021-07-19T18:48:03Z</time>
      </trkpt>
      <trkpt lat="38.81456" lon="-2.28822">
        <ele>863.6896</ele>
        <time>2021-07-19T18:48:14Z</time>
      </trkpt>
      <trkpt lat="38.81663" lon="-2.28816">
        <ele>861.7272</ele>
        <time>2021-07-19T18:48:25Z</time>
      </trkpt>
      <trkpt lat="38.8176" lon="-2.28603">
        <ele>860.0653</ele>
        <time>2021-07-19T18:48:36Z</time>
      </trkpt>
      <trkpt lat="38.8173" lon="-2.28303">
        <ele>857.3649</ele>
        <time>2021-07-19T18:48:47Z</time>
      </trkpt>
      <trkpt lat="38.81811" lon="-2.28036">
        <ele>852.7608</ele>
        <time>2021-07-19T18:48:58Z</time>
      </trkpt>
      <trkpt lat="38.82043" lon="-2.27981">
        <ele>850.2114</ele>
        <time>2021-07-19T18:49:09Z</time>
      </trkpt>
      <trkpt lat="38.82248" lon="-2.28116">
        <ele>851.4548</ele>
        <time>2021-07-19T18:49:20Z</time>
      </trkpt>
      <trkpt lat="38.8243" lon="-2.28026">
        <ele>851.4883</ele>
        <time>2021-07-19T18:49:31Z</time>
      </trkpt>
      <trkpt lat="38.82429" lon="-2.27755">
        <ele>851.9325</ele>
        <time>2021-07-19T18:49:42Z</time>
      </trkpt>
      <trkpt lat="38.82263" lon="-2.27574">
        <ele>850.4063</ele>
        <time>2021-07-19T18:49:53Z</time>
      </trkpt>
      <trkpt lat="38.82272" lon="-2.27314">
        <ele>847.8388</ele>
        <time>2021-07-19T18:50:04Z</time>
      </trkpt>
      <trkpt lat="38.82468" lon="-2.27172">
        <ele>849.7816</ele>
        <time>2021-07-19T18:50:15Z</time>
      </trkpt>
      <trkpt lat="38.82673" lon="-2.27295">
        <ele>844.6555</ele>
        <time>2021-07-19T18:50:26Z</time>
      </trkpt>
      <trkpt lat="38.82783" lon="-2.27076">
        <ele>843.3215</ele>
        <time>2021-07-19T18:50:37Z</time>
      </trkpt>
      <trkpt lat="38.82767" lon="-2.2677">
        <ele>840.8723</ele>
        <time>2021-07-19T18:50:48Z</time>
      </trkpt>
      <trkpt lat="38.82648" lon="-2.26526">
        <ele>836.0815</ele>
        <time>2021-07-19T18:50:59Z</time>
      </trkpt>
      <trkpt lat="38.82636" lon="-2.26251">
        <ele>839.1221</ele>
        <time>2021-07-19T18:51:10Z</time>
      </trkpt>
      <trkpt lat="38.82656" lon="-2.25958">
        <ele>836.2667</ele>
        <time>2021-07-19T18:51:21Z</time>
      </trkpt>
      <trkpt lat="38.82745" lon="-2.25659">
        <ele>835.6722</ele>
        <time>2021-07-19T18:51:32Z</time>
      </trkpt>
      <trkpt lat="38.82843" lon="-2.25393">
        <ele>833.9848</ele>
        <time>2021-07-19T18:51:43Z</time>
      </trkpt>
      <trkpt lat="38.83061" lon="-2.25232">
        <ele>835.0004</ele>
        <time>2021-07-19T18:51:54Z</time>
      </trkpt>
      <trkpt lat="38.83173" lon="-2.24977">
        <ele>835.8806</ele>
        <time>2021-07-19T18:52:05Z</time>
      </trkpt>
      <trkpt lat="38.83129" lon="-2.2473">
        <ele>834.7478</ele>
        <time>2021-07-19T18:52:16Z</time>
      </trkpt>
      <trkpt lat="38.83128" lon="-2.24516">
        <ele>832.1353</ele>
        <time>2021-07-19T18:52:27Z</time>
      </trkpt>
      <trkpt lat="38.83339" lon="-2.24297">
        <ele>825.4912</ele>
        <time>2021-07-19T18:52:38Z</time>
      </trkpt>
      <trkpt lat="38.83571" lon="-2.24063">
        <ele>823.0912</ele>
        <time>2021-07-19T18:52:49Z</time>
      </trkpt>
      <trkpt lat="38.83804" lon="-2.23833">
        <ele>821.5943</ele>
        <time>2021-07-19T18:53:00Z</time>
      </trkpt>
      <trkpt lat="38.84001" lon="-2.23594">
        <ele>820.2444</ele>
        <time>2021-07-19T18:53:11Z</time>
      </trkpt>
      <trkpt lat="38.84151" lon="-2.23349">
        <ele>819.243</ele>
        <time>2021-07-19T18:53:22Z</time>
      </trkpt>
      <trkpt lat="38.84289" lon="-2.23076">
        <ele>815.9807</ele>
        <time>2021-07-19T18:53:33Z</time>
      </trkpt>
      <trkpt lat="38.84491" lon="-2.23012">
        <ele>819.5177</ele>
        <time>2021-07-19T18:53:44Z</time>
      </trkpt>
      <trkpt lat="38.84711" lon="-2.22948">
        <ele>818.2972</ele>
        <time>2021-07-19T18:53:55Z</time>
      </trkpt>
      <trkpt lat="38.84933" lon="-2.22774">
        <ele>818.9441</ele>
        <time>2021-07-19T18:54:06Z</time>
      </trkpt>
      <trkpt lat="38.85206" lon="-2.22638">
        <ele>814.5956</ele>
        <time>2021-07-19T18:54:17Z</time>
      </trkpt>
      <trkpt lat="38.85486" lon="-2.22522">
        <ele>812.3036</ele>
        <time>2021-07-19T18:54:28Z</time>
      </trkpt>
      <trkpt lat="38.85617" lon="-2.22203">
        <ele>814.8811</ele>
        <time>2021-07-19T18:54:39Z</time>
      </trkpt>
      <trkpt lat="38.85693" lon="-2.21862">
        <ele>819.1482</ele>
        <time>2021-07-19T18:54:50Z</time>
      </trkpt>
      <trkpt lat="38.85828" lon="-2.2159">
        <ele>822.7037</ele>
        <time>2021-07-19T18:55:01Z</time>
      </trkpt>
      <trkpt lat="38.86006" lon="-2.2131">
        <ele>816.4777</ele>
        <time>2021-07-19T18:55:12Z</time>
      </trkpt>
      <trkpt lat="38.86079" lon="-2.2098">
        <ele>812.6631</ele>
        <time>2021-07-19T18:55:23Z</time>
      </trkpt>
      <trkpt lat="38.86014" lon="-2.20673">
        <ele>806.2499</ele>
        <time>2021-07-19T18:55:34Z</time>
      </trkpt>
      <trkpt lat="38.86233" lon="-2.20561">
        <ele>799.4219</ele>
        <time>2021-07-19T18:55:45Z</time>
      </trkpt>
      <trkpt lat="38.86505" lon="-2.205">
        <ele>796.2461</ele>
        <time>2021-07-19T18:55:56Z</time>
      </trkpt>
      <trkpt lat="38.86777" lon="-2.20431">
        <ele>796.4802</ele>
        <time>2021-07-19T18:56:07Z</time>
      </trkpt>
      <trkpt lat="38.87051" lon="-2.20446">
        <ele>795.8674</ele>
        <time>2021-07-19T18:56:18Z</time>
      </trkpt>
      <trkpt lat="38.87293" lon="-2.20323">
        <ele>795.6499</ele>
        <time>2021-07-19T18:56:29Z</time>
      </trkpt>
      <trkpt lat="38.87504" lon="-2.20147">
        <ele>793.2222</ele>
        <time>2021-07-19T18:56:40Z</time>
      </trkpt>
      <trkpt lat="38.87747" lon="-2.20074">
        <ele>790.4772</ele>
        <time>2021-07-19T18:56:51Z</time>
      </trkpt>
      <trkpt lat="38.87928" lon="-2.19917">
        <ele>788.6072</ele>
        <time>2021-07-19T18:57:02Z</time>
      </trkpt>
      <trkpt lat="38.87943" lon="-2.19653">
        <ele>787.6643</ele>
        <time>2021-07-19T18:57:13Z</time>
      </trkpt>
      <trkpt lat="38.87887" lon="-2.19392">
        <ele>784.5986</ele>
        <time>2021-07-19T18:57:24Z</time>
      </trkpt>
      <trkpt lat="38.88093" lon="-2.19275">
        <ele>784.4731</ele>
        <time>2021-07-19T18:57:35Z</time>
      </trkpt>
      <trkpt lat="38.88267" lon="-2.19083">
        <ele>783.9671</ele>
        <time>2021-07-19T18:57:46Z</time>
      </trkpt>
      <trkpt lat="38.88249" lon="-2.18778">
        <ele>783.9034</ele>
        <time>2021-07-19T18:57:57Z</time>
      </trkpt>
      <trkpt lat="38.88363" lon="-2.1847">
        <ele>786.5548</ele>
        <time>2021-07-19T18:58:08Z</time>
      </trkpt>
      <trkpt lat="38.88476" lon="-2.18182">
        <ele>790.6873</ele>
        <time>2021-07-19T18:58:19Z</time>
      </trkpt>
      <trkpt lat="38.88591" lon="-2.17886">
        <ele>783.0556</ele>
        <time>2021-07-19T18:58:30Z</time>
      </trkpt>
      <trkpt lat="38.88654" lon="-2.17564">
        <ele>780.2476</ele>
        <time>2021-07-19T18:58:41Z</time>
      </trkpt>
      <trkpt lat="38.88548" lon="-2.17249">
        <ele>778.2053</ele>
        <time>2021-07-19T18:58:52Z</time>
      </trkpt>
      <trkpt lat="38.88381" lon="-2.16971">
        <ele>777.4991</ele>
        <time>2021-07-19T18:59:03Z</time>
      </trkpt>
      <trkpt lat="38.88268" lon="-2.16642">
        <ele>779.4607</ele>
        <time>2021-07-19T18:59:14Z</time>
      </trkpt>
      <trkpt lat="38.88162" lon="-2.16325">
        <ele>777.8467</ele>
        <time>2021-07-19T18:59:25Z</time>
      </trkpt>
      <trkpt lat="38.88075" lon="-2.15991">
        <ele>773.9561</ele>
        <time>2021-07-19T18:59:36Z</time>
      </trkpt>
      <trkpt lat="38.87938" lon="-2.15688">
        <ele>771.4488</ele>
        <time>2021-07-19T18:59:47Z</time>
      </trkpt>
      <trkpt lat="38.8784" lon="-2.15371">
        <ele>770.3656</ele>
        <time>2021-07-19T18:59:58Z</time>
      </trkpt>
      <trkpt lat="38.87823" lon="-2.15063">
        <ele>767.8356</ele>
        <time>2021-07-19T19:00:09Z</time>
      </trkpt>
      <trkpt lat="38.87899" lon="-2.14781">
        <ele>767.0131</ele>
        <time>2021-07-19T19:00:20Z</time>
      </trkpt>
      <trkpt lat="38.8804" lon="-2.14523">
        <ele>766.9632</ele>
        <time>2021-07-19T19:00:31Z</time>
      </trkpt>
      <trkpt lat="38.88149" lon="-2.14246">
        <ele>765.6047</ele>
        <time>2021-07-19T19:00:42Z</time>
      </trkpt>
      <trkpt lat="38.88211" lon="-2.1398">
        <ele>764.6648</ele>
        <time>2021-07-19T19:00:53Z</time>
      </trkpt>
      <trkpt lat="38.88318" lon="-2.13689">
        <ele>763.7121</ele>
        <time>2021-07-19T19:01:04Z</time>
      </trkpt>
      <trkpt lat="38.8847" lon="-2.13375">
        <ele>761.765</ele>
        <time>2021-07-19T19:01:15Z</time>
      </trkpt>
      <trkpt lat="38.88628" lon="-2.13054">
        <ele>760.3323</ele>
        <time>2021-07-19T19:01:26Z</time>
      </trkpt>
      <trkpt lat="38.88773" lon="-2.12747">
        <ele>760.5811</ele>
        <time>2021-07-19T19:01:37Z</time>
      </trkpt>
      <trkpt lat="38.88897" lon="-2.12434">
        <ele>758.7177</ele>
        <time>2021-07-19T19:01:48Z</time>
      </trkpt>
      <trkpt lat="38.89017" lon="-2.12132">
        <ele>754.4346</ele>
        <time>2021-07-19T19:01:59Z</time>
      </trkpt>
      <trkpt lat="38.89143" lon="-2.11819">
        <ele>752.6139</ele>
        <time>2021-07-19T19:02:10Z</time>
      </trkpt>
      <trkpt lat="38.89271" lon="-2.11497">
        <ele>749.9679</ele>
        <time>2021-07-19T19:02:21Z</time>
      </trkpt>
      <trkpt lat="38.894" lon="-2.11176">
        <ele>746.6763</ele>
        <time>2021-07-19T19:02:32Z</time>
      </trkpt>
      <trkpt lat="38.89525" lon="-2.1086">
        <ele>744.7237</ele>
        <time>2021-07-19T19:02:43Z</time>
      </trkpt>
      <trkpt lat="38.89649" lon="-2.10551">
        <ele>743.0177</ele>
        <time>2021-07-19T19:02:54Z</time>
      </trkpt>
      <trkpt lat="38.8977" lon="-2.10247">
        <ele>741.3212</ele>
        <time>2021-07-19T19:03:05Z</time>
      </trkpt>
      <trkpt lat="38.8989" lon="-2.09944">
        <ele>739.4281</ele>
        <time>2021-07-19T19:03:16Z</time>
      </trkpt>
      <trkpt lat="38.90013" lon="-2.09637">
        <ele>737.9705</ele>
        <time>2021-07-19T19:03:27Z</time>
      </trkpt>
      <trkpt lat="38.90137" lon="-2.09324">
        <ele>735.3674</ele>
        <time>2021-07-19T19:03:38Z</time>
      </trkpt>
      <trkpt lat="38.90262" lon="-2.09012">
        <ele>734.454</ele>
        <time>2021-07-19T19:03:49Z</time>
      </trkpt>
      <trkpt lat="38.90386" lon="-2.08699">
        <ele>732.822</ele>
        <time>2021-07-19T19:04:00Z</time>
      </trkpt>
      <trkpt lat="38.9051" lon="-2.08389">
        <ele>731.0766</ele>
        <time>2021-07-19T19:04:11Z</time>
      </trkpt>
      <trkpt lat="38.90634" lon="-2.08077">
        <ele>730.8568</ele>
        <time>2021-07-19T19:04:22Z</time>
      </trkpt>
      <trkpt lat="38.90757" lon="-2.07768">
        <ele>729.1339</ele>
        <time>2021-07-19T19:04:33Z</time>
      </trkpt>
      <trkpt lat="38.90882" lon="-2.07454">
        <ele>725.6075</ele>
        <time>2021-07-19T19:04:44Z</time>
      </trkpt>
      <trkpt lat="38.91006" lon="-2.07144">
        <ele>723.5987</ele>
        <time>2021-07-19T19:04:55Z</time>
      </trkpt>
      <trkpt lat="38.91129" lon="-2.06837">
        <ele>722.5082</ele>
        <time>2021-07-19T19:05:06Z</time>
      </trkpt>
      <trkpt lat="38.9125" lon="-2.06531">
        <ele>721.7216</ele>
        <time>2021-07-19T19:05:17Z</time>
      </trkpt>
      <trkpt lat="38.91372" lon="-2.06226">
        <ele>720.9216</ele>
        <time>2021-07-19T19:05:28Z</time>
      </trkpt>
      <trkpt lat="38.91495" lon="-2.05917">
        <ele>718.8969</ele>
        <time>2021-07-19T19:05:39Z</time>
      </trkpt>
      <trkpt lat="38.9162" lon="-2.05603">
        <ele>716.9053</ele>
        <time>2021-07-19T19:05:50Z</time>
      </trkpt>
      <trkpt lat="38.91746" lon="-2.05288">
        <ele>715.6135</ele>
        <time>2021-07-19T19:06:01Z</time>
      </trkpt>
      <trkpt lat="38.9187" lon="-2.04978">
        <ele>714.0027</ele>
        <time>2021-07-19T19:06:12Z</time>
      </trkpt>
      <trkpt lat="38.9199" lon="-2.04675">
        <ele>714.43</ele>
        <time>2021-07-19T19:06:23Z</time>
      </trkpt>
      <trkpt lat="38.92114" lon="-2.04363">
        <ele>711.712</ele>
        <time>2021-07-19T19:06:34Z</time>
      </trkpt>
      <trkpt lat="38.92235" lon="-2.0406">
        <ele>709.4297</ele>
        <time>2021-07-19T19:06:45Z</time>
      </trkpt>
      <trkpt lat="38.92344" lon="-2.03785">
        <ele>708.88</ele>
        <time>2021-07-19T19:06:56Z</time>
      </trkpt>
      <trkpt lat="38.92458" lon="-2.03497">
        <ele>707.7032</ele>
        <time>2021-07-19T19:07:07Z</time>
      </trkpt>
      <trkpt lat="38.92569" lon="-2.03221">
        <ele>704.7048</ele>
        <time>2021-07-19T19:07:18Z</time>
      </trkpt>
      <trkpt lat="38.92672" lon="-2.0296">
        <ele>706.3953</ele>
        <time>2021-07-19T19:07:29Z</time>
      </trkpt>
      <trkpt lat="38.92778" lon="-2.02693">
        <ele>705.0168</ele>
        <time>2021-07-19T19:07:40Z</time>
      </trkpt>
      <trkpt lat="38.92895" lon="-2.02403">
        <ele>702.2743</ele>
        <time>2021-07-19T19:07:51Z</time>
      </trkpt>
      <trkpt lat="38.93004" lon="-2.0213">
        <ele>704.1743</ele>
        <time>2021-07-19T19:08:02Z</time>
      </trkpt>
      <trkpt lat="38.93112" lon="-2.01857">
        <ele>704.0644</ele>
        <time>2021-07-19T19:08:13Z</time>
      </trkpt>
      <trkpt lat="38.93226" lon="-2.01574">
        <ele>704.3982</ele>
        <time>2021-07-19T19:08:24Z</time>
      </trkpt>
      <trkpt lat="38.93361" lon="-2.01232">
        <ele>701.7241</ele>
        <time>2021-07-19T19:08:35Z</time>
      </trkpt>
      <trkpt lat="38.93497" lon="-2.00888">
        <ele>699.0574</ele>
        <time>2021-07-19T19:08:46Z</time>
      </trkpt>
      <trkpt lat="38.93632" lon="-2.0055">
        <ele>697.0659</ele>
        <time>2021-07-19T19:08:57Z</time>
      </trkpt>
      <trkpt lat="38.93767" lon="-2.0021">
        <ele>694.653</ele>
        <time>2021-07-19T19:09:08Z</time>
      </trkpt>
      <trkpt lat="38.93904" lon="-1.99862">
        <ele>695.5665</ele>
        <time>2021-07-19T19:09:19Z</time>
      </trkpt>
      <trkpt lat="38.94045" lon="-1.99508">
        <ele>694.3425</ele>
        <time>2021-07-19T19:09:30Z</time>
      </trkpt>
      <trkpt lat="38.94183" lon="-1.99162">
        <ele>694.4708</ele>
        <time>2021-07-19T19:09:41Z</time>
      </trkpt>
      <trkpt lat="38.94313" lon="-1.98834">
        <ele>692.3839</ele>
        <time>2021-07-19T19:09:52Z</time>
      </trkpt>
      <trkpt lat="38.94444" lon="-1.98504">
        <ele>691.0854</ele>
        <time>2021-07-19T19:10:03Z</time>
      </trkpt>
      <trkpt lat="38.94574" lon="-1.98176">
        <ele>690.679</ele>
        <time>2021-07-19T19:10:14Z</time>
      </trkpt>
      <trkpt lat="38.94698" lon="-1.97867">
        <ele>698.6406</ele>
        <time>2021-07-19T19:10:25Z</time>
      </trkpt>
      <trkpt lat="38.94816" lon="-1.97569">
        <ele>690.913</ele>
        <time>2021-07-19T19:10:36Z</time>
      </trkpt>
      <trkpt lat="38.94936" lon="-1.97267">
        <ele>690.0591</ele>
        <time>2021-07-19T19:10:47Z</time>
      </trkpt>
      <trkpt lat="38.95052" lon="-1.96972">
        <ele>690.164</ele>
        <time>2021-07-19T19:10:58Z</time>
      </trkpt>
      <trkpt lat="38.95164" lon="-1.96694">
        <ele>690.4115</ele>
        <time>2021-07-19T19:11:09Z</time>
      </trkpt>
      <trkpt lat="38.95274" lon="-1.96415">
        <ele>690.936</ele>
        <time>2021-07-19T19:11:20Z</time>
      </trkpt>
      <trkpt lat="38.95388" lon="-1.96129">
        <ele>691.2161</ele>
        <time>2021-07-19T19:11:31Z</time>
      </trkpt>
      <trkpt lat="38.95504" lon="-1.95845">
        <ele>694.6855</ele>
        <time>2021-07-19T19:11:42Z</time>
      </trkpt>
      <trkpt lat="38.95601" lon="-1.95594">
        <ele>702.4101</ele>
        <time>2021-07-19T19:11:53Z</time>
      </trkpt>
      <trkpt lat="38.95704" lon="-1.95333">
        <ele>703.1691</ele>
        <time>2021-07-19T19:12:04Z</time>
      </trkpt>
      <trkpt lat="38.95807" lon="-1.9508">
        <ele>699.7994</ele>
        <time>2021-07-19T19:12:15Z</time>
      </trkpt>
      <trkpt lat="38.95901" lon="-1.94841">
        <ele>695.53</ele>
        <time>2021-07-19T19:12:26Z</time>
      </trkpt>
      <trkpt lat="38.95993" lon="-1.94611">
        <ele>698.5207</ele>
        <time>2021-07-19T19:12:37Z</time>
      </trkpt>
      <trkpt lat="38.96077" lon="-1.94399">
        <ele>695.5722</ele>
        <time>2021-07-19T19:12:48Z</time>
      </trkpt>
      <trkpt lat="38.96137" lon="-1.94267">
        <ele>692.3866</ele>
        <time>2021-07-19T19:12:59Z</time>
      </trkpt>
      <trkpt lat="38.96196" lon="-1.94168">
        <ele>693.7803</ele>
        <time>2021-07-19T19:13:10Z</time>
      </trkpt>
      <trkpt lat="38.96252" lon="-1.94032">
        <ele>702.0026</ele>
        <time>2021-07-19T19:13:21Z</time>
      </trkpt>
      <trkpt lat="38.96319" lon="-1.93886">
        <ele>697.7187</ele>
        <time>2021-07-19T19:13:32Z</time>
      </trkpt>
      <trkpt lat="38.96385" lon="-1.93727">
        <ele>699.4906</ele>
        <time>2021-07-19T19:13:43Z</time>
      </trkpt>
      <trkpt lat="38.96449" lon="-1.93559">
        <ele>701.7619</ele>
        <time>2021-07-19T19:13:54Z</time>
      </trkpt>
      <trkpt lat="38.96521" lon="-1.93388">
        <ele>699.3126</ele>
        <time>2021-07-19T19:14:05Z</time>
      </trkpt>
      <trkpt lat="38.96588" lon="-1.93229">
        <ele>702.2355</ele>
        <time>2021-07-19T19:14:16Z</time>
      </trkpt>
      <trkpt lat="38.96626" lon="-1.93094">
        <ele>694.9618</ele>
        <time>2021-07-19T19:14:27Z</time>
      </trkpt>
      <trkpt lat="38.96673" lon="-1.92974">
        <ele>697.1326</ele>
        <time>2021-07-19T19:14:38Z</time>
      </trkpt>
      <trkpt lat="38.96752" lon="-1.92822">
        <ele>693.7944</ele>
        <time>2021-07-19T19:14:49Z</time>
      </trkpt>
      <trkpt lat="38.96804" lon="-1.92561">
        <ele>688.2447</ele>
        <time>2021-07-19T19:15:00Z</time>
      </trkpt>
      <trkpt lat="38.96892" lon="-1.92335">
        <ele>685.8661</ele>
        <time>2021-07-19T19:15:11Z</time>
      </trkpt>
      <trkpt lat="38.96893" lon="-1.92255">
        <ele>684.7136</ele>
        <time>2021-07-19T19:15:22Z</time>
      </trkpt>
      <trkpt lat="38.96976" lon="-1.92264">
        <ele>685.1252</ele>
        <time>2021-07-19T19:15:33Z</time>
      </trkpt>
      <trkpt lat="38.96976" lon="-1.92275">
        <ele>686.2872</ele>
        <time>2021-07-19T19:15:44Z</time>
      </trkpt>
      <trkpt lat="38.96975" lon="-1.92275">
        <ele>686.0381</ele>
        <time>2021-07-19T19:16:42Z</time>
      </trkpt>
      <trkpt lat="38.96979" lon="-1.92275">
        <ele>685.282</ele>
        <time>2021-07-19T19:16:53Z</time>
      </trkpt>
      <trkpt lat="38.96981" lon="-1.92274">
        <ele>682.7139</ele>
        <time>2021-07-19T19:17:51Z</time>
      </trkpt>
      <trkpt lat="38.96981" lon="-1.92273">
        <ele>683.6206</ele>
        <time>2021-07-19T19:18:49Z</time>
      </trkpt>
      <trkpt lat="38.9698" lon="-1.92274">
        <ele>682.802</ele>
        <time>2021-07-19T19:19:49Z</time>
      </trkpt>
      <trkpt lat="38.96978" lon="-1.92273">
        <ele>684.6225</ele>
        <time>2021-07-19T19:20:48Z</time>
      </trkpt>
      <trkpt lat="38.96972" lon="-1.92276">
        <ele>685.4132</ele>
        <time>2021-07-19T19:20:59Z</time>
      </trkpt>
      <trkpt lat="38.96972" lon="-1.92275">
        <ele>685.7106</ele>
        <time>2021-07-19T19:21:58Z</time>
      </trkpt>
      <trkpt lat="38.96915" lon="-1.92306">
        <ele>687.1152</ele>
        <time>2021-07-19T19:22:09Z</time>
      </trkpt>
      <trkpt lat="38.96815" lon="-1.92548">
        <ele>687.0314</ele>
        <time>2021-07-19T19:22:20Z</time>
      </trkpt>
      <trkpt lat="38.96801" lon="-1.92737">
        <ele>687.3469</ele>
        <time>2021-07-19T19:22:31Z</time>
      </trkpt>
      <trkpt lat="38.96933" lon="-1.92705">
        <ele>685.9719</ele>
        <time>2021-07-19T19:22:42Z</time>
      </trkpt>
      <trkpt lat="38.97117" lon="-1.92536">
        <ele>688.076</ele>
        <time>2021-07-19T19:22:53Z</time>
      </trkpt>
      <trkpt lat="38.97326" lon="-1.92345">
        <ele>687.4899</ele>
        <time>2021-07-19T19:23:04Z</time>
      </trkpt>
      <trkpt lat="38.97537" lon="-1.92151">
        <ele>689.1509</ele>
        <time>2021-07-19T19:23:15Z</time>
      </trkpt>
      <trkpt lat="38.97747" lon="-1.9197">
        <ele>686.0614</ele>
        <time>2021-07-19T19:23:26Z</time>
      </trkpt>
      <trkpt lat="38.98003" lon="-1.91826">
        <ele>682.9362</ele>
        <time>2021-07-19T19:23:37Z</time>
      </trkpt>
      <trkpt lat="38.98287" lon="-1.91763">
        <ele>684.3247</ele>
        <time>2021-07-19T19:23:48Z</time>
      </trkpt>
      <trkpt lat="38.98577" lon="-1.91782">
        <ele>683.8795</ele>
        <time>2021-07-19T19:23:59Z</time>
      </trkpt>
      <trkpt lat="38.9887" lon="-1.91803">
        <ele>682.5549</ele>
        <time>2021-07-19T19:24:10Z</time>
      </trkpt>
      <trkpt lat="38.99161" lon="-1.91791">
        <ele>682.3768</ele>
        <time>2021-07-19T19:24:21Z</time>
      </trkpt>
      <trkpt lat="38.9944" lon="-1.91711">
        <ele>682.6616</ele>
        <time>2021-07-19T19:24:32Z</time>
      </trkpt>
      <trkpt lat="38.99682" lon="-1.9151">
        <ele>681.6137</ele>
        <time>2021-07-19T19:24:43Z</time>
      </trkpt>
      <trkpt lat="38.99852" lon="-1.91212">
        <ele>678.8468</ele>
        <time>2021-07-19T19:24:54Z</time>
      </trkpt>
      <trkpt lat="38.99967" lon="-1.9089">
        <ele>680.7338</ele>
        <time>2021-07-19T19:25:05Z</time>
      </trkpt>
      <trkpt lat="39.00075" lon="-1.9059">
        <ele>682.5621</ele>
        <time>2021-07-19T19:25:16Z</time>
      </trkpt>
      <trkpt lat="39.00192" lon="-1.90262">
        <ele>682.1278</ele>
        <time>2021-07-19T19:25:27Z</time>
      </trkpt>
      <trkpt lat="39.00306" lon="-1.89942">
        <ele>684.4825</ele>
        <time>2021-07-19T19:25:38Z</time>
      </trkpt>
      <trkpt lat="39.00416" lon="-1.89637">
        <ele>685.1147</ele>
        <time>2021-07-19T19:25:49Z</time>
      </trkpt>
      <trkpt lat="39.00521" lon="-1.89342">
        <ele>682.2742</ele>
        <time>2021-07-19T19:26:00Z</time>
      </trkpt>
      <trkpt lat="39.00631" lon="-1.89031">
        <ele>681.3772</ele>
        <time>2021-07-19T19:26:11Z</time>
      </trkpt>
      <trkpt lat="39.00744" lon="-1.88715">
        <ele>679.6698</ele>
        <time>2021-07-19T19:26:22Z</time>
      </trkpt>
      <trkpt lat="39.00859" lon="-1.88392">
        <ele>679.6158</ele>
        <time>2021-07-19T19:26:33Z</time>
      </trkpt>
      <trkpt lat="39.00975" lon="-1.88068">
        <ele>679.6027</ele>
        <time>2021-07-19T19:26:44Z</time>
      </trkpt>
      <trkpt lat="39.01073" lon="-1.8779">
        <ele>679.2226</ele>
        <time>2021-07-19T19:26:55Z</time>
      </trkpt>
      <trkpt lat="39.01145" lon="-1.87497">
        <ele>680.2224</ele>
        <time>2021-07-19T19:27:06Z</time>
      </trkpt>
      <trkpt lat="39.01178" lon="-1.87186">
        <ele>679.766</ele>
        <time>2021-07-19T19:27:17Z</time>
      </trkpt>
      <trkpt lat="39.01167" lon="-1.86873">
        <ele>678.5405</ele>
        <time>2021-07-19T19:27:28Z</time>
      </trkpt>
      <trkpt lat="39.01144" lon="-1.86547">
        <ele>677.8648</ele>
        <time>2021-07-19T19:27:39Z</time>
      </trkpt>
      <trkpt lat="39.01182" lon="-1.86226">
        <ele>681.6165</ele>
        <time>2021-07-19T19:27:50Z</time>
      </trkpt>
      <trkpt lat="39.01317" lon="-1.85962">
        <ele>685.2932</ele>
        <time>2021-07-19T19:28:01Z</time>
      </trkpt>
      <trkpt lat="39.01518" lon="-1.8576">
        <ele>682.687</ele>
        <time>2021-07-19T19:28:12Z</time>
      </trkpt>
      <trkpt lat="39.01766" lon="-1.85614">
        <ele>678.6112</ele>
        <time>2021-07-19T19:28:23Z</time>
      </trkpt>
      <trkpt lat="39.02002" lon="-1.85452">
        <ele>679.2037</ele>
        <time>2021-07-19T19:28:34Z</time>
      </trkpt>
      <trkpt lat="39.02243" lon="-1.85289">
        <ele>677.0917</ele>
        <time>2021-07-19T19:28:45Z</time>
      </trkpt>
      <trkpt lat="39.02483" lon="-1.85124">
        <ele>679.1379</ele>
        <time>2021-07-19T19:28:56Z</time>
      </trkpt>
      <trkpt lat="39.0272" lon="-1.84956">
        <ele>681.2997</ele>
        <time>2021-07-19T19:29:07Z</time>
      </trkpt>
      <trkpt lat="39.02951" lon="-1.84793">
        <ele>682.4412</ele>
        <time>2021-07-19T19:29:18Z</time>
      </trkpt>
      <trkpt lat="39.03182" lon="-1.84629">
        <ele>681.9849</ele>
        <time>2021-07-19T19:29:29Z</time>
      </trkpt>
      <trkpt lat="39.03409" lon="-1.84468">
        <ele>684.4823</ele>
        <time>2021-07-19T19:29:40Z</time>
      </trkpt>
      <trkpt lat="39.0364" lon="-1.84305">
        <ele>686.354</ele>
        <time>2021-07-19T19:29:51Z</time>
      </trkpt>
      <trkpt lat="39.03878" lon="-1.84136">
        <ele>684.7303</ele>
        <time>2021-07-19T19:30:02Z</time>
      </trkpt>
      <trkpt lat="39.04117" lon="-1.83967">
        <ele>683.8343</ele>
        <time>2021-07-19T19:30:13Z</time>
      </trkpt>
      <trkpt lat="39.04354" lon="-1.83799">
        <ele>683.7234</ele>
        <time>2021-07-19T19:30:24Z</time>
      </trkpt>
      <trkpt lat="39.0459" lon="-1.83633">
        <ele>684.9567</ele>
        <time>2021-07-19T19:30:35Z</time>
      </trkpt>
      <trkpt lat="39.04819" lon="-1.83471">
        <ele>684.515</ele>
        <time>2021-07-19T19:30:46Z</time>
      </trkpt>
      <trkpt lat="39.05053" lon="-1.83312">
        <ele>683.4556</ele>
        <time>2021-07-19T19:30:57Z</time>
      </trkpt>
      <trkpt lat="39.05292" lon="-1.83143">
        <ele>683.6137</ele>
        <time>2021-07-19T19:31:08Z</time>
      </trkpt>
      <trkpt lat="39.05531" lon="-1.82974">
        <ele>683.1481</ele>
        <time>2021-07-19T19:31:19Z</time>
      </trkpt>
      <trkpt lat="39.05775" lon="-1.82802">
        <ele>683.3018</ele>
        <time>2021-07-19T19:31:30Z</time>
      </trkpt>
      <trkpt lat="39.06018" lon="-1.8263">
        <ele>682.8036</ele>
        <time>2021-07-19T19:31:41Z</time>
      </trkpt>
      <trkpt lat="39.06259" lon="-1.82459">
        <ele>681.2086</ele>
        <time>2021-07-19T19:31:52Z</time>
      </trkpt>
      <trkpt lat="39.065" lon="-1.82288">
        <ele>680.0236</ele>
        <time>2021-07-19T19:32:03Z</time>
      </trkpt>
      <trkpt lat="39.06741" lon="-1.82117">
        <ele>678.6979</ele>
        <time>2021-07-19T19:32:14Z</time>
      </trkpt>
      <trkpt lat="39.06984" lon="-1.81946">
        <ele>678.4258</ele>
        <time>2021-07-19T19:32:25Z</time>
      </trkpt>
      <trkpt lat="39.07225" lon="-1.81775">
        <ele>681.8301</ele>
        <time>2021-07-19T19:32:36Z</time>
      </trkpt>
      <trkpt lat="39.07473" lon="-1.81599">
        <ele>684.6335</ele>
        <time>2021-07-19T19:32:47Z</time>
      </trkpt>
      <trkpt lat="39.07721" lon="-1.81423">
        <ele>682.8676</ele>
        <time>2021-07-19T19:32:58Z</time>
      </trkpt>
      <trkpt lat="39.07965" lon="-1.81249">
        <ele>683.3745</ele>
        <time>2021-07-19T19:33:09Z</time>
      </trkpt>
      <trkpt lat="39.08191" lon="-1.81089">
        <ele>685.7388</ele>
        <time>2021-07-19T19:33:20Z</time>
      </trkpt>
      <trkpt lat="39.08396" lon="-1.80943">
        <ele>686.0927</ele>
        <time>2021-07-19T19:33:31Z</time>
      </trkpt>
      <trkpt lat="39.08605" lon="-1.80796">
        <ele>688.8797</ele>
        <time>2021-07-19T19:33:42Z</time>
      </trkpt>
      <trkpt lat="39.08811" lon="-1.80649">
        <ele>687.5504</ele>
        <time>2021-07-19T19:33:53Z</time>
      </trkpt>
      <trkpt lat="39.09015" lon="-1.80505">
        <ele>685.0972</ele>
        <time>2021-07-19T19:34:04Z</time>
      </trkpt>
      <trkpt lat="39.09223" lon="-1.80357">
        <ele>688.1022</ele>
        <time>2021-07-19T19:34:15Z</time>
      </trkpt>
      <trkpt lat="39.09433" lon="-1.80208">
        <ele>689.1372</ele>
        <time>2021-07-19T19:34:26Z</time>
      </trkpt>
      <trkpt lat="39.09638" lon="-1.80063">
        <ele>691.5444</ele>
        <time>2021-07-19T19:34:37Z</time>
      </trkpt>
      <trkpt lat="39.09837" lon="-1.79922">
        <ele>689.7522</ele>
        <time>2021-07-19T19:34:48Z</time>
      </trkpt>
      <trkpt lat="39.10043" lon="-1.79776">
        <ele>685.2549</ele>
        <time>2021-07-19T19:34:59Z</time>
      </trkpt>
      <trkpt lat="39.10252" lon="-1.79629">
        <ele>680.6996</ele>
        <time>2021-07-19T19:35:10Z</time>
      </trkpt>
      <trkpt lat="39.10472" lon="-1.79473">
        <ele>681.2401</ele>
        <time>2021-07-19T19:35:21Z</time>
      </trkpt>
      <trkpt lat="39.10697" lon="-1.79315">
        <ele>677.7847</ele>
        <time>2021-07-19T19:35:32Z</time>
      </trkpt>
      <trkpt lat="39.1092" lon="-1.79157">
        <ele>676.5329</ele>
        <time>2021-07-19T19:35:43Z</time>
      </trkpt>
      <trkpt lat="39.11147" lon="-1.78996">
        <ele>676.9868</ele>
        <time>2021-07-19T19:35:54Z</time>
      </trkpt>
      <trkpt lat="39.11375" lon="-1.78833">
        <ele>675.006</ele>
        <time>2021-07-19T19:36:05Z</time>
      </trkpt>
      <trkpt lat="39.11604" lon="-1.78671">
        <ele>676.5162</ele>
        <time>2021-07-19T19:36:16Z</time>
      </trkpt>
      <trkpt lat="39.11832" lon="-1.78509">
        <ele>677.6808</ele>
        <time>2021-07-19T19:36:27Z</time>
      </trkpt>
      <trkpt lat="39.12058" lon="-1.7835">
        <ele>677.7799</ele>
        <time>2021-07-19T19:36:38Z</time>
      </trkpt>
      <trkpt lat="39.12287" lon="-1.78187">
        <ele>679.1717</ele>
        <time>2021-07-19T19:36:49Z</time>
      </trkpt>
      <trkpt lat="39.12526" lon="-1.78019">
        <ele>674.979</ele>
        <time>2021-07-19T19:37:00Z</time>
      </trkpt>
      <trkpt lat="39.12767" lon="-1.77848">
        <ele>670.0795</ele>
        <time>2021-07-19T19:37:11Z</time>
      </trkpt>
      <trkpt lat="39.13008" lon="-1.77678">
        <ele>669.7865</ele>
        <time>2021-07-19T19:37:22Z</time>
      </trkpt>
      <trkpt lat="39.13248" lon="-1.77508">
        <ele>668.1419</ele>
        <time>2021-07-19T19:37:33Z</time>
      </trkpt>
      <trkpt lat="39.13481" lon="-1.77339">
        <ele>669.1755</ele>
        <time>2021-07-19T19:37:44Z</time>
      </trkpt>
      <trkpt lat="39.13711" lon="-1.77175">
        <ele>672.7651</ele>
        <time>2021-07-19T19:37:55Z</time>
      </trkpt>
      <trkpt lat="39.13926" lon="-1.7697">
        <ele>664.5662</ele>
        <time>2021-07-19T19:38:06Z</time>
      </trkpt>
      <trkpt lat="39.14073" lon="-1.76706">
        <ele>648.9785</ele>
        <time>2021-07-19T19:38:17Z</time>
      </trkpt>
      <trkpt lat="39.14184" lon="-1.76479">
        <ele>637.092</ele>
        <time>2021-07-19T19:38:28Z</time>
      </trkpt>
      <trkpt lat="39.14292" lon="-1.76371">
        <ele>632.0201</ele>
        <time>2021-07-19T19:38:39Z</time>
      </trkpt>
      <trkpt lat="39.14357" lon="-1.76279">
        <ele>626.2598</ele>
        <time>2021-07-19T19:38:50Z</time>
      </trkpt>
      <trkpt lat="39.14312" lon="-1.76148">
        <ele>620.1633</ele>
        <time>2021-07-19T19:39:01Z</time>
      </trkpt>
      <trkpt lat="39.14274" lon="-1.7601">
        <ele>616.0886</ele>
        <time>2021-07-19T19:39:12Z</time>
      </trkpt>
      <trkpt lat="39.14266" lon="-1.75978">
        <ele>617.6562</ele>
        <time>2021-07-19T19:39:23Z</time>
      </trkpt>
      <trkpt lat="39.14227" lon="-1.75861">
        <ele>614.6288</ele>
        <time>2021-07-19T19:39:34Z</time>
      </trkpt>
      <trkpt lat="39.14168" lon="-1.75749">
        <ele>613.0646</ele>
        <time>2021-07-19T19:39:45Z</time>
      </trkpt>
      <trkpt lat="39.14118" lon="-1.75668">
        <ele>610.1874</ele>
        <time>2021-07-19T19:39:56Z</time>
      </trkpt>
      <trkpt lat="39.1406" lon="-1.75556">
        <ele>610.2773</ele>
        <time>2021-07-19T19:40:07Z</time>
      </trkpt>
      <trkpt lat="39.13994" lon="-1.75426">
        <ele>611.1002</ele>
        <time>2021-07-19T19:40:18Z</time>
      </trkpt>
      <trkpt lat="39.13908" lon="-1.75271">
        <ele>609.4318</ele>
        <time>2021-07-19T19:40:29Z</time>
      </trkpt>
      <trkpt lat="39.13843" lon="-1.75147">
        <ele>608.641</ele>
        <time>2021-07-19T19:40:40Z</time>
      </trkpt>
      <trkpt lat="39.13761" lon="-1.75042">
        <ele>611.253</ele>
        <time>2021-07-19T19:40:51Z</time>
      </trkpt>
      <trkpt lat="39.13736" lon="-1.75015">
        <ele>612.0084</ele>
        <time>2021-07-19T19:41:02Z</time>
      </trkpt>
      <trkpt lat="39.13676" lon="-1.74903">
        <ele>613.3309</ele>
        <time>2021-07-19T19:41:13Z</time>
      </trkpt>
      <trkpt lat="39.13663" lon="-1.74865">
        <ele>613.2944</ele>
        <time>2021-07-19T19:41:24Z</time>
      </trkpt>
      <trkpt lat="39.13671" lon="-1.74886">
        <ele>610.3589</ele>
        <time>2021-07-19T19:41:35Z</time>
      </trkpt>
      <trkpt lat="39.13723" lon="-1.74916">
        <ele>612.2459</ele>
        <time>2021-07-19T19:41:46Z</time>
      </trkpt>
      <trkpt lat="39.1375" lon="-1.74943">
        <ele>616.6891</ele>
        <time>2021-07-19T19:41:57Z</time>
      </trkpt>
      <trkpt lat="39.13715" lon="-1.74908">
        <ele>615.8679</ele>
        <time>2021-07-19T19:42:08Z</time>
      </trkpt>
      <trkpt lat="39.13692" lon="-1.74863">
        <ele>611.9746</ele>
        <time>2021-07-19T19:42:19Z</time>
      </trkpt>
      <trkpt lat="39.13686" lon="-1.74851">
        <ele>615.4132</ele>
        <time>2021-07-19T19:42:30Z</time>
      </trkpt>
      <trkpt lat="39.13731" lon="-1.74999">
        <ele>615.3574</ele>
        <time>2021-07-19T19:42:41Z</time>
      </trkpt>
      <trkpt lat="39.13855" lon="-1.75155">
        <ele>613.1836</ele>
        <time>2021-07-19T19:42:52Z</time>
      </trkpt>
      <trkpt lat="39.13911" lon="-1.75258">
        <ele>609.7479</ele>
        <time>2021-07-19T19:43:03Z</time>
      </trkpt>
      <trkpt lat="39.13909" lon="-1.75257">
        <ele>615.0958</ele>
        <time>2021-07-19T19:44:02Z</time>
      </trkpt>
      <trkpt lat="39.13911" lon="-1.75261">
        <ele>616.0831</ele>
        <time>2021-07-19T19:44:31Z</time>
      </trkpt>
      <trkpt lat="39.13871" lon="-1.75189">
        <ele>615.2427</ele>
        <time>2021-07-19T19:44:42Z</time>
      </trkpt>
      <trkpt lat="39.13791" lon="-1.75074">
        <ele>614.3679</ele>
        <time>2021-07-19T19:44:53Z</time>
      </trkpt>
      <trkpt lat="39.13724" lon="-1.74999">
        <ele>615.0994</ele>
        <time>2021-07-19T19:45:04Z</time>
      </trkpt>
      <trkpt lat="39.13676" lon="-1.74907">
        <ele>611.7714</ele>
        <time>2021-07-19T19:45:15Z</time>
      </trkpt>
      <trkpt lat="39.13649" lon="-1.74798">
        <ele>610.6957</ele>
        <time>2021-07-19T19:45:26Z</time>
      </trkpt>
      <trkpt lat="39.13636" lon="-1.74693">
        <ele>611.0593</ele>
        <time>2021-07-19T19:45:37Z</time>
      </trkpt>
      <trkpt lat="39.13666" lon="-1.74581">
        <ele>612.486</ele>
        <time>2021-07-19T19:45:48Z</time>
      </trkpt>
      <trkpt lat="39.13697" lon="-1.74477">
        <ele>619.3277</ele>
        <time>2021-07-19T19:45:59Z</time>
      </trkpt>
      <trkpt lat="39.13757" lon="-1.74415">
        <ele>608.1825</ele>
        <time>2021-07-19T19:46:10Z</time>
      </trkpt>
      <trkpt lat="39.13816" lon="-1.74373">
        <ele>608.7313</ele>
        <time>2021-07-19T19:46:21Z</time>
      </trkpt>
      <trkpt lat="39.13833" lon="-1.74374">
        <ele>608.7561</ele>
        <time>2021-07-19T19:46:32Z</time>
      </trkpt>
      <trkpt lat="39.13846" lon="-1.74376">
        <ele>607.6026</ele>
        <time>2021-07-19T19:46:43Z</time>
      </trkpt>
      <trkpt lat="39.13799" lon="-1.74406">
        <ele>607.0535</ele>
        <time>2021-07-19T19:46:54Z</time>
      </trkpt>
      <trkpt lat="39.13757" lon="-1.74454">
        <ele>605.8367</ele>
        <time>2021-07-19T19:47:05Z</time>
      </trkpt>
      <trkpt lat="39.13749" lon="-1.74464">
        <ele>613.9174</ele>
        <time>2021-07-19T19:47:16Z</time>
      </trkpt>
      <trkpt lat="39.13752" lon="-1.74461">
        <ele>623.5323</ele>
        <time>2021-07-19T19:47:32Z</time>
      </trkpt>
      <trkpt lat="39.13791" lon="-1.74412">
        <ele>620.7891</ele>
        <time>2021-07-19T19:47:43Z</time>
      </trkpt>
      <trkpt lat="39.13841" lon="-1.74386">
        <ele>612.3879</ele>
        <time>2021-07-19T19:47:54Z</time>
      </trkpt>
      <trkpt lat="39.13877" lon="-1.74379">
        <ele>609.9119</ele>
        <time>2021-07-19T19:48:05Z</time>
      </trkpt>
      <trkpt lat="39.13926" lon="-1.74395">
        <ele>606.2986</ele>
        <time>2021-07-19T19:48:16Z</time>
      </trkpt>
      <trkpt lat="39.13937" lon="-1.74392">
        <ele>608.5994</ele>
        <time>2021-07-19T19:48:27Z</time>
      </trkpt>
      <trkpt lat="39.13939" lon="-1.74397">
        <ele>609.0896</ele>
        <time>2021-07-19T19:48:38Z</time>
      </trkpt>
      <trkpt lat="39.13933" lon="-1.74392">
        <ele>607.3662</ele>
        <time>2021-07-19T19:49:30Z</time>
      </trkpt>
      <trkpt lat="39.13851" lon="-1.74377">
        <ele>608.2402</ele>
        <time>2021-07-19T19:49:41Z</time>
      </trkpt>
      <trkpt lat="39.13792" lon="-1.74394">
        <ele>609.0799</ele>
        <time>2021-07-19T19:49:52Z</time>
      </trkpt>
      <trkpt lat="39.13717" lon="-1.74457">
        <ele>611.1786</ele>
        <time>2021-07-19T19:50:03Z</time>
      </trkpt>
      <trkpt lat="39.13752" lon="-1.74368">
        <ele>617.464</ele>
        <time>2021-07-19T19:50:14Z</time>
      </trkpt>
      <trkpt lat="39.13761" lon="-1.7423">
        <ele>626.0859</ele>
        <time>2021-07-19T19:50:25Z</time>
      </trkpt>
      <trkpt lat="39.1374" lon="-1.74132">
        <ele>634.4189</ele>
        <time>2021-07-19T19:50:36Z</time>
      </trkpt>
      <trkpt lat="39.13726" lon="-1.74083">
        <ele>631.9297</ele>
        <time>2021-07-19T19:50:47Z</time>
      </trkpt>
      <trkpt lat="39.13695" lon="-1.73959">
        <ele>637.0141</ele>
        <time>2021-07-19T19:50:58Z</time>
      </trkpt>
      <trkpt lat="39.13669" lon="-1.73831">
        <ele>640.5703</ele>
        <time>2021-07-19T19:51:09Z</time>
      </trkpt>
      <trkpt lat="39.13698" lon="-1.73818">
        <ele>640.0942</ele>
        <time>2021-07-19T19:51:20Z</time>
      </trkpt>
      <trkpt lat="39.13747" lon="-1.73802">
        <ele>637.2523</ele>
        <time>2021-07-19T19:51:31Z</time>
      </trkpt>
      <trkpt lat="39.13806" lon="-1.73812">
        <ele>635.1209</ele>
        <time>2021-07-19T19:51:42Z</time>
      </trkpt>
      <trkpt lat="39.13857" lon="-1.73834">
        <ele>626.6268</ele>
        <time>2021-07-19T19:51:53Z</time>
      </trkpt>
      <trkpt lat="39.13905" lon="-1.73877">
        <ele>632.3786</ele>
        <time>2021-07-19T19:52:04Z</time>
      </trkpt>
      <trkpt lat="39.13952" lon="-1.73828">
        <ele>628.2028</ele>
        <time>2021-07-19T19:52:15Z</time>
      </trkpt>
      <trkpt lat="39.14005" lon="-1.73768">
        <ele>627.434</ele>
        <time>2021-07-19T19:52:26Z</time>
      </trkpt>
      <trkpt lat="39.14051" lon="-1.73721">
        <ele>625.8106</ele>
        <time>2021-07-19T19:52:37Z</time>
      </trkpt>
      <trkpt lat="39.14089" lon="-1.73693">
        <ele>625.9286</ele>
        <time>2021-07-19T19:52:48Z</time>
      </trkpt>
      <trkpt lat="39.14138" lon="-1.73645">
        <ele>625.7242</ele>
        <time>2021-07-19T19:52:59Z</time>
      </trkpt>
      <trkpt lat="39.14167" lon="-1.73616">
        <ele>624.5477</ele>
        <time>2021-07-19T19:53:10Z</time>
      </trkpt>
      <trkpt lat="39.1421" lon="-1.73569">
        <ele>624.6853</ele>
        <time>2021-07-19T19:53:21Z</time>
      </trkpt>
      <trkpt lat="39.14192" lon="-1.73591">
        <ele>623.2652</ele>
        <time>2021-07-19T19:53:32Z</time>
      </trkpt>
      <trkpt lat="39.1411" lon="-1.73677">
        <ele>624.4544</ele>
        <time>2021-07-19T19:53:43Z</time>
      </trkpt>
      <trkpt lat="39.14105" lon="-1.73732">
        <ele>625.2875</ele>
        <time>2021-07-19T19:53:54Z</time>
      </trkpt>
      <trkpt lat="39.14111" lon="-1.7375">
        <ele>624.9279</ele>
        <time>2021-07-19T19:54:05Z</time>
      </trkpt>
      <trkpt lat="39.14113" lon="-1.73759">
        <ele>624.5135</ele>
        <time>2021-07-19T19:54:31Z</time>
      </trkpt>
      <trkpt lat="39.14187" lon="-1.73866">
        <ele>625.4032</ele>
        <time>2021-07-19T19:54:42Z</time>
      </trkpt>
      <trkpt lat="39.14228" lon="-1.73919">
        <ele>623.3493</ele>
        <time>2021-07-19T19:54:53Z</time>
      </trkpt>
      <trkpt lat="39.14258" lon="-1.73903">
        <ele>623.258</ele>
        <time>2021-07-19T19:55:04Z</time>
      </trkpt>
      <trkpt lat="39.14285" lon="-1.7387">
        <ele>624.7513</ele>
        <time>2021-07-19T19:55:15Z</time>
      </trkpt>
      <trkpt lat="39.14315" lon="-1.73846">
        <ele>624.2531</ele>
        <time>2021-07-19T19:55:26Z</time>
      </trkpt>
      <trkpt lat="39.14341" lon="-1.7384">
        <ele>623.4544</ele>
        <time>2021-07-19T19:55:37Z</time>
      </trkpt>
      <trkpt lat="39.14373" lon="-1.73841">
        <ele>624.7795</ele>
        <time>2021-07-19T19:55:48Z</time>
      </trkpt>
      <trkpt lat="39.14372" lon="-1.73833">
        <ele>622.9325</ele>
        <time>2021-07-19T19:55:59Z</time>
      </trkpt>
      <trkpt lat="39.14344" lon="-1.73841">
        <ele>623.2378</ele>
        <time>2021-07-19T19:56:10Z</time>
      </trkpt>
      <trkpt lat="39.1434" lon="-1.73842">
        <ele>624.3714</ele>
        <time>2021-07-19T19:56:24Z</time>
      </trkpt>
      <trkpt lat="39.14336" lon="-1.73843">
        <ele>624.1847</ele>
        <time>2021-07-19T19:57:23Z</time>
      </trkpt>
    </trkseg>
  </trk>
</gpx>